<?xml version="1.0" encoding="UTF-8" standalone="no" ?>
<gpx xmlns="http://www.topografix.com/GPX/1/1" xmlns:xsi="http://www.w3.org/2001/XMLSchema-instance" xsi:schemaLocation="http://www.topografix.com/GPX/1/1 http://www.topografix.com/GPX/1/1/gpx.xsd" version="1.1" creator="VisuGPX - https://www.visugpx.com">
  <metadata>
    <name>sortie 25 juillet 2013 enduro sermaise etampe</name>
    <desc><![CDATA[sortie enduro depart sermaise en direction d\'etampe,
bonne ballade, a faire]]></desc>
  </metadata>
  <trk>
    <name><![CDATA[Track2013/07/25_18:35]]></name>
    <trkseg>
      <trkpt lat="48.53151" lon="2.06962">
        <ele>123.084199</ele>
        <time>2013-07-25T16:35:41Z</time>
      </trkpt>
      <trkpt lat="48.53151" lon="2.06964">
        <ele>120.285922</ele>
        <time>2013-07-25T16:35:46Z</time>
      </trkpt>
      <trkpt lat="48.53151" lon="2.06967">
        <ele>116.100464</ele>
        <time>2013-07-25T16:35:51Z</time>
      </trkpt>
      <trkpt lat="48.53157" lon="2.06989">
        <ele>99.900159</ele>
        <time>2013-07-25T16:35:56Z</time>
      </trkpt>
      <trkpt lat="48.53156" lon="2.06989">
        <ele>100.561934</ele>
        <time>2013-07-25T16:36:01Z</time>
      </trkpt>
      <trkpt lat="48.53153" lon="2.06984">
        <ele>100.952949</ele>
        <time>2013-07-25T16:36:06Z</time>
      </trkpt>
      <trkpt lat="48.53151" lon="2.06981">
        <ele>100.730026</ele>
        <time>2013-07-25T16:36:11Z</time>
      </trkpt>
      <trkpt lat="48.53152" lon="2.06981">
        <ele>100.06825</ele>
        <time>2013-07-25T16:36:16Z</time>
      </trkpt>
      <trkpt lat="48.53152" lon="2.06981">
        <ele>100.06825</ele>
        <time>2013-07-25T16:36:21Z</time>
      </trkpt>
      <trkpt lat="48.53145" lon="2.06971">
        <ele>100.874214</ele>
        <time>2013-07-25T16:36:26Z</time>
      </trkpt>
      <trkpt lat="48.5314" lon="2.06959">
        <ele>102.381683</ele>
        <time>2013-07-25T16:36:31Z</time>
      </trkpt>
      <trkpt lat="48.53141" lon="2.0696">
        <ele>102.493139</ele>
        <time>2013-07-25T16:36:36Z</time>
      </trkpt>
      <trkpt lat="48.53141" lon="2.0696">
        <ele>102.493139</ele>
        <time>2013-07-25T16:36:41Z</time>
      </trkpt>
      <trkpt lat="48.53141" lon="2.0696">
        <ele>102.493139</ele>
        <time>2013-07-25T16:36:46Z</time>
      </trkpt>
      <trkpt lat="48.53142" lon="2.06956">
        <ele>103.920034</ele>
        <time>2013-07-25T16:36:51Z</time>
      </trkpt>
      <trkpt lat="48.53147" lon="2.06947">
        <ele>104.102807</ele>
        <time>2013-07-25T16:36:56Z</time>
      </trkpt>
      <trkpt lat="48.53149" lon="2.06945">
        <ele>104.166437</ele>
        <time>2013-07-25T16:37:01Z</time>
      </trkpt>
      <trkpt lat="48.5315" lon="2.0693">
        <ele>104.652724</ele>
        <time>2013-07-25T16:37:06Z</time>
      </trkpt>
      <trkpt lat="48.53155" lon="2.0691">
        <ele>104.64425</ele>
        <time>2013-07-25T16:37:11Z</time>
      </trkpt>
      <trkpt lat="48.53154" lon="2.06909">
        <ele>105.282117</ele>
        <time>2013-07-25T16:37:16Z</time>
      </trkpt>
      <trkpt lat="48.53154" lon="2.06909">
        <ele>105.282117</ele>
        <time>2013-07-25T16:37:21Z</time>
      </trkpt>
      <trkpt lat="48.53154" lon="2.06909">
        <ele>105.282117</ele>
        <time>2013-07-25T16:37:26Z</time>
      </trkpt>
      <trkpt lat="48.53154" lon="2.06909">
        <ele>105.282117</ele>
        <time>2013-07-25T16:37:31Z</time>
      </trkpt>
      <trkpt lat="48.53154" lon="2.06909">
        <ele>105.282117</ele>
        <time>2013-07-25T16:37:36Z</time>
      </trkpt>
      <trkpt lat="48.53155" lon="2.06909">
        <ele>106.031437</ele>
        <time>2013-07-25T16:37:41Z</time>
      </trkpt>
      <trkpt lat="48.53175" lon="2.06902">
        <ele>106.53942</ele>
        <time>2013-07-25T16:37:46Z</time>
      </trkpt>
      <trkpt lat="48.53188" lon="2.0692">
        <ele>102.830686</ele>
        <time>2013-07-25T16:37:51Z</time>
      </trkpt>
      <trkpt lat="48.53199" lon="2.06941">
        <ele>98.994728</ele>
        <time>2013-07-25T16:37:56Z</time>
      </trkpt>
      <trkpt lat="48.53218" lon="2.06973">
        <ele>95.213738</ele>
        <time>2013-07-25T16:38:01Z</time>
      </trkpt>
      <trkpt lat="48.53242" lon="2.0701">
        <ele>92.628177</ele>
        <time>2013-07-25T16:38:06Z</time>
      </trkpt>
      <trkpt lat="48.53269" lon="2.07051">
        <ele>90.265847</ele>
        <time>2013-07-25T16:38:11Z</time>
      </trkpt>
      <trkpt lat="48.53283" lon="2.07079">
        <ele>88.223749</ele>
        <time>2013-07-25T16:38:16Z</time>
      </trkpt>
      <trkpt lat="48.53296" lon="2.07106">
        <ele>86.094176</ele>
        <time>2013-07-25T16:38:21Z</time>
      </trkpt>
      <trkpt lat="48.53308" lon="2.07133">
        <ele>85.264278</ele>
        <time>2013-07-25T16:38:26Z</time>
      </trkpt>
      <trkpt lat="48.53322" lon="2.07162">
        <ele>84.657511</ele>
        <time>2013-07-25T16:38:31Z</time>
      </trkpt>
      <trkpt lat="48.53329" lon="2.07178">
        <ele>84.720954</ele>
        <time>2013-07-25T16:38:36Z</time>
      </trkpt>
      <trkpt lat="48.5333" lon="2.07182">
        <ele>83.469268</ele>
        <time>2013-07-25T16:38:41Z</time>
      </trkpt>
      <trkpt lat="48.53334" lon="2.07196">
        <ele>83.971439</ele>
        <time>2013-07-25T16:38:46Z</time>
      </trkpt>
      <trkpt lat="48.53334" lon="2.07196">
        <ele>83.971439</ele>
        <time>2013-07-25T16:38:51Z</time>
      </trkpt>
      <trkpt lat="48.53333" lon="2.07197">
        <ele>84.657131</ele>
        <time>2013-07-25T16:38:56Z</time>
      </trkpt>
      <trkpt lat="48.53328" lon="2.0722">
        <ele>85.463138</ele>
        <time>2013-07-25T16:39:01Z</time>
      </trkpt>
      <trkpt lat="48.53316" lon="2.07252">
        <ele>86.660643</ele>
        <time>2013-07-25T16:39:06Z</time>
      </trkpt>
      <trkpt lat="48.53295" lon="2.07211">
        <ele>88.686652</ele>
        <time>2013-07-25T16:39:11Z</time>
      </trkpt>
      <trkpt lat="48.53284" lon="2.07182">
        <ele>90.217861</ele>
        <time>2013-07-25T16:39:16Z</time>
      </trkpt>
      <trkpt lat="48.5328" lon="2.0719">
        <ele>90.848106</ele>
        <time>2013-07-25T16:39:21Z</time>
      </trkpt>
      <trkpt lat="48.5328" lon="2.0719">
        <ele>90.848106</ele>
        <time>2013-07-25T16:39:26Z</time>
      </trkpt>
      <trkpt lat="48.53282" lon="2.0719">
        <ele>90.935683</ele>
        <time>2013-07-25T16:39:31Z</time>
      </trkpt>
      <trkpt lat="48.53282" lon="2.0719">
        <ele>90.273925</ele>
        <time>2013-07-25T16:39:36Z</time>
      </trkpt>
      <trkpt lat="48.5328" lon="2.07195">
        <ele>90.943869</ele>
        <time>2013-07-25T16:39:41Z</time>
      </trkpt>
      <trkpt lat="48.53277" lon="2.07196">
        <ele>91.454416</ele>
        <time>2013-07-25T16:39:46Z</time>
      </trkpt>
      <trkpt lat="48.53275" lon="2.072">
        <ele>92.100424</ele>
        <time>2013-07-25T16:39:51Z</time>
      </trkpt>
      <trkpt lat="48.53274" lon="2.07201">
        <ele>92.786125</ele>
        <time>2013-07-25T16:39:56Z</time>
      </trkpt>
      <trkpt lat="48.53274" lon="2.07201">
        <ele>92.786125</ele>
        <time>2013-07-25T16:40:01Z</time>
      </trkpt>
      <trkpt lat="48.53274" lon="2.07201">
        <ele>92.786125</ele>
        <time>2013-07-25T16:40:06Z</time>
      </trkpt>
      <trkpt lat="48.53275" lon="2.07201">
        <ele>93.535459</ele>
        <time>2013-07-25T16:40:11Z</time>
      </trkpt>
      <trkpt lat="48.53276" lon="2.07202">
        <ele>93.623034</ele>
        <time>2013-07-25T16:40:16Z</time>
      </trkpt>
      <trkpt lat="48.53277" lon="2.07202">
        <ele>94.372369</ele>
        <time>2013-07-25T16:40:21Z</time>
      </trkpt>
      <trkpt lat="48.53276" lon="2.07203">
        <ele>93.646976</ele>
        <time>2013-07-25T16:40:26Z</time>
      </trkpt>
      <trkpt lat="48.53276" lon="2.07203">
        <ele>93.646976</ele>
        <time>2013-07-25T16:40:31Z</time>
      </trkpt>
      <trkpt lat="48.53276" lon="2.07203">
        <ele>93.646976</ele>
        <time>2013-07-25T16:40:36Z</time>
      </trkpt>
      <trkpt lat="48.53276" lon="2.07203">
        <ele>93.646976</ele>
        <time>2013-07-25T16:40:41Z</time>
      </trkpt>
      <trkpt lat="48.53276" lon="2.07203">
        <ele>94.308735</ele>
        <time>2013-07-25T16:40:46Z</time>
      </trkpt>
      <trkpt lat="48.53275" lon="2.07204">
        <ele>93.583343</ele>
        <time>2013-07-25T16:40:51Z</time>
      </trkpt>
      <trkpt lat="48.53274" lon="2.07204">
        <ele>93.495768</ele>
        <time>2013-07-25T16:40:56Z</time>
      </trkpt>
      <trkpt lat="48.53273" lon="2.07204">
        <ele>94.157527</ele>
        <time>2013-07-25T16:41:01Z</time>
      </trkpt>
      <trkpt lat="48.53273" lon="2.07204">
        <ele>94.157527</ele>
        <time>2013-07-25T16:41:06Z</time>
      </trkpt>
      <trkpt lat="48.53273" lon="2.07204">
        <ele>94.157527</ele>
        <time>2013-07-25T16:41:11Z</time>
      </trkpt>
      <trkpt lat="48.53272" lon="2.07204">
        <ele>94.069952</ele>
        <time>2013-07-25T16:41:16Z</time>
      </trkpt>
      <trkpt lat="48.53272" lon="2.07204">
        <ele>94.069952</ele>
        <time>2013-07-25T16:41:21Z</time>
      </trkpt>
      <trkpt lat="48.53272" lon="2.07204">
        <ele>94.069952</ele>
        <time>2013-07-25T16:41:26Z</time>
      </trkpt>
      <trkpt lat="48.53272" lon="2.07204">
        <ele>94.069952</ele>
        <time>2013-07-25T16:41:31Z</time>
      </trkpt>
      <trkpt lat="48.53272" lon="2.07204">
        <ele>94.069952</ele>
        <time>2013-07-25T16:41:36Z</time>
      </trkpt>
      <trkpt lat="48.53272" lon="2.07204">
        <ele>94.069952</ele>
        <time>2013-07-25T16:41:41Z</time>
      </trkpt>
      <trkpt lat="48.53271" lon="2.07204">
        <ele>93.320618</ele>
        <time>2013-07-25T16:41:46Z</time>
      </trkpt>
      <trkpt lat="48.53271" lon="2.07204">
        <ele>93.320618</ele>
        <time>2013-07-25T16:41:51Z</time>
      </trkpt>
      <trkpt lat="48.5327" lon="2.07204">
        <ele>93.982378</ele>
        <time>2013-07-25T16:41:56Z</time>
      </trkpt>
      <trkpt lat="48.5327" lon="2.07204">
        <ele>93.982378</ele>
        <time>2013-07-25T16:42:01Z</time>
      </trkpt>
      <trkpt lat="48.5327" lon="2.07204">
        <ele>93.982378</ele>
        <time>2013-07-25T16:42:06Z</time>
      </trkpt>
      <trkpt lat="48.5327" lon="2.07204">
        <ele>93.982378</ele>
        <time>2013-07-25T16:42:11Z</time>
      </trkpt>
      <trkpt lat="48.53269" lon="2.07204">
        <ele>93.894803</ele>
        <time>2013-07-25T16:42:16Z</time>
      </trkpt>
      <trkpt lat="48.53268" lon="2.07204">
        <ele>94.556563</ele>
        <time>2013-07-25T16:42:21Z</time>
      </trkpt>
      <trkpt lat="48.53269" lon="2.07204">
        <ele>93.894803</ele>
        <time>2013-07-25T16:42:26Z</time>
      </trkpt>
      <trkpt lat="48.53269" lon="2.07204">
        <ele>93.894803</ele>
        <time>2013-07-25T16:42:31Z</time>
      </trkpt>
      <trkpt lat="48.53269" lon="2.07204">
        <ele>93.894803</ele>
        <time>2013-07-25T16:42:36Z</time>
      </trkpt>
      <trkpt lat="48.53269" lon="2.07204">
        <ele>93.894803</ele>
        <time>2013-07-25T16:42:41Z</time>
      </trkpt>
      <trkpt lat="48.53269" lon="2.07204">
        <ele>93.894803</ele>
        <time>2013-07-25T16:42:46Z</time>
      </trkpt>
      <trkpt lat="48.53269" lon="2.07204">
        <ele>93.894803</ele>
        <time>2013-07-25T16:42:51Z</time>
      </trkpt>
      <trkpt lat="48.53268" lon="2.07204">
        <ele>94.556563</ele>
        <time>2013-07-25T16:42:56Z</time>
      </trkpt>
      <trkpt lat="48.53268" lon="2.07204">
        <ele>94.556563</ele>
        <time>2013-07-25T16:43:01Z</time>
      </trkpt>
      <trkpt lat="48.53267" lon="2.07204">
        <ele>94.468989</ele>
        <time>2013-07-25T16:43:06Z</time>
      </trkpt>
      <trkpt lat="48.53267" lon="2.07202">
        <ele>94.445047</ele>
        <time>2013-07-25T16:43:11Z</time>
      </trkpt>
      <trkpt lat="48.53268" lon="2.07202">
        <ele>95.194381</ele>
        <time>2013-07-25T16:43:16Z</time>
      </trkpt>
      <trkpt lat="48.53269" lon="2.07201">
        <ele>94.508679</ele>
        <time>2013-07-25T16:43:21Z</time>
      </trkpt>
      <trkpt lat="48.53269" lon="2.07201">
        <ele>95.258013</ele>
        <time>2013-07-25T16:43:26Z</time>
      </trkpt>
      <trkpt lat="48.53268" lon="2.07201">
        <ele>95.919772</ele>
        <time>2013-07-25T16:43:31Z</time>
      </trkpt>
      <trkpt lat="48.53268" lon="2.07201">
        <ele>95.919772</ele>
        <time>2013-07-25T16:43:37Z</time>
      </trkpt>
      <trkpt lat="48.53268" lon="2.07201">
        <ele>95.919772</ele>
        <time>2013-07-25T16:43:42Z</time>
      </trkpt>
      <trkpt lat="48.53268" lon="2.07201">
        <ele>95.919772</ele>
        <time>2013-07-25T16:43:47Z</time>
      </trkpt>
      <trkpt lat="48.53268" lon="2.07201">
        <ele>95.919772</ele>
        <time>2013-07-25T16:43:52Z</time>
      </trkpt>
      <trkpt lat="48.53268" lon="2.07201">
        <ele>95.919772</ele>
        <time>2013-07-25T16:43:57Z</time>
      </trkpt>
      <trkpt lat="48.5327" lon="2.07203">
        <ele>96.031288</ele>
        <time>2013-07-25T16:44:02Z</time>
      </trkpt>
      <trkpt lat="48.5327" lon="2.07203">
        <ele>95.369529</ele>
        <time>2013-07-25T16:44:07Z</time>
      </trkpt>
      <trkpt lat="48.5327" lon="2.07203">
        <ele>95.369529</ele>
        <time>2013-07-25T16:44:12Z</time>
      </trkpt>
      <trkpt lat="48.53271" lon="2.07203">
        <ele>94.707769</ele>
        <time>2013-07-25T16:44:17Z</time>
      </trkpt>
      <trkpt lat="48.53272" lon="2.07204">
        <ele>95.481045</ele>
        <time>2013-07-25T16:44:22Z</time>
      </trkpt>
      <trkpt lat="48.53272" lon="2.07204">
        <ele>95.481045</ele>
        <time>2013-07-25T16:44:27Z</time>
      </trkpt>
      <trkpt lat="48.53272" lon="2.07204">
        <ele>95.481045</ele>
        <time>2013-07-25T16:44:32Z</time>
      </trkpt>
      <trkpt lat="48.53271" lon="2.07205">
        <ele>96.166747</ele>
        <time>2013-07-25T16:44:37Z</time>
      </trkpt>
      <trkpt lat="48.53272" lon="2.07204">
        <ele>96.892139</ele>
        <time>2013-07-25T16:44:42Z</time>
      </trkpt>
      <trkpt lat="48.53272" lon="2.07204">
        <ele>96.892139</ele>
        <time>2013-07-25T16:44:47Z</time>
      </trkpt>
      <trkpt lat="48.53272" lon="2.07204">
        <ele>96.892139</ele>
        <time>2013-07-25T16:44:52Z</time>
      </trkpt>
      <trkpt lat="48.53272" lon="2.07204">
        <ele>96.892139</ele>
        <time>2013-07-25T16:44:57Z</time>
      </trkpt>
      <trkpt lat="48.53272" lon="2.07204">
        <ele>96.892139</ele>
        <time>2013-07-25T16:45:02Z</time>
      </trkpt>
      <trkpt lat="48.53272" lon="2.07204">
        <ele>96.892139</ele>
        <time>2013-07-25T16:45:07Z</time>
      </trkpt>
      <trkpt lat="48.53272" lon="2.07204">
        <ele>96.892139</ele>
        <time>2013-07-25T16:45:12Z</time>
      </trkpt>
      <trkpt lat="48.53272" lon="2.07204">
        <ele>96.892139</ele>
        <time>2013-07-25T16:45:17Z</time>
      </trkpt>
      <trkpt lat="48.53272" lon="2.07204">
        <ele>96.892139</ele>
        <time>2013-07-25T16:45:22Z</time>
      </trkpt>
      <trkpt lat="48.53272" lon="2.07204">
        <ele>96.892139</ele>
        <time>2013-07-25T16:45:27Z</time>
      </trkpt>
      <trkpt lat="48.53272" lon="2.07204">
        <ele>96.892139</ele>
        <time>2013-07-25T16:45:32Z</time>
      </trkpt>
      <trkpt lat="48.53271" lon="2.07204">
        <ele>96.142805</ele>
        <time>2013-07-25T16:45:37Z</time>
      </trkpt>
      <trkpt lat="48.53272" lon="2.07204">
        <ele>96.892139</ele>
        <time>2013-07-25T16:45:42Z</time>
      </trkpt>
      <trkpt lat="48.53272" lon="2.07204">
        <ele>96.892139</ele>
        <time>2013-07-25T16:45:47Z</time>
      </trkpt>
      <trkpt lat="48.53272" lon="2.07204">
        <ele>96.892139</ele>
        <time>2013-07-25T16:45:52Z</time>
      </trkpt>
      <trkpt lat="48.53272" lon="2.07204">
        <ele>96.230379</ele>
        <time>2013-07-25T16:45:57Z</time>
      </trkpt>
      <trkpt lat="48.53272" lon="2.07204">
        <ele>96.230379</ele>
        <time>2013-07-25T16:46:02Z</time>
      </trkpt>
      <trkpt lat="48.53272" lon="2.07205">
        <ele>96.254322</ele>
        <time>2013-07-25T16:46:07Z</time>
      </trkpt>
      <trkpt lat="48.53272" lon="2.07205">
        <ele>96.254322</ele>
        <time>2013-07-25T16:46:12Z</time>
      </trkpt>
      <trkpt lat="48.53272" lon="2.07205">
        <ele>95.504988</ele>
        <time>2013-07-25T16:46:17Z</time>
      </trkpt>
      <trkpt lat="48.53272" lon="2.07204">
        <ele>95.481045</ele>
        <time>2013-07-25T16:46:22Z</time>
      </trkpt>
      <trkpt lat="48.53272" lon="2.07205">
        <ele>94.843228</ele>
        <time>2013-07-25T16:46:27Z</time>
      </trkpt>
      <trkpt lat="48.53272" lon="2.07205">
        <ele>94.843228</ele>
        <time>2013-07-25T16:46:32Z</time>
      </trkpt>
      <trkpt lat="48.53272" lon="2.07203">
        <ele>93.384251</ele>
        <time>2013-07-25T16:46:37Z</time>
      </trkpt>
      <trkpt lat="48.53272" lon="2.07203">
        <ele>93.384251</ele>
        <time>2013-07-25T16:46:42Z</time>
      </trkpt>
      <trkpt lat="48.53272" lon="2.07204">
        <ele>93.408193</ele>
        <time>2013-07-25T16:46:47Z</time>
      </trkpt>
      <trkpt lat="48.53272" lon="2.07204">
        <ele>93.408193</ele>
        <time>2013-07-25T16:46:52Z</time>
      </trkpt>
      <trkpt lat="48.53272" lon="2.07204">
        <ele>93.408193</ele>
        <time>2013-07-25T16:46:57Z</time>
      </trkpt>
      <trkpt lat="48.53272" lon="2.07204">
        <ele>93.408193</ele>
        <time>2013-07-25T16:47:02Z</time>
      </trkpt>
      <trkpt lat="48.53272" lon="2.07204">
        <ele>93.408193</ele>
        <time>2013-07-25T16:47:07Z</time>
      </trkpt>
      <trkpt lat="48.53272" lon="2.07204">
        <ele>93.408193</ele>
        <time>2013-07-25T16:47:12Z</time>
      </trkpt>
      <trkpt lat="48.53272" lon="2.07204">
        <ele>93.408193</ele>
        <time>2013-07-25T16:47:17Z</time>
      </trkpt>
      <trkpt lat="48.53272" lon="2.07204">
        <ele>93.408193</ele>
        <time>2013-07-25T16:47:22Z</time>
      </trkpt>
      <trkpt lat="48.53272" lon="2.07204">
        <ele>93.408193</ele>
        <time>2013-07-25T16:47:27Z</time>
      </trkpt>
      <trkpt lat="48.53272" lon="2.07204">
        <ele>93.408193</ele>
        <time>2013-07-25T16:47:32Z</time>
      </trkpt>
      <trkpt lat="48.53272" lon="2.07204">
        <ele>93.408193</ele>
        <time>2013-07-25T16:47:37Z</time>
      </trkpt>
      <trkpt lat="48.53272" lon="2.07204">
        <ele>93.408193</ele>
        <time>2013-07-25T16:47:42Z</time>
      </trkpt>
      <trkpt lat="48.53272" lon="2.07204">
        <ele>93.408193</ele>
        <time>2013-07-25T16:47:47Z</time>
      </trkpt>
      <trkpt lat="48.53272" lon="2.07204">
        <ele>93.408193</ele>
        <time>2013-07-25T16:47:52Z</time>
      </trkpt>
      <trkpt lat="48.53272" lon="2.07204">
        <ele>93.408193</ele>
        <time>2013-07-25T16:47:57Z</time>
      </trkpt>
      <trkpt lat="48.53272" lon="2.07204">
        <ele>93.408193</ele>
        <time>2013-07-25T16:48:02Z</time>
      </trkpt>
      <trkpt lat="48.53272" lon="2.07204">
        <ele>93.408193</ele>
        <time>2013-07-25T16:48:07Z</time>
      </trkpt>
      <trkpt lat="48.53272" lon="2.07204">
        <ele>93.408193</ele>
        <time>2013-07-25T16:48:12Z</time>
      </trkpt>
      <trkpt lat="48.53272" lon="2.07204">
        <ele>93.408193</ele>
        <time>2013-07-25T16:48:17Z</time>
      </trkpt>
      <trkpt lat="48.53271" lon="2.07204">
        <ele>93.320618</ele>
        <time>2013-07-25T16:48:22Z</time>
      </trkpt>
      <trkpt lat="48.53271" lon="2.07204">
        <ele>93.320618</ele>
        <time>2013-07-25T16:48:27Z</time>
      </trkpt>
      <trkpt lat="48.53271" lon="2.07204">
        <ele>93.320618</ele>
        <time>2013-07-25T16:48:32Z</time>
      </trkpt>
      <trkpt lat="48.53271" lon="2.07204">
        <ele>93.320618</ele>
        <time>2013-07-25T16:48:37Z</time>
      </trkpt>
      <trkpt lat="48.53271" lon="2.07204">
        <ele>93.320618</ele>
        <time>2013-07-25T16:48:42Z</time>
      </trkpt>
      <trkpt lat="48.53271" lon="2.07204">
        <ele>93.320618</ele>
        <time>2013-07-25T16:48:47Z</time>
      </trkpt>
      <trkpt lat="48.53271" lon="2.07205">
        <ele>93.34456</ele>
        <time>2013-07-25T16:48:52Z</time>
      </trkpt>
      <trkpt lat="48.53271" lon="2.07204">
        <ele>93.320618</ele>
        <time>2013-07-25T16:48:57Z</time>
      </trkpt>
      <trkpt lat="48.53271" lon="2.07204">
        <ele>93.320618</ele>
        <time>2013-07-25T16:49:02Z</time>
      </trkpt>
      <trkpt lat="48.53271" lon="2.07204">
        <ele>93.320618</ele>
        <time>2013-07-25T16:49:07Z</time>
      </trkpt>
      <trkpt lat="48.53271" lon="2.07204">
        <ele>93.320618</ele>
        <time>2013-07-25T16:49:12Z</time>
      </trkpt>
      <trkpt lat="48.53271" lon="2.07204">
        <ele>93.320618</ele>
        <time>2013-07-25T16:49:17Z</time>
      </trkpt>
      <trkpt lat="48.53271" lon="2.07204">
        <ele>93.320618</ele>
        <time>2013-07-25T16:49:22Z</time>
      </trkpt>
      <trkpt lat="48.53271" lon="2.07204">
        <ele>93.320618</ele>
        <time>2013-07-25T16:49:27Z</time>
      </trkpt>
      <trkpt lat="48.53271" lon="2.07204">
        <ele>93.320618</ele>
        <time>2013-07-25T16:49:32Z</time>
      </trkpt>
      <trkpt lat="48.53271" lon="2.07204">
        <ele>93.320618</ele>
        <time>2013-07-25T16:49:37Z</time>
      </trkpt>
      <trkpt lat="48.53271" lon="2.07203">
        <ele>93.296676</ele>
        <time>2013-07-25T16:49:42Z</time>
      </trkpt>
      <trkpt lat="48.53271" lon="2.07203">
        <ele>93.296676</ele>
        <time>2013-07-25T16:49:47Z</time>
      </trkpt>
      <trkpt lat="48.53271" lon="2.07203">
        <ele>93.296676</ele>
        <time>2013-07-25T16:49:52Z</time>
      </trkpt>
      <trkpt lat="48.53271" lon="2.07203">
        <ele>93.296676</ele>
        <time>2013-07-25T16:49:57Z</time>
      </trkpt>
      <trkpt lat="48.53271" lon="2.07203">
        <ele>93.296676</ele>
        <time>2013-07-25T16:50:02Z</time>
      </trkpt>
      <trkpt lat="48.53271" lon="2.07203">
        <ele>93.296676</ele>
        <time>2013-07-25T16:50:07Z</time>
      </trkpt>
      <trkpt lat="48.53271" lon="2.07203">
        <ele>93.296676</ele>
        <time>2013-07-25T16:50:12Z</time>
      </trkpt>
      <trkpt lat="48.53271" lon="2.07203">
        <ele>93.296676</ele>
        <time>2013-07-25T16:50:17Z</time>
      </trkpt>
      <trkpt lat="48.53271" lon="2.07203">
        <ele>93.296676</ele>
        <time>2013-07-25T16:50:22Z</time>
      </trkpt>
      <trkpt lat="48.53271" lon="2.07203">
        <ele>93.296676</ele>
        <time>2013-07-25T16:50:27Z</time>
      </trkpt>
      <trkpt lat="48.53271" lon="2.07203">
        <ele>93.296676</ele>
        <time>2013-07-25T16:50:32Z</time>
      </trkpt>
      <trkpt lat="48.53271" lon="2.07203">
        <ele>93.296676</ele>
        <time>2013-07-25T16:50:37Z</time>
      </trkpt>
      <trkpt lat="48.53271" lon="2.07203">
        <ele>93.296676</ele>
        <time>2013-07-25T16:50:42Z</time>
      </trkpt>
      <trkpt lat="48.53271" lon="2.07203">
        <ele>93.296676</ele>
        <time>2013-07-25T16:50:47Z</time>
      </trkpt>
      <trkpt lat="48.53271" lon="2.07203">
        <ele>93.296676</ele>
        <time>2013-07-25T16:50:52Z</time>
      </trkpt>
      <trkpt lat="48.53271" lon="2.07203">
        <ele>93.296676</ele>
        <time>2013-07-25T16:50:57Z</time>
      </trkpt>
      <trkpt lat="48.53271" lon="2.07203">
        <ele>93.296676</ele>
        <time>2013-07-25T16:51:02Z</time>
      </trkpt>
      <trkpt lat="48.53271" lon="2.07203">
        <ele>93.296676</ele>
        <time>2013-07-25T16:51:07Z</time>
      </trkpt>
      <trkpt lat="48.53271" lon="2.07203">
        <ele>93.296676</ele>
        <time>2013-07-25T16:51:12Z</time>
      </trkpt>
      <trkpt lat="48.53271" lon="2.07203">
        <ele>93.296676</ele>
        <time>2013-07-25T16:51:17Z</time>
      </trkpt>
      <trkpt lat="48.53271" lon="2.07203">
        <ele>93.296676</ele>
        <time>2013-07-25T16:51:22Z</time>
      </trkpt>
      <trkpt lat="48.53271" lon="2.07203">
        <ele>93.296676</ele>
        <time>2013-07-25T16:51:27Z</time>
      </trkpt>
      <trkpt lat="48.5327" lon="2.07203">
        <ele>93.958435</ele>
        <time>2013-07-25T16:51:32Z</time>
      </trkpt>
      <trkpt lat="48.5327" lon="2.07203">
        <ele>93.209102</ele>
        <time>2013-07-25T16:51:37Z</time>
      </trkpt>
      <trkpt lat="48.53269" lon="2.07204">
        <ele>93.894803</ele>
        <time>2013-07-25T16:51:42Z</time>
      </trkpt>
      <trkpt lat="48.53269" lon="2.07204">
        <ele>93.894803</ele>
        <time>2013-07-25T16:51:47Z</time>
      </trkpt>
      <trkpt lat="48.53269" lon="2.07204">
        <ele>93.894803</ele>
        <time>2013-07-25T16:51:52Z</time>
      </trkpt>
      <trkpt lat="48.53269" lon="2.07204">
        <ele>93.894803</ele>
        <time>2013-07-25T16:51:57Z</time>
      </trkpt>
      <trkpt lat="48.53269" lon="2.07204">
        <ele>93.894803</ele>
        <time>2013-07-25T16:52:02Z</time>
      </trkpt>
      <trkpt lat="48.53269" lon="2.07204">
        <ele>93.894803</ele>
        <time>2013-07-25T16:52:07Z</time>
      </trkpt>
      <trkpt lat="48.53269" lon="2.07204">
        <ele>93.894803</ele>
        <time>2013-07-25T16:52:12Z</time>
      </trkpt>
      <trkpt lat="48.53269" lon="2.07204">
        <ele>93.894803</ele>
        <time>2013-07-25T16:52:17Z</time>
      </trkpt>
      <trkpt lat="48.53269" lon="2.07204">
        <ele>93.894803</ele>
        <time>2013-07-25T16:52:22Z</time>
      </trkpt>
      <trkpt lat="48.53269" lon="2.07204">
        <ele>93.894803</ele>
        <time>2013-07-25T16:52:27Z</time>
      </trkpt>
      <trkpt lat="48.53269" lon="2.07204">
        <ele>93.894803</ele>
        <time>2013-07-25T16:52:32Z</time>
      </trkpt>
      <trkpt lat="48.53269" lon="2.07204">
        <ele>93.894803</ele>
        <time>2013-07-25T16:52:37Z</time>
      </trkpt>
      <trkpt lat="48.53269" lon="2.07204">
        <ele>93.894803</ele>
        <time>2013-07-25T16:52:42Z</time>
      </trkpt>
      <trkpt lat="48.53269" lon="2.07204">
        <ele>93.894803</ele>
        <time>2013-07-25T16:52:47Z</time>
      </trkpt>
      <trkpt lat="48.53269" lon="2.07205">
        <ele>93.918746</ele>
        <time>2013-07-25T16:52:52Z</time>
      </trkpt>
      <trkpt lat="48.5328" lon="2.07191">
        <ele>92.283139</ele>
        <time>2013-07-25T16:59:44Z</time>
      </trkpt>
      <trkpt lat="48.5328" lon="2.0719">
        <ele>91.509864</ele>
        <time>2013-07-25T16:59:49Z</time>
      </trkpt>
      <trkpt lat="48.53279" lon="2.0719">
        <ele>90.760529</ele>
        <time>2013-07-25T16:59:54Z</time>
      </trkpt>
      <trkpt lat="48.53279" lon="2.0719">
        <ele>90.760529</ele>
        <time>2013-07-25T16:59:59Z</time>
      </trkpt>
      <trkpt lat="48.53279" lon="2.0719">
        <ele>90.760529</ele>
        <time>2013-07-25T17:00:04Z</time>
      </trkpt>
      <trkpt lat="48.53279" lon="2.0719">
        <ele>90.760529</ele>
        <time>2013-07-25T17:00:09Z</time>
      </trkpt>
      <trkpt lat="48.53279" lon="2.0719">
        <ele>90.760529</ele>
        <time>2013-07-25T17:00:14Z</time>
      </trkpt>
      <trkpt lat="48.53279" lon="2.0719">
        <ele>90.760529</ele>
        <time>2013-07-25T17:00:19Z</time>
      </trkpt>
      <trkpt lat="48.53279" lon="2.0719">
        <ele>90.760529</ele>
        <time>2013-07-25T17:00:24Z</time>
      </trkpt>
      <trkpt lat="48.53279" lon="2.0719">
        <ele>90.760529</ele>
        <time>2013-07-25T17:00:29Z</time>
      </trkpt>
      <trkpt lat="48.53279" lon="2.0719">
        <ele>90.760529</ele>
        <time>2013-07-25T17:00:34Z</time>
      </trkpt>
      <trkpt lat="48.53279" lon="2.0719">
        <ele>90.760529</ele>
        <time>2013-07-25T17:00:39Z</time>
      </trkpt>
      <trkpt lat="48.53279" lon="2.0719">
        <ele>90.760529</ele>
        <time>2013-07-25T17:00:44Z</time>
      </trkpt>
      <trkpt lat="48.53279" lon="2.0719">
        <ele>90.760529</ele>
        <time>2013-07-25T17:00:49Z</time>
      </trkpt>
      <trkpt lat="48.5328" lon="2.07188">
        <ele>91.485923</ele>
        <time>2013-07-25T17:00:54Z</time>
      </trkpt>
      <trkpt lat="48.5328" lon="2.07188">
        <ele>91.485923</ele>
        <time>2013-07-25T17:00:59Z</time>
      </trkpt>
      <trkpt lat="48.5328" lon="2.07188">
        <ele>91.485923</ele>
        <time>2013-07-25T17:01:04Z</time>
      </trkpt>
      <trkpt lat="48.5328" lon="2.07188">
        <ele>92.897017</ele>
        <time>2013-07-25T17:01:09Z</time>
      </trkpt>
      <trkpt lat="48.53282" lon="2.07188">
        <ele>93.733928</ele>
        <time>2013-07-25T17:01:14Z</time>
      </trkpt>
      <trkpt lat="48.53282" lon="2.07188">
        <ele>93.733928</ele>
        <time>2013-07-25T17:01:19Z</time>
      </trkpt>
      <trkpt lat="48.53282" lon="2.07188">
        <ele>93.733928</ele>
        <time>2013-07-25T17:01:24Z</time>
      </trkpt>
      <trkpt lat="48.53281" lon="2.07187">
        <ele>94.371746</ele>
        <time>2013-07-25T17:01:29Z</time>
      </trkpt>
      <trkpt lat="48.5328" lon="2.07187">
        <ele>93.622411</ele>
        <time>2013-07-25T17:01:34Z</time>
      </trkpt>
      <trkpt lat="48.5328" lon="2.07187">
        <ele>93.622411</ele>
        <time>2013-07-25T17:01:39Z</time>
      </trkpt>
      <trkpt lat="48.5328" lon="2.07187">
        <ele>93.622411</ele>
        <time>2013-07-25T17:01:44Z</time>
      </trkpt>
      <trkpt lat="48.5328" lon="2.07187">
        <ele>93.622411</ele>
        <time>2013-07-25T17:01:49Z</time>
      </trkpt>
      <trkpt lat="48.5328" lon="2.07187">
        <ele>93.622411</ele>
        <time>2013-07-25T17:01:54Z</time>
      </trkpt>
      <trkpt lat="48.5328" lon="2.07187">
        <ele>93.622411</ele>
        <time>2013-07-25T17:01:59Z</time>
      </trkpt>
      <trkpt lat="48.5328" lon="2.07187">
        <ele>93.622411</ele>
        <time>2013-07-25T17:02:04Z</time>
      </trkpt>
      <trkpt lat="48.5328" lon="2.07187">
        <ele>93.622411</ele>
        <time>2013-07-25T17:02:09Z</time>
      </trkpt>
      <trkpt lat="48.5328" lon="2.07187">
        <ele>93.622411</ele>
        <time>2013-07-25T17:02:14Z</time>
      </trkpt>
      <trkpt lat="48.5328" lon="2.07187">
        <ele>93.622411</ele>
        <time>2013-07-25T17:02:19Z</time>
      </trkpt>
      <trkpt lat="48.53281" lon="2.07187">
        <ele>92.960653</ele>
        <time>2013-07-25T17:02:24Z</time>
      </trkpt>
      <trkpt lat="48.53281" lon="2.07187">
        <ele>92.960653</ele>
        <time>2013-07-25T17:02:29Z</time>
      </trkpt>
      <trkpt lat="48.53281" lon="2.07187">
        <ele>92.960653</ele>
        <time>2013-07-25T17:02:34Z</time>
      </trkpt>
      <trkpt lat="48.53281" lon="2.07187">
        <ele>92.960653</ele>
        <time>2013-07-25T17:02:39Z</time>
      </trkpt>
      <trkpt lat="48.53281" lon="2.07187">
        <ele>92.960653</ele>
        <time>2013-07-25T17:02:44Z</time>
      </trkpt>
      <trkpt lat="48.5328" lon="2.07187">
        <ele>92.211318</ele>
        <time>2013-07-25T17:02:49Z</time>
      </trkpt>
      <trkpt lat="48.5328" lon="2.07187">
        <ele>92.211318</ele>
        <time>2013-07-25T17:02:54Z</time>
      </trkpt>
      <trkpt lat="48.5328" lon="2.07187">
        <ele>92.211318</ele>
        <time>2013-07-25T17:02:59Z</time>
      </trkpt>
      <trkpt lat="48.5328" lon="2.07187">
        <ele>92.211318</ele>
        <time>2013-07-25T17:03:04Z</time>
      </trkpt>
      <trkpt lat="48.5328" lon="2.07187">
        <ele>92.211318</ele>
        <time>2013-07-25T17:03:09Z</time>
      </trkpt>
      <trkpt lat="48.5328" lon="2.07187">
        <ele>92.211318</ele>
        <time>2013-07-25T17:03:14Z</time>
      </trkpt>
      <trkpt lat="48.5328" lon="2.07187">
        <ele>92.211318</ele>
        <time>2013-07-25T17:03:19Z</time>
      </trkpt>
      <trkpt lat="48.5328" lon="2.07187">
        <ele>92.211318</ele>
        <time>2013-07-25T17:03:24Z</time>
      </trkpt>
      <trkpt lat="48.5328" lon="2.07187">
        <ele>92.211318</ele>
        <time>2013-07-25T17:03:29Z</time>
      </trkpt>
      <trkpt lat="48.5328" lon="2.07187">
        <ele>92.211318</ele>
        <time>2013-07-25T17:03:34Z</time>
      </trkpt>
      <trkpt lat="48.5328" lon="2.07187">
        <ele>92.211318</ele>
        <time>2013-07-25T17:03:39Z</time>
      </trkpt>
      <trkpt lat="48.5328" lon="2.07187">
        <ele>92.211318</ele>
        <time>2013-07-25T17:03:44Z</time>
      </trkpt>
      <trkpt lat="48.5328" lon="2.07187">
        <ele>92.211318</ele>
        <time>2013-07-25T17:03:49Z</time>
      </trkpt>
      <trkpt lat="48.5328" lon="2.07187">
        <ele>92.211318</ele>
        <time>2013-07-25T17:03:54Z</time>
      </trkpt>
      <trkpt lat="48.5328" lon="2.07187">
        <ele>92.211318</ele>
        <time>2013-07-25T17:03:59Z</time>
      </trkpt>
      <trkpt lat="48.5328" lon="2.07187">
        <ele>92.211318</ele>
        <time>2013-07-25T17:04:04Z</time>
      </trkpt>
      <trkpt lat="48.5328" lon="2.07187">
        <ele>92.211318</ele>
        <time>2013-07-25T17:04:09Z</time>
      </trkpt>
      <trkpt lat="48.5328" lon="2.07187">
        <ele>92.211318</ele>
        <time>2013-07-25T17:04:14Z</time>
      </trkpt>
      <trkpt lat="48.5328" lon="2.07187">
        <ele>92.211318</ele>
        <time>2013-07-25T17:04:19Z</time>
      </trkpt>
      <trkpt lat="48.5328" lon="2.07187">
        <ele>92.211318</ele>
        <time>2013-07-25T17:04:24Z</time>
      </trkpt>
      <trkpt lat="48.5328" lon="2.07187">
        <ele>92.211318</ele>
        <time>2013-07-25T17:04:29Z</time>
      </trkpt>
      <trkpt lat="48.5328" lon="2.07187">
        <ele>92.211318</ele>
        <time>2013-07-25T17:04:34Z</time>
      </trkpt>
      <trkpt lat="48.5328" lon="2.07187">
        <ele>92.873076</ele>
        <time>2013-07-25T17:04:39Z</time>
      </trkpt>
      <trkpt lat="48.53293" lon="2.07204">
        <ele>93.374395</ele>
        <time>2013-07-25T17:04:44Z</time>
      </trkpt>
      <trkpt lat="48.53309" lon="2.07244">
        <ele>91.723406</ele>
        <time>2013-07-25T17:04:49Z</time>
      </trkpt>
      <trkpt lat="48.53315" lon="2.07282">
        <ele>91.420805</ele>
        <time>2013-07-25T17:04:54Z</time>
      </trkpt>
      <trkpt lat="48.53316" lon="2.07358">
        <ele>92.93748</ele>
        <time>2013-07-25T17:04:59Z</time>
      </trkpt>
      <trkpt lat="48.53309" lon="2.07384">
        <ele>97.873808</ele>
        <time>2013-07-25T17:05:04Z</time>
      </trkpt>
      <trkpt lat="48.53312" lon="2.07409">
        <ele>101.390104</ele>
        <time>2013-07-25T17:05:09Z</time>
      </trkpt>
      <trkpt lat="48.5332" lon="2.07418">
        <ele>102.832725</ele>
        <time>2013-07-25T17:05:14Z</time>
      </trkpt>
      <trkpt lat="48.5332" lon="2.0742">
        <ele>102.19494</ele>
        <time>2013-07-25T17:05:19Z</time>
      </trkpt>
      <trkpt lat="48.53325" lon="2.07424">
        <ele>103.278946</ele>
        <time>2013-07-25T17:05:24Z</time>
      </trkpt>
      <trkpt lat="48.53336" lon="2.07445">
        <ele>104.426785</ele>
        <time>2013-07-25T17:05:29Z</time>
      </trkpt>
      <trkpt lat="48.53354" lon="2.07475">
        <ele>104.856973</ele>
        <time>2013-07-25T17:05:34Z</time>
      </trkpt>
      <trkpt lat="48.53357" lon="2.07484">
        <ele>105.176008</ele>
        <time>2013-07-25T17:05:39Z</time>
      </trkpt>
      <trkpt lat="48.53363" lon="2.07497">
        <ele>105.853745</ele>
        <time>2013-07-25T17:05:44Z</time>
      </trkpt>
      <trkpt lat="48.53386" lon="2.07537">
        <ele>108.213531</ele>
        <time>2013-07-25T17:05:49Z</time>
      </trkpt>
      <trkpt lat="48.53405" lon="2.07563">
        <ele>109.959299</ele>
        <time>2013-07-25T17:05:54Z</time>
      </trkpt>
      <trkpt lat="48.53417" lon="2.07571">
        <ele>110.979305</ele>
        <time>2013-07-25T17:05:59Z</time>
      </trkpt>
      <trkpt lat="48.53435" lon="2.07599">
        <ele>110.61279</ele>
        <time>2013-07-25T17:06:04Z</time>
      </trkpt>
      <trkpt lat="48.53448" lon="2.07632">
        <ele>112.064707</ele>
        <time>2013-07-25T17:06:09Z</time>
      </trkpt>
      <trkpt lat="48.53451" lon="2.07667">
        <ele>112.951383</ele>
        <time>2013-07-25T17:06:14Z</time>
      </trkpt>
      <trkpt lat="48.53443" lon="2.07686">
        <ele>115.583786</ele>
        <time>2013-07-25T17:06:19Z</time>
      </trkpt>
      <trkpt lat="48.53425" lon="2.07696">
        <ele>115.298487</ele>
        <time>2013-07-25T17:06:24Z</time>
      </trkpt>
      <trkpt lat="48.53415" lon="2.07706">
        <ele>117.611751</ele>
        <time>2013-07-25T17:06:29Z</time>
      </trkpt>
      <trkpt lat="48.534" lon="2.07729">
        <ele>118.467142</ele>
        <time>2013-07-25T17:06:34Z</time>
      </trkpt>
      <trkpt lat="48.53398" lon="2.0773">
        <ele>118.315928</ele>
        <time>2013-07-25T17:06:39Z</time>
      </trkpt>
      <trkpt lat="48.53396" lon="2.07729">
        <ele>118.866059</ele>
        <time>2013-07-25T17:06:44Z</time>
      </trkpt>
      <trkpt lat="48.53383" lon="2.07732">
        <ele>119.473097</ele>
        <time>2013-07-25T17:06:49Z</time>
      </trkpt>
      <trkpt lat="48.53354" lon="2.07742">
        <ele>119.810742</ele>
        <time>2013-07-25T17:06:54Z</time>
      </trkpt>
      <trkpt lat="48.53328" lon="2.07753">
        <ele>121.097082</ele>
        <time>2013-07-25T17:06:59Z</time>
      </trkpt>
      <trkpt lat="48.53302" lon="2.0776">
        <ele>122.973296</ele>
        <time>2013-07-25T17:07:04Z</time>
      </trkpt>
      <trkpt lat="48.53264" lon="2.07772">
        <ele>126.979671</ele>
        <time>2013-07-25T17:07:09Z</time>
      </trkpt>
      <trkpt lat="48.53229" lon="2.07766">
        <ele>131.598691</ele>
        <time>2013-07-25T17:07:14Z</time>
      </trkpt>
      <trkpt lat="48.53192" lon="2.0776">
        <ele>133.882414</ele>
        <time>2013-07-25T17:07:19Z</time>
      </trkpt>
      <trkpt lat="48.53148" lon="2.07753">
        <ele>135.704672</ele>
        <time>2013-07-25T17:07:24Z</time>
      </trkpt>
      <trkpt lat="48.53128" lon="2.07754">
        <ele>137.899479</ele>
        <time>2013-07-25T17:07:29Z</time>
      </trkpt>
      <trkpt lat="48.53129" lon="2.0777">
        <ele>138.275108</ele>
        <time>2013-07-25T17:07:34Z</time>
      </trkpt>
      <trkpt lat="48.53129" lon="2.0777">
        <ele>138.275108</ele>
        <time>2013-07-25T17:07:39Z</time>
      </trkpt>
      <trkpt lat="48.53129" lon="2.0777">
        <ele>138.275108</ele>
        <time>2013-07-25T17:07:44Z</time>
      </trkpt>
      <trkpt lat="48.53129" lon="2.0777">
        <ele>138.275108</ele>
        <time>2013-07-25T17:07:49Z</time>
      </trkpt>
      <trkpt lat="48.53128" lon="2.0777">
        <ele>137.525791</ele>
        <time>2013-07-25T17:07:54Z</time>
      </trkpt>
      <trkpt lat="48.53128" lon="2.0777">
        <ele>137.525791</ele>
        <time>2013-07-25T17:07:59Z</time>
      </trkpt>
      <trkpt lat="48.53128" lon="2.0777">
        <ele>137.525791</ele>
        <time>2013-07-25T17:08:04Z</time>
      </trkpt>
      <trkpt lat="48.53129" lon="2.0777">
        <ele>138.275108</ele>
        <time>2013-07-25T17:08:09Z</time>
      </trkpt>
      <trkpt lat="48.53129" lon="2.0777">
        <ele>138.275108</ele>
        <time>2013-07-25T17:08:14Z</time>
      </trkpt>
      <trkpt lat="48.53128" lon="2.0777">
        <ele>137.525791</ele>
        <time>2013-07-25T17:08:19Z</time>
      </trkpt>
      <trkpt lat="48.53128" lon="2.0777">
        <ele>137.525791</ele>
        <time>2013-07-25T17:08:24Z</time>
      </trkpt>
      <trkpt lat="48.53128" lon="2.0777">
        <ele>137.525791</ele>
        <time>2013-07-25T17:08:29Z</time>
      </trkpt>
      <trkpt lat="48.53129" lon="2.0777">
        <ele>138.275108</ele>
        <time>2013-07-25T17:08:34Z</time>
      </trkpt>
      <trkpt lat="48.53129" lon="2.0777">
        <ele>138.275108</ele>
        <time>2013-07-25T17:08:39Z</time>
      </trkpt>
      <trkpt lat="48.53129" lon="2.0777">
        <ele>138.275108</ele>
        <time>2013-07-25T17:08:44Z</time>
      </trkpt>
      <trkpt lat="48.53129" lon="2.0777">
        <ele>138.275108</ele>
        <time>2013-07-25T17:08:49Z</time>
      </trkpt>
      <trkpt lat="48.53129" lon="2.0777">
        <ele>138.275108</ele>
        <time>2013-07-25T17:08:54Z</time>
      </trkpt>
      <trkpt lat="48.53129" lon="2.0777">
        <ele>138.275108</ele>
        <time>2013-07-25T17:08:59Z</time>
      </trkpt>
      <trkpt lat="48.53129" lon="2.0777">
        <ele>138.275108</ele>
        <time>2013-07-25T17:09:04Z</time>
      </trkpt>
      <trkpt lat="48.53129" lon="2.0777">
        <ele>138.275108</ele>
        <time>2013-07-25T17:09:09Z</time>
      </trkpt>
      <trkpt lat="48.53129" lon="2.0777">
        <ele>138.275108</ele>
        <time>2013-07-25T17:09:14Z</time>
      </trkpt>
      <trkpt lat="48.53129" lon="2.0777">
        <ele>138.275108</ele>
        <time>2013-07-25T17:09:19Z</time>
      </trkpt>
      <trkpt lat="48.53129" lon="2.0777">
        <ele>138.275108</ele>
        <time>2013-07-25T17:09:24Z</time>
      </trkpt>
      <trkpt lat="48.53129" lon="2.0777">
        <ele>138.275108</ele>
        <time>2013-07-25T17:09:29Z</time>
      </trkpt>
      <trkpt lat="48.53129" lon="2.0777">
        <ele>138.275108</ele>
        <time>2013-07-25T17:09:34Z</time>
      </trkpt>
      <trkpt lat="48.53129" lon="2.0777">
        <ele>138.275108</ele>
        <time>2013-07-25T17:09:39Z</time>
      </trkpt>
      <trkpt lat="48.53128" lon="2.0777">
        <ele>137.525791</ele>
        <time>2013-07-25T17:09:44Z</time>
      </trkpt>
      <trkpt lat="48.53129" lon="2.07775">
        <ele>136.96005</ele>
        <time>2013-07-25T17:09:49Z</time>
      </trkpt>
      <trkpt lat="48.5313" lon="2.07777">
        <ele>136.322283</ele>
        <time>2013-07-25T17:09:54Z</time>
      </trkpt>
      <trkpt lat="48.5313" lon="2.07777">
        <ele>135.660508</ele>
        <time>2013-07-25T17:09:59Z</time>
      </trkpt>
      <trkpt lat="48.5313" lon="2.07777">
        <ele>135.660508</ele>
        <time>2013-07-25T17:10:04Z</time>
      </trkpt>
      <trkpt lat="48.53129" lon="2.07777">
        <ele>135.572966</ele>
        <time>2013-07-25T17:10:09Z</time>
      </trkpt>
      <trkpt lat="48.53129" lon="2.07777">
        <ele>135.572966</ele>
        <time>2013-07-25T17:10:14Z</time>
      </trkpt>
      <trkpt lat="48.53129" lon="2.07777">
        <ele>135.572966</ele>
        <time>2013-07-25T17:10:19Z</time>
      </trkpt>
      <trkpt lat="48.53129" lon="2.07777">
        <ele>135.572966</ele>
        <time>2013-07-25T17:10:24Z</time>
      </trkpt>
      <trkpt lat="48.53129" lon="2.07781">
        <ele>135.644993</ele>
        <time>2013-07-25T17:10:29Z</time>
      </trkpt>
      <trkpt lat="48.53129" lon="2.0779">
        <ele>135.151289</ele>
        <time>2013-07-25T17:10:34Z</time>
      </trkpt>
      <trkpt lat="48.5313" lon="2.07771">
        <ele>134.815155</ele>
        <time>2013-07-25T17:10:39Z</time>
      </trkpt>
      <trkpt lat="48.53138" lon="2.07749">
        <ele>135.681611</ele>
        <time>2013-07-25T17:10:44Z</time>
      </trkpt>
      <trkpt lat="48.53169" lon="2.07755">
        <ele>136.467691</ele>
        <time>2013-07-25T17:10:49Z</time>
      </trkpt>
      <trkpt lat="48.53204" lon="2.07765">
        <ele>138.313974</ele>
        <time>2013-07-25T17:10:54Z</time>
      </trkpt>
      <trkpt lat="48.53242" lon="2.07774">
        <ele>139.673877</ele>
        <time>2013-07-25T17:10:59Z</time>
      </trkpt>
      <trkpt lat="48.53284" lon="2.07771">
        <ele>143.217148</ele>
        <time>2013-07-25T17:11:04Z</time>
      </trkpt>
      <trkpt lat="48.53317" lon="2.07764">
        <ele>143.939203</ele>
        <time>2013-07-25T17:11:09Z</time>
      </trkpt>
      <trkpt lat="48.53344" lon="2.0775">
        <ele>142.692381</ele>
        <time>2013-07-25T17:11:14Z</time>
      </trkpt>
      <trkpt lat="48.53377" lon="2.07738">
        <ele>140.40904</ele>
        <time>2013-07-25T17:11:19Z</time>
      </trkpt>
      <trkpt lat="48.53397" lon="2.07735">
        <ele>137.505446</ele>
        <time>2013-07-25T17:11:24Z</time>
      </trkpt>
      <trkpt lat="48.53412" lon="2.07711">
        <ele>135.964295</ele>
        <time>2013-07-25T17:11:29Z</time>
      </trkpt>
      <trkpt lat="48.53427" lon="2.07704">
        <ele>133.300127</ele>
        <time>2013-07-25T17:11:34Z</time>
      </trkpt>
      <trkpt lat="48.53448" lon="2.07694">
        <ele>131.687843</ele>
        <time>2013-07-25T17:11:39Z</time>
      </trkpt>
      <trkpt lat="48.53452" lon="2.07665">
        <ele>130.035693</ele>
        <time>2013-07-25T17:11:44Z</time>
      </trkpt>
      <trkpt lat="48.53449" lon="2.07628">
        <ele>126.278864</ele>
        <time>2013-07-25T17:11:49Z</time>
      </trkpt>
      <trkpt lat="48.53436" lon="2.0759">
        <ele>124.667379</ele>
        <time>2013-07-25T17:11:54Z</time>
      </trkpt>
      <trkpt lat="48.53424" lon="2.07575">
        <ele>121.454562</ele>
        <time>2013-07-25T17:11:59Z</time>
      </trkpt>
      <trkpt lat="48.53409" lon="2.07558">
        <ele>119.366067</ele>
        <time>2013-07-25T17:12:04Z</time>
      </trkpt>
      <trkpt lat="48.53391" lon="2.07531">
        <ele>120.48212</ele>
        <time>2013-07-25T17:12:09Z</time>
      </trkpt>
      <trkpt lat="48.53364" lon="2.07486">
        <ele>119.198704</ele>
        <time>2013-07-25T17:12:14Z</time>
      </trkpt>
      <trkpt lat="48.53348" lon="2.07461">
        <ele>117.628434</ele>
        <time>2013-07-25T17:12:19Z</time>
      </trkpt>
      <trkpt lat="48.53341" lon="2.07449">
        <ele>117.636477</ele>
        <time>2013-07-25T17:12:24Z</time>
      </trkpt>
      <trkpt lat="48.53335" lon="2.07431">
        <ele>118.298009</ele>
        <time>2013-07-25T17:12:29Z</time>
      </trkpt>
      <trkpt lat="48.53317" lon="2.07396">
        <ele>117.796112</ele>
        <time>2013-07-25T17:12:34Z</time>
      </trkpt>
      <trkpt lat="48.5332" lon="2.07353">
        <ele>115.044079</ele>
        <time>2013-07-25T17:12:39Z</time>
      </trkpt>
      <trkpt lat="48.53318" lon="2.07278">
        <ele>112.802046</ele>
        <time>2013-07-25T17:12:44Z</time>
      </trkpt>
      <trkpt lat="48.53306" lon="2.0724">
        <ele>107.022364</ele>
        <time>2013-07-25T17:12:49Z</time>
      </trkpt>
      <trkpt lat="48.53284" lon="2.07184">
        <ele>103.714915</ele>
        <time>2013-07-25T17:12:54Z</time>
      </trkpt>
      <trkpt lat="48.5328" lon="2.07187">
        <ele>95.695263</ele>
        <time>2013-07-25T17:12:59Z</time>
      </trkpt>
      <trkpt lat="48.5328" lon="2.07187">
        <ele>94.28417</ele>
        <time>2013-07-25T17:13:04Z</time>
      </trkpt>
      <trkpt lat="48.53281" lon="2.07187">
        <ele>92.960653</ele>
        <time>2013-07-25T17:13:09Z</time>
      </trkpt>
      <trkpt lat="48.53281" lon="2.07187">
        <ele>92.960653</ele>
        <time>2013-07-25T17:13:14Z</time>
      </trkpt>
      <trkpt lat="48.5328" lon="2.07187">
        <ele>92.211318</ele>
        <time>2013-07-25T17:13:19Z</time>
      </trkpt>
      <trkpt lat="48.5328" lon="2.07185">
        <ele>92.187378</ele>
        <time>2013-07-25T17:13:24Z</time>
      </trkpt>
      <trkpt lat="48.53281" lon="2.07185">
        <ele>92.936713</ele>
        <time>2013-07-25T17:13:29Z</time>
      </trkpt>
      <trkpt lat="48.53281" lon="2.07185">
        <ele>92.936713</ele>
        <time>2013-07-25T17:13:34Z</time>
      </trkpt>
      <trkpt lat="48.53281" lon="2.07185">
        <ele>92.936713</ele>
        <time>2013-07-25T17:13:39Z</time>
      </trkpt>
      <trkpt lat="48.53281" lon="2.07185">
        <ele>92.936713</ele>
        <time>2013-07-25T17:13:44Z</time>
      </trkpt>
      <trkpt lat="48.53281" lon="2.07185">
        <ele>92.936713</ele>
        <time>2013-07-25T17:13:49Z</time>
      </trkpt>
      <trkpt lat="48.53281" lon="2.07188">
        <ele>92.984593</ele>
        <time>2013-07-25T17:13:54Z</time>
      </trkpt>
      <trkpt lat="48.53281" lon="2.07188">
        <ele>92.984593</ele>
        <time>2013-07-25T17:13:59Z</time>
      </trkpt>
      <trkpt lat="48.53282" lon="2.07194">
        <ele>92.418598</ele>
        <time>2013-07-25T17:14:04Z</time>
      </trkpt>
      <trkpt lat="48.53282" lon="2.07194">
        <ele>92.418598</ele>
        <time>2013-07-25T17:14:09Z</time>
      </trkpt>
      <trkpt lat="48.53282" lon="2.07194">
        <ele>92.418598</ele>
        <time>2013-07-25T17:14:14Z</time>
      </trkpt>
      <trkpt lat="48.53282" lon="2.07194">
        <ele>92.418598</ele>
        <time>2013-07-25T17:14:19Z</time>
      </trkpt>
      <trkpt lat="48.53282" lon="2.07194">
        <ele>92.418598</ele>
        <time>2013-07-25T17:14:24Z</time>
      </trkpt>
      <trkpt lat="48.53282" lon="2.07194">
        <ele>92.418598</ele>
        <time>2013-07-25T17:14:29Z</time>
      </trkpt>
      <trkpt lat="48.53282" lon="2.07195">
        <ele>93.191874</ele>
        <time>2013-07-25T17:14:34Z</time>
      </trkpt>
      <trkpt lat="48.53282" lon="2.07195">
        <ele>93.191874</ele>
        <time>2013-07-25T17:14:39Z</time>
      </trkpt>
      <trkpt lat="48.53282" lon="2.07195">
        <ele>93.191874</ele>
        <time>2013-07-25T17:14:44Z</time>
      </trkpt>
      <trkpt lat="48.53282" lon="2.07195">
        <ele>93.191874</ele>
        <time>2013-07-25T17:14:49Z</time>
      </trkpt>
      <trkpt lat="48.53282" lon="2.07195">
        <ele>93.191874</ele>
        <time>2013-07-25T17:14:54Z</time>
      </trkpt>
      <trkpt lat="48.53283" lon="2.07195">
        <ele>92.530116</ele>
        <time>2013-07-25T17:14:59Z</time>
      </trkpt>
      <trkpt lat="48.53283" lon="2.07195">
        <ele>92.530116</ele>
        <time>2013-07-25T17:15:04Z</time>
      </trkpt>
      <trkpt lat="48.53283" lon="2.07195">
        <ele>92.530116</ele>
        <time>2013-07-25T17:15:09Z</time>
      </trkpt>
      <trkpt lat="48.53283" lon="2.07195">
        <ele>92.530116</ele>
        <time>2013-07-25T17:15:14Z</time>
      </trkpt>
      <trkpt lat="48.53285" lon="2.07195">
        <ele>94.116365</ele>
        <time>2013-07-25T17:15:19Z</time>
      </trkpt>
      <trkpt lat="48.53287" lon="2.07192">
        <ele>96.31649</ele>
        <time>2013-07-25T17:15:24Z</time>
      </trkpt>
      <trkpt lat="48.53289" lon="2.0719">
        <ele>97.105523</ele>
        <time>2013-07-25T17:15:29Z</time>
      </trkpt>
      <trkpt lat="48.53288" lon="2.0719">
        <ele>95.606851</ele>
        <time>2013-07-25T17:15:34Z</time>
      </trkpt>
      <trkpt lat="48.53287" lon="2.07194">
        <ele>94.180002</ele>
        <time>2013-07-25T17:15:39Z</time>
      </trkpt>
      <trkpt lat="48.53285" lon="2.07195">
        <ele>93.367029</ele>
        <time>2013-07-25T17:15:44Z</time>
      </trkpt>
      <trkpt lat="48.53285" lon="2.07195">
        <ele>93.367029</ele>
        <time>2013-07-25T17:15:49Z</time>
      </trkpt>
      <trkpt lat="48.53285" lon="2.07195">
        <ele>93.367029</ele>
        <time>2013-07-25T17:15:54Z</time>
      </trkpt>
      <trkpt lat="48.53285" lon="2.07195">
        <ele>93.367029</ele>
        <time>2013-07-25T17:15:59Z</time>
      </trkpt>
      <trkpt lat="48.53285" lon="2.07195">
        <ele>93.367029</ele>
        <time>2013-07-25T17:16:04Z</time>
      </trkpt>
      <trkpt lat="48.53285" lon="2.07195">
        <ele>93.367029</ele>
        <time>2013-07-25T17:16:09Z</time>
      </trkpt>
      <trkpt lat="48.53285" lon="2.07195">
        <ele>93.367029</ele>
        <time>2013-07-25T17:16:14Z</time>
      </trkpt>
      <trkpt lat="48.53285" lon="2.07195">
        <ele>93.367029</ele>
        <time>2013-07-25T17:16:19Z</time>
      </trkpt>
      <trkpt lat="48.53285" lon="2.07195">
        <ele>93.367029</ele>
        <time>2013-07-25T17:16:24Z</time>
      </trkpt>
      <trkpt lat="48.53285" lon="2.07195">
        <ele>93.367029</ele>
        <time>2013-07-25T17:16:29Z</time>
      </trkpt>
      <trkpt lat="48.53285" lon="2.07195">
        <ele>93.367029</ele>
        <time>2013-07-25T17:16:34Z</time>
      </trkpt>
      <trkpt lat="48.53285" lon="2.07195">
        <ele>93.367029</ele>
        <time>2013-07-25T17:16:39Z</time>
      </trkpt>
      <trkpt lat="48.53285" lon="2.07195">
        <ele>93.367029</ele>
        <time>2013-07-25T17:16:44Z</time>
      </trkpt>
      <trkpt lat="48.53285" lon="2.07195">
        <ele>93.367029</ele>
        <time>2013-07-25T17:16:49Z</time>
      </trkpt>
      <trkpt lat="48.53285" lon="2.07195">
        <ele>93.367029</ele>
        <time>2013-07-25T17:16:54Z</time>
      </trkpt>
      <trkpt lat="48.53285" lon="2.07195">
        <ele>93.367029</ele>
        <time>2013-07-25T17:16:59Z</time>
      </trkpt>
      <trkpt lat="48.53285" lon="2.07195">
        <ele>93.367029</ele>
        <time>2013-07-25T17:17:04Z</time>
      </trkpt>
      <trkpt lat="48.53285" lon="2.07195">
        <ele>94.116365</ele>
        <time>2013-07-25T17:17:09Z</time>
      </trkpt>
      <trkpt lat="48.53285" lon="2.07195">
        <ele>94.116365</ele>
        <time>2013-07-25T17:17:14Z</time>
      </trkpt>
      <trkpt lat="48.53285" lon="2.07195">
        <ele>94.116365</ele>
        <time>2013-07-25T17:17:19Z</time>
      </trkpt>
      <trkpt lat="48.53285" lon="2.07195">
        <ele>94.116365</ele>
        <time>2013-07-25T17:17:24Z</time>
      </trkpt>
      <trkpt lat="48.53285" lon="2.07195">
        <ele>94.116365</ele>
        <time>2013-07-25T17:17:29Z</time>
      </trkpt>
      <trkpt lat="48.53285" lon="2.07195">
        <ele>94.116365</ele>
        <time>2013-07-25T17:17:34Z</time>
      </trkpt>
      <trkpt lat="48.53285" lon="2.07195">
        <ele>94.116365</ele>
        <time>2013-07-25T17:17:39Z</time>
      </trkpt>
      <trkpt lat="48.53285" lon="2.07195">
        <ele>94.116365</ele>
        <time>2013-07-25T17:17:44Z</time>
      </trkpt>
      <trkpt lat="48.53285" lon="2.07195">
        <ele>94.116365</ele>
        <time>2013-07-25T17:17:49Z</time>
      </trkpt>
      <trkpt lat="48.53285" lon="2.07195">
        <ele>94.116365</ele>
        <time>2013-07-25T17:17:54Z</time>
      </trkpt>
      <trkpt lat="48.53285" lon="2.07195">
        <ele>94.116365</ele>
        <time>2013-07-25T17:17:59Z</time>
      </trkpt>
      <trkpt lat="48.53285" lon="2.07195">
        <ele>94.116365</ele>
        <time>2013-07-25T17:18:04Z</time>
      </trkpt>
      <trkpt lat="48.53285" lon="2.07195">
        <ele>94.116365</ele>
        <time>2013-07-25T17:18:09Z</time>
      </trkpt>
      <trkpt lat="48.53285" lon="2.07195">
        <ele>94.116365</ele>
        <time>2013-07-25T17:18:14Z</time>
      </trkpt>
      <trkpt lat="48.53286" lon="2.07195">
        <ele>93.454607</ele>
        <time>2013-07-25T17:18:19Z</time>
      </trkpt>
      <trkpt lat="48.53286" lon="2.07195">
        <ele>93.454607</ele>
        <time>2013-07-25T17:18:24Z</time>
      </trkpt>
      <trkpt lat="48.53285" lon="2.07195">
        <ele>92.705272</ele>
        <time>2013-07-25T17:18:29Z</time>
      </trkpt>
      <trkpt lat="48.53285" lon="2.07195">
        <ele>92.705272</ele>
        <time>2013-07-25T17:18:34Z</time>
      </trkpt>
      <trkpt lat="48.53285" lon="2.07195">
        <ele>92.705272</ele>
        <time>2013-07-25T17:18:39Z</time>
      </trkpt>
      <trkpt lat="48.53285" lon="2.07195">
        <ele>92.705272</ele>
        <time>2013-07-25T17:18:44Z</time>
      </trkpt>
      <trkpt lat="48.53285" lon="2.07195">
        <ele>92.705272</ele>
        <time>2013-07-25T17:18:49Z</time>
      </trkpt>
      <trkpt lat="48.53285" lon="2.07195">
        <ele>92.705272</ele>
        <time>2013-07-25T17:18:54Z</time>
      </trkpt>
      <trkpt lat="48.53285" lon="2.07195">
        <ele>92.705272</ele>
        <time>2013-07-25T17:18:59Z</time>
      </trkpt>
      <trkpt lat="48.53285" lon="2.07195">
        <ele>92.705272</ele>
        <time>2013-07-25T17:19:04Z</time>
      </trkpt>
      <trkpt lat="48.53287" lon="2.07194">
        <ele>94.180002</ele>
        <time>2013-07-25T17:19:09Z</time>
      </trkpt>
      <trkpt lat="48.53284" lon="2.07188">
        <ele>93.909083</ele>
        <time>2013-07-25T17:19:14Z</time>
      </trkpt>
      <trkpt lat="48.53282" lon="2.07188">
        <ele>93.07217</ele>
        <time>2013-07-25T17:19:19Z</time>
      </trkpt>
      <trkpt lat="48.53282" lon="2.07188">
        <ele>93.07217</ele>
        <time>2013-07-25T17:19:24Z</time>
      </trkpt>
      <trkpt lat="48.53282" lon="2.07188">
        <ele>93.07217</ele>
        <time>2013-07-25T17:19:29Z</time>
      </trkpt>
      <trkpt lat="48.53282" lon="2.07188">
        <ele>93.07217</ele>
        <time>2013-07-25T17:19:34Z</time>
      </trkpt>
      <trkpt lat="48.53282" lon="2.07188">
        <ele>93.07217</ele>
        <time>2013-07-25T17:19:39Z</time>
      </trkpt>
      <trkpt lat="48.53282" lon="2.07188">
        <ele>93.07217</ele>
        <time>2013-07-25T17:19:44Z</time>
      </trkpt>
      <trkpt lat="48.53282" lon="2.07188">
        <ele>93.07217</ele>
        <time>2013-07-25T17:19:49Z</time>
      </trkpt>
      <trkpt lat="48.53282" lon="2.07188">
        <ele>93.07217</ele>
        <time>2013-07-25T17:19:54Z</time>
      </trkpt>
      <trkpt lat="48.53282" lon="2.07188">
        <ele>93.07217</ele>
        <time>2013-07-25T17:19:59Z</time>
      </trkpt>
      <trkpt lat="48.53282" lon="2.07188">
        <ele>93.07217</ele>
        <time>2013-07-25T17:20:04Z</time>
      </trkpt>
      <trkpt lat="48.53282" lon="2.07187">
        <ele>92.298895</ele>
        <time>2013-07-25T17:20:09Z</time>
      </trkpt>
      <trkpt lat="48.53281" lon="2.07187">
        <ele>91.54956</ele>
        <time>2013-07-25T17:20:14Z</time>
      </trkpt>
      <trkpt lat="48.5328" lon="2.07185">
        <ele>92.187378</ele>
        <time>2013-07-25T17:20:19Z</time>
      </trkpt>
      <trkpt lat="48.5328" lon="2.07185">
        <ele>92.187378</ele>
        <time>2013-07-25T17:20:24Z</time>
      </trkpt>
      <trkpt lat="48.5328" lon="2.07187">
        <ele>92.211318</ele>
        <time>2013-07-25T17:20:29Z</time>
      </trkpt>
      <trkpt lat="48.5328" lon="2.07187">
        <ele>92.211318</ele>
        <time>2013-07-25T17:20:34Z</time>
      </trkpt>
      <trkpt lat="48.5328" lon="2.07187">
        <ele>92.211318</ele>
        <time>2013-07-25T17:20:39Z</time>
      </trkpt>
      <trkpt lat="48.5328" lon="2.07187">
        <ele>92.211318</ele>
        <time>2013-07-25T17:20:44Z</time>
      </trkpt>
      <trkpt lat="48.5328" lon="2.07187">
        <ele>91.461983</ele>
        <time>2013-07-25T17:20:49Z</time>
      </trkpt>
      <trkpt lat="48.5328" lon="2.07187">
        <ele>91.461983</ele>
        <time>2013-07-25T17:20:54Z</time>
      </trkpt>
      <trkpt lat="48.5328" lon="2.07187">
        <ele>91.461983</ele>
        <time>2013-07-25T17:20:59Z</time>
      </trkpt>
      <trkpt lat="48.5328" lon="2.07187">
        <ele>91.461983</ele>
        <time>2013-07-25T17:21:04Z</time>
      </trkpt>
      <trkpt lat="48.5328" lon="2.07185">
        <ele>91.438043</ele>
        <time>2013-07-25T17:21:09Z</time>
      </trkpt>
      <trkpt lat="48.5328" lon="2.07185">
        <ele>91.438043</ele>
        <time>2013-07-25T17:21:14Z</time>
      </trkpt>
      <trkpt lat="48.5328" lon="2.07185">
        <ele>91.438043</ele>
        <time>2013-07-25T17:21:19Z</time>
      </trkpt>
      <trkpt lat="48.5328" lon="2.07185">
        <ele>91.438043</ele>
        <time>2013-07-25T17:21:24Z</time>
      </trkpt>
      <trkpt lat="48.5328" lon="2.07185">
        <ele>91.438043</ele>
        <time>2013-07-25T17:21:29Z</time>
      </trkpt>
      <trkpt lat="48.5328" lon="2.07185">
        <ele>91.438043</ele>
        <time>2013-07-25T17:21:34Z</time>
      </trkpt>
      <trkpt lat="48.5328" lon="2.07185">
        <ele>91.438043</ele>
        <time>2013-07-25T17:21:39Z</time>
      </trkpt>
      <trkpt lat="48.5328" lon="2.07185">
        <ele>91.438043</ele>
        <time>2013-07-25T17:21:44Z</time>
      </trkpt>
      <trkpt lat="48.5328" lon="2.07185">
        <ele>91.438043</ele>
        <time>2013-07-25T17:21:49Z</time>
      </trkpt>
      <trkpt lat="48.5328" lon="2.07185">
        <ele>91.438043</ele>
        <time>2013-07-25T17:21:54Z</time>
      </trkpt>
      <trkpt lat="48.5328" lon="2.07185">
        <ele>91.438043</ele>
        <time>2013-07-25T17:21:59Z</time>
      </trkpt>
      <trkpt lat="48.5328" lon="2.07185">
        <ele>91.438043</ele>
        <time>2013-07-25T17:22:04Z</time>
      </trkpt>
      <trkpt lat="48.5328" lon="2.07185">
        <ele>91.438043</ele>
        <time>2013-07-25T17:22:09Z</time>
      </trkpt>
      <trkpt lat="48.5328" lon="2.07185">
        <ele>91.438043</ele>
        <time>2013-07-25T17:22:14Z</time>
      </trkpt>
      <trkpt lat="48.5328" lon="2.07185">
        <ele>91.438043</ele>
        <time>2013-07-25T17:22:19Z</time>
      </trkpt>
      <trkpt lat="48.53285" lon="2.0719">
        <ele>91.860173</ele>
        <time>2013-07-25T17:22:24Z</time>
      </trkpt>
      <trkpt lat="48.53305" lon="2.07235">
        <ele>90.56764</ele>
        <time>2013-07-25T17:22:29Z</time>
      </trkpt>
      <trkpt lat="48.53317" lon="2.07274">
        <ele>89.953595</ele>
        <time>2013-07-25T17:22:34Z</time>
      </trkpt>
      <trkpt lat="48.53315" lon="2.07348">
        <ele>91.93284</ele>
        <time>2013-07-25T17:22:39Z</time>
      </trkpt>
      <trkpt lat="48.53309" lon="2.07386">
        <ele>97.236018</ele>
        <time>2013-07-25T17:22:44Z</time>
      </trkpt>
      <trkpt lat="48.53322" lon="2.07414">
        <ele>102.186661</ele>
        <time>2013-07-25T17:22:49Z</time>
      </trkpt>
      <trkpt lat="48.53333" lon="2.07434">
        <ele>106.132691</ele>
        <time>2013-07-25T17:22:54Z</time>
      </trkpt>
      <trkpt lat="48.53348" lon="2.07461">
        <ele>108.412545</ele>
        <time>2013-07-25T17:22:59Z</time>
      </trkpt>
      <trkpt lat="48.5338" lon="2.07521">
        <ele>107.487762</ele>
        <time>2013-07-25T17:23:04Z</time>
      </trkpt>
      <trkpt lat="48.53397" lon="2.07553">
        <ele>112.087953</ele>
        <time>2013-07-25T17:23:09Z</time>
      </trkpt>
      <trkpt lat="48.53412" lon="2.07564">
        <ele>113.99286</ele>
        <time>2013-07-25T17:23:14Z</time>
      </trkpt>
      <trkpt lat="48.5343" lon="2.07584">
        <ele>113.482393</ele>
        <time>2013-07-25T17:23:19Z</time>
      </trkpt>
      <trkpt lat="48.53448" lon="2.07621">
        <ele>114.694963</ele>
        <time>2013-07-25T17:23:24Z</time>
      </trkpt>
      <trkpt lat="48.53454" lon="2.07666">
        <ele>116.674162</ele>
        <time>2013-07-25T17:23:29Z</time>
      </trkpt>
      <trkpt lat="48.53451" lon="2.07688">
        <ele>117.63221</ele>
        <time>2013-07-25T17:23:34Z</time>
      </trkpt>
      <trkpt lat="48.5343" lon="2.07702">
        <ele>117.156031</ele>
        <time>2013-07-25T17:23:39Z</time>
      </trkpt>
      <trkpt lat="48.53406" lon="2.07721">
        <ele>118.011829</ele>
        <time>2013-07-25T17:23:44Z</time>
      </trkpt>
      <trkpt lat="48.53376" lon="2.07728">
        <ele>116.802637</ele>
        <time>2013-07-25T17:23:49Z</time>
      </trkpt>
      <trkpt lat="48.53343" lon="2.07741">
        <ele>119.02238</ele>
        <time>2013-07-25T17:23:54Z</time>
      </trkpt>
      <trkpt lat="48.53308" lon="2.07756">
        <ele>123.339204</ele>
        <time>2013-07-25T17:23:59Z</time>
      </trkpt>
      <trkpt lat="48.53269" lon="2.07768">
        <ele>127.257951</ele>
        <time>2013-07-25T17:24:04Z</time>
      </trkpt>
      <trkpt lat="48.53224" lon="2.0777">
        <ele>131.982213</ele>
        <time>2013-07-25T17:24:09Z</time>
      </trkpt>
      <trkpt lat="48.53182" lon="2.07763">
        <ele>136.801488</ele>
        <time>2013-07-25T17:24:14Z</time>
      </trkpt>
      <trkpt lat="48.53139" lon="2.07751">
        <ele>138.639353</ele>
        <time>2013-07-25T17:24:19Z</time>
      </trkpt>
      <trkpt lat="48.5313" lon="2.07766">
        <ele>136.879533</ele>
        <time>2013-07-25T17:24:24Z</time>
      </trkpt>
      <trkpt lat="48.53131" lon="2.07861">
        <ele>129.519675</ele>
        <time>2013-07-25T17:24:29Z</time>
      </trkpt>
      <trkpt lat="48.53124" lon="2.07959">
        <ele>118.111892</ele>
        <time>2013-07-25T17:24:34Z</time>
      </trkpt>
      <trkpt lat="48.53092" lon="2.07978">
        <ele>112.79996</ele>
        <time>2013-07-25T17:24:39Z</time>
      </trkpt>
      <trkpt lat="48.53063" lon="2.07978">
        <ele>111.472583</ele>
        <time>2013-07-25T17:24:44Z</time>
      </trkpt>
      <trkpt lat="48.53001" lon="2.0794">
        <ele>111.541956</ele>
        <time>2013-07-25T17:24:49Z</time>
      </trkpt>
      <trkpt lat="48.52925" lon="2.0791">
        <ele>112.117493</ele>
        <time>2013-07-25T17:24:54Z</time>
      </trkpt>
      <trkpt lat="48.52837" lon="2.07897">
        <ele>112.968589</ele>
        <time>2013-07-25T17:24:59Z</time>
      </trkpt>
      <trkpt lat="48.52753" lon="2.07865">
        <ele>115.158331</ele>
        <time>2013-07-25T17:25:04Z</time>
      </trkpt>
      <trkpt lat="48.52719" lon="2.07851">
        <ele>116.814416</ele>
        <time>2013-07-25T17:25:09Z</time>
      </trkpt>
      <trkpt lat="48.52718" lon="2.07882">
        <ele>120.189106</ele>
        <time>2013-07-25T17:25:14Z</time>
      </trkpt>
      <trkpt lat="48.52738" lon="2.07929">
        <ele>123.816183</ele>
        <time>2013-07-25T17:25:19Z</time>
      </trkpt>
      <trkpt lat="48.52756" lon="2.07973">
        <ele>129.468374</ele>
        <time>2013-07-25T17:25:24Z</time>
      </trkpt>
      <trkpt lat="48.52789" lon="2.08016">
        <ele>136.05879</ele>
        <time>2013-07-25T17:25:29Z</time>
      </trkpt>
      <trkpt lat="48.52816" lon="2.08098">
        <ele>142.997023</ele>
        <time>2013-07-25T17:25:34Z</time>
      </trkpt>
      <trkpt lat="48.52825" lon="2.08177">
        <ele>145.841074</ele>
        <time>2013-07-25T17:25:39Z</time>
      </trkpt>
      <trkpt lat="48.52841" lon="2.08254">
        <ele>144.841616</ele>
        <time>2013-07-25T17:25:44Z</time>
      </trkpt>
      <trkpt lat="48.52869" lon="2.08328">
        <ele>142.508966</ele>
        <time>2013-07-25T17:25:49Z</time>
      </trkpt>
      <trkpt lat="48.52892" lon="2.08387">
        <ele>143.79538</ele>
        <time>2013-07-25T17:25:54Z</time>
      </trkpt>
      <trkpt lat="48.52895" lon="2.08469">
        <ele>144.841161</ele>
        <time>2013-07-25T17:25:59Z</time>
      </trkpt>
      <trkpt lat="48.52893" lon="2.08571">
        <ele>145.92317</ele>
        <time>2013-07-25T17:26:04Z</time>
      </trkpt>
      <trkpt lat="48.52877" lon="2.08667">
        <ele>146.672466</ele>
        <time>2013-07-25T17:26:09Z</time>
      </trkpt>
      <trkpt lat="48.52844" lon="2.08766">
        <ele>146.27027</ele>
        <time>2013-07-25T17:26:14Z</time>
      </trkpt>
      <trkpt lat="48.52808" lon="2.08863">
        <ele>145.670055</ele>
        <time>2013-07-25T17:26:19Z</time>
      </trkpt>
      <trkpt lat="48.52772" lon="2.08958">
        <ele>144.360792</ele>
        <time>2013-07-25T17:26:24Z</time>
      </trkpt>
      <trkpt lat="48.52734" lon="2.09057">
        <ele>142.950112</ele>
        <time>2013-07-25T17:26:29Z</time>
      </trkpt>
      <trkpt lat="48.52702" lon="2.09144">
        <ele>142.422053</ele>
        <time>2013-07-25T17:26:34Z</time>
      </trkpt>
      <trkpt lat="48.52689" lon="2.0919">
        <ele>142.393653</ele>
        <time>2013-07-25T17:26:39Z</time>
      </trkpt>
      <trkpt lat="48.52693" lon="2.09257">
        <ele>143.266323</ele>
        <time>2013-07-25T17:26:44Z</time>
      </trkpt>
      <trkpt lat="48.5267" lon="2.09335">
        <ele>143.844529</ele>
        <time>2013-07-25T17:26:49Z</time>
      </trkpt>
      <trkpt lat="48.52632" lon="2.09393">
        <ele>144.533953</ele>
        <time>2013-07-25T17:26:54Z</time>
      </trkpt>
      <trkpt lat="48.52557" lon="2.09427">
        <ele>145.698327</ele>
        <time>2013-07-25T17:26:59Z</time>
      </trkpt>
      <trkpt lat="48.52474" lon="2.09452">
        <ele>146.919389</ele>
        <time>2013-07-25T17:27:04Z</time>
      </trkpt>
      <trkpt lat="48.52413" lon="2.09465">
        <ele>146.562845</ele>
        <time>2013-07-25T17:27:09Z</time>
      </trkpt>
      <trkpt lat="48.52382" lon="2.0948">
        <ele>146.829455</ele>
        <time>2013-07-25T17:27:14Z</time>
      </trkpt>
      <trkpt lat="48.52365" lon="2.0943">
        <ele>149.717462</ele>
        <time>2013-07-25T17:27:19Z</time>
      </trkpt>
      <trkpt lat="48.52327" lon="2.0935">
        <ele>151.250272</ele>
        <time>2013-07-25T17:27:24Z</time>
      </trkpt>
      <trkpt lat="48.52282" lon="2.09261">
        <ele>152.202102</ele>
        <time>2013-07-25T17:27:29Z</time>
      </trkpt>
      <trkpt lat="48.52242" lon="2.09177">
        <ele>153.489496</ele>
        <time>2013-07-25T17:27:34Z</time>
      </trkpt>
      <trkpt lat="48.52202" lon="2.091">
        <ele>154.236757</ele>
        <time>2013-07-25T17:27:39Z</time>
      </trkpt>
      <trkpt lat="48.52161" lon="2.09014">
        <ele>155.501798</ele>
        <time>2013-07-25T17:27:44Z</time>
      </trkpt>
      <trkpt lat="48.52115" lon="2.08925">
        <ele>156.370303</ele>
        <time>2013-07-25T17:27:49Z</time>
      </trkpt>
      <trkpt lat="48.5207" lon="2.08835">
        <ele>157.215747</ele>
        <time>2013-07-25T17:27:54Z</time>
      </trkpt>
      <trkpt lat="48.52024" lon="2.08748">
        <ele>156.699433</ele>
        <time>2013-07-25T17:27:59Z</time>
      </trkpt>
      <trkpt lat="48.51982" lon="2.08666">
        <ele>156.54243</ele>
        <time>2013-07-25T17:28:04Z</time>
      </trkpt>
      <trkpt lat="48.51942" lon="2.08586">
        <ele>155.83577</ele>
        <time>2013-07-25T17:28:09Z</time>
      </trkpt>
      <trkpt lat="48.519" lon="2.08503">
        <ele>155.656462</ele>
        <time>2013-07-25T17:28:14Z</time>
      </trkpt>
      <trkpt lat="48.5185" lon="2.08404">
        <ele>154.578408</ele>
        <time>2013-07-25T17:28:19Z</time>
      </trkpt>
      <trkpt lat="48.51803" lon="2.08314">
        <ele>154.681048</ele>
        <time>2013-07-25T17:28:24Z</time>
      </trkpt>
      <trkpt lat="48.5176" lon="2.08227">
        <ele>155.007342</ele>
        <time>2013-07-25T17:28:29Z</time>
      </trkpt>
      <trkpt lat="48.51718" lon="2.08142">
        <ele>154.808009</ele>
        <time>2013-07-25T17:28:34Z</time>
      </trkpt>
      <trkpt lat="48.51694" lon="2.08091">
        <ele>154.33438</ele>
        <time>2013-07-25T17:28:39Z</time>
      </trkpt>
      <trkpt lat="48.51694" lon="2.08093">
        <ele>153.69647</ele>
        <time>2013-07-25T17:28:44Z</time>
      </trkpt>
      <trkpt lat="48.51694" lon="2.08093">
        <ele>153.69647</ele>
        <time>2013-07-25T17:28:49Z</time>
      </trkpt>
      <trkpt lat="48.51693" lon="2.08087">
        <ele>154.175034</ele>
        <time>2013-07-25T17:28:54Z</time>
      </trkpt>
      <trkpt lat="48.51669" lon="2.08031">
        <ele>155.016694</ele>
        <time>2013-07-25T17:28:59Z</time>
      </trkpt>
      <trkpt lat="48.51638" lon="2.07958">
        <ele>155.796371</ele>
        <time>2013-07-25T17:29:04Z</time>
      </trkpt>
      <trkpt lat="48.51604" lon="2.07882">
        <ele>155.605152</ele>
        <time>2013-07-25T17:29:09Z</time>
      </trkpt>
      <trkpt lat="48.51574" lon="2.07814">
        <ele>155.071107</ele>
        <time>2013-07-25T17:29:14Z</time>
      </trkpt>
      <trkpt lat="48.51534" lon="2.07727">
        <ele>155.002533</ele>
        <time>2013-07-25T17:29:19Z</time>
      </trkpt>
      <trkpt lat="48.51504" lon="2.07645">
        <ele>154.9549</ele>
        <time>2013-07-25T17:29:24Z</time>
      </trkpt>
      <trkpt lat="48.51479" lon="2.07569">
        <ele>154.627394</ele>
        <time>2013-07-25T17:29:29Z</time>
      </trkpt>
      <trkpt lat="48.51451" lon="2.07491">
        <ele>154.078276</ele>
        <time>2013-07-25T17:29:34Z</time>
      </trkpt>
      <trkpt lat="48.51432" lon="2.07437">
        <ele>153.909262</ele>
        <time>2013-07-25T17:29:39Z</time>
      </trkpt>
      <trkpt lat="48.51408" lon="2.0737">
        <ele>153.814385</ele>
        <time>2013-07-25T17:29:44Z</time>
      </trkpt>
      <trkpt lat="48.5138" lon="2.07292">
        <ele>154.016102</ele>
        <time>2013-07-25T17:29:49Z</time>
      </trkpt>
      <trkpt lat="48.5135" lon="2.07206">
        <ele>154.586534</ele>
        <time>2013-07-25T17:29:54Z</time>
      </trkpt>
      <trkpt lat="48.51316" lon="2.07114">
        <ele>153.365658</ele>
        <time>2013-07-25T17:29:59Z</time>
      </trkpt>
      <trkpt lat="48.51279" lon="2.07019">
        <ele>153.334826</ele>
        <time>2013-07-25T17:30:04Z</time>
      </trkpt>
      <trkpt lat="48.5124" lon="2.06917">
        <ele>153.011283</ele>
        <time>2013-07-25T17:30:09Z</time>
      </trkpt>
      <trkpt lat="48.51202" lon="2.06818">
        <ele>152.823799</ele>
        <time>2013-07-25T17:30:14Z</time>
      </trkpt>
      <trkpt lat="48.51168" lon="2.06728">
        <ele>153.704009</ele>
        <time>2013-07-25T17:30:19Z</time>
      </trkpt>
      <trkpt lat="48.51138" lon="2.06651">
        <ele>153.099051</ele>
        <time>2013-07-25T17:30:24Z</time>
      </trkpt>
      <trkpt lat="48.5113" lon="2.06626">
        <ele>153.470893</ele>
        <time>2013-07-25T17:30:29Z</time>
      </trkpt>
      <trkpt lat="48.51117" lon="2.06572">
        <ele>152.993129</ele>
        <time>2013-07-25T17:30:34Z</time>
      </trkpt>
      <trkpt lat="48.51093" lon="2.06469">
        <ele>153.671365</ele>
        <time>2013-07-25T17:30:39Z</time>
      </trkpt>
      <trkpt lat="48.51072" lon="2.0637">
        <ele>153.958065</ele>
        <time>2013-07-25T17:30:44Z</time>
      </trkpt>
      <trkpt lat="48.51052" lon="2.06276">
        <ele>154.31721</ele>
        <time>2013-07-25T17:30:49Z</time>
      </trkpt>
      <trkpt lat="48.51032" lon="2.06191">
        <ele>154.931063</ele>
        <time>2013-07-25T17:30:54Z</time>
      </trkpt>
      <trkpt lat="48.51012" lon="2.06102">
        <ele>154.725055</ele>
        <time>2013-07-25T17:30:59Z</time>
      </trkpt>
      <trkpt lat="48.50992" lon="2.06015">
        <ele>154.543615</ele>
        <time>2013-07-25T17:31:04Z</time>
      </trkpt>
      <trkpt lat="48.50969" lon="2.05915">
        <ele>154.636725</ele>
        <time>2013-07-25T17:31:09Z</time>
      </trkpt>
      <trkpt lat="48.50951" lon="2.05837">
        <ele>154.797413</ele>
        <time>2013-07-25T17:31:14Z</time>
      </trkpt>
      <trkpt lat="48.50939" lon="2.05782">
        <ele>154.386903</ele>
        <time>2013-07-25T17:31:19Z</time>
      </trkpt>
      <trkpt lat="48.5092" lon="2.05774">
        <ele>154.350429</ele>
        <time>2013-07-25T17:31:24Z</time>
      </trkpt>
      <trkpt lat="48.50859" lon="2.05808">
        <ele>155.800089</ele>
        <time>2013-07-25T17:31:29Z</time>
      </trkpt>
      <trkpt lat="48.50817" lon="2.05844">
        <ele>155.756529</ele>
        <time>2013-07-25T17:31:34Z</time>
      </trkpt>
      <trkpt lat="48.50771" lon="2.05876">
        <ele>153.970025</ele>
        <time>2013-07-25T17:31:39Z</time>
      </trkpt>
      <trkpt lat="48.50727" lon="2.05909">
        <ele>153.0438</ele>
        <time>2013-07-25T17:31:44Z</time>
      </trkpt>
      <trkpt lat="48.50684" lon="2.05941">
        <ele>151.432133</ele>
        <time>2013-07-25T17:31:49Z</time>
      </trkpt>
      <trkpt lat="48.5064" lon="2.05974">
        <ele>149.733994</ele>
        <time>2013-07-25T17:31:54Z</time>
      </trkpt>
      <trkpt lat="48.50593" lon="2.0601">
        <ele>148.68298</ele>
        <time>2013-07-25T17:31:59Z</time>
      </trkpt>
      <trkpt lat="48.50548" lon="2.06043">
        <ele>147.671753</ele>
        <time>2013-07-25T17:32:04Z</time>
      </trkpt>
      <trkpt lat="48.50507" lon="2.06077">
        <ele>144.848416</ele>
        <time>2013-07-25T17:32:09Z</time>
      </trkpt>
      <trkpt lat="48.50481" lon="2.06096">
        <ele>141.970066</ele>
        <time>2013-07-25T17:32:14Z</time>
      </trkpt>
      <trkpt lat="48.50465" lon="2.06087">
        <ele>140.784535</ele>
        <time>2013-07-25T17:32:19Z</time>
      </trkpt>
      <trkpt lat="48.5045" lon="2.06092">
        <ele>139.837318</ele>
        <time>2013-07-25T17:32:24Z</time>
      </trkpt>
      <trkpt lat="48.50446" lon="2.06093">
        <ele>140.262654</ele>
        <time>2013-07-25T17:32:29Z</time>
      </trkpt>
      <trkpt lat="48.50442" lon="2.06099">
        <ele>140.097344</ele>
        <time>2013-07-25T17:32:34Z</time>
      </trkpt>
      <trkpt lat="48.50439" lon="2.06103">
        <ele>139.995083</ele>
        <time>2013-07-25T17:32:39Z</time>
      </trkpt>
      <trkpt lat="48.50438" lon="2.06103">
        <ele>139.90821</ele>
        <time>2013-07-25T17:32:44Z</time>
      </trkpt>
      <trkpt lat="48.50434" lon="2.06105">
        <ele>139.695252</ele>
        <time>2013-07-25T17:32:49Z</time>
      </trkpt>
      <trkpt lat="48.50428" lon="2.06106">
        <ele>139.284729</ele>
        <time>2013-07-25T17:32:54Z</time>
      </trkpt>
      <trkpt lat="48.50419" lon="2.0611">
        <ele>139.49714</ele>
        <time>2013-07-25T17:32:59Z</time>
      </trkpt>
      <trkpt lat="48.50406" lon="2.06118">
        <ele>138.771458</ele>
        <time>2013-07-25T17:33:04Z</time>
      </trkpt>
      <trkpt lat="48.50392" lon="2.06128">
        <ele>137.257614</ele>
        <time>2013-07-25T17:33:09Z</time>
      </trkpt>
      <trkpt lat="48.50376" lon="2.06138">
        <ele>136.405963</ele>
        <time>2013-07-25T17:33:14Z</time>
      </trkpt>
      <trkpt lat="48.5036" lon="2.06151">
        <ele>134.853038</ele>
        <time>2013-07-25T17:33:19Z</time>
      </trkpt>
      <trkpt lat="48.50347" lon="2.06164">
        <ele>134.222872</ele>
        <time>2013-07-25T17:33:24Z</time>
      </trkpt>
      <trkpt lat="48.50342" lon="2.06169">
        <ele>133.221823</ele>
        <time>2013-07-25T17:33:29Z</time>
      </trkpt>
      <trkpt lat="48.50342" lon="2.06169">
        <ele>133.221823</ele>
        <time>2013-07-25T17:33:34Z</time>
      </trkpt>
      <trkpt lat="48.50335" lon="2.06183">
        <ele>131.614815</ele>
        <time>2013-07-25T17:33:39Z</time>
      </trkpt>
      <trkpt lat="48.50322" lon="2.06193">
        <ele>130.937069</ele>
        <time>2013-07-25T17:33:44Z</time>
      </trkpt>
      <trkpt lat="48.50311" lon="2.06199">
        <ele>129.612534</ele>
        <time>2013-07-25T17:33:49Z</time>
      </trkpt>
      <trkpt lat="48.50305" lon="2.06206">
        <ele>129.297533</ele>
        <time>2013-07-25T17:33:54Z</time>
      </trkpt>
      <trkpt lat="48.50302" lon="2.06208">
        <ele>128.422546</ele>
        <time>2013-07-25T17:33:59Z</time>
      </trkpt>
      <trkpt lat="48.50298" lon="2.06211">
        <ele>128.209713</ele>
        <time>2013-07-25T17:34:04Z</time>
      </trkpt>
      <trkpt lat="48.50293" lon="2.06216">
        <ele>127.295578</ele>
        <time>2013-07-25T17:34:09Z</time>
      </trkpt>
      <trkpt lat="48.50293" lon="2.06216">
        <ele>127.295578</ele>
        <time>2013-07-25T17:34:14Z</time>
      </trkpt>
      <trkpt lat="48.50293" lon="2.06216">
        <ele>127.295578</ele>
        <time>2013-07-25T17:34:19Z</time>
      </trkpt>
      <trkpt lat="48.50291" lon="2.06217">
        <ele>127.145747</ele>
        <time>2013-07-25T17:34:24Z</time>
      </trkpt>
      <trkpt lat="48.50288" lon="2.0622">
        <ele>126.27077</ele>
        <time>2013-07-25T17:34:29Z</time>
      </trkpt>
      <trkpt lat="48.50281" lon="2.06228">
        <ele>125.979655</ele>
        <time>2013-07-25T17:34:34Z</time>
      </trkpt>
      <trkpt lat="48.5028" lon="2.06228">
        <ele>125.230667</ele>
        <time>2013-07-25T17:34:39Z</time>
      </trkpt>
      <trkpt lat="48.5028" lon="2.06228">
        <ele>125.230667</ele>
        <time>2013-07-25T17:34:44Z</time>
      </trkpt>
      <trkpt lat="48.5028" lon="2.06228">
        <ele>125.230667</ele>
        <time>2013-07-25T17:34:49Z</time>
      </trkpt>
      <trkpt lat="48.5028" lon="2.06228">
        <ele>125.230667</ele>
        <time>2013-07-25T17:34:54Z</time>
      </trkpt>
      <trkpt lat="48.5028" lon="2.06228">
        <ele>125.230667</ele>
        <time>2013-07-25T17:34:59Z</time>
      </trkpt>
      <trkpt lat="48.5028" lon="2.06228">
        <ele>125.230667</ele>
        <time>2013-07-25T17:35:04Z</time>
      </trkpt>
      <trkpt lat="48.5028" lon="2.06228">
        <ele>125.230667</ele>
        <time>2013-07-25T17:35:09Z</time>
      </trkpt>
      <trkpt lat="48.5028" lon="2.06228">
        <ele>125.230667</ele>
        <time>2013-07-25T17:35:14Z</time>
      </trkpt>
      <trkpt lat="48.5028" lon="2.06228">
        <ele>125.230667</ele>
        <time>2013-07-25T17:35:19Z</time>
      </trkpt>
      <trkpt lat="48.5028" lon="2.06228">
        <ele>125.230667</ele>
        <time>2013-07-25T17:35:24Z</time>
      </trkpt>
      <trkpt lat="48.5028" lon="2.06228">
        <ele>125.230667</ele>
        <time>2013-07-25T17:35:29Z</time>
      </trkpt>
      <trkpt lat="48.5028" lon="2.06228">
        <ele>125.230667</ele>
        <time>2013-07-25T17:35:34Z</time>
      </trkpt>
      <trkpt lat="48.5028" lon="2.06228">
        <ele>125.230667</ele>
        <time>2013-07-25T17:35:39Z</time>
      </trkpt>
      <trkpt lat="48.5028" lon="2.06228">
        <ele>125.230667</ele>
        <time>2013-07-25T17:35:44Z</time>
      </trkpt>
      <trkpt lat="48.5028" lon="2.06228">
        <ele>125.230667</ele>
        <time>2013-07-25T17:35:49Z</time>
      </trkpt>
      <trkpt lat="48.5028" lon="2.06228">
        <ele>125.230667</ele>
        <time>2013-07-25T17:35:54Z</time>
      </trkpt>
      <trkpt lat="48.5028" lon="2.06228">
        <ele>125.230667</ele>
        <time>2013-07-25T17:35:59Z</time>
      </trkpt>
      <trkpt lat="48.5028" lon="2.06228">
        <ele>125.230667</ele>
        <time>2013-07-25T17:36:04Z</time>
      </trkpt>
      <trkpt lat="48.5028" lon="2.06228">
        <ele>125.230667</ele>
        <time>2013-07-25T17:36:09Z</time>
      </trkpt>
      <trkpt lat="48.50276" lon="2.06231">
        <ele>124.268866</ele>
        <time>2013-07-25T17:36:14Z</time>
      </trkpt>
      <trkpt lat="48.50268" lon="2.06238">
        <ele>123.890941</ele>
        <time>2013-07-25T17:36:19Z</time>
      </trkpt>
      <trkpt lat="48.50262" lon="2.06244">
        <ele>122.890015</ele>
        <time>2013-07-25T17:36:24Z</time>
      </trkpt>
      <trkpt lat="48.50254" lon="2.06254">
        <ele>121.810827</ele>
        <time>2013-07-25T17:36:29Z</time>
      </trkpt>
      <trkpt lat="48.50247" lon="2.06261">
        <ele>120.746944</ele>
        <time>2013-07-25T17:36:34Z</time>
      </trkpt>
      <trkpt lat="48.50242" lon="2.06266">
        <ele>119.832876</ele>
        <time>2013-07-25T17:36:39Z</time>
      </trkpt>
      <trkpt lat="48.50232" lon="2.06274">
        <ele>120.692523</ele>
        <time>2013-07-25T17:36:44Z</time>
      </trkpt>
      <trkpt lat="48.50221" lon="2.06283">
        <ele>120.078083</ele>
        <time>2013-07-25T17:36:49Z</time>
      </trkpt>
      <trkpt lat="48.50213" lon="2.06288">
        <ele>119.652574</ele>
        <time>2013-07-25T17:36:54Z</time>
      </trkpt>
      <trkpt lat="48.50204" lon="2.06294">
        <ele>119.913095</ele>
        <time>2013-07-25T17:36:59Z</time>
      </trkpt>
      <trkpt lat="48.50191" lon="2.06304">
        <ele>119.897939</ele>
        <time>2013-07-25T17:37:04Z</time>
      </trkpt>
      <trkpt lat="48.50182" lon="2.06311">
        <ele>120.158505</ele>
        <time>2013-07-25T17:37:09Z</time>
      </trkpt>
      <trkpt lat="48.5017" lon="2.0632">
        <ele>119.457399</ele>
        <time>2013-07-25T17:37:14Z</time>
      </trkpt>
      <trkpt lat="48.50144" lon="2.06328">
        <ele>119.299452</ele>
        <time>2013-07-25T17:37:19Z</time>
      </trkpt>
      <trkpt lat="48.50113" lon="2.06335">
        <ele>121.592897</ele>
        <time>2013-07-25T17:37:24Z</time>
      </trkpt>
      <trkpt lat="48.50096" lon="2.06311">
        <ele>124.205716</ele>
        <time>2013-07-25T17:37:29Z</time>
      </trkpt>
      <trkpt lat="48.50094" lon="2.06304">
        <ele>125.410804</ele>
        <time>2013-07-25T17:37:34Z</time>
      </trkpt>
      <trkpt lat="48.50094" lon="2.06304">
        <ele>125.410804</ele>
        <time>2013-07-25T17:37:39Z</time>
      </trkpt>
      <trkpt lat="48.50094" lon="2.06304">
        <ele>125.410804</ele>
        <time>2013-07-25T17:37:44Z</time>
      </trkpt>
      <trkpt lat="48.50094" lon="2.06304">
        <ele>125.410804</ele>
        <time>2013-07-25T17:37:49Z</time>
      </trkpt>
      <trkpt lat="48.50094" lon="2.06304">
        <ele>125.410804</ele>
        <time>2013-07-25T17:37:54Z</time>
      </trkpt>
      <trkpt lat="48.50094" lon="2.06304">
        <ele>125.410804</ele>
        <time>2013-07-25T17:37:59Z</time>
      </trkpt>
      <trkpt lat="48.50094" lon="2.06304">
        <ele>125.410804</ele>
        <time>2013-07-25T17:38:04Z</time>
      </trkpt>
      <trkpt lat="48.50094" lon="2.06304">
        <ele>125.410804</ele>
        <time>2013-07-25T17:38:09Z</time>
      </trkpt>
      <trkpt lat="48.50094" lon="2.06304">
        <ele>125.410804</ele>
        <time>2013-07-25T17:38:14Z</time>
      </trkpt>
      <trkpt lat="48.50094" lon="2.06304">
        <ele>125.410804</ele>
        <time>2013-07-25T17:38:19Z</time>
      </trkpt>
      <trkpt lat="48.50094" lon="2.06304">
        <ele>125.410804</ele>
        <time>2013-07-25T17:38:24Z</time>
      </trkpt>
      <trkpt lat="48.50095" lon="2.06306">
        <ele>126.183624</ele>
        <time>2013-07-25T17:38:29Z</time>
      </trkpt>
      <trkpt lat="48.50096" lon="2.06304">
        <ele>126.246559</ele>
        <time>2013-07-25T17:38:34Z</time>
      </trkpt>
      <trkpt lat="48.50091" lon="2.06311">
        <ele>128.178786</ele>
        <time>2013-07-25T17:38:39Z</time>
      </trkpt>
      <trkpt lat="48.50056" lon="2.06324">
        <ele>130.993655</ele>
        <time>2013-07-25T17:38:44Z</time>
      </trkpt>
      <trkpt lat="48.50001" lon="2.06349">
        <ele>135.544278</ele>
        <time>2013-07-25T17:38:49Z</time>
      </trkpt>
      <trkpt lat="48.49969" lon="2.06368">
        <ele>137.966575</ele>
        <time>2013-07-25T17:38:54Z</time>
      </trkpt>
      <trkpt lat="48.49948" lon="2.06363">
        <ele>140.740348</ele>
        <time>2013-07-25T17:38:59Z</time>
      </trkpt>
      <trkpt lat="48.49925" lon="2.06329">
        <ele>144.16408</ele>
        <time>2013-07-25T17:39:04Z</time>
      </trkpt>
      <trkpt lat="48.49871" lon="2.0628">
        <ele>145.243956</ele>
        <time>2013-07-25T17:39:09Z</time>
      </trkpt>
      <trkpt lat="48.49812" lon="2.06242">
        <ele>146.941287</ele>
        <time>2013-07-25T17:39:14Z</time>
      </trkpt>
      <trkpt lat="48.49772" lon="2.06196">
        <ele>147.613023</ele>
        <time>2013-07-25T17:39:19Z</time>
      </trkpt>
      <trkpt lat="48.49734" lon="2.0614">
        <ele>147.542871</ele>
        <time>2013-07-25T17:39:24Z</time>
      </trkpt>
      <trkpt lat="48.49702" lon="2.06091">
        <ele>146.614713</ele>
        <time>2013-07-25T17:39:29Z</time>
      </trkpt>
      <trkpt lat="48.49658" lon="2.06035">
        <ele>146.112166</ele>
        <time>2013-07-25T17:39:34Z</time>
      </trkpt>
      <trkpt lat="48.49603" lon="2.05991">
        <ele>144.382387</ele>
        <time>2013-07-25T17:39:39Z</time>
      </trkpt>
      <trkpt lat="48.49542" lon="2.05954">
        <ele>144.499242</ele>
        <time>2013-07-25T17:39:44Z</time>
      </trkpt>
      <trkpt lat="48.4951" lon="2.05936">
        <ele>146.280762</ele>
        <time>2013-07-25T17:39:49Z</time>
      </trkpt>
      <trkpt lat="48.4947" lon="2.05928">
        <ele>147.709383</ele>
        <time>2013-07-25T17:39:54Z</time>
      </trkpt>
      <trkpt lat="48.4942" lon="2.05913">
        <ele>149.012357</ele>
        <time>2013-07-25T17:39:59Z</time>
      </trkpt>
      <trkpt lat="48.49367" lon="2.05886">
        <ele>146.995608</ele>
        <time>2013-07-25T17:40:04Z</time>
      </trkpt>
      <trkpt lat="48.4932" lon="2.05821">
        <ele>144.769769</ele>
        <time>2013-07-25T17:40:09Z</time>
      </trkpt>
      <trkpt lat="48.49263" lon="2.05789">
        <ele>144.58317</ele>
        <time>2013-07-25T17:40:14Z</time>
      </trkpt>
      <trkpt lat="48.49213" lon="2.0577">
        <ele>142.221961</ele>
        <time>2013-07-25T17:40:19Z</time>
      </trkpt>
      <trkpt lat="48.49182" lon="2.05712">
        <ele>140.469713</ele>
        <time>2013-07-25T17:40:24Z</time>
      </trkpt>
      <trkpt lat="48.49159" lon="2.05655">
        <ele>139.261047</ele>
        <time>2013-07-25T17:40:29Z</time>
      </trkpt>
      <trkpt lat="48.49111" lon="2.05622">
        <ele>135.425211</ele>
        <time>2013-07-25T17:40:34Z</time>
      </trkpt>
      <trkpt lat="48.49045" lon="2.05605">
        <ele>132.07498</ele>
        <time>2013-07-25T17:40:39Z</time>
      </trkpt>
      <trkpt lat="48.49001" lon="2.05553">
        <ele>131.651718</ele>
        <time>2013-07-25T17:40:44Z</time>
      </trkpt>
      <trkpt lat="48.48963" lon="2.05461">
        <ele>124.555195</ele>
        <time>2013-07-25T17:40:49Z</time>
      </trkpt>
      <trkpt lat="48.48926" lon="2.05375">
        <ele>116.143508</ele>
        <time>2013-07-25T17:40:54Z</time>
      </trkpt>
      <trkpt lat="48.48891" lon="2.05295">
        <ele>110.846753</ele>
        <time>2013-07-25T17:40:59Z</time>
      </trkpt>
      <trkpt lat="48.48881" lon="2.05257">
        <ele>110.901307</ele>
        <time>2013-07-25T17:41:04Z</time>
      </trkpt>
      <trkpt lat="48.48885" lon="2.05185">
        <ele>110.565217</ele>
        <time>2013-07-25T17:41:09Z</time>
      </trkpt>
      <trkpt lat="48.48882" lon="2.05097">
        <ele>110.088352</ele>
        <time>2013-07-25T17:41:14Z</time>
      </trkpt>
      <trkpt lat="48.48862" lon="2.05009">
        <ele>108.511603</ele>
        <time>2013-07-25T17:41:19Z</time>
      </trkpt>
      <trkpt lat="48.48826" lon="2.04932">
        <ele>108.909857</ele>
        <time>2013-07-25T17:41:24Z</time>
      </trkpt>
      <trkpt lat="48.48792" lon="2.04869">
        <ele>108.969903</ele>
        <time>2013-07-25T17:41:29Z</time>
      </trkpt>
      <trkpt lat="48.48769" lon="2.04822">
        <ele>108.681685</ele>
        <time>2013-07-25T17:41:34Z</time>
      </trkpt>
      <trkpt lat="48.48745" lon="2.04772">
        <ele>108.922302</ele>
        <time>2013-07-25T17:41:39Z</time>
      </trkpt>
      <trkpt lat="48.48718" lon="2.04717">
        <ele>111.055635</ele>
        <time>2013-07-25T17:41:44Z</time>
      </trkpt>
      <trkpt lat="48.48702" lon="2.04693">
        <ele>113.100582</ele>
        <time>2013-07-25T17:41:49Z</time>
      </trkpt>
      <trkpt lat="48.48683" lon="2.0476">
        <ele>115.147883</ele>
        <time>2013-07-25T17:41:54Z</time>
      </trkpt>
      <trkpt lat="48.48652" lon="2.04853">
        <ele>116.978028</ele>
        <time>2013-07-25T17:41:59Z</time>
      </trkpt>
      <trkpt lat="48.48615" lon="2.04921">
        <ele>117.84025</ele>
        <time>2013-07-25T17:42:04Z</time>
      </trkpt>
      <trkpt lat="48.4858" lon="2.04952">
        <ele>118.89827</ele>
        <time>2013-07-25T17:42:09Z</time>
      </trkpt>
      <trkpt lat="48.48504" lon="2.04953">
        <ele>120.927623</ele>
        <time>2013-07-25T17:42:14Z</time>
      </trkpt>
      <trkpt lat="48.4844" lon="2.04935">
        <ele>122.654814</ele>
        <time>2013-07-25T17:42:19Z</time>
      </trkpt>
      <trkpt lat="48.48376" lon="2.049">
        <ele>124.737138</ele>
        <time>2013-07-25T17:42:24Z</time>
      </trkpt>
      <trkpt lat="48.4831" lon="2.04858">
        <ele>126.615558</ele>
        <time>2013-07-25T17:42:29Z</time>
      </trkpt>
      <trkpt lat="48.48256" lon="2.04815">
        <ele>127.83705</ele>
        <time>2013-07-25T17:42:34Z</time>
      </trkpt>
      <trkpt lat="48.48199" lon="2.04742">
        <ele>131.850395</ele>
        <time>2013-07-25T17:42:39Z</time>
      </trkpt>
      <trkpt lat="48.48152" lon="2.04688">
        <ele>135.451826</ele>
        <time>2013-07-25T17:42:44Z</time>
      </trkpt>
      <trkpt lat="48.48103" lon="2.04652">
        <ele>139.961486</ele>
        <time>2013-07-25T17:42:49Z</time>
      </trkpt>
      <trkpt lat="48.48055" lon="2.04606">
        <ele>143.729886</ele>
        <time>2013-07-25T17:42:54Z</time>
      </trkpt>
      <trkpt lat="48.48007" lon="2.04553">
        <ele>145.859478</ele>
        <time>2013-07-25T17:42:59Z</time>
      </trkpt>
      <trkpt lat="48.47966" lon="2.04508">
        <ele>146.489329</ele>
        <time>2013-07-25T17:43:04Z</time>
      </trkpt>
      <trkpt lat="48.47944" lon="2.04476">
        <ele>147.963809</ele>
        <time>2013-07-25T17:43:09Z</time>
      </trkpt>
      <trkpt lat="48.47941" lon="2.04468">
        <ele>146.90068</ele>
        <time>2013-07-25T17:43:14Z</time>
      </trkpt>
      <trkpt lat="48.47933" lon="2.04437">
        <ele>147.936551</ele>
        <time>2013-07-25T17:43:19Z</time>
      </trkpt>
      <trkpt lat="48.47886" lon="2.04441">
        <ele>149.822436</ele>
        <time>2013-07-25T17:43:24Z</time>
      </trkpt>
      <trkpt lat="48.47845" lon="2.04423">
        <ele>151.675288</ele>
        <time>2013-07-25T17:43:29Z</time>
      </trkpt>
      <trkpt lat="48.47803" lon="2.04389">
        <ele>150.336184</ele>
        <time>2013-07-25T17:43:34Z</time>
      </trkpt>
      <trkpt lat="48.47751" lon="2.04375">
        <ele>152.23356</ele>
        <time>2013-07-25T17:43:39Z</time>
      </trkpt>
      <trkpt lat="48.47686" lon="2.04372">
        <ele>153.482356</ele>
        <time>2013-07-25T17:43:44Z</time>
      </trkpt>
      <trkpt lat="48.47635" lon="2.04368">
        <ele>154.245046</ele>
        <time>2013-07-25T17:43:49Z</time>
      </trkpt>
      <trkpt lat="48.47597" lon="2.0433">
        <ele>153.095399</ele>
        <time>2013-07-25T17:43:54Z</time>
      </trkpt>
      <trkpt lat="48.47549" lon="2.04276">
        <ele>153.133209</ele>
        <time>2013-07-25T17:43:59Z</time>
      </trkpt>
      <trkpt lat="48.47487" lon="2.04206">
        <ele>152.626844</ele>
        <time>2013-07-25T17:44:04Z</time>
      </trkpt>
      <trkpt lat="48.47424" lon="2.04131">
        <ele>152.627213</ele>
        <time>2013-07-25T17:44:09Z</time>
      </trkpt>
      <trkpt lat="48.47351" lon="2.04065">
        <ele>153.578947</ele>
        <time>2013-07-25T17:44:14Z</time>
      </trkpt>
      <trkpt lat="48.47272" lon="2.04002">
        <ele>153.509912</ele>
        <time>2013-07-25T17:44:19Z</time>
      </trkpt>
      <trkpt lat="48.47202" lon="2.03936">
        <ele>153.225457</ele>
        <time>2013-07-25T17:44:24Z</time>
      </trkpt>
      <trkpt lat="48.47138" lon="2.03867">
        <ele>153.325414</ele>
        <time>2013-07-25T17:44:29Z</time>
      </trkpt>
      <trkpt lat="48.47074" lon="2.03778">
        <ele>154.484121</ele>
        <time>2013-07-25T17:44:34Z</time>
      </trkpt>
      <trkpt lat="48.4701" lon="2.03686">
        <ele>153.437351</ele>
        <time>2013-07-25T17:44:39Z</time>
      </trkpt>
      <trkpt lat="48.46951" lon="2.03605">
        <ele>152.924551</ele>
        <time>2013-07-25T17:44:44Z</time>
      </trkpt>
      <trkpt lat="48.46889" lon="2.0352">
        <ele>152.832982</ele>
        <time>2013-07-25T17:44:49Z</time>
      </trkpt>
      <trkpt lat="48.4683" lon="2.03447">
        <ele>151.801334</ele>
        <time>2013-07-25T17:44:54Z</time>
      </trkpt>
      <trkpt lat="48.46768" lon="2.0338">
        <ele>151.355636</ele>
        <time>2013-07-25T17:44:59Z</time>
      </trkpt>
      <trkpt lat="48.46704" lon="2.03307">
        <ele>149.23389</ele>
        <time>2013-07-25T17:45:04Z</time>
      </trkpt>
      <trkpt lat="48.4665" lon="2.03238">
        <ele>150.031131</ele>
        <time>2013-07-25T17:45:09Z</time>
      </trkpt>
      <trkpt lat="48.46595" lon="2.03167">
        <ele>151.359052</ele>
        <time>2013-07-25T17:45:14Z</time>
      </trkpt>
      <trkpt lat="48.46534" lon="2.03089">
        <ele>151.478366</ele>
        <time>2013-07-25T17:45:19Z</time>
      </trkpt>
      <trkpt lat="48.46494" lon="2.03041">
        <ele>151.501911</ele>
        <time>2013-07-25T17:45:24Z</time>
      </trkpt>
      <trkpt lat="48.46491" lon="2.03037">
        <ele>151.17377</ele>
        <time>2013-07-25T17:45:29Z</time>
      </trkpt>
      <trkpt lat="48.46491" lon="2.03037">
        <ele>151.17377</ele>
        <time>2013-07-25T17:45:34Z</time>
      </trkpt>
      <trkpt lat="48.46491" lon="2.03037">
        <ele>151.17377</ele>
        <time>2013-07-25T17:45:39Z</time>
      </trkpt>
      <trkpt lat="48.46491" lon="2.03037">
        <ele>151.17377</ele>
        <time>2013-07-25T17:45:44Z</time>
      </trkpt>
      <trkpt lat="48.46491" lon="2.03037">
        <ele>151.17377</ele>
        <time>2013-07-25T17:45:49Z</time>
      </trkpt>
      <trkpt lat="48.46491" lon="2.03037">
        <ele>151.17377</ele>
        <time>2013-07-25T17:45:54Z</time>
      </trkpt>
      <trkpt lat="48.46491" lon="2.03037">
        <ele>151.17377</ele>
        <time>2013-07-25T17:45:59Z</time>
      </trkpt>
      <trkpt lat="48.46491" lon="2.03037">
        <ele>151.17377</ele>
        <time>2013-07-25T17:46:04Z</time>
      </trkpt>
      <trkpt lat="48.46491" lon="2.03037">
        <ele>151.17377</ele>
        <time>2013-07-25T17:46:09Z</time>
      </trkpt>
      <trkpt lat="48.46491" lon="2.03037">
        <ele>151.17377</ele>
        <time>2013-07-25T17:46:14Z</time>
      </trkpt>
      <trkpt lat="48.46491" lon="2.03037">
        <ele>151.17377</ele>
        <time>2013-07-25T17:46:19Z</time>
      </trkpt>
      <trkpt lat="48.46491" lon="2.03037">
        <ele>151.17377</ele>
        <time>2013-07-25T17:46:24Z</time>
      </trkpt>
      <trkpt lat="48.46491" lon="2.03037">
        <ele>151.17377</ele>
        <time>2013-07-25T17:46:29Z</time>
      </trkpt>
      <trkpt lat="48.46488" lon="2.03019">
        <ele>152.10782</ele>
        <time>2013-07-25T17:46:34Z</time>
      </trkpt>
      <trkpt lat="48.46497" lon="2.02963">
        <ele>152.38524</ele>
        <time>2013-07-25T17:46:39Z</time>
      </trkpt>
      <trkpt lat="48.4651" lon="2.02878">
        <ele>153.752957</ele>
        <time>2013-07-25T17:46:44Z</time>
      </trkpt>
      <trkpt lat="48.46525" lon="2.02779">
        <ele>153.6238</ele>
        <time>2013-07-25T17:46:49Z</time>
      </trkpt>
      <trkpt lat="48.46538" lon="2.0269">
        <ele>152.848692</ele>
        <time>2013-07-25T17:46:54Z</time>
      </trkpt>
      <trkpt lat="48.46546" lon="2.02624">
        <ele>152.215122</ele>
        <time>2013-07-25T17:46:59Z</time>
      </trkpt>
      <trkpt lat="48.46541" lon="2.02595">
        <ele>151.293332</ele>
        <time>2013-07-25T17:47:04Z</time>
      </trkpt>
      <trkpt lat="48.46494" lon="2.02587">
        <ele>151.569101</ele>
        <time>2013-07-25T17:47:09Z</time>
      </trkpt>
      <trkpt lat="48.46442" lon="2.02575">
        <ele>151.369044</ele>
        <time>2013-07-25T17:47:14Z</time>
      </trkpt>
      <trkpt lat="48.46381" lon="2.02558">
        <ele>151.971845</ele>
        <time>2013-07-25T17:47:19Z</time>
      </trkpt>
      <trkpt lat="48.46315" lon="2.02536">
        <ele>152.075857</ele>
        <time>2013-07-25T17:47:24Z</time>
      </trkpt>
      <trkpt lat="48.46252" lon="2.02516">
        <ele>151.050462</ele>
        <time>2013-07-25T17:47:29Z</time>
      </trkpt>
      <trkpt lat="48.46215" lon="2.02501">
        <ele>151.149739</ele>
        <time>2013-07-25T17:47:34Z</time>
      </trkpt>
      <trkpt lat="48.46219" lon="2.02458">
        <ele>151.982859</ele>
        <time>2013-07-25T17:47:39Z</time>
      </trkpt>
      <trkpt lat="48.46244" lon="2.02347">
        <ele>152.332281</ele>
        <time>2013-07-25T17:47:44Z</time>
      </trkpt>
      <trkpt lat="48.46276" lon="2.02233">
        <ele>151.65402</ele>
        <time>2013-07-25T17:47:49Z</time>
      </trkpt>
      <trkpt lat="48.46297" lon="2.02161">
        <ele>152.426658</ele>
        <time>2013-07-25T17:47:54Z</time>
      </trkpt>
      <trkpt lat="48.46289" lon="2.02139">
        <ele>152.948616</ele>
        <time>2013-07-25T17:47:59Z</time>
      </trkpt>
      <trkpt lat="48.46233" lon="2.02127">
        <ele>153.904854</ele>
        <time>2013-07-25T17:48:04Z</time>
      </trkpt>
      <trkpt lat="48.46153" lon="2.02113">
        <ele>153.956589</ele>
        <time>2013-07-25T17:48:09Z</time>
      </trkpt>
      <trkpt lat="48.46068" lon="2.02098">
        <ele>153.643078</ele>
        <time>2013-07-25T17:48:14Z</time>
      </trkpt>
      <trkpt lat="48.45984" lon="2.02082">
        <ele>154.165245</ele>
        <time>2013-07-25T17:48:19Z</time>
      </trkpt>
      <trkpt lat="48.45905" lon="2.02067">
        <ele>153.534768</ele>
        <time>2013-07-25T17:48:24Z</time>
      </trkpt>
      <trkpt lat="48.45828" lon="2.02052">
        <ele>152.3285</ele>
        <time>2013-07-25T17:48:29Z</time>
      </trkpt>
      <trkpt lat="48.45748" lon="2.02036">
        <ele>152.363242</ele>
        <time>2013-07-25T17:48:34Z</time>
      </trkpt>
      <trkpt lat="48.45666" lon="2.02021">
        <ele>151.565112</ele>
        <time>2013-07-25T17:48:39Z</time>
      </trkpt>
      <trkpt lat="48.45581" lon="2.02005">
        <ele>150.596987</ele>
        <time>2013-07-25T17:48:44Z</time>
      </trkpt>
      <trkpt lat="48.45501" lon="2.0199">
        <ele>149.887181</ele>
        <time>2013-07-25T17:48:49Z</time>
      </trkpt>
      <trkpt lat="48.45433" lon="2.01978">
        <ele>148.670384</ele>
        <time>2013-07-25T17:48:54Z</time>
      </trkpt>
      <trkpt lat="48.45417" lon="2.01987">
        <ele>149.880603</ele>
        <time>2013-07-25T17:48:59Z</time>
      </trkpt>
      <trkpt lat="48.45432" lon="2.0207">
        <ele>151.757081</ele>
        <time>2013-07-25T17:49:04Z</time>
      </trkpt>
      <trkpt lat="48.45451" lon="2.02185">
        <ele>151.630141</ele>
        <time>2013-07-25T17:49:09Z</time>
      </trkpt>
      <trkpt lat="48.4547" lon="2.02304">
        <ele>151.551243</ele>
        <time>2013-07-25T17:49:14Z</time>
      </trkpt>
      <trkpt lat="48.4549" lon="2.0242">
        <ele>150.015536</ele>
        <time>2013-07-25T17:49:19Z</time>
      </trkpt>
      <trkpt lat="48.45505" lon="2.02514">
        <ele>149.923139</ele>
        <time>2013-07-25T17:49:24Z</time>
      </trkpt>
      <trkpt lat="48.4551" lon="2.02553">
        <ele>148.871411</ele>
        <time>2013-07-25T17:49:29Z</time>
      </trkpt>
      <trkpt lat="48.4551" lon="2.02554">
        <ele>148.894852</ele>
        <time>2013-07-25T17:49:34Z</time>
      </trkpt>
      <trkpt lat="48.45504" lon="2.02561">
        <ele>149.33228</ele>
        <time>2013-07-25T17:49:39Z</time>
      </trkpt>
      <trkpt lat="48.45473" lon="2.02615">
        <ele>148.986633</ele>
        <time>2013-07-25T17:49:44Z</time>
      </trkpt>
      <trkpt lat="48.45432" lon="2.02685">
        <ele>148.986307</ele>
        <time>2013-07-25T17:49:49Z</time>
      </trkpt>
      <trkpt lat="48.45392" lon="2.02765">
        <ele>149.899402</ele>
        <time>2013-07-25T17:49:54Z</time>
      </trkpt>
      <trkpt lat="48.45338" lon="2.02871">
        <ele>149.678431</ele>
        <time>2013-07-25T17:49:59Z</time>
      </trkpt>
      <trkpt lat="48.45278" lon="2.02978">
        <ele>149.054534</ele>
        <time>2013-07-25T17:50:04Z</time>
      </trkpt>
      <trkpt lat="48.45211" lon="2.03085">
        <ele>149.415694</ele>
        <time>2013-07-25T17:50:09Z</time>
      </trkpt>
      <trkpt lat="48.45145" lon="2.03201">
        <ele>149.28048</ele>
        <time>2013-07-25T17:50:14Z</time>
      </trkpt>
      <trkpt lat="48.45075" lon="2.03322">
        <ele>148.298408</ele>
        <time>2013-07-25T17:50:19Z</time>
      </trkpt>
      <trkpt lat="48.4501" lon="2.03423">
        <ele>146.582601</ele>
        <time>2013-07-25T17:50:24Z</time>
      </trkpt>
      <trkpt lat="48.44949" lon="2.03526">
        <ele>145.811436</ele>
        <time>2013-07-25T17:50:29Z</time>
      </trkpt>
      <trkpt lat="48.44884" lon="2.03635">
        <ele>144.216838</ele>
        <time>2013-07-25T17:50:34Z</time>
      </trkpt>
      <trkpt lat="48.44819" lon="2.03743">
        <ele>141.875706</ele>
        <time>2013-07-25T17:50:39Z</time>
      </trkpt>
      <trkpt lat="48.44768" lon="2.03825">
        <ele>140.004657</ele>
        <time>2013-07-25T17:50:44Z</time>
      </trkpt>
      <trkpt lat="48.44728" lon="2.03886">
        <ele>138.526187</ele>
        <time>2013-07-25T17:50:49Z</time>
      </trkpt>
      <trkpt lat="48.44706" lon="2.03939">
        <ele>136.606305</ele>
        <time>2013-07-25T17:50:54Z</time>
      </trkpt>
      <trkpt lat="48.44711" lon="2.03966">
        <ele>136.00901</ele>
        <time>2013-07-25T17:50:59Z</time>
      </trkpt>
      <trkpt lat="48.44745" lon="2.03981">
        <ele>139.300785</ele>
        <time>2013-07-25T17:51:04Z</time>
      </trkpt>
      <trkpt lat="48.44781" lon="2.03978">
        <ele>141.622997</ele>
        <time>2013-07-25T17:51:09Z</time>
      </trkpt>
      <trkpt lat="48.44822" lon="2.03966">
        <ele>142.048008</ele>
        <time>2013-07-25T17:51:14Z</time>
      </trkpt>
      <trkpt lat="48.44831" lon="2.03972">
        <ele>137.758753</ele>
        <time>2013-07-25T17:51:19Z</time>
      </trkpt>
      <trkpt lat="48.44832" lon="2.04008">
        <ele>136.383996</ele>
        <time>2013-07-25T17:51:24Z</time>
      </trkpt>
      <trkpt lat="48.44843" lon="2.04063">
        <ele>138.86995</ele>
        <time>2013-07-25T17:51:29Z</time>
      </trkpt>
      <trkpt lat="48.44865" lon="2.04105">
        <ele>142.52861</ele>
        <time>2013-07-25T17:51:34Z</time>
      </trkpt>
      <trkpt lat="48.44899" lon="2.04161">
        <ele>145.805684</ele>
        <time>2013-07-25T17:51:39Z</time>
      </trkpt>
      <trkpt lat="48.44892" lon="2.04178">
        <ele>142.839296</ele>
        <time>2013-07-25T17:51:44Z</time>
      </trkpt>
      <trkpt lat="48.44863" lon="2.04217">
        <ele>139.507837</ele>
        <time>2013-07-25T17:51:49Z</time>
      </trkpt>
      <trkpt lat="48.44829" lon="2.04255">
        <ele>135.811101</ele>
        <time>2013-07-25T17:51:54Z</time>
      </trkpt>
      <trkpt lat="48.44827" lon="2.04287">
        <ele>136.293047</ele>
        <time>2013-07-25T17:51:59Z</time>
      </trkpt>
      <trkpt lat="48.44843" lon="2.04253">
        <ele>138.115384</ele>
        <time>2013-07-25T17:52:04Z</time>
      </trkpt>
      <trkpt lat="48.44874" lon="2.04232">
        <ele>141.20015</ele>
        <time>2013-07-25T17:52:09Z</time>
      </trkpt>
      <trkpt lat="48.44893" lon="2.04201">
        <ele>141.915325</ele>
        <time>2013-07-25T17:52:14Z</time>
      </trkpt>
      <trkpt lat="48.44904" lon="2.04187">
        <ele>142.362988</ele>
        <time>2013-07-25T17:52:19Z</time>
      </trkpt>
      <trkpt lat="48.44898" lon="2.04172">
        <ele>142.4239</ele>
        <time>2013-07-25T17:52:24Z</time>
      </trkpt>
      <trkpt lat="48.44888" lon="2.04187">
        <ele>143.411095</ele>
        <time>2013-07-25T17:52:29Z</time>
      </trkpt>
      <trkpt lat="48.44885" lon="2.04195">
        <ele>143.381901</ele>
        <time>2013-07-25T17:52:34Z</time>
      </trkpt>
      <trkpt lat="48.44885" lon="2.04195">
        <ele>143.381901</ele>
        <time>2013-07-25T17:52:39Z</time>
      </trkpt>
      <trkpt lat="48.44885" lon="2.04195">
        <ele>143.381901</ele>
        <time>2013-07-25T17:52:44Z</time>
      </trkpt>
      <trkpt lat="48.44885" lon="2.04195">
        <ele>143.381901</ele>
        <time>2013-07-25T17:52:49Z</time>
      </trkpt>
      <trkpt lat="48.44885" lon="2.04195">
        <ele>143.381901</ele>
        <time>2013-07-25T17:52:54Z</time>
      </trkpt>
      <trkpt lat="48.44885" lon="2.04195">
        <ele>143.381901</ele>
        <time>2013-07-25T17:52:59Z</time>
      </trkpt>
      <trkpt lat="48.44885" lon="2.04195">
        <ele>143.381901</ele>
        <time>2013-07-25T17:53:04Z</time>
      </trkpt>
      <trkpt lat="48.44885" lon="2.04195">
        <ele>143.381901</ele>
        <time>2013-07-25T17:53:09Z</time>
      </trkpt>
      <trkpt lat="48.44885" lon="2.04195">
        <ele>143.381901</ele>
        <time>2013-07-25T17:53:14Z</time>
      </trkpt>
      <trkpt lat="48.44885" lon="2.04195">
        <ele>143.381901</ele>
        <time>2013-07-25T17:53:19Z</time>
      </trkpt>
      <trkpt lat="48.44885" lon="2.04195">
        <ele>143.381901</ele>
        <time>2013-07-25T17:53:24Z</time>
      </trkpt>
      <trkpt lat="48.44885" lon="2.04195">
        <ele>143.381901</ele>
        <time>2013-07-25T17:53:29Z</time>
      </trkpt>
      <trkpt lat="48.44885" lon="2.04195">
        <ele>143.381901</ele>
        <time>2013-07-25T17:53:34Z</time>
      </trkpt>
      <trkpt lat="48.44885" lon="2.04195">
        <ele>143.381901</ele>
        <time>2013-07-25T17:53:39Z</time>
      </trkpt>
      <trkpt lat="48.44885" lon="2.04195">
        <ele>143.381901</ele>
        <time>2013-07-25T17:53:44Z</time>
      </trkpt>
      <trkpt lat="48.44885" lon="2.04195">
        <ele>143.381901</ele>
        <time>2013-07-25T17:53:49Z</time>
      </trkpt>
      <trkpt lat="48.44885" lon="2.04195">
        <ele>143.381901</ele>
        <time>2013-07-25T17:53:54Z</time>
      </trkpt>
      <trkpt lat="48.44884" lon="2.04197">
        <ele>143.343672</ele>
        <time>2013-07-25T17:53:59Z</time>
      </trkpt>
      <trkpt lat="48.44883" lon="2.04218">
        <ele>142.949837</ele>
        <time>2013-07-25T17:54:04Z</time>
      </trkpt>
      <trkpt lat="48.44887" lon="2.04217">
        <ele>142.519823</ele>
        <time>2013-07-25T17:54:09Z</time>
      </trkpt>
      <trkpt lat="48.44897" lon="2.04195">
        <ele>143.488517</ele>
        <time>2013-07-25T17:54:14Z</time>
      </trkpt>
      <trkpt lat="48.44903" lon="2.04173">
        <ele>142.765902</ele>
        <time>2013-07-25T17:54:19Z</time>
      </trkpt>
      <trkpt lat="48.44902" lon="2.04168">
        <ele>142.609508</ele>
        <time>2013-07-25T17:54:24Z</time>
      </trkpt>
      <trkpt lat="48.44902" lon="2.04168">
        <ele>142.609508</ele>
        <time>2013-07-25T17:54:29Z</time>
      </trkpt>
      <trkpt lat="48.44893" lon="2.04148">
        <ele>143.067801</ele>
        <time>2013-07-25T17:54:34Z</time>
      </trkpt>
      <trkpt lat="48.44868" lon="2.04106">
        <ele>141.311985</ele>
        <time>2013-07-25T17:54:39Z</time>
      </trkpt>
      <trkpt lat="48.44848" lon="2.04069">
        <ele>141.380477</ele>
        <time>2013-07-25T17:54:44Z</time>
      </trkpt>
      <trkpt lat="48.44834" lon="2.0401">
        <ele>141.498759</ele>
        <time>2013-07-25T17:54:49Z</time>
      </trkpt>
      <trkpt lat="48.44833" lon="2.03981">
        <ele>138.734246</ele>
        <time>2013-07-25T17:54:54Z</time>
      </trkpt>
      <trkpt lat="48.44815" lon="2.04015">
        <ele>139.64812</ele>
        <time>2013-07-25T17:54:59Z</time>
      </trkpt>
      <trkpt lat="48.44794" lon="2.04044">
        <ele>140.874142</ele>
        <time>2013-07-25T17:55:04Z</time>
      </trkpt>
      <trkpt lat="48.4477" lon="2.04089">
        <ele>140.138726</ele>
        <time>2013-07-25T17:55:09Z</time>
      </trkpt>
      <trkpt lat="48.44751" lon="2.0414">
        <ele>139.091607</ele>
        <time>2013-07-25T17:55:14Z</time>
      </trkpt>
      <trkpt lat="48.44742" lon="2.04189">
        <ele>135.882361</ele>
        <time>2013-07-25T17:55:19Z</time>
      </trkpt>
      <trkpt lat="48.44719" lon="2.0421">
        <ele>134.059378</ele>
        <time>2013-07-25T17:55:24Z</time>
      </trkpt>
      <trkpt lat="48.44699" lon="2.04238">
        <ele>130.366052</ele>
        <time>2013-07-25T17:55:29Z</time>
      </trkpt>
      <trkpt lat="48.44689" lon="2.04258">
        <ele>126.551706</ele>
        <time>2013-07-25T17:55:34Z</time>
      </trkpt>
      <trkpt lat="48.44689" lon="2.04316">
        <ele>127.653903</ele>
        <time>2013-07-25T17:55:39Z</time>
      </trkpt>
      <trkpt lat="48.44709" lon="2.04418">
        <ele>127.309861</ele>
        <time>2013-07-25T17:55:44Z</time>
      </trkpt>
      <trkpt lat="48.44727" lon="2.04503">
        <ele>124.414025</ele>
        <time>2013-07-25T17:55:49Z</time>
      </trkpt>
      <trkpt lat="48.44739" lon="2.04579">
        <ele>120.28659</ele>
        <time>2013-07-25T17:55:54Z</time>
      </trkpt>
      <trkpt lat="48.44755" lon="2.04681">
        <ele>115.454944</ele>
        <time>2013-07-25T17:55:59Z</time>
      </trkpt>
      <trkpt lat="48.44771" lon="2.04786">
        <ele>112.831229</ele>
        <time>2013-07-25T17:56:04Z</time>
      </trkpt>
      <trkpt lat="48.44788" lon="2.04882">
        <ele>110.790859</ele>
        <time>2013-07-25T17:56:09Z</time>
      </trkpt>
      <trkpt lat="48.44798" lon="2.04981">
        <ele>109.806333</ele>
        <time>2013-07-25T17:56:14Z</time>
      </trkpt>
      <trkpt lat="48.44798" lon="2.05082">
        <ele>110.260405</ele>
        <time>2013-07-25T17:56:19Z</time>
      </trkpt>
      <trkpt lat="48.4479" lon="2.05174">
        <ele>110.036253</ele>
        <time>2013-07-25T17:56:24Z</time>
      </trkpt>
      <trkpt lat="48.44772" lon="2.05271">
        <ele>107.812842</ele>
        <time>2013-07-25T17:56:29Z</time>
      </trkpt>
      <trkpt lat="48.44748" lon="2.0536">
        <ele>107.203682</ele>
        <time>2013-07-25T17:56:34Z</time>
      </trkpt>
      <trkpt lat="48.44714" lon="2.05436">
        <ele>107.085072</ele>
        <time>2013-07-25T17:56:39Z</time>
      </trkpt>
      <trkpt lat="48.44684" lon="2.05503">
        <ele>106.308685</ele>
        <time>2013-07-25T17:56:44Z</time>
      </trkpt>
      <trkpt lat="48.4465" lon="2.05573">
        <ele>105.347903</ele>
        <time>2013-07-25T17:56:49Z</time>
      </trkpt>
      <trkpt lat="48.44635" lon="2.05607">
        <ele>108.597531</ele>
        <time>2013-07-25T17:56:54Z</time>
      </trkpt>
      <trkpt lat="48.44635" lon="2.05609">
        <ele>108.621329</ele>
        <time>2013-07-25T17:56:59Z</time>
      </trkpt>
      <trkpt lat="48.44615" lon="2.05623">
        <ele>109.675668</ele>
        <time>2013-07-25T17:57:04Z</time>
      </trkpt>
      <trkpt lat="48.44578" lon="2.05631">
        <ele>110.850117</ele>
        <time>2013-07-25T17:57:09Z</time>
      </trkpt>
      <trkpt lat="48.44529" lon="2.05642">
        <ele>114.898295</ele>
        <time>2013-07-25T17:57:14Z</time>
      </trkpt>
      <trkpt lat="48.44494" lon="2.05665">
        <ele>117.254376</ele>
        <time>2013-07-25T17:57:19Z</time>
      </trkpt>
      <trkpt lat="48.44441" lon="2.05722">
        <ele>119.782585</ele>
        <time>2013-07-25T17:57:24Z</time>
      </trkpt>
      <trkpt lat="48.44419" lon="2.05744">
        <ele>125.129011</ele>
        <time>2013-07-25T17:57:29Z</time>
      </trkpt>
      <trkpt lat="48.44379" lon="2.05787">
        <ele>128.913036</ele>
        <time>2013-07-25T17:57:34Z</time>
      </trkpt>
      <trkpt lat="48.44332" lon="2.05814">
        <ele>131.236501</ele>
        <time>2013-07-25T17:57:39Z</time>
      </trkpt>
      <trkpt lat="48.44287" lon="2.05798">
        <ele>134.318487</ele>
        <time>2013-07-25T17:57:44Z</time>
      </trkpt>
      <trkpt lat="48.44251" lon="2.05745">
        <ele>137.331398</ele>
        <time>2013-07-25T17:57:49Z</time>
      </trkpt>
      <trkpt lat="48.44219" lon="2.05682">
        <ele>139.662048</ele>
        <time>2013-07-25T17:57:54Z</time>
      </trkpt>
      <trkpt lat="48.44196" lon="2.05637">
        <ele>143.672089</ele>
        <time>2013-07-25T17:57:59Z</time>
      </trkpt>
      <trkpt lat="48.4416" lon="2.05579">
        <ele>144.431651</ele>
        <time>2013-07-25T17:58:04Z</time>
      </trkpt>
      <trkpt lat="48.44116" lon="2.05523">
        <ele>143.97918</ele>
        <time>2013-07-25T17:58:09Z</time>
      </trkpt>
      <trkpt lat="48.44084" lon="2.05507">
        <ele>141.58477</ele>
        <time>2013-07-25T17:58:14Z</time>
      </trkpt>
      <trkpt lat="48.44037" lon="2.055">
        <ele>138.33355</ele>
        <time>2013-07-25T17:58:19Z</time>
      </trkpt>
      <trkpt lat="48.43998" lon="2.0551">
        <ele>139.474452</ele>
        <time>2013-07-25T17:58:24Z</time>
      </trkpt>
      <trkpt lat="48.43927" lon="2.05509">
        <ele>143.190287</ele>
        <time>2013-07-25T17:58:29Z</time>
      </trkpt>
      <trkpt lat="48.43864" lon="2.05509">
        <ele>144.70517</ele>
        <time>2013-07-25T17:58:34Z</time>
      </trkpt>
      <trkpt lat="48.43807" lon="2.05507">
        <ele>145.851172</ele>
        <time>2013-07-25T17:58:39Z</time>
      </trkpt>
      <trkpt lat="48.43773" lon="2.05507">
        <ele>146.396171</ele>
        <time>2013-07-25T17:58:44Z</time>
      </trkpt>
      <trkpt lat="48.4372" lon="2.0551">
        <ele>148.642215</ele>
        <time>2013-07-25T17:58:49Z</time>
      </trkpt>
      <trkpt lat="48.4363" lon="2.05503">
        <ele>148.190114</ele>
        <time>2013-07-25T17:58:54Z</time>
      </trkpt>
      <trkpt lat="48.43549" lon="2.05503">
        <ele>146.356686</ele>
        <time>2013-07-25T17:58:59Z</time>
      </trkpt>
      <trkpt lat="48.43487" lon="2.05561">
        <ele>145.413797</ele>
        <time>2013-07-25T17:59:04Z</time>
      </trkpt>
      <trkpt lat="48.43429" lon="2.0564">
        <ele>145.169637</ele>
        <time>2013-07-25T17:59:09Z</time>
      </trkpt>
      <trkpt lat="48.43389" lon="2.05691">
        <ele>144.95533</ele>
        <time>2013-07-25T17:59:14Z</time>
      </trkpt>
      <trkpt lat="48.43349" lon="2.05695">
        <ele>145.148939</ele>
        <time>2013-07-25T17:59:19Z</time>
      </trkpt>
      <trkpt lat="48.43295" lon="2.05625">
        <ele>146.691521</ele>
        <time>2013-07-25T17:59:24Z</time>
      </trkpt>
      <trkpt lat="48.43231" lon="2.05539">
        <ele>146.435454</ele>
        <time>2013-07-25T17:59:29Z</time>
      </trkpt>
      <trkpt lat="48.43168" lon="2.05455">
        <ele>145.650409</ele>
        <time>2013-07-25T17:59:34Z</time>
      </trkpt>
      <trkpt lat="48.43105" lon="2.05376">
        <ele>144.938067</ele>
        <time>2013-07-25T17:59:39Z</time>
      </trkpt>
      <trkpt lat="48.43039" lon="2.05293">
        <ele>144.009404</ele>
        <time>2013-07-25T17:59:44Z</time>
      </trkpt>
      <trkpt lat="48.42979" lon="2.05215">
        <ele>143.49356</ele>
        <time>2013-07-25T17:59:49Z</time>
      </trkpt>
      <trkpt lat="48.42915" lon="2.05144">
        <ele>142.179542</ele>
        <time>2013-07-25T17:59:54Z</time>
      </trkpt>
      <trkpt lat="48.42863" lon="2.05083">
        <ele>138.999206</ele>
        <time>2013-07-25T17:59:59Z</time>
      </trkpt>
      <trkpt lat="48.42831" lon="2.05005">
        <ele>136.847243</ele>
        <time>2013-07-25T18:00:04Z</time>
      </trkpt>
      <trkpt lat="48.42801" lon="2.04931">
        <ele>137.011553</ele>
        <time>2013-07-25T18:00:09Z</time>
      </trkpt>
      <trkpt lat="48.42751" lon="2.04865">
        <ele>138.142312</ele>
        <time>2013-07-25T18:00:14Z</time>
      </trkpt>
      <trkpt lat="48.42719" lon="2.04826">
        <ele>140.250857</ele>
        <time>2013-07-25T18:00:19Z</time>
      </trkpt>
      <trkpt lat="48.42666" lon="2.04748">
        <ele>142.326022</ele>
        <time>2013-07-25T18:00:24Z</time>
      </trkpt>
      <trkpt lat="48.42615" lon="2.04677">
        <ele>141.204956</ele>
        <time>2013-07-25T18:00:29Z</time>
      </trkpt>
      <trkpt lat="48.42592" lon="2.04678">
        <ele>143.185484</ele>
        <time>2013-07-25T18:00:34Z</time>
      </trkpt>
      <trkpt lat="48.42535" lon="2.04797">
        <ele>145.237899</ele>
        <time>2013-07-25T18:00:40Z</time>
      </trkpt>
      <trkpt lat="48.42472" lon="2.04927">
        <ele>147.057451</ele>
        <time>2013-07-25T18:00:45Z</time>
      </trkpt>
      <trkpt lat="48.42415" lon="2.05045">
        <ele>145.434476</ele>
        <time>2013-07-25T18:00:50Z</time>
      </trkpt>
      <trkpt lat="48.42362" lon="2.05152">
        <ele>144.710878</ele>
        <time>2013-07-25T18:00:55Z</time>
      </trkpt>
      <trkpt lat="48.4232" lon="2.0524">
        <ele>144.226356</ele>
        <time>2013-07-25T18:01:00Z</time>
      </trkpt>
      <trkpt lat="48.42276" lon="2.05258">
        <ele>145.268097</ele>
        <time>2013-07-25T18:01:05Z</time>
      </trkpt>
      <trkpt lat="48.42207" lon="2.05268">
        <ele>145.133916</ele>
        <time>2013-07-25T18:01:10Z</time>
      </trkpt>
      <trkpt lat="48.42144" lon="2.05249">
        <ele>144.840794</ele>
        <time>2013-07-25T18:01:15Z</time>
      </trkpt>
      <trkpt lat="48.42095" lon="2.05178">
        <ele>145.217861</ele>
        <time>2013-07-25T18:01:20Z</time>
      </trkpt>
      <trkpt lat="48.42039" lon="2.05096">
        <ele>144.233777</ele>
        <time>2013-07-25T18:01:25Z</time>
      </trkpt>
      <trkpt lat="48.4199" lon="2.05006">
        <ele>142.869116</ele>
        <time>2013-07-25T18:01:30Z</time>
      </trkpt>
      <trkpt lat="48.41933" lon="2.0492">
        <ele>143.142679</ele>
        <time>2013-07-25T18:01:35Z</time>
      </trkpt>
      <trkpt lat="48.41858" lon="2.04868">
        <ele>141.436474</ele>
        <time>2013-07-25T18:01:40Z</time>
      </trkpt>
      <trkpt lat="48.41785" lon="2.04828">
        <ele>139.427573</ele>
        <time>2013-07-25T18:01:45Z</time>
      </trkpt>
      <trkpt lat="48.41754" lon="2.04824">
        <ele>138.009835</ele>
        <time>2013-07-25T18:01:50Z</time>
      </trkpt>
      <trkpt lat="48.41753" lon="2.04845">
        <ele>136.230118</ele>
        <time>2013-07-25T18:01:55Z</time>
      </trkpt>
      <trkpt lat="48.41773" lon="2.04904">
        <ele>135.120247</ele>
        <time>2013-07-25T18:02:00Z</time>
      </trkpt>
      <trkpt lat="48.41788" lon="2.0497">
        <ele>132.379217</ele>
        <time>2013-07-25T18:02:05Z</time>
      </trkpt>
      <trkpt lat="48.41808" lon="2.05039">
        <ele>129.277049</ele>
        <time>2013-07-25T18:02:10Z</time>
      </trkpt>
      <trkpt lat="48.41833" lon="2.05106">
        <ele>125.827332</ele>
        <time>2013-07-25T18:02:15Z</time>
      </trkpt>
      <trkpt lat="48.41849" lon="2.05169">
        <ele>120.302294</ele>
        <time>2013-07-25T18:02:20Z</time>
      </trkpt>
      <trkpt lat="48.41862" lon="2.05217">
        <ele>115.673214</ele>
        <time>2013-07-25T18:02:25Z</time>
      </trkpt>
      <trkpt lat="48.41831" lon="2.05204">
        <ele>111.929244</ele>
        <time>2013-07-25T18:02:30Z</time>
      </trkpt>
      <trkpt lat="48.41809" lon="2.052">
        <ele>105.459211</ele>
        <time>2013-07-25T18:02:35Z</time>
      </trkpt>
      <trkpt lat="48.41802" lon="2.05211">
        <ele>100.243796</ele>
        <time>2013-07-25T18:02:40Z</time>
      </trkpt>
      <trkpt lat="48.41782" lon="2.05167">
        <ele>98.790819</ele>
        <time>2013-07-25T18:02:45Z</time>
      </trkpt>
      <trkpt lat="48.4176" lon="2.0513">
        <ele>97.372136</ele>
        <time>2013-07-25T18:02:50Z</time>
      </trkpt>
      <trkpt lat="48.41738" lon="2.0515">
        <ele>96.311881</ele>
        <time>2013-07-25T18:02:55Z</time>
      </trkpt>
      <trkpt lat="48.41701" lon="2.05189">
        <ele>96.727083</ele>
        <time>2013-07-25T18:03:00Z</time>
      </trkpt>
      <trkpt lat="48.41659" lon="2.05235">
        <ele>97.670687</ele>
        <time>2013-07-25T18:03:05Z</time>
      </trkpt>
      <trkpt lat="48.41633" lon="2.05268">
        <ele>99.393447</ele>
        <time>2013-07-25T18:03:10Z</time>
      </trkpt>
      <trkpt lat="48.41591" lon="2.05305">
        <ele>98.035979</ele>
        <time>2013-07-25T18:03:15Z</time>
      </trkpt>
      <trkpt lat="48.41546" lon="2.05348">
        <ele>98.679319</ele>
        <time>2013-07-25T18:03:20Z</time>
      </trkpt>
      <trkpt lat="48.41514" lon="2.05372">
        <ele>100.584867</ele>
        <time>2013-07-25T18:03:25Z</time>
      </trkpt>
      <trkpt lat="48.41478" lon="2.05386">
        <ele>98.475847</ele>
        <time>2013-07-25T18:03:30Z</time>
      </trkpt>
      <trkpt lat="48.41438" lon="2.05398">
        <ele>100.986484</ele>
        <time>2013-07-25T18:03:35Z</time>
      </trkpt>
      <trkpt lat="48.4142" lon="2.05409">
        <ele>105.660594</ele>
        <time>2013-07-25T18:03:40Z</time>
      </trkpt>
      <trkpt lat="48.41422" lon="2.05448">
        <ele>105.856565</ele>
        <time>2013-07-25T18:03:45Z</time>
      </trkpt>
      <trkpt lat="48.41403" lon="2.05499">
        <ele>107.650425</ele>
        <time>2013-07-25T18:03:50Z</time>
      </trkpt>
      <trkpt lat="48.41378" lon="2.05576">
        <ele>110.993466</ele>
        <time>2013-07-25T18:03:55Z</time>
      </trkpt>
      <trkpt lat="48.41379" lon="2.0568">
        <ele>117.978361</ele>
        <time>2013-07-25T18:04:00Z</time>
      </trkpt>
      <trkpt lat="48.41369" lon="2.05769">
        <ele>123.276952</ele>
        <time>2013-07-25T18:04:05Z</time>
      </trkpt>
      <trkpt lat="48.41345" lon="2.05836">
        <ele>130.025564</ele>
        <time>2013-07-25T18:04:10Z</time>
      </trkpt>
      <trkpt lat="48.41335" lon="2.05859">
        <ele>131.249735</ele>
        <time>2013-07-25T18:04:15Z</time>
      </trkpt>
      <trkpt lat="48.41284" lon="2.05874">
        <ele>133.819893</ele>
        <time>2013-07-25T18:04:20Z</time>
      </trkpt>
      <trkpt lat="48.41218" lon="2.05894">
        <ele>139.041242</ele>
        <time>2013-07-25T18:04:25Z</time>
      </trkpt>
      <trkpt lat="48.41148" lon="2.05898">
        <ele>142.312256</ele>
        <time>2013-07-25T18:04:30Z</time>
      </trkpt>
      <trkpt lat="48.41071" lon="2.05877">
        <ele>144.647564</ele>
        <time>2013-07-25T18:04:35Z</time>
      </trkpt>
      <trkpt lat="48.40996" lon="2.0585">
        <ele>144.12682</ele>
        <time>2013-07-25T18:04:40Z</time>
      </trkpt>
      <trkpt lat="48.40933" lon="2.05813">
        <ele>142.102617</ele>
        <time>2013-07-25T18:04:45Z</time>
      </trkpt>
      <trkpt lat="48.4088" lon="2.0576">
        <ele>139.081967</ele>
        <time>2013-07-25T18:04:50Z</time>
      </trkpt>
      <trkpt lat="48.40857" lon="2.05749">
        <ele>138.033437</ele>
        <time>2013-07-25T18:04:55Z</time>
      </trkpt>
      <trkpt lat="48.40875" lon="2.05702">
        <ele>137.634684</ele>
        <time>2013-07-25T18:05:00Z</time>
      </trkpt>
      <trkpt lat="48.40915" lon="2.05643">
        <ele>135.612283</ele>
        <time>2013-07-25T18:05:05Z</time>
      </trkpt>
      <trkpt lat="48.40951" lon="2.05569">
        <ele>134.486242</ele>
        <time>2013-07-25T18:05:10Z</time>
      </trkpt>
      <trkpt lat="48.40946" lon="2.05485">
        <ele>130.428398</ele>
        <time>2013-07-25T18:05:15Z</time>
      </trkpt>
      <trkpt lat="48.40927" lon="2.05388">
        <ele>123.815946</ele>
        <time>2013-07-25T18:05:20Z</time>
      </trkpt>
      <trkpt lat="48.40903" lon="2.05297">
        <ele>119.783968</ele>
        <time>2013-07-25T18:05:25Z</time>
      </trkpt>
      <trkpt lat="48.40865" lon="2.05217">
        <ele>115.121629</ele>
        <time>2013-07-25T18:05:30Z</time>
      </trkpt>
      <trkpt lat="48.40824" lon="2.05145">
        <ele>111.012569</ele>
        <time>2013-07-25T18:05:35Z</time>
      </trkpt>
      <trkpt lat="48.40799" lon="2.05082">
        <ele>107.481817</ele>
        <time>2013-07-25T18:05:40Z</time>
      </trkpt>
      <trkpt lat="48.40796" lon="2.05001">
        <ele>102.980711</ele>
        <time>2013-07-25T18:05:45Z</time>
      </trkpt>
      <trkpt lat="48.4079" lon="2.04952">
        <ele>101.618999</ele>
        <time>2013-07-25T18:05:50Z</time>
      </trkpt>
      <trkpt lat="48.40778" lon="2.0491">
        <ele>99.374822</ele>
        <time>2013-07-25T18:05:55Z</time>
      </trkpt>
      <trkpt lat="48.40791" lon="2.04855">
        <ele>97.750909</ele>
        <time>2013-07-25T18:06:00Z</time>
      </trkpt>
      <trkpt lat="48.40817" lon="2.04804">
        <ele>97.767576</ele>
        <time>2013-07-25T18:06:05Z</time>
      </trkpt>
      <trkpt lat="48.4082" lon="2.04752">
        <ele>98.446492</ele>
        <time>2013-07-25T18:06:10Z</time>
      </trkpt>
      <trkpt lat="48.40797" lon="2.04681">
        <ele>98.430586</ele>
        <time>2013-07-25T18:06:15Z</time>
      </trkpt>
      <trkpt lat="48.4077" lon="2.04595">
        <ele>99.975752</ele>
        <time>2013-07-25T18:06:20Z</time>
      </trkpt>
      <trkpt lat="48.40733" lon="2.04511">
        <ele>100.977746</ele>
        <time>2013-07-25T18:06:25Z</time>
      </trkpt>
      <trkpt lat="48.40686" lon="2.04442">
        <ele>100.069616</ele>
        <time>2013-07-25T18:06:30Z</time>
      </trkpt>
      <trkpt lat="48.40652" lon="2.04354">
        <ele>103.993783</ele>
        <time>2013-07-25T18:06:35Z</time>
      </trkpt>
      <trkpt lat="48.40623" lon="2.04254">
        <ele>105.221086</ele>
        <time>2013-07-25T18:06:40Z</time>
      </trkpt>
      <trkpt lat="48.40595" lon="2.04184">
        <ele>105.55842</ele>
        <time>2013-07-25T18:06:45Z</time>
      </trkpt>
      <trkpt lat="48.40597" lon="2.04188">
        <ele>104.386964</ele>
        <time>2013-07-25T18:06:50Z</time>
      </trkpt>
      <trkpt lat="48.406" lon="2.04188">
        <ele>103.144552</ele>
        <time>2013-07-25T18:06:55Z</time>
      </trkpt>
      <trkpt lat="48.406" lon="2.04192">
        <ele>102.552085</ele>
        <time>2013-07-25T18:07:00Z</time>
      </trkpt>
      <trkpt lat="48.40599" lon="2.04195">
        <ele>101.767083</ele>
        <time>2013-07-25T18:07:05Z</time>
      </trkpt>
      <trkpt lat="48.40597" lon="2.04195">
        <ele>100.934775</ele>
        <time>2013-07-25T18:07:10Z</time>
      </trkpt>
      <trkpt lat="48.40597" lon="2.04193">
        <ele>99.499828</ele>
        <time>2013-07-25T18:07:15Z</time>
      </trkpt>
      <trkpt lat="48.40598" lon="2.04193">
        <ele>99.584268</ele>
        <time>2013-07-25T18:07:20Z</time>
      </trkpt>
      <trkpt lat="48.40597" lon="2.04192">
        <ele>100.887468</ele>
        <time>2013-07-25T18:07:25Z</time>
      </trkpt>
      <trkpt lat="48.40597" lon="2.04191">
        <ele>100.200388</ele>
        <time>2013-07-25T18:07:30Z</time>
      </trkpt>
      <trkpt lat="48.40599" lon="2.04189">
        <ele>100.261176</ele>
        <time>2013-07-25T18:07:35Z</time>
      </trkpt>
      <trkpt lat="48.40598" lon="2.04188">
        <ele>99.489655</ele>
        <time>2013-07-25T18:07:40Z</time>
      </trkpt>
      <trkpt lat="48.40599" lon="2.04188">
        <ele>98.826229</ele>
        <time>2013-07-25T18:07:45Z</time>
      </trkpt>
      <trkpt lat="48.40599" lon="2.04189">
        <ele>99.597749</ele>
        <time>2013-07-25T18:07:50Z</time>
      </trkpt>
      <trkpt lat="48.40599" lon="2.04189">
        <ele>99.597749</ele>
        <time>2013-07-25T18:07:55Z</time>
      </trkpt>
      <trkpt lat="48.40599" lon="2.04191">
        <ele>98.873535</ele>
        <time>2013-07-25T18:08:00Z</time>
      </trkpt>
      <trkpt lat="48.40599" lon="2.04189">
        <ele>98.849882</ele>
        <time>2013-07-25T18:08:05Z</time>
      </trkpt>
      <trkpt lat="48.40597" lon="2.04189">
        <ele>98.765441</ele>
        <time>2013-07-25T18:08:10Z</time>
      </trkpt>
      <trkpt lat="48.40597" lon="2.04188">
        <ele>97.993921</ele>
        <time>2013-07-25T18:08:15Z</time>
      </trkpt>
      <trkpt lat="48.40597" lon="2.04188">
        <ele>97.993921</ele>
        <time>2013-07-25T18:08:20Z</time>
      </trkpt>
      <trkpt lat="48.40597" lon="2.04188">
        <ele>97.993921</ele>
        <time>2013-07-25T18:08:25Z</time>
      </trkpt>
      <trkpt lat="48.40596" lon="2.04188">
        <ele>98.657347</ele>
        <time>2013-07-25T18:08:30Z</time>
      </trkpt>
      <trkpt lat="48.40596" lon="2.04188">
        <ele>98.657347</ele>
        <time>2013-07-25T18:08:35Z</time>
      </trkpt>
      <trkpt lat="48.40595" lon="2.04188">
        <ele>98.572907</ele>
        <time>2013-07-25T18:08:40Z</time>
      </trkpt>
      <trkpt lat="48.40595" lon="2.04188">
        <ele>98.572907</ele>
        <time>2013-07-25T18:08:45Z</time>
      </trkpt>
      <trkpt lat="48.40595" lon="2.04188">
        <ele>98.572907</ele>
        <time>2013-07-25T18:08:50Z</time>
      </trkpt>
      <trkpt lat="48.40595" lon="2.04188">
        <ele>98.572907</ele>
        <time>2013-07-25T18:08:55Z</time>
      </trkpt>
      <trkpt lat="48.40595" lon="2.04188">
        <ele>98.572907</ele>
        <time>2013-07-25T18:09:00Z</time>
      </trkpt>
      <trkpt lat="48.40596" lon="2.04188">
        <ele>99.320774</ele>
        <time>2013-07-25T18:09:05Z</time>
      </trkpt>
      <trkpt lat="48.40596" lon="2.04189">
        <ele>99.344427</ele>
        <time>2013-07-25T18:09:10Z</time>
      </trkpt>
      <trkpt lat="48.40596" lon="2.04189">
        <ele>99.344427</ele>
        <time>2013-07-25T18:09:15Z</time>
      </trkpt>
      <trkpt lat="48.40595" lon="2.04189">
        <ele>100.007854</ele>
        <time>2013-07-25T18:09:20Z</time>
      </trkpt>
      <trkpt lat="48.40595" lon="2.04189">
        <ele>100.007854</ele>
        <time>2013-07-25T18:09:25Z</time>
      </trkpt>
      <trkpt lat="48.40595" lon="2.04191">
        <ele>100.031508</ele>
        <time>2013-07-25T18:09:30Z</time>
      </trkpt>
      <trkpt lat="48.40594" lon="2.04191">
        <ele>99.283641</ele>
        <time>2013-07-25T18:09:35Z</time>
      </trkpt>
      <trkpt lat="48.40594" lon="2.04191">
        <ele>99.283641</ele>
        <time>2013-07-25T18:09:40Z</time>
      </trkpt>
      <trkpt lat="48.40594" lon="2.04191">
        <ele>99.283641</ele>
        <time>2013-07-25T18:09:45Z</time>
      </trkpt>
      <trkpt lat="48.40594" lon="2.04191">
        <ele>99.283641</ele>
        <time>2013-07-25T18:09:50Z</time>
      </trkpt>
      <trkpt lat="48.40594" lon="2.04191">
        <ele>99.283641</ele>
        <time>2013-07-25T18:09:55Z</time>
      </trkpt>
      <trkpt lat="48.40594" lon="2.04191">
        <ele>99.283641</ele>
        <time>2013-07-25T18:10:00Z</time>
      </trkpt>
      <trkpt lat="48.40595" lon="2.04192">
        <ele>100.055161</ele>
        <time>2013-07-25T18:10:05Z</time>
      </trkpt>
      <trkpt lat="48.40595" lon="2.04192">
        <ele>100.803028</ele>
        <time>2013-07-25T18:10:10Z</time>
      </trkpt>
      <trkpt lat="48.40595" lon="2.04192">
        <ele>100.803028</ele>
        <time>2013-07-25T18:10:15Z</time>
      </trkpt>
      <trkpt lat="48.40595" lon="2.04192">
        <ele>100.803028</ele>
        <time>2013-07-25T18:10:20Z</time>
      </trkpt>
      <trkpt lat="48.40596" lon="2.04193">
        <ele>101.574548</ele>
        <time>2013-07-25T18:10:25Z</time>
      </trkpt>
      <trkpt lat="48.40596" lon="2.04193">
        <ele>101.574548</ele>
        <time>2013-07-25T18:10:30Z</time>
      </trkpt>
      <trkpt lat="48.40596" lon="2.04193">
        <ele>101.574548</ele>
        <time>2013-07-25T18:10:35Z</time>
      </trkpt>
      <trkpt lat="48.40596" lon="2.04193">
        <ele>101.574548</ele>
        <time>2013-07-25T18:10:40Z</time>
      </trkpt>
      <trkpt lat="48.40596" lon="2.04193">
        <ele>101.574548</ele>
        <time>2013-07-25T18:10:45Z</time>
      </trkpt>
      <trkpt lat="48.40595" lon="2.04193">
        <ele>102.237975</ele>
        <time>2013-07-25T18:10:50Z</time>
      </trkpt>
      <trkpt lat="48.40579" lon="2.04159">
        <ele>104.03501</ele>
        <time>2013-07-25T18:10:55Z</time>
      </trkpt>
      <trkpt lat="48.40548" lon="2.0412">
        <ele>103.421241</ele>
        <time>2013-07-25T18:11:00Z</time>
      </trkpt>
      <trkpt lat="48.40521" lon="2.04089">
        <ele>106.025486</ele>
        <time>2013-07-25T18:11:05Z</time>
      </trkpt>
      <trkpt lat="48.40495" lon="2.04053">
        <ele>106.460665</ele>
        <time>2013-07-25T18:11:10Z</time>
      </trkpt>
      <trkpt lat="48.4045" lon="2.03989">
        <ele>107.979956</ele>
        <time>2013-07-25T18:11:15Z</time>
      </trkpt>
      <trkpt lat="48.40418" lon="2.0394">
        <ele>107.781196</ele>
        <time>2013-07-25T18:11:20Z</time>
      </trkpt>
      <trkpt lat="48.40387" lon="2.03892">
        <ele>104.844632</ele>
        <time>2013-07-25T18:11:25Z</time>
      </trkpt>
      <trkpt lat="48.4034" lon="2.03832">
        <ele>102.781774</ele>
        <time>2013-07-25T18:11:30Z</time>
      </trkpt>
      <trkpt lat="48.40293" lon="2.03747">
        <ele>99.54693</ele>
        <time>2013-07-25T18:11:35Z</time>
      </trkpt>
      <trkpt lat="48.40254" lon="2.03681">
        <ele>97.873797</ele>
        <time>2013-07-25T18:11:40Z</time>
      </trkpt>
      <trkpt lat="48.40228" lon="2.03619">
        <ele>99.938163</ele>
        <time>2013-07-25T18:11:45Z</time>
      </trkpt>
      <trkpt lat="48.40211" lon="2.03547">
        <ele>101.741256</ele>
        <time>2013-07-25T18:11:50Z</time>
      </trkpt>
      <trkpt lat="48.4019" lon="2.03486">
        <ele>102.756174</ele>
        <time>2013-07-25T18:11:55Z</time>
      </trkpt>
      <trkpt lat="48.40152" lon="2.03439">
        <ele>101.499577</ele>
        <time>2013-07-25T18:12:00Z</time>
      </trkpt>
      <trkpt lat="48.40106" lon="2.03394">
        <ele>99.784677</ele>
        <time>2013-07-25T18:12:05Z</time>
      </trkpt>
      <trkpt lat="48.40063" lon="2.03363">
        <ele>100.633666</ele>
        <time>2013-07-25T18:12:10Z</time>
      </trkpt>
      <trkpt lat="48.40013" lon="2.03333">
        <ele>101.024446</ele>
        <time>2013-07-25T18:12:15Z</time>
      </trkpt>
      <trkpt lat="48.39978" lon="2.03312">
        <ele>100.470133</ele>
        <time>2013-07-25T18:12:20Z</time>
      </trkpt>
      <trkpt lat="48.39955" lon="2.0331">
        <ele>99.593024</ele>
        <time>2013-07-25T18:12:25Z</time>
      </trkpt>
      <trkpt lat="48.39937" lon="2.03337">
        <ele>101.066924</ele>
        <time>2013-07-25T18:12:30Z</time>
      </trkpt>
      <trkpt lat="48.3992" lon="2.03341">
        <ele>102.864671</ele>
        <time>2013-07-25T18:12:35Z</time>
      </trkpt>
      <trkpt lat="48.39904" lon="2.03344">
        <ele>102.587646</ele>
        <time>2013-07-25T18:12:40Z</time>
      </trkpt>
      <trkpt lat="48.399" lon="2.03338">
        <ele>102.240616</ele>
        <time>2013-07-25T18:12:45Z</time>
      </trkpt>
      <trkpt lat="48.39883" lon="2.0334">
        <ele>101.108047</ele>
        <time>2013-07-25T18:12:50Z</time>
      </trkpt>
      <trkpt lat="48.39864" lon="2.03352">
        <ele>103.626594</ele>
        <time>2013-07-25T18:12:55Z</time>
      </trkpt>
      <trkpt lat="48.39843" lon="2.03356">
        <ele>103.784079</ele>
        <time>2013-07-25T18:13:00Z</time>
      </trkpt>
      <trkpt lat="48.39813" lon="2.03354">
        <ele>104.561193</ele>
        <time>2013-07-25T18:13:05Z</time>
      </trkpt>
      <trkpt lat="48.39773" lon="2.03345">
        <ele>105.318142</ele>
        <time>2013-07-25T18:13:10Z</time>
      </trkpt>
      <trkpt lat="48.39735" lon="2.03334">
        <ele>105.448974</ele>
        <time>2013-07-25T18:13:15Z</time>
      </trkpt>
      <trkpt lat="48.3971" lon="2.03325">
        <ele>105.782275</ele>
        <time>2013-07-25T18:13:20Z</time>
      </trkpt>
      <trkpt lat="48.39684" lon="2.03323">
        <ele>108.308345</ele>
        <time>2013-07-25T18:13:25Z</time>
      </trkpt>
      <trkpt lat="48.39651" lon="2.03323">
        <ele>108.965115</ele>
        <time>2013-07-25T18:13:30Z</time>
      </trkpt>
      <trkpt lat="48.39623" lon="2.03315">
        <ele>109.06979</ele>
        <time>2013-07-25T18:13:35Z</time>
      </trkpt>
      <trkpt lat="48.3959" lon="2.03296">
        <ele>110.144933</ele>
        <time>2013-07-25T18:13:40Z</time>
      </trkpt>
      <trkpt lat="48.39546" lon="2.03258">
        <ele>112.207858</ele>
        <time>2013-07-25T18:13:45Z</time>
      </trkpt>
      <trkpt lat="48.39522" lon="2.03223">
        <ele>113.506031</ele>
        <time>2013-07-25T18:13:50Z</time>
      </trkpt>
      <trkpt lat="48.39504" lon="2.03199">
        <ele>112.59097</ele>
        <time>2013-07-25T18:13:55Z</time>
      </trkpt>
      <trkpt lat="48.39486" lon="2.03174">
        <ele>114.475107</ele>
        <time>2013-07-25T18:14:00Z</time>
      </trkpt>
      <trkpt lat="48.39465" lon="2.03134">
        <ele>113.77309</ele>
        <time>2013-07-25T18:14:05Z</time>
      </trkpt>
      <trkpt lat="48.39443" lon="2.03086">
        <ele>114.257272</ele>
        <time>2013-07-25T18:14:10Z</time>
      </trkpt>
      <trkpt lat="48.39422" lon="2.0305">
        <ele>115.037627</ele>
        <time>2013-07-25T18:14:15Z</time>
      </trkpt>
      <trkpt lat="48.394" lon="2.03018">
        <ele>113.729704</ele>
        <time>2013-07-25T18:14:20Z</time>
      </trkpt>
      <trkpt lat="48.39381" lon="2.02988">
        <ele>114.025066</ele>
        <time>2013-07-25T18:14:25Z</time>
      </trkpt>
      <trkpt lat="48.39353" lon="2.0295">
        <ele>112.950499</ele>
        <time>2013-07-25T18:14:30Z</time>
      </trkpt>
      <trkpt lat="48.39322" lon="2.02921">
        <ele>111.764901</ele>
        <time>2013-07-25T18:14:35Z</time>
      </trkpt>
      <trkpt lat="48.39302" lon="2.02912">
        <ele>108.866615</ele>
        <time>2013-07-25T18:14:40Z</time>
      </trkpt>
      <trkpt lat="48.39287" lon="2.02913">
        <ele>105.805833</ele>
        <time>2013-07-25T18:14:45Z</time>
      </trkpt>
      <trkpt lat="48.39257" lon="2.02928">
        <ele>105.480685</ele>
        <time>2013-07-25T18:14:50Z</time>
      </trkpt>
      <trkpt lat="48.39225" lon="2.02937">
        <ele>104.313973</ele>
        <time>2013-07-25T18:14:55Z</time>
      </trkpt>
      <trkpt lat="48.392" lon="2.02969">
        <ele>102.532864</ele>
        <time>2013-07-25T18:15:00Z</time>
      </trkpt>
      <trkpt lat="48.39183" lon="2.0301">
        <ele>102.168841</ele>
        <time>2013-07-25T18:15:05Z</time>
      </trkpt>
      <trkpt lat="48.39166" lon="2.03069">
        <ele>102.858599</ele>
        <time>2013-07-25T18:15:10Z</time>
      </trkpt>
      <trkpt lat="48.39159" lon="2.03109">
        <ele>102.480535</ele>
        <time>2013-07-25T18:15:15Z</time>
      </trkpt>
      <trkpt lat="48.39133" lon="2.03094">
        <ele>104.713505</ele>
        <time>2013-07-25T18:15:20Z</time>
      </trkpt>
      <trkpt lat="48.3909" lon="2.03071">
        <ele>102.889938</ele>
        <time>2013-07-25T18:15:25Z</time>
      </trkpt>
      <trkpt lat="48.39051" lon="2.03038">
        <ele>104.724575</ele>
        <time>2013-07-25T18:15:30Z</time>
      </trkpt>
      <trkpt lat="48.39017" lon="2.02986">
        <ele>103.636251</ele>
        <time>2013-07-25T18:15:35Z</time>
      </trkpt>
      <trkpt lat="48.38983" lon="2.02934">
        <ele>103.23555</ele>
        <time>2013-07-25T18:15:40Z</time>
      </trkpt>
      <trkpt lat="48.38952" lon="2.0289">
        <ele>105.363946</ele>
        <time>2013-07-25T18:15:45Z</time>
      </trkpt>
      <trkpt lat="48.38922" lon="2.02843">
        <ele>104.623037</ele>
        <time>2013-07-25T18:15:50Z</time>
      </trkpt>
      <trkpt lat="48.38889" lon="2.02775">
        <ele>105.520987</ele>
        <time>2013-07-25T18:15:55Z</time>
      </trkpt>
      <trkpt lat="48.38852" lon="2.02714">
        <ele>102.63064</ele>
        <time>2013-07-25T18:16:00Z</time>
      </trkpt>
      <trkpt lat="48.38809" lon="2.02667">
        <ele>103.210065</ele>
        <time>2013-07-25T18:16:05Z</time>
      </trkpt>
      <trkpt lat="48.38761" lon="2.02622">
        <ele>102.75341</ele>
        <time>2013-07-25T18:16:10Z</time>
      </trkpt>
      <trkpt lat="48.38717" lon="2.02618">
        <ele>103.361065</ele>
        <time>2013-07-25T18:16:15Z</time>
      </trkpt>
      <trkpt lat="48.38672" lon="2.02625">
        <ele>103.385812</ele>
        <time>2013-07-25T18:16:20Z</time>
      </trkpt>
      <trkpt lat="48.38633" lon="2.0261">
        <ele>101.212093</ele>
        <time>2013-07-25T18:16:25Z</time>
      </trkpt>
      <trkpt lat="48.38622" lon="2.02601">
        <ele>106.708637</ele>
        <time>2013-07-25T18:16:30Z</time>
      </trkpt>
      <trkpt lat="48.38605" lon="2.02596">
        <ele>106.958244</ele>
        <time>2013-07-25T18:16:35Z</time>
      </trkpt>
      <trkpt lat="48.38597" lon="2.02588">
        <ele>109.800079</ele>
        <time>2013-07-25T18:16:40Z</time>
      </trkpt>
      <trkpt lat="48.38592" lon="2.02586">
        <ele>107.365816</ele>
        <time>2013-07-25T18:16:45Z</time>
      </trkpt>
      <trkpt lat="48.38591" lon="2.02586">
        <ele>107.281876</ele>
        <time>2013-07-25T18:16:50Z</time>
      </trkpt>
      <trkpt lat="48.3859" lon="2.02579">
        <ele>110.650849</ele>
        <time>2013-07-25T18:16:55Z</time>
      </trkpt>
      <trkpt lat="48.38582" lon="2.02582">
        <ele>115.091855</ele>
        <time>2013-07-25T18:17:00Z</time>
      </trkpt>
      <trkpt lat="48.38569" lon="2.02573">
        <ele>114.775339</ele>
        <time>2013-07-25T18:17:05Z</time>
      </trkpt>
      <trkpt lat="48.3855" lon="2.0257">
        <ele>113.46941</ele>
        <time>2013-07-25T18:17:10Z</time>
      </trkpt>
      <trkpt lat="48.38531" lon="2.02574">
        <ele>114.463362</ele>
        <time>2013-07-25T18:17:15Z</time>
      </trkpt>
      <trkpt lat="48.38511" lon="2.02579">
        <ele>115.373463</ele>
        <time>2013-07-25T18:17:20Z</time>
      </trkpt>
      <trkpt lat="48.38492" lon="2.02582">
        <ele>115.596457</ele>
        <time>2013-07-25T18:17:25Z</time>
      </trkpt>
      <trkpt lat="48.38468" lon="2.0258">
        <ele>115.389976</ele>
        <time>2013-07-25T18:17:30Z</time>
      </trkpt>
      <trkpt lat="48.38437" lon="2.02579">
        <ele>114.787572</ele>
        <time>2013-07-25T18:17:35Z</time>
      </trkpt>
      <trkpt lat="48.38406" lon="2.02568">
        <ele>113.273404</ele>
        <time>2013-07-25T18:17:40Z</time>
      </trkpt>
      <trkpt lat="48.38376" lon="2.02563">
        <ele>113.34855</ele>
        <time>2013-07-25T18:17:45Z</time>
      </trkpt>
      <trkpt lat="48.38347" lon="2.02544">
        <ele>113.936741</ele>
        <time>2013-07-25T18:17:50Z</time>
      </trkpt>
      <trkpt lat="48.38312" lon="2.02514">
        <ele>113.170404</ele>
        <time>2013-07-25T18:17:55Z</time>
      </trkpt>
      <trkpt lat="48.38282" lon="2.02489">
        <ele>112.894103</ele>
        <time>2013-07-25T18:18:00Z</time>
      </trkpt>
      <trkpt lat="48.38289" lon="2.02484">
        <ele>111.808223</ele>
        <time>2013-07-25T18:18:05Z</time>
      </trkpt>
      <trkpt lat="48.38289" lon="2.02484">
        <ele>112.555822</ele>
        <time>2013-07-25T18:18:10Z</time>
      </trkpt>
      <trkpt lat="48.38288" lon="2.02478">
        <ele>112.378094</ele>
        <time>2013-07-25T18:18:15Z</time>
      </trkpt>
      <trkpt lat="48.38288" lon="2.02478">
        <ele>113.789429</ele>
        <time>2013-07-25T18:18:20Z</time>
      </trkpt>
      <trkpt lat="48.38289" lon="2.0248">
        <ele>112.485424</ele>
        <time>2013-07-25T18:18:25Z</time>
      </trkpt>
      <trkpt lat="48.38289" lon="2.0248">
        <ele>111.737825</ele>
        <time>2013-07-25T18:18:30Z</time>
      </trkpt>
      <trkpt lat="48.38289" lon="2.02478">
        <ele>112.461959</ele>
        <time>2013-07-25T18:18:35Z</time>
      </trkpt>
      <trkpt lat="48.38289" lon="2.02478">
        <ele>111.050624</ele>
        <time>2013-07-25T18:18:40Z</time>
      </trkpt>
      <trkpt lat="48.38291" lon="2.0248">
        <ele>111.157955</ele>
        <time>2013-07-25T18:18:45Z</time>
      </trkpt>
      <trkpt lat="48.38291" lon="2.02481">
        <ele>109.770086</ele>
        <time>2013-07-25T18:18:50Z</time>
      </trkpt>
      <trkpt lat="48.38291" lon="2.02482">
        <ele>108.382218</ele>
        <time>2013-07-25T18:18:55Z</time>
      </trkpt>
      <trkpt lat="48.3829" lon="2.02481">
        <ele>109.022486</ele>
        <time>2013-07-25T18:19:00Z</time>
      </trkpt>
      <trkpt lat="48.38291" lon="2.02482">
        <ele>109.129818</ele>
        <time>2013-07-25T18:19:05Z</time>
      </trkpt>
      <trkpt lat="48.38291" lon="2.02483">
        <ele>107.718483</ele>
        <time>2013-07-25T18:19:10Z</time>
      </trkpt>
      <trkpt lat="48.3829" lon="2.02478">
        <ele>107.56422</ele>
        <time>2013-07-25T18:19:15Z</time>
      </trkpt>
      <trkpt lat="48.38291" lon="2.02478">
        <ele>106.900486</ele>
        <time>2013-07-25T18:19:20Z</time>
      </trkpt>
      <trkpt lat="48.38291" lon="2.02478">
        <ele>106.900486</ele>
        <time>2013-07-25T18:19:25Z</time>
      </trkpt>
      <trkpt lat="48.38291" lon="2.02478">
        <ele>106.900486</ele>
        <time>2013-07-25T18:19:30Z</time>
      </trkpt>
      <trkpt lat="48.38291" lon="2.02478">
        <ele>106.900486</ele>
        <time>2013-07-25T18:19:35Z</time>
      </trkpt>
      <trkpt lat="48.38291" lon="2.02478">
        <ele>106.900486</ele>
        <time>2013-07-25T18:19:40Z</time>
      </trkpt>
      <trkpt lat="48.38291" lon="2.02478">
        <ele>106.900486</ele>
        <time>2013-07-25T18:19:45Z</time>
      </trkpt>
      <trkpt lat="48.38291" lon="2.02478">
        <ele>106.900486</ele>
        <time>2013-07-25T18:19:50Z</time>
      </trkpt>
      <trkpt lat="48.38291" lon="2.02478">
        <ele>106.900486</ele>
        <time>2013-07-25T18:19:55Z</time>
      </trkpt>
      <trkpt lat="48.38291" lon="2.02478">
        <ele>106.900486</ele>
        <time>2013-07-25T18:20:00Z</time>
      </trkpt>
      <trkpt lat="48.38291" lon="2.02478">
        <ele>106.900486</ele>
        <time>2013-07-25T18:20:05Z</time>
      </trkpt>
      <trkpt lat="48.38291" lon="2.02478">
        <ele>106.900486</ele>
        <time>2013-07-25T18:20:10Z</time>
      </trkpt>
      <trkpt lat="48.38291" lon="2.02478">
        <ele>106.900486</ele>
        <time>2013-07-25T18:20:15Z</time>
      </trkpt>
      <trkpt lat="48.38291" lon="2.02478">
        <ele>106.900486</ele>
        <time>2013-07-25T18:20:20Z</time>
      </trkpt>
      <trkpt lat="48.38291" lon="2.02478">
        <ele>106.900486</ele>
        <time>2013-07-25T18:20:25Z</time>
      </trkpt>
      <trkpt lat="48.38291" lon="2.02478">
        <ele>106.900486</ele>
        <time>2013-07-25T18:20:30Z</time>
      </trkpt>
      <trkpt lat="48.38291" lon="2.02478">
        <ele>106.900486</ele>
        <time>2013-07-25T18:20:35Z</time>
      </trkpt>
      <trkpt lat="48.38291" lon="2.02478">
        <ele>106.900486</ele>
        <time>2013-07-25T18:20:40Z</time>
      </trkpt>
      <trkpt lat="48.38291" lon="2.02478">
        <ele>106.900486</ele>
        <time>2013-07-25T18:20:45Z</time>
      </trkpt>
      <trkpt lat="48.38291" lon="2.02478">
        <ele>106.900486</ele>
        <time>2013-07-25T18:20:50Z</time>
      </trkpt>
      <trkpt lat="48.38291" lon="2.02478">
        <ele>106.900486</ele>
        <time>2013-07-25T18:20:55Z</time>
      </trkpt>
      <trkpt lat="48.38291" lon="2.0248">
        <ele>106.923951</ele>
        <time>2013-07-25T18:21:00Z</time>
      </trkpt>
      <trkpt lat="48.38291" lon="2.0248">
        <ele>106.923951</ele>
        <time>2013-07-25T18:21:05Z</time>
      </trkpt>
      <trkpt lat="48.38291" lon="2.0248">
        <ele>106.923951</ele>
        <time>2013-07-25T18:21:10Z</time>
      </trkpt>
      <trkpt lat="48.38291" lon="2.0248">
        <ele>106.923951</ele>
        <time>2013-07-25T18:21:15Z</time>
      </trkpt>
      <trkpt lat="48.38291" lon="2.0248">
        <ele>106.923951</ele>
        <time>2013-07-25T18:21:20Z</time>
      </trkpt>
      <trkpt lat="48.38291" lon="2.0248">
        <ele>106.923951</ele>
        <time>2013-07-25T18:21:25Z</time>
      </trkpt>
      <trkpt lat="48.38291" lon="2.0248">
        <ele>106.923951</ele>
        <time>2013-07-25T18:21:30Z</time>
      </trkpt>
      <trkpt lat="48.38291" lon="2.0248">
        <ele>106.923951</ele>
        <time>2013-07-25T18:21:35Z</time>
      </trkpt>
      <trkpt lat="48.38292" lon="2.0248">
        <ele>106.260217</ele>
        <time>2013-07-25T18:21:40Z</time>
      </trkpt>
      <trkpt lat="48.38292" lon="2.02481">
        <ele>105.619948</ele>
        <time>2013-07-25T18:21:45Z</time>
      </trkpt>
      <trkpt lat="48.38292" lon="2.02481">
        <ele>105.619948</ele>
        <time>2013-07-25T18:21:50Z</time>
      </trkpt>
      <trkpt lat="48.38292" lon="2.02481">
        <ele>105.619948</ele>
        <time>2013-07-25T18:21:55Z</time>
      </trkpt>
      <trkpt lat="48.38292" lon="2.02481">
        <ele>105.619948</ele>
        <time>2013-07-25T18:22:00Z</time>
      </trkpt>
      <trkpt lat="48.38292" lon="2.02481">
        <ele>105.619948</ele>
        <time>2013-07-25T18:22:05Z</time>
      </trkpt>
      <trkpt lat="48.38292" lon="2.02481">
        <ele>105.619948</ele>
        <time>2013-07-25T18:22:10Z</time>
      </trkpt>
      <trkpt lat="48.38292" lon="2.02481">
        <ele>105.619948</ele>
        <time>2013-07-25T18:22:15Z</time>
      </trkpt>
      <trkpt lat="48.38292" lon="2.02481">
        <ele>105.619948</ele>
        <time>2013-07-25T18:22:20Z</time>
      </trkpt>
      <trkpt lat="48.38292" lon="2.02481">
        <ele>105.619948</ele>
        <time>2013-07-25T18:22:25Z</time>
      </trkpt>
      <trkpt lat="48.38292" lon="2.02481">
        <ele>105.619948</ele>
        <time>2013-07-25T18:22:30Z</time>
      </trkpt>
      <trkpt lat="48.38292" lon="2.02481">
        <ele>105.619948</ele>
        <time>2013-07-25T18:22:35Z</time>
      </trkpt>
      <trkpt lat="48.38292" lon="2.02481">
        <ele>105.619948</ele>
        <time>2013-07-25T18:22:40Z</time>
      </trkpt>
      <trkpt lat="48.38292" lon="2.02481">
        <ele>105.619948</ele>
        <time>2013-07-25T18:22:45Z</time>
      </trkpt>
      <trkpt lat="48.38292" lon="2.02481">
        <ele>105.619948</ele>
        <time>2013-07-25T18:22:50Z</time>
      </trkpt>
      <trkpt lat="48.38292" lon="2.02481">
        <ele>105.619948</ele>
        <time>2013-07-25T18:22:55Z</time>
      </trkpt>
      <trkpt lat="48.38292" lon="2.02481">
        <ele>105.619948</ele>
        <time>2013-07-25T18:23:00Z</time>
      </trkpt>
      <trkpt lat="48.38292" lon="2.02481">
        <ele>105.619948</ele>
        <time>2013-07-25T18:23:05Z</time>
      </trkpt>
      <trkpt lat="48.38292" lon="2.02481">
        <ele>105.619948</ele>
        <time>2013-07-25T18:23:10Z</time>
      </trkpt>
      <trkpt lat="48.38292" lon="2.02481">
        <ele>105.619948</ele>
        <time>2013-07-25T18:23:15Z</time>
      </trkpt>
      <trkpt lat="48.38292" lon="2.02481">
        <ele>105.619948</ele>
        <time>2013-07-25T18:23:20Z</time>
      </trkpt>
      <trkpt lat="48.38292" lon="2.02481">
        <ele>105.619948</ele>
        <time>2013-07-25T18:23:25Z</time>
      </trkpt>
      <trkpt lat="48.38292" lon="2.02481">
        <ele>105.619948</ele>
        <time>2013-07-25T18:23:30Z</time>
      </trkpt>
      <trkpt lat="48.38292" lon="2.02481">
        <ele>105.619948</ele>
        <time>2013-07-25T18:23:35Z</time>
      </trkpt>
      <trkpt lat="48.38292" lon="2.02481">
        <ele>105.619948</ele>
        <time>2013-07-25T18:23:40Z</time>
      </trkpt>
      <trkpt lat="48.38292" lon="2.02481">
        <ele>105.619948</ele>
        <time>2013-07-25T18:23:45Z</time>
      </trkpt>
      <trkpt lat="48.38292" lon="2.02481">
        <ele>105.619948</ele>
        <time>2013-07-25T18:23:50Z</time>
      </trkpt>
      <trkpt lat="48.38292" lon="2.02481">
        <ele>105.619948</ele>
        <time>2013-07-25T18:23:55Z</time>
      </trkpt>
      <trkpt lat="48.38292" lon="2.02481">
        <ele>105.619948</ele>
        <time>2013-07-25T18:24:00Z</time>
      </trkpt>
      <trkpt lat="48.38292" lon="2.02481">
        <ele>105.619948</ele>
        <time>2013-07-25T18:24:05Z</time>
      </trkpt>
      <trkpt lat="48.38292" lon="2.02481">
        <ele>105.619948</ele>
        <time>2013-07-25T18:24:10Z</time>
      </trkpt>
      <trkpt lat="48.38292" lon="2.02481">
        <ele>105.619948</ele>
        <time>2013-07-25T18:24:15Z</time>
      </trkpt>
      <trkpt lat="48.38292" lon="2.02481">
        <ele>105.619948</ele>
        <time>2013-07-25T18:24:20Z</time>
      </trkpt>
      <trkpt lat="48.38292" lon="2.02481">
        <ele>105.619948</ele>
        <time>2013-07-25T18:24:25Z</time>
      </trkpt>
      <trkpt lat="48.38292" lon="2.02481">
        <ele>105.619948</ele>
        <time>2013-07-25T18:24:30Z</time>
      </trkpt>
      <trkpt lat="48.38292" lon="2.02481">
        <ele>105.619948</ele>
        <time>2013-07-25T18:24:35Z</time>
      </trkpt>
      <trkpt lat="48.38292" lon="2.02481">
        <ele>105.619948</ele>
        <time>2013-07-25T18:24:40Z</time>
      </trkpt>
      <trkpt lat="48.38292" lon="2.02481">
        <ele>105.619948</ele>
        <time>2013-07-25T18:24:45Z</time>
      </trkpt>
      <trkpt lat="48.38292" lon="2.02481">
        <ele>105.619948</ele>
        <time>2013-07-25T18:24:50Z</time>
      </trkpt>
      <trkpt lat="48.38292" lon="2.02481">
        <ele>105.619948</ele>
        <time>2013-07-25T18:24:55Z</time>
      </trkpt>
      <trkpt lat="48.38292" lon="2.02481">
        <ele>105.619948</ele>
        <time>2013-07-25T18:25:00Z</time>
      </trkpt>
      <trkpt lat="48.38292" lon="2.02481">
        <ele>105.619948</ele>
        <time>2013-07-25T18:25:05Z</time>
      </trkpt>
      <trkpt lat="48.38292" lon="2.02481">
        <ele>105.619948</ele>
        <time>2013-07-25T18:25:10Z</time>
      </trkpt>
      <trkpt lat="48.38292" lon="2.02481">
        <ele>105.619948</ele>
        <time>2013-07-25T18:25:15Z</time>
      </trkpt>
      <trkpt lat="48.38292" lon="2.02481">
        <ele>105.619948</ele>
        <time>2013-07-25T18:25:20Z</time>
      </trkpt>
      <trkpt lat="48.38292" lon="2.02481">
        <ele>105.619948</ele>
        <time>2013-07-25T18:25:25Z</time>
      </trkpt>
      <trkpt lat="48.38292" lon="2.02481">
        <ele>105.619948</ele>
        <time>2013-07-25T18:25:30Z</time>
      </trkpt>
      <trkpt lat="48.38292" lon="2.02481">
        <ele>105.619948</ele>
        <time>2013-07-25T18:25:35Z</time>
      </trkpt>
      <trkpt lat="48.38292" lon="2.02481">
        <ele>105.619948</ele>
        <time>2013-07-25T18:25:40Z</time>
      </trkpt>
      <trkpt lat="48.38292" lon="2.02481">
        <ele>105.619948</ele>
        <time>2013-07-25T18:25:45Z</time>
      </trkpt>
      <trkpt lat="48.38292" lon="2.02481">
        <ele>105.619948</ele>
        <time>2013-07-25T18:25:50Z</time>
      </trkpt>
      <trkpt lat="48.38292" lon="2.02481">
        <ele>105.619948</ele>
        <time>2013-07-25T18:25:55Z</time>
      </trkpt>
      <trkpt lat="48.38292" lon="2.02481">
        <ele>105.619948</ele>
        <time>2013-07-25T18:26:00Z</time>
      </trkpt>
      <trkpt lat="48.38292" lon="2.02481">
        <ele>105.619948</ele>
        <time>2013-07-25T18:26:05Z</time>
      </trkpt>
      <trkpt lat="48.38292" lon="2.02481">
        <ele>105.619948</ele>
        <time>2013-07-25T18:26:10Z</time>
      </trkpt>
      <trkpt lat="48.38292" lon="2.02481">
        <ele>105.619948</ele>
        <time>2013-07-25T18:26:15Z</time>
      </trkpt>
      <trkpt lat="48.38292" lon="2.02481">
        <ele>105.619948</ele>
        <time>2013-07-25T18:26:20Z</time>
      </trkpt>
      <trkpt lat="48.38292" lon="2.02481">
        <ele>105.619948</ele>
        <time>2013-07-25T18:26:25Z</time>
      </trkpt>
      <trkpt lat="48.38292" lon="2.02481">
        <ele>105.619948</ele>
        <time>2013-07-25T18:26:30Z</time>
      </trkpt>
      <trkpt lat="48.38292" lon="2.02481">
        <ele>105.619948</ele>
        <time>2013-07-25T18:26:35Z</time>
      </trkpt>
      <trkpt lat="48.38292" lon="2.02481">
        <ele>105.619948</ele>
        <time>2013-07-25T18:26:40Z</time>
      </trkpt>
      <trkpt lat="48.38292" lon="2.02481">
        <ele>105.619948</ele>
        <time>2013-07-25T18:26:45Z</time>
      </trkpt>
      <trkpt lat="48.38292" lon="2.02481">
        <ele>105.619948</ele>
        <time>2013-07-25T18:26:50Z</time>
      </trkpt>
      <trkpt lat="48.38292" lon="2.02481">
        <ele>105.619948</ele>
        <time>2013-07-25T18:26:55Z</time>
      </trkpt>
      <trkpt lat="48.38292" lon="2.02481">
        <ele>105.619948</ele>
        <time>2013-07-25T18:27:00Z</time>
      </trkpt>
      <trkpt lat="48.38292" lon="2.02481">
        <ele>105.619948</ele>
        <time>2013-07-25T18:27:05Z</time>
      </trkpt>
      <trkpt lat="48.38292" lon="2.02481">
        <ele>105.619948</ele>
        <time>2013-07-25T18:27:10Z</time>
      </trkpt>
      <trkpt lat="48.38292" lon="2.02481">
        <ele>105.619948</ele>
        <time>2013-07-25T18:27:15Z</time>
      </trkpt>
      <trkpt lat="48.38292" lon="2.02481">
        <ele>105.619948</ele>
        <time>2013-07-25T18:27:20Z</time>
      </trkpt>
      <trkpt lat="48.38292" lon="2.02481">
        <ele>105.619948</ele>
        <time>2013-07-25T18:27:25Z</time>
      </trkpt>
      <trkpt lat="48.38292" lon="2.02481">
        <ele>105.619948</ele>
        <time>2013-07-25T18:27:30Z</time>
      </trkpt>
      <trkpt lat="48.38292" lon="2.02481">
        <ele>105.619948</ele>
        <time>2013-07-25T18:27:35Z</time>
      </trkpt>
      <trkpt lat="48.38292" lon="2.02481">
        <ele>105.619948</ele>
        <time>2013-07-25T18:27:40Z</time>
      </trkpt>
      <trkpt lat="48.38292" lon="2.02481">
        <ele>105.619948</ele>
        <time>2013-07-25T18:27:45Z</time>
      </trkpt>
      <trkpt lat="48.38292" lon="2.02481">
        <ele>105.619948</ele>
        <time>2013-07-25T18:27:50Z</time>
      </trkpt>
      <trkpt lat="48.38292" lon="2.02481">
        <ele>105.619948</ele>
        <time>2013-07-25T18:27:55Z</time>
      </trkpt>
      <trkpt lat="48.38292" lon="2.02481">
        <ele>105.619948</ele>
        <time>2013-07-25T18:28:00Z</time>
      </trkpt>
      <trkpt lat="48.38292" lon="2.02481">
        <ele>105.619948</ele>
        <time>2013-07-25T18:28:05Z</time>
      </trkpt>
      <trkpt lat="48.38292" lon="2.02481">
        <ele>105.619948</ele>
        <time>2013-07-25T18:28:10Z</time>
      </trkpt>
      <trkpt lat="48.38292" lon="2.02481">
        <ele>105.619948</ele>
        <time>2013-07-25T18:28:15Z</time>
      </trkpt>
      <trkpt lat="48.38292" lon="2.02481">
        <ele>105.619948</ele>
        <time>2013-07-25T18:28:20Z</time>
      </trkpt>
      <trkpt lat="48.38292" lon="2.02481">
        <ele>105.619948</ele>
        <time>2013-07-25T18:28:25Z</time>
      </trkpt>
      <trkpt lat="48.38292" lon="2.02481">
        <ele>105.619948</ele>
        <time>2013-07-25T18:28:30Z</time>
      </trkpt>
      <trkpt lat="48.38292" lon="2.02481">
        <ele>105.619948</ele>
        <time>2013-07-25T18:28:35Z</time>
      </trkpt>
      <trkpt lat="48.38292" lon="2.02481">
        <ele>105.619948</ele>
        <time>2013-07-25T18:28:40Z</time>
      </trkpt>
      <trkpt lat="48.38292" lon="2.02481">
        <ele>105.619948</ele>
        <time>2013-07-25T18:28:45Z</time>
      </trkpt>
      <trkpt lat="48.38292" lon="2.02481">
        <ele>105.619948</ele>
        <time>2013-07-25T18:28:50Z</time>
      </trkpt>
      <trkpt lat="48.38292" lon="2.02481">
        <ele>105.619948</ele>
        <time>2013-07-25T18:28:55Z</time>
      </trkpt>
      <trkpt lat="48.38292" lon="2.02481">
        <ele>105.619948</ele>
        <time>2013-07-25T18:29:00Z</time>
      </trkpt>
      <trkpt lat="48.38292" lon="2.02481">
        <ele>105.619948</ele>
        <time>2013-07-25T18:29:05Z</time>
      </trkpt>
      <trkpt lat="48.38292" lon="2.02481">
        <ele>105.619948</ele>
        <time>2013-07-25T18:29:10Z</time>
      </trkpt>
      <trkpt lat="48.38292" lon="2.02481">
        <ele>105.619948</ele>
        <time>2013-07-25T18:29:15Z</time>
      </trkpt>
      <trkpt lat="48.38292" lon="2.02481">
        <ele>105.619948</ele>
        <time>2013-07-25T18:29:20Z</time>
      </trkpt>
      <trkpt lat="48.38292" lon="2.02481">
        <ele>105.619948</ele>
        <time>2013-07-25T18:29:25Z</time>
      </trkpt>
      <trkpt lat="48.38292" lon="2.02481">
        <ele>105.619948</ele>
        <time>2013-07-25T18:29:30Z</time>
      </trkpt>
      <trkpt lat="48.38292" lon="2.02481">
        <ele>105.619948</ele>
        <time>2013-07-25T18:29:35Z</time>
      </trkpt>
      <trkpt lat="48.38292" lon="2.02481">
        <ele>105.619948</ele>
        <time>2013-07-25T18:29:40Z</time>
      </trkpt>
      <trkpt lat="48.38292" lon="2.02481">
        <ele>105.619948</ele>
        <time>2013-07-25T18:29:45Z</time>
      </trkpt>
      <trkpt lat="48.38292" lon="2.02481">
        <ele>105.619948</ele>
        <time>2013-07-25T18:29:50Z</time>
      </trkpt>
      <trkpt lat="48.38292" lon="2.02481">
        <ele>105.619948</ele>
        <time>2013-07-25T18:29:55Z</time>
      </trkpt>
      <trkpt lat="48.38292" lon="2.02481">
        <ele>105.619948</ele>
        <time>2013-07-25T18:30:00Z</time>
      </trkpt>
      <trkpt lat="48.38292" lon="2.02481">
        <ele>105.619948</ele>
        <time>2013-07-25T18:30:05Z</time>
      </trkpt>
      <trkpt lat="48.38292" lon="2.02481">
        <ele>105.619948</ele>
        <time>2013-07-25T18:30:10Z</time>
      </trkpt>
      <trkpt lat="48.38292" lon="2.02481">
        <ele>105.619948</ele>
        <time>2013-07-25T18:30:15Z</time>
      </trkpt>
      <trkpt lat="48.38292" lon="2.02481">
        <ele>105.619948</ele>
        <time>2013-07-25T18:30:20Z</time>
      </trkpt>
      <trkpt lat="48.38292" lon="2.02481">
        <ele>105.619948</ele>
        <time>2013-07-25T18:30:25Z</time>
      </trkpt>
      <trkpt lat="48.38292" lon="2.02481">
        <ele>105.619948</ele>
        <time>2013-07-25T18:30:30Z</time>
      </trkpt>
      <trkpt lat="48.38292" lon="2.02481">
        <ele>105.619948</ele>
        <time>2013-07-25T18:30:35Z</time>
      </trkpt>
      <trkpt lat="48.38292" lon="2.02481">
        <ele>105.619948</ele>
        <time>2013-07-25T18:30:40Z</time>
      </trkpt>
      <trkpt lat="48.38292" lon="2.02481">
        <ele>105.619948</ele>
        <time>2013-07-25T18:30:45Z</time>
      </trkpt>
      <trkpt lat="48.38292" lon="2.02481">
        <ele>105.619948</ele>
        <time>2013-07-25T18:30:50Z</time>
      </trkpt>
      <trkpt lat="48.38292" lon="2.02481">
        <ele>105.619948</ele>
        <time>2013-07-25T18:30:55Z</time>
      </trkpt>
      <trkpt lat="48.38292" lon="2.02481">
        <ele>105.619948</ele>
        <time>2013-07-25T18:31:00Z</time>
      </trkpt>
      <trkpt lat="48.38292" lon="2.02481">
        <ele>105.619948</ele>
        <time>2013-07-25T18:31:05Z</time>
      </trkpt>
      <trkpt lat="48.38292" lon="2.02481">
        <ele>105.619948</ele>
        <time>2013-07-25T18:31:10Z</time>
      </trkpt>
      <trkpt lat="48.38292" lon="2.02481">
        <ele>105.619948</ele>
        <time>2013-07-25T18:31:15Z</time>
      </trkpt>
      <trkpt lat="48.38292" lon="2.02481">
        <ele>105.619948</ele>
        <time>2013-07-25T18:31:20Z</time>
      </trkpt>
      <trkpt lat="48.38292" lon="2.02481">
        <ele>105.619948</ele>
        <time>2013-07-25T18:31:25Z</time>
      </trkpt>
      <trkpt lat="48.38292" lon="2.02481">
        <ele>105.619948</ele>
        <time>2013-07-25T18:31:30Z</time>
      </trkpt>
      <trkpt lat="48.38292" lon="2.02481">
        <ele>105.619948</ele>
        <time>2013-07-25T18:31:35Z</time>
      </trkpt>
      <trkpt lat="48.38292" lon="2.02481">
        <ele>105.619948</ele>
        <time>2013-07-25T18:31:40Z</time>
      </trkpt>
      <trkpt lat="48.38292" lon="2.02481">
        <ele>105.619948</ele>
        <time>2013-07-25T18:31:45Z</time>
      </trkpt>
      <trkpt lat="48.38292" lon="2.02481">
        <ele>105.619948</ele>
        <time>2013-07-25T18:31:50Z</time>
      </trkpt>
      <trkpt lat="48.38292" lon="2.02481">
        <ele>105.619948</ele>
        <time>2013-07-25T18:31:55Z</time>
      </trkpt>
      <trkpt lat="48.38292" lon="2.02481">
        <ele>105.619948</ele>
        <time>2013-07-25T18:32:00Z</time>
      </trkpt>
      <trkpt lat="48.38292" lon="2.02481">
        <ele>105.619948</ele>
        <time>2013-07-25T18:32:05Z</time>
      </trkpt>
      <trkpt lat="48.38292" lon="2.02481">
        <ele>105.619948</ele>
        <time>2013-07-25T18:32:10Z</time>
      </trkpt>
      <trkpt lat="48.38292" lon="2.02481">
        <ele>105.619948</ele>
        <time>2013-07-25T18:32:15Z</time>
      </trkpt>
      <trkpt lat="48.38292" lon="2.02481">
        <ele>105.619948</ele>
        <time>2013-07-25T18:32:20Z</time>
      </trkpt>
      <trkpt lat="48.38292" lon="2.02481">
        <ele>105.619948</ele>
        <time>2013-07-25T18:32:25Z</time>
      </trkpt>
      <trkpt lat="48.38292" lon="2.02481">
        <ele>105.619948</ele>
        <time>2013-07-25T18:32:30Z</time>
      </trkpt>
      <trkpt lat="48.38292" lon="2.02481">
        <ele>105.619948</ele>
        <time>2013-07-25T18:32:35Z</time>
      </trkpt>
      <trkpt lat="48.38292" lon="2.02481">
        <ele>105.619948</ele>
        <time>2013-07-25T18:32:40Z</time>
      </trkpt>
      <trkpt lat="48.38292" lon="2.02481">
        <ele>105.619948</ele>
        <time>2013-07-25T18:32:45Z</time>
      </trkpt>
      <trkpt lat="48.38292" lon="2.02481">
        <ele>105.619948</ele>
        <time>2013-07-25T18:32:50Z</time>
      </trkpt>
      <trkpt lat="48.38292" lon="2.02481">
        <ele>105.619948</ele>
        <time>2013-07-25T18:32:55Z</time>
      </trkpt>
      <trkpt lat="48.38292" lon="2.02481">
        <ele>105.619948</ele>
        <time>2013-07-25T18:33:00Z</time>
      </trkpt>
      <trkpt lat="48.38292" lon="2.02481">
        <ele>105.619948</ele>
        <time>2013-07-25T18:33:05Z</time>
      </trkpt>
      <trkpt lat="48.38292" lon="2.02481">
        <ele>105.619948</ele>
        <time>2013-07-25T18:33:10Z</time>
      </trkpt>
      <trkpt lat="48.38292" lon="2.02481">
        <ele>105.619948</ele>
        <time>2013-07-25T18:33:15Z</time>
      </trkpt>
      <trkpt lat="48.38292" lon="2.02481">
        <ele>105.619948</ele>
        <time>2013-07-25T18:33:20Z</time>
      </trkpt>
      <trkpt lat="48.38292" lon="2.02481">
        <ele>105.619948</ele>
        <time>2013-07-25T18:33:25Z</time>
      </trkpt>
      <trkpt lat="48.38292" lon="2.02481">
        <ele>105.619948</ele>
        <time>2013-07-25T18:33:30Z</time>
      </trkpt>
      <trkpt lat="48.38292" lon="2.02481">
        <ele>105.619948</ele>
        <time>2013-07-25T18:33:35Z</time>
      </trkpt>
      <trkpt lat="48.38292" lon="2.02481">
        <ele>105.619948</ele>
        <time>2013-07-25T18:33:40Z</time>
      </trkpt>
      <trkpt lat="48.38292" lon="2.02481">
        <ele>105.619948</ele>
        <time>2013-07-25T18:33:45Z</time>
      </trkpt>
      <trkpt lat="48.38292" lon="2.02481">
        <ele>105.619948</ele>
        <time>2013-07-25T18:33:50Z</time>
      </trkpt>
      <trkpt lat="48.38292" lon="2.02481">
        <ele>105.619948</ele>
        <time>2013-07-25T18:33:55Z</time>
      </trkpt>
      <trkpt lat="48.38292" lon="2.02481">
        <ele>105.619948</ele>
        <time>2013-07-25T18:34:00Z</time>
      </trkpt>
      <trkpt lat="48.38292" lon="2.02481">
        <ele>105.619948</ele>
        <time>2013-07-25T18:34:05Z</time>
      </trkpt>
      <trkpt lat="48.38292" lon="2.02481">
        <ele>105.619948</ele>
        <time>2013-07-25T18:34:10Z</time>
      </trkpt>
      <trkpt lat="48.38292" lon="2.02481">
        <ele>105.619948</ele>
        <time>2013-07-25T18:34:15Z</time>
      </trkpt>
      <trkpt lat="48.38292" lon="2.02481">
        <ele>105.619948</ele>
        <time>2013-07-25T18:34:20Z</time>
      </trkpt>
      <trkpt lat="48.38292" lon="2.02481">
        <ele>105.619948</ele>
        <time>2013-07-25T18:34:25Z</time>
      </trkpt>
      <trkpt lat="48.38292" lon="2.02481">
        <ele>105.619948</ele>
        <time>2013-07-25T18:34:30Z</time>
      </trkpt>
      <trkpt lat="48.38292" lon="2.02481">
        <ele>105.619948</ele>
        <time>2013-07-25T18:34:35Z</time>
      </trkpt>
      <trkpt lat="48.38292" lon="2.02481">
        <ele>105.619948</ele>
        <time>2013-07-25T18:34:40Z</time>
      </trkpt>
      <trkpt lat="48.38292" lon="2.02481">
        <ele>105.619948</ele>
        <time>2013-07-25T18:34:45Z</time>
      </trkpt>
      <trkpt lat="48.38292" lon="2.02481">
        <ele>105.619948</ele>
        <time>2013-07-25T18:34:50Z</time>
      </trkpt>
      <trkpt lat="48.38292" lon="2.02481">
        <ele>105.619948</ele>
        <time>2013-07-25T18:34:55Z</time>
      </trkpt>
      <trkpt lat="48.38292" lon="2.02481">
        <ele>105.619948</ele>
        <time>2013-07-25T18:35:00Z</time>
      </trkpt>
      <trkpt lat="48.38292" lon="2.02481">
        <ele>105.619948</ele>
        <time>2013-07-25T18:35:05Z</time>
      </trkpt>
      <trkpt lat="48.38292" lon="2.02481">
        <ele>105.619948</ele>
        <time>2013-07-25T18:35:10Z</time>
      </trkpt>
      <trkpt lat="48.38292" lon="2.02481">
        <ele>105.619948</ele>
        <time>2013-07-25T18:35:15Z</time>
      </trkpt>
      <trkpt lat="48.38292" lon="2.02481">
        <ele>105.619948</ele>
        <time>2013-07-25T18:35:20Z</time>
      </trkpt>
      <trkpt lat="48.38292" lon="2.02481">
        <ele>105.619948</ele>
        <time>2013-07-25T18:35:25Z</time>
      </trkpt>
      <trkpt lat="48.38292" lon="2.02481">
        <ele>105.619948</ele>
        <time>2013-07-25T18:35:30Z</time>
      </trkpt>
      <trkpt lat="48.38292" lon="2.02481">
        <ele>105.619948</ele>
        <time>2013-07-25T18:35:35Z</time>
      </trkpt>
      <trkpt lat="48.38292" lon="2.02481">
        <ele>105.619948</ele>
        <time>2013-07-25T18:35:40Z</time>
      </trkpt>
      <trkpt lat="48.38292" lon="2.02481">
        <ele>105.619948</ele>
        <time>2013-07-25T18:35:45Z</time>
      </trkpt>
      <trkpt lat="48.38292" lon="2.02481">
        <ele>105.619948</ele>
        <time>2013-07-25T18:35:50Z</time>
      </trkpt>
      <trkpt lat="48.38292" lon="2.02481">
        <ele>105.619948</ele>
        <time>2013-07-25T18:35:55Z</time>
      </trkpt>
      <trkpt lat="48.38292" lon="2.02481">
        <ele>105.619948</ele>
        <time>2013-07-25T18:36:00Z</time>
      </trkpt>
      <trkpt lat="48.38292" lon="2.02481">
        <ele>105.619948</ele>
        <time>2013-07-25T18:36:05Z</time>
      </trkpt>
      <trkpt lat="48.38292" lon="2.02481">
        <ele>105.619948</ele>
        <time>2013-07-25T18:36:10Z</time>
      </trkpt>
      <trkpt lat="48.38292" lon="2.02481">
        <ele>105.619948</ele>
        <time>2013-07-25T18:36:15Z</time>
      </trkpt>
      <trkpt lat="48.38292" lon="2.02481">
        <ele>105.619948</ele>
        <time>2013-07-25T18:36:20Z</time>
      </trkpt>
      <trkpt lat="48.38292" lon="2.02481">
        <ele>106.283683</ele>
        <time>2013-07-25T18:36:25Z</time>
      </trkpt>
      <trkpt lat="48.38292" lon="2.02481">
        <ele>106.283683</ele>
        <time>2013-07-25T18:36:30Z</time>
      </trkpt>
      <trkpt lat="48.38292" lon="2.02481">
        <ele>106.283683</ele>
        <time>2013-07-25T18:36:35Z</time>
      </trkpt>
      <trkpt lat="48.38292" lon="2.02481">
        <ele>106.283683</ele>
        <time>2013-07-25T18:36:40Z</time>
      </trkpt>
      <trkpt lat="48.38292" lon="2.02481">
        <ele>106.283683</ele>
        <time>2013-07-25T18:36:45Z</time>
      </trkpt>
      <trkpt lat="48.38292" lon="2.02481">
        <ele>106.283683</ele>
        <time>2013-07-25T18:36:50Z</time>
      </trkpt>
      <trkpt lat="48.38292" lon="2.02481">
        <ele>106.283683</ele>
        <time>2013-07-25T18:36:55Z</time>
      </trkpt>
      <trkpt lat="48.38292" lon="2.02481">
        <ele>106.283683</ele>
        <time>2013-07-25T18:37:00Z</time>
      </trkpt>
      <trkpt lat="48.38292" lon="2.02481">
        <ele>106.283683</ele>
        <time>2013-07-25T18:37:05Z</time>
      </trkpt>
      <trkpt lat="48.38292" lon="2.02481">
        <ele>106.283683</ele>
        <time>2013-07-25T18:37:10Z</time>
      </trkpt>
      <trkpt lat="48.38292" lon="2.02481">
        <ele>106.283683</ele>
        <time>2013-07-25T18:37:15Z</time>
      </trkpt>
      <trkpt lat="48.38292" lon="2.02481">
        <ele>105.619948</ele>
        <time>2013-07-25T18:37:20Z</time>
      </trkpt>
      <trkpt lat="48.38292" lon="2.02481">
        <ele>106.283683</ele>
        <time>2013-07-25T18:37:25Z</time>
      </trkpt>
      <trkpt lat="48.38292" lon="2.02481">
        <ele>106.283683</ele>
        <time>2013-07-25T18:37:30Z</time>
      </trkpt>
      <trkpt lat="48.38292" lon="2.02481">
        <ele>106.283683</ele>
        <time>2013-07-25T18:37:35Z</time>
      </trkpt>
      <trkpt lat="48.38292" lon="2.02481">
        <ele>107.031283</ele>
        <time>2013-07-25T18:37:40Z</time>
      </trkpt>
      <trkpt lat="48.38292" lon="2.02481">
        <ele>107.031283</ele>
        <time>2013-07-25T18:37:45Z</time>
      </trkpt>
      <trkpt lat="48.38292" lon="2.02481">
        <ele>107.031283</ele>
        <time>2013-07-25T18:37:50Z</time>
      </trkpt>
      <trkpt lat="48.38292" lon="2.02481">
        <ele>107.031283</ele>
        <time>2013-07-25T18:37:55Z</time>
      </trkpt>
      <trkpt lat="48.38293" lon="2.02483">
        <ele>107.138615</ele>
        <time>2013-07-25T18:38:00Z</time>
      </trkpt>
      <trkpt lat="48.38293" lon="2.02483">
        <ele>107.138615</ele>
        <time>2013-07-25T18:38:05Z</time>
      </trkpt>
      <trkpt lat="48.38293" lon="2.02483">
        <ele>107.138615</ele>
        <time>2013-07-25T18:38:10Z</time>
      </trkpt>
      <trkpt lat="48.38293" lon="2.02483">
        <ele>107.138615</ele>
        <time>2013-07-25T18:38:15Z</time>
      </trkpt>
      <trkpt lat="48.38293" lon="2.02483">
        <ele>107.138615</ele>
        <time>2013-07-25T18:38:20Z</time>
      </trkpt>
      <trkpt lat="48.38293" lon="2.02483">
        <ele>107.138615</ele>
        <time>2013-07-25T18:38:25Z</time>
      </trkpt>
      <trkpt lat="48.38293" lon="2.02483">
        <ele>107.138615</ele>
        <time>2013-07-25T18:38:30Z</time>
      </trkpt>
      <trkpt lat="48.38293" lon="2.02483">
        <ele>107.138615</ele>
        <time>2013-07-25T18:38:35Z</time>
      </trkpt>
      <trkpt lat="48.38293" lon="2.02483">
        <ele>107.138615</ele>
        <time>2013-07-25T18:38:40Z</time>
      </trkpt>
      <trkpt lat="48.38293" lon="2.02483">
        <ele>107.138615</ele>
        <time>2013-07-25T18:38:45Z</time>
      </trkpt>
      <trkpt lat="48.38293" lon="2.02483">
        <ele>107.138615</ele>
        <time>2013-07-25T18:38:50Z</time>
      </trkpt>
      <trkpt lat="48.38293" lon="2.02483">
        <ele>107.138615</ele>
        <time>2013-07-25T18:38:55Z</time>
      </trkpt>
      <trkpt lat="48.38293" lon="2.02483">
        <ele>107.138615</ele>
        <time>2013-07-25T18:39:00Z</time>
      </trkpt>
      <trkpt lat="48.38293" lon="2.02483">
        <ele>107.138615</ele>
        <time>2013-07-25T18:39:05Z</time>
      </trkpt>
      <trkpt lat="48.38293" lon="2.02483">
        <ele>107.138615</ele>
        <time>2013-07-25T18:39:10Z</time>
      </trkpt>
      <trkpt lat="48.38293" lon="2.02483">
        <ele>107.138615</ele>
        <time>2013-07-25T18:39:15Z</time>
      </trkpt>
      <trkpt lat="48.38293" lon="2.02483">
        <ele>107.138615</ele>
        <time>2013-07-25T18:39:20Z</time>
      </trkpt>
      <trkpt lat="48.38293" lon="2.02483">
        <ele>107.138615</ele>
        <time>2013-07-25T18:39:25Z</time>
      </trkpt>
      <trkpt lat="48.38293" lon="2.02483">
        <ele>107.138615</ele>
        <time>2013-07-25T18:39:30Z</time>
      </trkpt>
      <trkpt lat="48.38293" lon="2.02483">
        <ele>107.138615</ele>
        <time>2013-07-25T18:39:35Z</time>
      </trkpt>
      <trkpt lat="48.38293" lon="2.02483">
        <ele>107.138615</ele>
        <time>2013-07-25T18:39:40Z</time>
      </trkpt>
      <trkpt lat="48.38293" lon="2.02483">
        <ele>107.138615</ele>
        <time>2013-07-25T18:39:45Z</time>
      </trkpt>
      <trkpt lat="48.38293" lon="2.02483">
        <ele>107.138615</ele>
        <time>2013-07-25T18:39:50Z</time>
      </trkpt>
      <trkpt lat="48.38293" lon="2.02483">
        <ele>107.138615</ele>
        <time>2013-07-25T18:39:55Z</time>
      </trkpt>
      <trkpt lat="48.38293" lon="2.02483">
        <ele>107.138615</ele>
        <time>2013-07-25T18:40:00Z</time>
      </trkpt>
      <trkpt lat="48.38293" lon="2.02483">
        <ele>107.138615</ele>
        <time>2013-07-25T18:40:05Z</time>
      </trkpt>
      <trkpt lat="48.38293" lon="2.02483">
        <ele>107.138615</ele>
        <time>2013-07-25T18:40:10Z</time>
      </trkpt>
      <trkpt lat="48.38293" lon="2.02483">
        <ele>107.138615</ele>
        <time>2013-07-25T18:40:15Z</time>
      </trkpt>
      <trkpt lat="48.38293" lon="2.02483">
        <ele>107.138615</ele>
        <time>2013-07-25T18:40:20Z</time>
      </trkpt>
      <trkpt lat="48.38293" lon="2.02483">
        <ele>107.138615</ele>
        <time>2013-07-25T18:40:25Z</time>
      </trkpt>
      <trkpt lat="48.38293" lon="2.02483">
        <ele>107.138615</ele>
        <time>2013-07-25T18:40:30Z</time>
      </trkpt>
      <trkpt lat="48.38293" lon="2.02483">
        <ele>107.138615</ele>
        <time>2013-07-25T18:40:35Z</time>
      </trkpt>
      <trkpt lat="48.38293" lon="2.02483">
        <ele>107.138615</ele>
        <time>2013-07-25T18:40:40Z</time>
      </trkpt>
      <trkpt lat="48.38293" lon="2.02483">
        <ele>107.138615</ele>
        <time>2013-07-25T18:40:45Z</time>
      </trkpt>
      <trkpt lat="48.38293" lon="2.02483">
        <ele>107.138615</ele>
        <time>2013-07-25T18:40:50Z</time>
      </trkpt>
      <trkpt lat="48.38293" lon="2.02481">
        <ele>107.115149</ele>
        <time>2013-07-25T18:40:55Z</time>
      </trkpt>
      <trkpt lat="48.38293" lon="2.02481">
        <ele>107.115149</ele>
        <time>2013-07-25T18:41:00Z</time>
      </trkpt>
      <trkpt lat="48.38293" lon="2.02481">
        <ele>107.115149</ele>
        <time>2013-07-25T18:41:05Z</time>
      </trkpt>
      <trkpt lat="48.38293" lon="2.02481">
        <ele>107.115149</ele>
        <time>2013-07-25T18:41:10Z</time>
      </trkpt>
      <trkpt lat="48.38293" lon="2.02481">
        <ele>107.115149</ele>
        <time>2013-07-25T18:41:15Z</time>
      </trkpt>
      <trkpt lat="48.38293" lon="2.02481">
        <ele>107.115149</ele>
        <time>2013-07-25T18:41:20Z</time>
      </trkpt>
      <trkpt lat="48.38293" lon="2.02481">
        <ele>107.115149</ele>
        <time>2013-07-25T18:41:25Z</time>
      </trkpt>
      <trkpt lat="48.38293" lon="2.02481">
        <ele>107.115149</ele>
        <time>2013-07-25T18:41:30Z</time>
      </trkpt>
      <trkpt lat="48.38293" lon="2.02481">
        <ele>107.115149</ele>
        <time>2013-07-25T18:41:35Z</time>
      </trkpt>
      <trkpt lat="48.38293" lon="2.02481">
        <ele>107.115149</ele>
        <time>2013-07-25T18:41:40Z</time>
      </trkpt>
      <trkpt lat="48.38293" lon="2.02481">
        <ele>107.115149</ele>
        <time>2013-07-25T18:41:45Z</time>
      </trkpt>
      <trkpt lat="48.38293" lon="2.02481">
        <ele>107.115149</ele>
        <time>2013-07-25T18:41:50Z</time>
      </trkpt>
      <trkpt lat="48.38293" lon="2.02481">
        <ele>107.115149</ele>
        <time>2013-07-25T18:41:55Z</time>
      </trkpt>
      <trkpt lat="48.38293" lon="2.02481">
        <ele>107.115149</ele>
        <time>2013-07-25T18:42:00Z</time>
      </trkpt>
      <trkpt lat="48.38293" lon="2.02481">
        <ele>107.778883</ele>
        <time>2013-07-25T18:42:05Z</time>
      </trkpt>
      <trkpt lat="48.38293" lon="2.02481">
        <ele>107.778883</ele>
        <time>2013-07-25T18:42:10Z</time>
      </trkpt>
      <trkpt lat="48.38293" lon="2.02481">
        <ele>107.778883</ele>
        <time>2013-07-25T18:42:15Z</time>
      </trkpt>
      <trkpt lat="48.38293" lon="2.02481">
        <ele>107.778883</ele>
        <time>2013-07-25T18:42:20Z</time>
      </trkpt>
      <trkpt lat="48.38293" lon="2.02481">
        <ele>107.778883</ele>
        <time>2013-07-25T18:42:25Z</time>
      </trkpt>
      <trkpt lat="48.38293" lon="2.02481">
        <ele>107.778883</ele>
        <time>2013-07-25T18:42:30Z</time>
      </trkpt>
      <trkpt lat="48.38293" lon="2.02481">
        <ele>107.778883</ele>
        <time>2013-07-25T18:42:35Z</time>
      </trkpt>
      <trkpt lat="48.38293" lon="2.02481">
        <ele>107.778883</ele>
        <time>2013-07-25T18:42:40Z</time>
      </trkpt>
      <trkpt lat="48.38293" lon="2.02481">
        <ele>107.778883</ele>
        <time>2013-07-25T18:42:45Z</time>
      </trkpt>
      <trkpt lat="48.38293" lon="2.02481">
        <ele>107.778883</ele>
        <time>2013-07-25T18:42:50Z</time>
      </trkpt>
      <trkpt lat="48.38293" lon="2.02481">
        <ele>107.778883</ele>
        <time>2013-07-25T18:42:55Z</time>
      </trkpt>
      <trkpt lat="48.38293" lon="2.02481">
        <ele>107.778883</ele>
        <time>2013-07-25T18:43:00Z</time>
      </trkpt>
      <trkpt lat="48.38293" lon="2.02481">
        <ele>107.778883</ele>
        <time>2013-07-25T18:43:05Z</time>
      </trkpt>
      <trkpt lat="48.38293" lon="2.02481">
        <ele>107.778883</ele>
        <time>2013-07-25T18:43:10Z</time>
      </trkpt>
      <trkpt lat="48.38293" lon="2.02481">
        <ele>107.778883</ele>
        <time>2013-07-25T18:43:15Z</time>
      </trkpt>
      <trkpt lat="48.38293" lon="2.02481">
        <ele>107.778883</ele>
        <time>2013-07-25T18:43:20Z</time>
      </trkpt>
      <trkpt lat="48.38293" lon="2.02481">
        <ele>107.778883</ele>
        <time>2013-07-25T18:43:25Z</time>
      </trkpt>
      <trkpt lat="48.38293" lon="2.02481">
        <ele>107.778883</ele>
        <time>2013-07-25T18:43:30Z</time>
      </trkpt>
      <trkpt lat="48.38293" lon="2.02481">
        <ele>107.778883</ele>
        <time>2013-07-25T18:43:35Z</time>
      </trkpt>
      <trkpt lat="48.38293" lon="2.02481">
        <ele>107.778883</ele>
        <time>2013-07-25T18:43:40Z</time>
      </trkpt>
      <trkpt lat="48.38293" lon="2.02481">
        <ele>107.778883</ele>
        <time>2013-07-25T18:43:45Z</time>
      </trkpt>
      <trkpt lat="48.38293" lon="2.02481">
        <ele>107.778883</ele>
        <time>2013-07-25T18:43:50Z</time>
      </trkpt>
      <trkpt lat="48.38293" lon="2.02481">
        <ele>107.778883</ele>
        <time>2013-07-25T18:43:55Z</time>
      </trkpt>
      <trkpt lat="48.38293" lon="2.02481">
        <ele>107.778883</ele>
        <time>2013-07-25T18:44:00Z</time>
      </trkpt>
      <trkpt lat="48.38293" lon="2.02481">
        <ele>107.778883</ele>
        <time>2013-07-25T18:44:05Z</time>
      </trkpt>
      <trkpt lat="48.38293" lon="2.02481">
        <ele>107.778883</ele>
        <time>2013-07-25T18:44:10Z</time>
      </trkpt>
      <trkpt lat="48.38293" lon="2.02481">
        <ele>107.778883</ele>
        <time>2013-07-25T18:44:15Z</time>
      </trkpt>
      <trkpt lat="48.38293" lon="2.02481">
        <ele>107.778883</ele>
        <time>2013-07-25T18:44:20Z</time>
      </trkpt>
      <trkpt lat="48.38293" lon="2.02481">
        <ele>107.778883</ele>
        <time>2013-07-25T18:44:25Z</time>
      </trkpt>
      <trkpt lat="48.38293" lon="2.02481">
        <ele>107.778883</ele>
        <time>2013-07-25T18:44:30Z</time>
      </trkpt>
      <trkpt lat="48.38293" lon="2.02481">
        <ele>107.778883</ele>
        <time>2013-07-25T18:44:35Z</time>
      </trkpt>
      <trkpt lat="48.38293" lon="2.02481">
        <ele>107.778883</ele>
        <time>2013-07-25T18:44:40Z</time>
      </trkpt>
      <trkpt lat="48.38293" lon="2.02481">
        <ele>107.778883</ele>
        <time>2013-07-25T18:44:45Z</time>
      </trkpt>
      <trkpt lat="48.38293" lon="2.02481">
        <ele>107.778883</ele>
        <time>2013-07-25T18:44:50Z</time>
      </trkpt>
      <trkpt lat="48.38293" lon="2.02481">
        <ele>107.778883</ele>
        <time>2013-07-25T18:44:55Z</time>
      </trkpt>
      <trkpt lat="48.38293" lon="2.02481">
        <ele>107.778883</ele>
        <time>2013-07-25T18:45:00Z</time>
      </trkpt>
      <trkpt lat="48.38293" lon="2.02481">
        <ele>107.778883</ele>
        <time>2013-07-25T18:45:05Z</time>
      </trkpt>
      <trkpt lat="48.38293" lon="2.02481">
        <ele>107.778883</ele>
        <time>2013-07-25T18:45:10Z</time>
      </trkpt>
      <trkpt lat="48.38293" lon="2.02481">
        <ele>107.778883</ele>
        <time>2013-07-25T18:45:15Z</time>
      </trkpt>
      <trkpt lat="48.38293" lon="2.02481">
        <ele>107.778883</ele>
        <time>2013-07-25T18:45:20Z</time>
      </trkpt>
      <trkpt lat="48.38293" lon="2.02481">
        <ele>107.778883</ele>
        <time>2013-07-25T18:45:25Z</time>
      </trkpt>
      <trkpt lat="48.38293" lon="2.02481">
        <ele>107.778883</ele>
        <time>2013-07-25T18:45:30Z</time>
      </trkpt>
      <trkpt lat="48.38293" lon="2.02481">
        <ele>107.778883</ele>
        <time>2013-07-25T18:45:35Z</time>
      </trkpt>
      <trkpt lat="48.38293" lon="2.02481">
        <ele>107.778883</ele>
        <time>2013-07-25T18:45:40Z</time>
      </trkpt>
      <trkpt lat="48.38293" lon="2.02481">
        <ele>107.778883</ele>
        <time>2013-07-25T18:45:45Z</time>
      </trkpt>
      <trkpt lat="48.38293" lon="2.02481">
        <ele>107.778883</ele>
        <time>2013-07-25T18:45:50Z</time>
      </trkpt>
      <trkpt lat="48.38293" lon="2.02481">
        <ele>107.778883</ele>
        <time>2013-07-25T18:45:55Z</time>
      </trkpt>
      <trkpt lat="48.38293" lon="2.02481">
        <ele>107.778883</ele>
        <time>2013-07-25T18:46:00Z</time>
      </trkpt>
      <trkpt lat="48.38293" lon="2.02481">
        <ele>107.778883</ele>
        <time>2013-07-25T18:46:05Z</time>
      </trkpt>
      <trkpt lat="48.38293" lon="2.02481">
        <ele>107.778883</ele>
        <time>2013-07-25T18:46:10Z</time>
      </trkpt>
      <trkpt lat="48.38293" lon="2.02481">
        <ele>107.778883</ele>
        <time>2013-07-25T18:46:15Z</time>
      </trkpt>
      <trkpt lat="48.38293" lon="2.02481">
        <ele>107.778883</ele>
        <time>2013-07-25T18:46:20Z</time>
      </trkpt>
      <trkpt lat="48.38293" lon="2.02481">
        <ele>107.778883</ele>
        <time>2013-07-25T18:46:25Z</time>
      </trkpt>
      <trkpt lat="48.38293" lon="2.02481">
        <ele>107.778883</ele>
        <time>2013-07-25T18:46:30Z</time>
      </trkpt>
      <trkpt lat="48.38293" lon="2.02481">
        <ele>107.778883</ele>
        <time>2013-07-25T18:46:35Z</time>
      </trkpt>
      <trkpt lat="48.38293" lon="2.02481">
        <ele>107.778883</ele>
        <time>2013-07-25T18:46:40Z</time>
      </trkpt>
      <trkpt lat="48.38293" lon="2.02481">
        <ele>107.778883</ele>
        <time>2013-07-25T18:46:45Z</time>
      </trkpt>
      <trkpt lat="48.38293" lon="2.02481">
        <ele>107.778883</ele>
        <time>2013-07-25T18:46:50Z</time>
      </trkpt>
      <trkpt lat="48.38293" lon="2.02481">
        <ele>107.778883</ele>
        <time>2013-07-25T18:46:55Z</time>
      </trkpt>
      <trkpt lat="48.38293" lon="2.02481">
        <ele>107.778883</ele>
        <time>2013-07-25T18:47:00Z</time>
      </trkpt>
      <trkpt lat="48.38293" lon="2.02481">
        <ele>107.778883</ele>
        <time>2013-07-25T18:47:05Z</time>
      </trkpt>
      <trkpt lat="48.38293" lon="2.02481">
        <ele>107.778883</ele>
        <time>2013-07-25T18:47:10Z</time>
      </trkpt>
      <trkpt lat="48.38293" lon="2.02481">
        <ele>107.778883</ele>
        <time>2013-07-25T18:47:15Z</time>
      </trkpt>
      <trkpt lat="48.38293" lon="2.02481">
        <ele>107.778883</ele>
        <time>2013-07-25T18:47:20Z</time>
      </trkpt>
      <trkpt lat="48.38293" lon="2.02481">
        <ele>107.778883</ele>
        <time>2013-07-25T18:47:25Z</time>
      </trkpt>
      <trkpt lat="48.38293" lon="2.02481">
        <ele>107.778883</ele>
        <time>2013-07-25T18:47:30Z</time>
      </trkpt>
      <trkpt lat="48.38293" lon="2.02481">
        <ele>107.778883</ele>
        <time>2013-07-25T18:47:35Z</time>
      </trkpt>
      <trkpt lat="48.38293" lon="2.02481">
        <ele>107.778883</ele>
        <time>2013-07-25T18:47:40Z</time>
      </trkpt>
      <trkpt lat="48.38293" lon="2.02481">
        <ele>107.778883</ele>
        <time>2013-07-25T18:47:45Z</time>
      </trkpt>
      <trkpt lat="48.38293" lon="2.02481">
        <ele>107.778883</ele>
        <time>2013-07-25T18:47:50Z</time>
      </trkpt>
      <trkpt lat="48.38293" lon="2.02481">
        <ele>107.778883</ele>
        <time>2013-07-25T18:47:55Z</time>
      </trkpt>
      <trkpt lat="48.38293" lon="2.02481">
        <ele>107.778883</ele>
        <time>2013-07-25T18:48:00Z</time>
      </trkpt>
      <trkpt lat="48.38293" lon="2.02481">
        <ele>107.778883</ele>
        <time>2013-07-25T18:48:05Z</time>
      </trkpt>
      <trkpt lat="48.38293" lon="2.02481">
        <ele>107.778883</ele>
        <time>2013-07-25T18:48:10Z</time>
      </trkpt>
      <trkpt lat="48.38293" lon="2.02481">
        <ele>107.778883</ele>
        <time>2013-07-25T18:48:15Z</time>
      </trkpt>
      <trkpt lat="48.38293" lon="2.02481">
        <ele>107.778883</ele>
        <time>2013-07-25T18:48:20Z</time>
      </trkpt>
      <trkpt lat="48.38293" lon="2.02481">
        <ele>107.778883</ele>
        <time>2013-07-25T18:48:25Z</time>
      </trkpt>
      <trkpt lat="48.38293" lon="2.02481">
        <ele>107.778883</ele>
        <time>2013-07-25T18:48:30Z</time>
      </trkpt>
      <trkpt lat="48.38293" lon="2.02481">
        <ele>107.778883</ele>
        <time>2013-07-25T18:48:35Z</time>
      </trkpt>
      <trkpt lat="48.38293" lon="2.02481">
        <ele>107.778883</ele>
        <time>2013-07-25T18:48:40Z</time>
      </trkpt>
      <trkpt lat="48.38293" lon="2.02481">
        <ele>107.778883</ele>
        <time>2013-07-25T18:48:45Z</time>
      </trkpt>
      <trkpt lat="48.38293" lon="2.02481">
        <ele>107.778883</ele>
        <time>2013-07-25T18:48:50Z</time>
      </trkpt>
      <trkpt lat="48.38293" lon="2.02481">
        <ele>107.778883</ele>
        <time>2013-07-25T18:48:55Z</time>
      </trkpt>
      <trkpt lat="48.38293" lon="2.02481">
        <ele>107.778883</ele>
        <time>2013-07-25T18:49:00Z</time>
      </trkpt>
      <trkpt lat="48.38293" lon="2.02481">
        <ele>107.778883</ele>
        <time>2013-07-25T18:49:05Z</time>
      </trkpt>
      <trkpt lat="48.38293" lon="2.02481">
        <ele>107.778883</ele>
        <time>2013-07-25T18:49:10Z</time>
      </trkpt>
      <trkpt lat="48.38293" lon="2.02481">
        <ele>107.778883</ele>
        <time>2013-07-25T18:49:15Z</time>
      </trkpt>
      <trkpt lat="48.38293" lon="2.02481">
        <ele>107.778883</ele>
        <time>2013-07-25T18:49:20Z</time>
      </trkpt>
      <trkpt lat="48.38293" lon="2.02481">
        <ele>107.778883</ele>
        <time>2013-07-25T18:49:25Z</time>
      </trkpt>
      <trkpt lat="48.38293" lon="2.02481">
        <ele>107.778883</ele>
        <time>2013-07-25T18:49:30Z</time>
      </trkpt>
      <trkpt lat="48.38293" lon="2.02481">
        <ele>107.778883</ele>
        <time>2013-07-25T18:49:35Z</time>
      </trkpt>
      <trkpt lat="48.38293" lon="2.02481">
        <ele>107.778883</ele>
        <time>2013-07-25T18:49:40Z</time>
      </trkpt>
      <trkpt lat="48.38293" lon="2.02481">
        <ele>107.778883</ele>
        <time>2013-07-25T18:49:45Z</time>
      </trkpt>
      <trkpt lat="48.38293" lon="2.02481">
        <ele>107.778883</ele>
        <time>2013-07-25T18:49:50Z</time>
      </trkpt>
      <trkpt lat="48.38293" lon="2.02481">
        <ele>107.778883</ele>
        <time>2013-07-25T18:49:55Z</time>
      </trkpt>
      <trkpt lat="48.38293" lon="2.02481">
        <ele>107.778883</ele>
        <time>2013-07-25T18:50:00Z</time>
      </trkpt>
      <trkpt lat="48.38293" lon="2.02481">
        <ele>107.778883</ele>
        <time>2013-07-25T18:50:05Z</time>
      </trkpt>
      <trkpt lat="48.38293" lon="2.02481">
        <ele>107.778883</ele>
        <time>2013-07-25T18:50:10Z</time>
      </trkpt>
      <trkpt lat="48.38293" lon="2.02481">
        <ele>107.778883</ele>
        <time>2013-07-25T18:50:15Z</time>
      </trkpt>
      <trkpt lat="48.38293" lon="2.02481">
        <ele>107.778883</ele>
        <time>2013-07-25T18:50:20Z</time>
      </trkpt>
      <trkpt lat="48.38293" lon="2.02481">
        <ele>107.778883</ele>
        <time>2013-07-25T18:50:25Z</time>
      </trkpt>
      <trkpt lat="48.38293" lon="2.02481">
        <ele>107.778883</ele>
        <time>2013-07-25T18:50:30Z</time>
      </trkpt>
      <trkpt lat="48.38293" lon="2.02481">
        <ele>107.778883</ele>
        <time>2013-07-25T18:50:35Z</time>
      </trkpt>
      <trkpt lat="48.38293" lon="2.02481">
        <ele>107.778883</ele>
        <time>2013-07-25T18:50:40Z</time>
      </trkpt>
      <trkpt lat="48.38293" lon="2.02481">
        <ele>107.778883</ele>
        <time>2013-07-25T18:50:45Z</time>
      </trkpt>
      <trkpt lat="48.38293" lon="2.02481">
        <ele>107.778883</ele>
        <time>2013-07-25T18:50:50Z</time>
      </trkpt>
      <trkpt lat="48.38293" lon="2.02481">
        <ele>107.778883</ele>
        <time>2013-07-25T18:50:55Z</time>
      </trkpt>
      <trkpt lat="48.38293" lon="2.02481">
        <ele>107.778883</ele>
        <time>2013-07-25T18:51:00Z</time>
      </trkpt>
      <trkpt lat="48.38293" lon="2.02481">
        <ele>107.778883</ele>
        <time>2013-07-25T18:51:05Z</time>
      </trkpt>
      <trkpt lat="48.38293" lon="2.02481">
        <ele>107.115149</ele>
        <time>2013-07-25T18:51:10Z</time>
      </trkpt>
      <trkpt lat="48.38293" lon="2.02481">
        <ele>107.115149</ele>
        <time>2013-07-25T18:51:15Z</time>
      </trkpt>
      <trkpt lat="48.38293" lon="2.02481">
        <ele>107.115149</ele>
        <time>2013-07-25T18:51:20Z</time>
      </trkpt>
      <trkpt lat="48.38293" lon="2.02481">
        <ele>107.115149</ele>
        <time>2013-07-25T18:51:25Z</time>
      </trkpt>
      <trkpt lat="48.38293" lon="2.02481">
        <ele>107.115149</ele>
        <time>2013-07-25T18:51:30Z</time>
      </trkpt>
      <trkpt lat="48.38293" lon="2.02481">
        <ele>107.115149</ele>
        <time>2013-07-25T18:51:35Z</time>
      </trkpt>
      <trkpt lat="48.38293" lon="2.02481">
        <ele>107.115149</ele>
        <time>2013-07-25T18:51:40Z</time>
      </trkpt>
      <trkpt lat="48.38293" lon="2.02481">
        <ele>107.115149</ele>
        <time>2013-07-25T18:51:45Z</time>
      </trkpt>
      <trkpt lat="48.38293" lon="2.02481">
        <ele>107.115149</ele>
        <time>2013-07-25T18:51:50Z</time>
      </trkpt>
      <trkpt lat="48.38293" lon="2.02481">
        <ele>107.115149</ele>
        <time>2013-07-25T18:51:55Z</time>
      </trkpt>
      <trkpt lat="48.38293" lon="2.02481">
        <ele>107.115149</ele>
        <time>2013-07-25T18:52:00Z</time>
      </trkpt>
      <trkpt lat="48.38293" lon="2.02481">
        <ele>107.115149</ele>
        <time>2013-07-25T18:52:05Z</time>
      </trkpt>
      <trkpt lat="48.38293" lon="2.02481">
        <ele>107.115149</ele>
        <time>2013-07-25T18:52:10Z</time>
      </trkpt>
      <trkpt lat="48.38293" lon="2.02481">
        <ele>107.115149</ele>
        <time>2013-07-25T18:52:15Z</time>
      </trkpt>
      <trkpt lat="48.38293" lon="2.02481">
        <ele>107.115149</ele>
        <time>2013-07-25T18:52:20Z</time>
      </trkpt>
      <trkpt lat="48.38293" lon="2.02481">
        <ele>107.115149</ele>
        <time>2013-07-25T18:52:25Z</time>
      </trkpt>
      <trkpt lat="48.38293" lon="2.02481">
        <ele>107.115149</ele>
        <time>2013-07-25T18:52:30Z</time>
      </trkpt>
      <trkpt lat="48.38293" lon="2.02481">
        <ele>107.115149</ele>
        <time>2013-07-25T18:52:35Z</time>
      </trkpt>
      <trkpt lat="48.38293" lon="2.02481">
        <ele>107.115149</ele>
        <time>2013-07-25T18:52:40Z</time>
      </trkpt>
      <trkpt lat="48.38293" lon="2.02481">
        <ele>107.115149</ele>
        <time>2013-07-25T18:52:45Z</time>
      </trkpt>
      <trkpt lat="48.38293" lon="2.02481">
        <ele>107.115149</ele>
        <time>2013-07-25T18:52:50Z</time>
      </trkpt>
      <trkpt lat="48.38293" lon="2.02481">
        <ele>107.115149</ele>
        <time>2013-07-25T18:52:55Z</time>
      </trkpt>
      <trkpt lat="48.38293" lon="2.02481">
        <ele>107.115149</ele>
        <time>2013-07-25T18:53:00Z</time>
      </trkpt>
      <trkpt lat="48.38293" lon="2.02481">
        <ele>107.115149</ele>
        <time>2013-07-25T18:53:05Z</time>
      </trkpt>
      <trkpt lat="48.38293" lon="2.02481">
        <ele>107.115149</ele>
        <time>2013-07-25T18:53:10Z</time>
      </trkpt>
      <trkpt lat="48.38293" lon="2.02481">
        <ele>107.115149</ele>
        <time>2013-07-25T18:53:15Z</time>
      </trkpt>
      <trkpt lat="48.38293" lon="2.02481">
        <ele>107.115149</ele>
        <time>2013-07-25T18:53:20Z</time>
      </trkpt>
      <trkpt lat="48.38293" lon="2.02481">
        <ele>107.115149</ele>
        <time>2013-07-25T18:53:25Z</time>
      </trkpt>
      <trkpt lat="48.38293" lon="2.02481">
        <ele>107.115149</ele>
        <time>2013-07-25T18:53:30Z</time>
      </trkpt>
      <trkpt lat="48.38293" lon="2.02481">
        <ele>107.115149</ele>
        <time>2013-07-25T18:53:35Z</time>
      </trkpt>
      <trkpt lat="48.38293" lon="2.02481">
        <ele>107.115149</ele>
        <time>2013-07-25T18:53:40Z</time>
      </trkpt>
      <trkpt lat="48.38293" lon="2.02481">
        <ele>107.115149</ele>
        <time>2013-07-25T18:53:45Z</time>
      </trkpt>
      <trkpt lat="48.38293" lon="2.02481">
        <ele>107.115149</ele>
        <time>2013-07-25T18:53:50Z</time>
      </trkpt>
      <trkpt lat="48.38293" lon="2.02481">
        <ele>107.115149</ele>
        <time>2013-07-25T18:53:55Z</time>
      </trkpt>
      <trkpt lat="48.38293" lon="2.02481">
        <ele>107.115149</ele>
        <time>2013-07-25T18:54:00Z</time>
      </trkpt>
      <trkpt lat="48.38293" lon="2.02481">
        <ele>107.115149</ele>
        <time>2013-07-25T18:54:05Z</time>
      </trkpt>
      <trkpt lat="48.38293" lon="2.02481">
        <ele>107.115149</ele>
        <time>2013-07-25T18:54:10Z</time>
      </trkpt>
      <trkpt lat="48.38293" lon="2.02481">
        <ele>107.115149</ele>
        <time>2013-07-25T18:54:15Z</time>
      </trkpt>
      <trkpt lat="48.38293" lon="2.02481">
        <ele>107.115149</ele>
        <time>2013-07-25T18:54:20Z</time>
      </trkpt>
      <trkpt lat="48.38293" lon="2.02481">
        <ele>107.115149</ele>
        <time>2013-07-25T18:54:25Z</time>
      </trkpt>
      <trkpt lat="48.38293" lon="2.02481">
        <ele>107.115149</ele>
        <time>2013-07-25T18:54:30Z</time>
      </trkpt>
      <trkpt lat="48.38293" lon="2.02481">
        <ele>107.115149</ele>
        <time>2013-07-25T18:54:35Z</time>
      </trkpt>
      <trkpt lat="48.38293" lon="2.02481">
        <ele>107.115149</ele>
        <time>2013-07-25T18:54:40Z</time>
      </trkpt>
      <trkpt lat="48.38293" lon="2.02481">
        <ele>107.115149</ele>
        <time>2013-07-25T18:54:45Z</time>
      </trkpt>
      <trkpt lat="48.38293" lon="2.02481">
        <ele>107.115149</ele>
        <time>2013-07-25T18:54:50Z</time>
      </trkpt>
      <trkpt lat="48.38293" lon="2.02481">
        <ele>107.115149</ele>
        <time>2013-07-25T18:54:55Z</time>
      </trkpt>
      <trkpt lat="48.38293" lon="2.02481">
        <ele>107.115149</ele>
        <time>2013-07-25T18:55:00Z</time>
      </trkpt>
      <trkpt lat="48.38293" lon="2.02481">
        <ele>107.115149</ele>
        <time>2013-07-25T18:55:05Z</time>
      </trkpt>
      <trkpt lat="48.38293" lon="2.02481">
        <ele>107.115149</ele>
        <time>2013-07-25T18:55:10Z</time>
      </trkpt>
      <trkpt lat="48.38293" lon="2.02481">
        <ele>107.115149</ele>
        <time>2013-07-25T18:55:15Z</time>
      </trkpt>
      <trkpt lat="48.38293" lon="2.02481">
        <ele>107.115149</ele>
        <time>2013-07-25T18:55:20Z</time>
      </trkpt>
      <trkpt lat="48.38293" lon="2.02481">
        <ele>107.115149</ele>
        <time>2013-07-25T18:55:25Z</time>
      </trkpt>
      <trkpt lat="48.38293" lon="2.02481">
        <ele>107.115149</ele>
        <time>2013-07-25T18:55:30Z</time>
      </trkpt>
      <trkpt lat="48.38293" lon="2.02481">
        <ele>107.115149</ele>
        <time>2013-07-25T18:55:35Z</time>
      </trkpt>
      <trkpt lat="48.38293" lon="2.02481">
        <ele>107.115149</ele>
        <time>2013-07-25T18:55:40Z</time>
      </trkpt>
      <trkpt lat="48.38293" lon="2.02481">
        <ele>107.115149</ele>
        <time>2013-07-25T18:55:45Z</time>
      </trkpt>
      <trkpt lat="48.38293" lon="2.02481">
        <ele>107.115149</ele>
        <time>2013-07-25T18:55:50Z</time>
      </trkpt>
      <trkpt lat="48.38293" lon="2.02481">
        <ele>107.115149</ele>
        <time>2013-07-25T18:55:55Z</time>
      </trkpt>
      <trkpt lat="48.38293" lon="2.02481">
        <ele>107.115149</ele>
        <time>2013-07-25T18:56:00Z</time>
      </trkpt>
      <trkpt lat="48.38293" lon="2.02481">
        <ele>107.115149</ele>
        <time>2013-07-25T18:56:05Z</time>
      </trkpt>
      <trkpt lat="48.38293" lon="2.02481">
        <ele>107.115149</ele>
        <time>2013-07-25T18:56:10Z</time>
      </trkpt>
      <trkpt lat="48.38293" lon="2.02481">
        <ele>107.115149</ele>
        <time>2013-07-25T18:56:15Z</time>
      </trkpt>
      <trkpt lat="48.38293" lon="2.02481">
        <ele>107.115149</ele>
        <time>2013-07-25T18:56:20Z</time>
      </trkpt>
      <trkpt lat="48.38293" lon="2.02481">
        <ele>107.115149</ele>
        <time>2013-07-25T18:56:25Z</time>
      </trkpt>
      <trkpt lat="48.38293" lon="2.02481">
        <ele>107.115149</ele>
        <time>2013-07-25T18:56:30Z</time>
      </trkpt>
      <trkpt lat="48.38293" lon="2.02481">
        <ele>107.115149</ele>
        <time>2013-07-25T18:56:35Z</time>
      </trkpt>
      <trkpt lat="48.38293" lon="2.02481">
        <ele>107.115149</ele>
        <time>2013-07-25T18:56:40Z</time>
      </trkpt>
      <trkpt lat="48.38293" lon="2.02481">
        <ele>107.115149</ele>
        <time>2013-07-25T18:56:45Z</time>
      </trkpt>
      <trkpt lat="48.38293" lon="2.02481">
        <ele>107.115149</ele>
        <time>2013-07-25T18:56:50Z</time>
      </trkpt>
      <trkpt lat="48.38293" lon="2.02481">
        <ele>107.115149</ele>
        <time>2013-07-25T18:56:55Z</time>
      </trkpt>
      <trkpt lat="48.38293" lon="2.02481">
        <ele>107.115149</ele>
        <time>2013-07-25T18:57:00Z</time>
      </trkpt>
      <trkpt lat="48.38293" lon="2.02481">
        <ele>107.115149</ele>
        <time>2013-07-25T18:57:05Z</time>
      </trkpt>
      <trkpt lat="48.38293" lon="2.02481">
        <ele>107.115149</ele>
        <time>2013-07-25T18:57:10Z</time>
      </trkpt>
      <trkpt lat="48.38293" lon="2.02481">
        <ele>107.115149</ele>
        <time>2013-07-25T18:57:15Z</time>
      </trkpt>
      <trkpt lat="48.38293" lon="2.02481">
        <ele>107.115149</ele>
        <time>2013-07-25T18:57:20Z</time>
      </trkpt>
      <trkpt lat="48.38293" lon="2.02481">
        <ele>107.115149</ele>
        <time>2013-07-25T18:57:25Z</time>
      </trkpt>
      <trkpt lat="48.38293" lon="2.02481">
        <ele>107.115149</ele>
        <time>2013-07-25T18:57:30Z</time>
      </trkpt>
      <trkpt lat="48.38293" lon="2.02481">
        <ele>107.115149</ele>
        <time>2013-07-25T18:57:35Z</time>
      </trkpt>
      <trkpt lat="48.38293" lon="2.02481">
        <ele>107.115149</ele>
        <time>2013-07-25T18:57:40Z</time>
      </trkpt>
      <trkpt lat="48.38293" lon="2.02481">
        <ele>107.115149</ele>
        <time>2013-07-25T18:57:45Z</time>
      </trkpt>
      <trkpt lat="48.38293" lon="2.02481">
        <ele>107.115149</ele>
        <time>2013-07-25T18:57:50Z</time>
      </trkpt>
      <trkpt lat="48.38293" lon="2.02481">
        <ele>107.115149</ele>
        <time>2013-07-25T18:57:55Z</time>
      </trkpt>
      <trkpt lat="48.38293" lon="2.02481">
        <ele>107.115149</ele>
        <time>2013-07-25T18:58:00Z</time>
      </trkpt>
      <trkpt lat="48.38293" lon="2.02481">
        <ele>107.115149</ele>
        <time>2013-07-25T18:58:05Z</time>
      </trkpt>
      <trkpt lat="48.38293" lon="2.02481">
        <ele>107.115149</ele>
        <time>2013-07-25T18:58:10Z</time>
      </trkpt>
      <trkpt lat="48.38293" lon="2.02481">
        <ele>107.115149</ele>
        <time>2013-07-25T18:58:15Z</time>
      </trkpt>
      <trkpt lat="48.38293" lon="2.02481">
        <ele>107.115149</ele>
        <time>2013-07-25T18:58:20Z</time>
      </trkpt>
      <trkpt lat="48.38293" lon="2.02481">
        <ele>107.115149</ele>
        <time>2013-07-25T18:58:25Z</time>
      </trkpt>
      <trkpt lat="48.38293" lon="2.02481">
        <ele>107.115149</ele>
        <time>2013-07-25T18:58:30Z</time>
      </trkpt>
      <trkpt lat="48.38293" lon="2.02481">
        <ele>107.115149</ele>
        <time>2013-07-25T18:58:35Z</time>
      </trkpt>
      <trkpt lat="48.38293" lon="2.02481">
        <ele>107.115149</ele>
        <time>2013-07-25T18:58:40Z</time>
      </trkpt>
      <trkpt lat="48.38293" lon="2.02481">
        <ele>107.115149</ele>
        <time>2013-07-25T18:58:45Z</time>
      </trkpt>
      <trkpt lat="48.38293" lon="2.02481">
        <ele>107.115149</ele>
        <time>2013-07-25T18:58:50Z</time>
      </trkpt>
      <trkpt lat="48.38293" lon="2.02481">
        <ele>107.115149</ele>
        <time>2013-07-25T18:58:55Z</time>
      </trkpt>
      <trkpt lat="48.38293" lon="2.02481">
        <ele>107.115149</ele>
        <time>2013-07-25T18:59:00Z</time>
      </trkpt>
      <trkpt lat="48.38293" lon="2.02481">
        <ele>107.115149</ele>
        <time>2013-07-25T18:59:06Z</time>
      </trkpt>
      <trkpt lat="48.38293" lon="2.02481">
        <ele>107.115149</ele>
        <time>2013-07-25T18:59:11Z</time>
      </trkpt>
      <trkpt lat="48.38293" lon="2.02481">
        <ele>107.115149</ele>
        <time>2013-07-25T18:59:16Z</time>
      </trkpt>
      <trkpt lat="48.38293" lon="2.02481">
        <ele>107.115149</ele>
        <time>2013-07-25T18:59:21Z</time>
      </trkpt>
      <trkpt lat="48.38293" lon="2.02481">
        <ele>107.115149</ele>
        <time>2013-07-25T18:59:26Z</time>
      </trkpt>
      <trkpt lat="48.38293" lon="2.02481">
        <ele>107.115149</ele>
        <time>2013-07-25T18:59:31Z</time>
      </trkpt>
      <trkpt lat="48.38293" lon="2.02481">
        <ele>107.115149</ele>
        <time>2013-07-25T18:59:36Z</time>
      </trkpt>
      <trkpt lat="48.38293" lon="2.02481">
        <ele>107.115149</ele>
        <time>2013-07-25T18:59:41Z</time>
      </trkpt>
      <trkpt lat="48.38293" lon="2.02481">
        <ele>107.115149</ele>
        <time>2013-07-25T18:59:46Z</time>
      </trkpt>
      <trkpt lat="48.38293" lon="2.02481">
        <ele>107.115149</ele>
        <time>2013-07-25T18:59:51Z</time>
      </trkpt>
      <trkpt lat="48.38293" lon="2.02481">
        <ele>107.115149</ele>
        <time>2013-07-25T18:59:56Z</time>
      </trkpt>
      <trkpt lat="48.38293" lon="2.02481">
        <ele>107.115149</ele>
        <time>2013-07-25T19:00:01Z</time>
      </trkpt>
      <trkpt lat="48.38293" lon="2.02481">
        <ele>107.115149</ele>
        <time>2013-07-25T19:00:06Z</time>
      </trkpt>
      <trkpt lat="48.38293" lon="2.02481">
        <ele>107.115149</ele>
        <time>2013-07-25T19:00:11Z</time>
      </trkpt>
      <trkpt lat="48.38293" lon="2.02481">
        <ele>107.115149</ele>
        <time>2013-07-25T19:00:16Z</time>
      </trkpt>
      <trkpt lat="48.38293" lon="2.02481">
        <ele>107.115149</ele>
        <time>2013-07-25T19:00:21Z</time>
      </trkpt>
      <trkpt lat="48.38293" lon="2.02481">
        <ele>107.115149</ele>
        <time>2013-07-25T19:00:26Z</time>
      </trkpt>
      <trkpt lat="48.38293" lon="2.02481">
        <ele>107.115149</ele>
        <time>2013-07-25T19:00:31Z</time>
      </trkpt>
      <trkpt lat="48.38293" lon="2.02481">
        <ele>107.115149</ele>
        <time>2013-07-25T19:00:36Z</time>
      </trkpt>
      <trkpt lat="48.38293" lon="2.02481">
        <ele>107.115149</ele>
        <time>2013-07-25T19:00:41Z</time>
      </trkpt>
      <trkpt lat="48.38293" lon="2.02481">
        <ele>107.115149</ele>
        <time>2013-07-25T19:00:46Z</time>
      </trkpt>
      <trkpt lat="48.38293" lon="2.02481">
        <ele>107.115149</ele>
        <time>2013-07-25T19:00:51Z</time>
      </trkpt>
      <trkpt lat="48.38293" lon="2.02481">
        <ele>107.115149</ele>
        <time>2013-07-25T19:00:56Z</time>
      </trkpt>
      <trkpt lat="48.38293" lon="2.02481">
        <ele>107.115149</ele>
        <time>2013-07-25T19:01:01Z</time>
      </trkpt>
      <trkpt lat="48.38293" lon="2.02481">
        <ele>107.115149</ele>
        <time>2013-07-25T19:01:06Z</time>
      </trkpt>
      <trkpt lat="48.38293" lon="2.02481">
        <ele>107.115149</ele>
        <time>2013-07-25T19:01:11Z</time>
      </trkpt>
      <trkpt lat="48.38293" lon="2.02481">
        <ele>107.115149</ele>
        <time>2013-07-25T19:01:16Z</time>
      </trkpt>
      <trkpt lat="48.38293" lon="2.02481">
        <ele>107.115149</ele>
        <time>2013-07-25T19:01:21Z</time>
      </trkpt>
      <trkpt lat="48.38293" lon="2.02481">
        <ele>107.115149</ele>
        <time>2013-07-25T19:01:26Z</time>
      </trkpt>
      <trkpt lat="48.38293" lon="2.02481">
        <ele>107.115149</ele>
        <time>2013-07-25T19:01:31Z</time>
      </trkpt>
      <trkpt lat="48.38293" lon="2.02481">
        <ele>107.115149</ele>
        <time>2013-07-25T19:01:36Z</time>
      </trkpt>
      <trkpt lat="48.38293" lon="2.02481">
        <ele>107.115149</ele>
        <time>2013-07-25T19:01:41Z</time>
      </trkpt>
      <trkpt lat="48.38293" lon="2.02481">
        <ele>107.115149</ele>
        <time>2013-07-25T19:01:46Z</time>
      </trkpt>
      <trkpt lat="48.38293" lon="2.02481">
        <ele>107.115149</ele>
        <time>2013-07-25T19:01:51Z</time>
      </trkpt>
      <trkpt lat="48.38293" lon="2.02481">
        <ele>107.115149</ele>
        <time>2013-07-25T19:01:56Z</time>
      </trkpt>
      <trkpt lat="48.38293" lon="2.02481">
        <ele>107.115149</ele>
        <time>2013-07-25T19:02:01Z</time>
      </trkpt>
      <trkpt lat="48.38293" lon="2.02481">
        <ele>107.115149</ele>
        <time>2013-07-25T19:02:06Z</time>
      </trkpt>
      <trkpt lat="48.38293" lon="2.02481">
        <ele>107.115149</ele>
        <time>2013-07-25T19:02:11Z</time>
      </trkpt>
      <trkpt lat="48.38293" lon="2.02481">
        <ele>107.115149</ele>
        <time>2013-07-25T19:02:16Z</time>
      </trkpt>
      <trkpt lat="48.38293" lon="2.02481">
        <ele>107.115149</ele>
        <time>2013-07-25T19:02:21Z</time>
      </trkpt>
      <trkpt lat="48.38293" lon="2.02481">
        <ele>107.115149</ele>
        <time>2013-07-25T19:02:26Z</time>
      </trkpt>
      <trkpt lat="48.38293" lon="2.02481">
        <ele>107.115149</ele>
        <time>2013-07-25T19:02:31Z</time>
      </trkpt>
      <trkpt lat="48.38293" lon="2.02481">
        <ele>107.115149</ele>
        <time>2013-07-25T19:02:36Z</time>
      </trkpt>
      <trkpt lat="48.38293" lon="2.02481">
        <ele>107.115149</ele>
        <time>2013-07-25T19:02:41Z</time>
      </trkpt>
      <trkpt lat="48.38293" lon="2.02481">
        <ele>107.115149</ele>
        <time>2013-07-25T19:02:46Z</time>
      </trkpt>
      <trkpt lat="48.38293" lon="2.02481">
        <ele>107.115149</ele>
        <time>2013-07-25T19:02:51Z</time>
      </trkpt>
      <trkpt lat="48.38293" lon="2.02481">
        <ele>107.115149</ele>
        <time>2013-07-25T19:02:56Z</time>
      </trkpt>
      <trkpt lat="48.38293" lon="2.02481">
        <ele>107.115149</ele>
        <time>2013-07-25T19:03:01Z</time>
      </trkpt>
      <trkpt lat="48.38293" lon="2.02481">
        <ele>107.115149</ele>
        <time>2013-07-25T19:03:06Z</time>
      </trkpt>
      <trkpt lat="48.38293" lon="2.02481">
        <ele>107.115149</ele>
        <time>2013-07-25T19:03:11Z</time>
      </trkpt>
      <trkpt lat="48.38293" lon="2.02481">
        <ele>107.115149</ele>
        <time>2013-07-25T19:03:16Z</time>
      </trkpt>
      <trkpt lat="48.38293" lon="2.02481">
        <ele>107.115149</ele>
        <time>2013-07-25T19:03:21Z</time>
      </trkpt>
      <trkpt lat="48.38293" lon="2.02481">
        <ele>107.115149</ele>
        <time>2013-07-25T19:03:26Z</time>
      </trkpt>
      <trkpt lat="48.38293" lon="2.02481">
        <ele>107.115149</ele>
        <time>2013-07-25T19:03:31Z</time>
      </trkpt>
      <trkpt lat="48.38293" lon="2.02481">
        <ele>107.115149</ele>
        <time>2013-07-25T19:03:36Z</time>
      </trkpt>
      <trkpt lat="48.38295" lon="2.02484">
        <ele>105.834612</ele>
        <time>2013-07-25T19:03:41Z</time>
      </trkpt>
      <trkpt lat="48.38295" lon="2.02483">
        <ele>107.222481</ele>
        <time>2013-07-25T19:03:46Z</time>
      </trkpt>
      <trkpt lat="48.38295" lon="2.02483">
        <ele>107.222481</ele>
        <time>2013-07-25T19:03:51Z</time>
      </trkpt>
      <trkpt lat="48.38295" lon="2.02483">
        <ele>107.222481</ele>
        <time>2013-07-25T19:03:56Z</time>
      </trkpt>
      <trkpt lat="48.38295" lon="2.02483">
        <ele>106.558747</ele>
        <time>2013-07-25T19:04:01Z</time>
      </trkpt>
      <trkpt lat="48.38296" lon="2.02483">
        <ele>107.306347</ele>
        <time>2013-07-25T19:04:06Z</time>
      </trkpt>
      <trkpt lat="48.38297" lon="2.02483">
        <ele>107.390214</ele>
        <time>2013-07-25T19:04:11Z</time>
      </trkpt>
      <trkpt lat="48.383" lon="2.02481">
        <ele>108.945817</ele>
        <time>2013-07-25T19:04:16Z</time>
      </trkpt>
      <trkpt lat="48.38299" lon="2.02483">
        <ele>109.633017</ele>
        <time>2013-07-25T19:04:21Z</time>
      </trkpt>
      <trkpt lat="48.38298" lon="2.02483">
        <ele>110.29675</ele>
        <time>2013-07-25T19:04:26Z</time>
      </trkpt>
      <trkpt lat="48.38299" lon="2.02483">
        <ele>111.044351</ele>
        <time>2013-07-25T19:04:31Z</time>
      </trkpt>
      <trkpt lat="48.38299" lon="2.02483">
        <ele>111.044351</ele>
        <time>2013-07-25T19:04:36Z</time>
      </trkpt>
      <trkpt lat="48.38299" lon="2.02483">
        <ele>109.633017</ele>
        <time>2013-07-25T19:04:41Z</time>
      </trkpt>
      <trkpt lat="48.38299" lon="2.02483">
        <ele>109.633017</ele>
        <time>2013-07-25T19:04:46Z</time>
      </trkpt>
      <trkpt lat="48.38299" lon="2.02483">
        <ele>109.633017</ele>
        <time>2013-07-25T19:04:51Z</time>
      </trkpt>
      <trkpt lat="48.38299" lon="2.02483">
        <ele>109.633017</ele>
        <time>2013-07-25T19:04:56Z</time>
      </trkpt>
      <trkpt lat="48.38299" lon="2.02483">
        <ele>109.633017</ele>
        <time>2013-07-25T19:05:01Z</time>
      </trkpt>
      <trkpt lat="48.38299" lon="2.02483">
        <ele>109.633017</ele>
        <time>2013-07-25T19:05:06Z</time>
      </trkpt>
      <trkpt lat="48.38299" lon="2.02481">
        <ele>109.609551</ele>
        <time>2013-07-25T19:05:11Z</time>
      </trkpt>
      <trkpt lat="48.38299" lon="2.02481">
        <ele>109.609551</ele>
        <time>2013-07-25T19:05:16Z</time>
      </trkpt>
      <trkpt lat="48.38299" lon="2.02481">
        <ele>109.609551</ele>
        <time>2013-07-25T19:05:21Z</time>
      </trkpt>
      <trkpt lat="48.383" lon="2.02481">
        <ele>108.945817</ele>
        <time>2013-07-25T19:05:26Z</time>
      </trkpt>
      <trkpt lat="48.38299" lon="2.02481">
        <ele>108.198216</ele>
        <time>2013-07-25T19:05:31Z</time>
      </trkpt>
      <trkpt lat="48.38298" lon="2.02481">
        <ele>107.450615</ele>
        <time>2013-07-25T19:05:36Z</time>
      </trkpt>
      <trkpt lat="48.38298" lon="2.02481">
        <ele>107.450615</ele>
        <time>2013-07-25T19:05:41Z</time>
      </trkpt>
      <trkpt lat="48.38298" lon="2.02481">
        <ele>107.450615</ele>
        <time>2013-07-25T19:05:46Z</time>
      </trkpt>
      <trkpt lat="48.38298" lon="2.02481">
        <ele>107.450615</ele>
        <time>2013-07-25T19:05:51Z</time>
      </trkpt>
      <trkpt lat="48.38298" lon="2.02481">
        <ele>107.450615</ele>
        <time>2013-07-25T19:05:56Z</time>
      </trkpt>
      <trkpt lat="48.38298" lon="2.02481">
        <ele>107.450615</ele>
        <time>2013-07-25T19:06:01Z</time>
      </trkpt>
      <trkpt lat="48.38298" lon="2.02481">
        <ele>107.450615</ele>
        <time>2013-07-25T19:06:06Z</time>
      </trkpt>
      <trkpt lat="48.38298" lon="2.02481">
        <ele>106.703015</ele>
        <time>2013-07-25T19:06:11Z</time>
      </trkpt>
      <trkpt lat="48.38298" lon="2.02481">
        <ele>106.703015</ele>
        <time>2013-07-25T19:06:16Z</time>
      </trkpt>
      <trkpt lat="48.38298" lon="2.02483">
        <ele>105.315146</ele>
        <time>2013-07-25T19:06:21Z</time>
      </trkpt>
      <trkpt lat="48.38298" lon="2.02483">
        <ele>105.315146</ele>
        <time>2013-07-25T19:06:26Z</time>
      </trkpt>
      <trkpt lat="48.38298" lon="2.02483">
        <ele>105.315146</ele>
        <time>2013-07-25T19:06:31Z</time>
      </trkpt>
      <trkpt lat="48.38298" lon="2.02483">
        <ele>105.315146</ele>
        <time>2013-07-25T19:06:36Z</time>
      </trkpt>
      <trkpt lat="48.38297" lon="2.0248">
        <ele>106.595682</ele>
        <time>2013-07-25T19:06:41Z</time>
      </trkpt>
      <trkpt lat="48.38294" lon="2.02479">
        <ele>106.404483</ele>
        <time>2013-07-25T19:06:46Z</time>
      </trkpt>
      <trkpt lat="48.38292" lon="2.0248">
        <ele>105.596482</ele>
        <time>2013-07-25T19:06:51Z</time>
      </trkpt>
      <trkpt lat="48.38267" lon="2.02476">
        <ele>107.442566</ele>
        <time>2013-07-25T19:06:56Z</time>
      </trkpt>
      <trkpt lat="48.3824" lon="2.02456">
        <ele>108.839494</ele>
        <time>2013-07-25T19:07:01Z</time>
      </trkpt>
      <trkpt lat="48.38219" lon="2.02428">
        <ele>112.590151</ele>
        <time>2013-07-25T19:07:06Z</time>
      </trkpt>
      <trkpt lat="48.38222" lon="2.02432">
        <ele>114.323411</ele>
        <time>2013-07-25T19:07:11Z</time>
      </trkpt>
      <trkpt lat="48.38244" lon="2.02486">
        <ele>117.411554</ele>
        <time>2013-07-25T19:07:16Z</time>
      </trkpt>
      <trkpt lat="48.38264" lon="2.02536">
        <ele>119.705487</ele>
        <time>2013-07-25T19:07:21Z</time>
      </trkpt>
      <trkpt lat="48.38271" lon="2.02551">
        <ele>122.541925</ele>
        <time>2013-07-25T19:07:26Z</time>
      </trkpt>
      <trkpt lat="48.38269" lon="2.0255">
        <ele>122.350729</ele>
        <time>2013-07-25T19:07:31Z</time>
      </trkpt>
      <trkpt lat="48.3827" lon="2.02545">
        <ele>123.088293</ele>
        <time>2013-07-25T19:07:36Z</time>
      </trkpt>
      <trkpt lat="48.38269" lon="2.02545">
        <ele>122.256835</ele>
        <time>2013-07-25T19:07:41Z</time>
      </trkpt>
      <trkpt lat="48.38269" lon="2.02545">
        <ele>122.256835</ele>
        <time>2013-07-25T19:07:46Z</time>
      </trkpt>
      <trkpt lat="48.3827" lon="2.02546">
        <ele>122.364169</ele>
        <time>2013-07-25T19:07:51Z</time>
      </trkpt>
      <trkpt lat="48.38271" lon="2.02546">
        <ele>122.448029</ele>
        <time>2013-07-25T19:07:56Z</time>
      </trkpt>
      <trkpt lat="48.38271" lon="2.02546">
        <ele>121.700432</ele>
        <time>2013-07-25T19:08:01Z</time>
      </trkpt>
      <trkpt lat="48.3827" lon="2.02546">
        <ele>122.364169</ele>
        <time>2013-07-25T19:08:06Z</time>
      </trkpt>
      <trkpt lat="48.3827" lon="2.02546">
        <ele>122.364169</ele>
        <time>2013-07-25T19:08:11Z</time>
      </trkpt>
      <trkpt lat="48.38269" lon="2.02546">
        <ele>121.616571</ele>
        <time>2013-07-25T19:08:16Z</time>
      </trkpt>
      <trkpt lat="48.38269" lon="2.02546">
        <ele>121.616571</ele>
        <time>2013-07-25T19:08:21Z</time>
      </trkpt>
      <trkpt lat="48.38269" lon="2.02546">
        <ele>121.616571</ele>
        <time>2013-07-25T19:08:26Z</time>
      </trkpt>
      <trkpt lat="48.38269" lon="2.02546">
        <ele>121.616571</ele>
        <time>2013-07-25T19:08:31Z</time>
      </trkpt>
      <trkpt lat="48.38269" lon="2.02546">
        <ele>121.616571</ele>
        <time>2013-07-25T19:08:36Z</time>
      </trkpt>
      <trkpt lat="48.38269" lon="2.02546">
        <ele>121.616571</ele>
        <time>2013-07-25T19:08:41Z</time>
      </trkpt>
      <trkpt lat="48.38269" lon="2.02546">
        <ele>121.616571</ele>
        <time>2013-07-25T19:08:46Z</time>
      </trkpt>
      <trkpt lat="48.3827" lon="2.02545">
        <ele>122.340695</ele>
        <time>2013-07-25T19:08:51Z</time>
      </trkpt>
      <trkpt lat="48.38269" lon="2.02547">
        <ele>120.892447</ele>
        <time>2013-07-25T19:08:56Z</time>
      </trkpt>
      <trkpt lat="48.38269" lon="2.02547">
        <ele>119.481113</ele>
        <time>2013-07-25T19:09:01Z</time>
      </trkpt>
      <trkpt lat="48.38269" lon="2.02547">
        <ele>119.481113</ele>
        <time>2013-07-25T19:09:06Z</time>
      </trkpt>
      <trkpt lat="48.38261" lon="2.02546">
        <ele>120.365818</ele>
        <time>2013-07-25T19:09:11Z</time>
      </trkpt>
      <trkpt lat="48.38265" lon="2.0255">
        <ele>121.435413</ele>
        <time>2013-07-25T19:09:16Z</time>
      </trkpt>
      <trkpt lat="48.38266" lon="2.02549">
        <ele>122.159536</ele>
        <time>2013-07-25T19:09:21Z</time>
      </trkpt>
      <trkpt lat="48.38268" lon="2.02549">
        <ele>123.73859</ele>
        <time>2013-07-25T19:09:26Z</time>
      </trkpt>
      <trkpt lat="48.38285" lon="2.02564">
        <ele>125.08702</ele>
        <time>2013-07-25T19:09:31Z</time>
      </trkpt>
      <trkpt lat="48.38313" lon="2.02595">
        <ele>126.121146</ele>
        <time>2013-07-25T19:09:36Z</time>
      </trkpt>
      <trkpt lat="48.38355" lon="2.02628">
        <ele>129.429132</ele>
        <time>2013-07-25T19:09:41Z</time>
      </trkpt>
      <trkpt lat="48.38422" lon="2.02668">
        <ele>132.457829</ele>
        <time>2013-07-25T19:09:46Z</time>
      </trkpt>
      <trkpt lat="48.3848" lon="2.02688">
        <ele>135.211504</ele>
        <time>2013-07-25T19:09:51Z</time>
      </trkpt>
      <trkpt lat="48.38529" lon="2.02718">
        <ele>138.230021</ele>
        <time>2013-07-25T19:09:56Z</time>
      </trkpt>
      <trkpt lat="48.38556" lon="2.02769">
        <ele>142.357095</ele>
        <time>2013-07-25T19:10:01Z</time>
      </trkpt>
      <trkpt lat="48.38563" lon="2.02852">
        <ele>141.555636</ele>
        <time>2013-07-25T19:10:06Z</time>
      </trkpt>
      <trkpt lat="48.3857" lon="2.02956">
        <ele>144.617422</ele>
        <time>2013-07-25T19:10:11Z</time>
      </trkpt>
      <trkpt lat="48.38572" lon="2.03064">
        <ele>146.087604</ele>
        <time>2013-07-25T19:10:16Z</time>
      </trkpt>
      <trkpt lat="48.38576" lon="2.03165">
        <ele>146.11368</ele>
        <time>2013-07-25T19:10:21Z</time>
      </trkpt>
      <trkpt lat="48.38579" lon="2.03248">
        <ele>145.726941</ele>
        <time>2013-07-25T19:10:26Z</time>
      </trkpt>
      <trkpt lat="48.38582" lon="2.03341">
        <ele>144.11797</ele>
        <time>2013-07-25T19:10:31Z</time>
      </trkpt>
      <trkpt lat="48.38587" lon="2.03428">
        <ele>143.223453</ele>
        <time>2013-07-25T19:10:36Z</time>
      </trkpt>
      <trkpt lat="48.38591" lon="2.03504">
        <ele>142.056973</ele>
        <time>2013-07-25T19:10:41Z</time>
      </trkpt>
      <trkpt lat="48.38595" lon="2.03588">
        <ele>141.032544</ele>
        <time>2013-07-25T19:10:46Z</time>
      </trkpt>
      <trkpt lat="48.38599" lon="2.03677">
        <ele>140.103133</ele>
        <time>2013-07-25T19:10:51Z</time>
      </trkpt>
      <trkpt lat="48.38603" lon="2.03739">
        <ele>140.113499</ele>
        <time>2013-07-25T19:10:56Z</time>
      </trkpt>
      <trkpt lat="48.38607" lon="2.03811">
        <ele>139.625839</ele>
        <time>2013-07-25T19:11:01Z</time>
      </trkpt>
      <trkpt lat="48.38611" lon="2.03891">
        <ele>138.532753</ele>
        <time>2013-07-25T19:11:06Z</time>
      </trkpt>
      <trkpt lat="48.38616" lon="2.0396">
        <ele>136.58744</ele>
        <time>2013-07-25T19:11:11Z</time>
      </trkpt>
      <trkpt lat="48.38624" lon="2.0405">
        <ele>135.249075</ele>
        <time>2013-07-25T19:11:16Z</time>
      </trkpt>
      <trkpt lat="48.38638" lon="2.04133">
        <ele>137.035562</ele>
        <time>2013-07-25T19:11:21Z</time>
      </trkpt>
      <trkpt lat="48.38653" lon="2.04221">
        <ele>141.076306</ele>
        <time>2013-07-25T19:11:26Z</time>
      </trkpt>
      <trkpt lat="48.38669" lon="2.04309">
        <ele>142.379085</ele>
        <time>2013-07-25T19:11:31Z</time>
      </trkpt>
      <trkpt lat="48.38683" lon="2.04364">
        <ele>143.586218</ele>
        <time>2013-07-25T19:11:36Z</time>
      </trkpt>
      <trkpt lat="48.38699" lon="2.04428">
        <ele>142.968445</ele>
        <time>2013-07-25T19:11:41Z</time>
      </trkpt>
      <trkpt lat="48.38723" lon="2.04542">
        <ele>144.563468</ele>
        <time>2013-07-25T19:11:46Z</time>
      </trkpt>
      <trkpt lat="48.38731" lon="2.04654">
        <ele>145.768146</ele>
        <time>2013-07-25T19:11:51Z</time>
      </trkpt>
      <trkpt lat="48.38729" lon="2.04775">
        <ele>147.903175</ele>
        <time>2013-07-25T19:11:56Z</time>
      </trkpt>
      <trkpt lat="48.38721" lon="2.04892">
        <ele>148.884662</ele>
        <time>2013-07-25T19:12:01Z</time>
      </trkpt>
      <trkpt lat="48.38716" lon="2.04992">
        <ele>148.315157</ele>
        <time>2013-07-25T19:12:06Z</time>
      </trkpt>
      <trkpt lat="48.3871" lon="2.05096">
        <ele>147.733831</ele>
        <time>2013-07-25T19:12:11Z</time>
      </trkpt>
      <trkpt lat="48.38706" lon="2.05198">
        <ele>147.961286</ele>
        <time>2013-07-25T19:12:16Z</time>
      </trkpt>
      <trkpt lat="48.38705" lon="2.05293">
        <ele>147.551194</ele>
        <time>2013-07-25T19:12:21Z</time>
      </trkpt>
      <trkpt lat="48.38709" lon="2.05374">
        <ele>148.651106</ele>
        <time>2013-07-25T19:12:26Z</time>
      </trkpt>
      <trkpt lat="48.38716" lon="2.05436">
        <ele>149.586249</ele>
        <time>2013-07-25T19:12:31Z</time>
      </trkpt>
      <trkpt lat="48.38724" lon="2.05475">
        <ele>150.093119</ele>
        <time>2013-07-25T19:12:36Z</time>
      </trkpt>
      <trkpt lat="48.38728" lon="2.05549">
        <ele>150.327565</ele>
        <time>2013-07-25T19:12:41Z</time>
      </trkpt>
      <trkpt lat="48.38733" lon="2.05645">
        <ele>150.364078</ele>
        <time>2013-07-25T19:12:46Z</time>
      </trkpt>
      <trkpt lat="48.38739" lon="2.05736">
        <ele>150.306026</ele>
        <time>2013-07-25T19:12:51Z</time>
      </trkpt>
      <trkpt lat="48.38772" lon="2.05836">
        <ele>152.239672</ele>
        <time>2013-07-25T19:12:56Z</time>
      </trkpt>
      <trkpt lat="48.38815" lon="2.0596">
        <ele>153.864708</ele>
        <time>2013-07-25T19:13:01Z</time>
      </trkpt>
      <trkpt lat="48.38858" lon="2.06089">
        <ele>154.899434</ele>
        <time>2013-07-25T19:13:06Z</time>
      </trkpt>
      <trkpt lat="48.38899" lon="2.06208">
        <ele>154.852953</ele>
        <time>2013-07-25T19:13:11Z</time>
      </trkpt>
      <trkpt lat="48.38937" lon="2.06327">
        <ele>155.303564</ele>
        <time>2013-07-25T19:13:16Z</time>
      </trkpt>
      <trkpt lat="48.3897" lon="2.06441">
        <ele>154.66015</ele>
        <time>2013-07-25T19:13:21Z</time>
      </trkpt>
      <trkpt lat="48.39007" lon="2.06561">
        <ele>154.389903</ele>
        <time>2013-07-25T19:13:26Z</time>
      </trkpt>
      <trkpt lat="48.39042" lon="2.0668">
        <ele>154.013147</ele>
        <time>2013-07-25T19:13:31Z</time>
      </trkpt>
      <trkpt lat="48.3908" lon="2.06791">
        <ele>153.662236</ele>
        <time>2013-07-25T19:13:36Z</time>
      </trkpt>
      <trkpt lat="48.39124" lon="2.06885">
        <ele>152.589672</ele>
        <time>2013-07-25T19:13:41Z</time>
      </trkpt>
      <trkpt lat="48.39167" lon="2.06968">
        <ele>152.074066</ele>
        <time>2013-07-25T19:13:46Z</time>
      </trkpt>
      <trkpt lat="48.39214" lon="2.07037">
        <ele>151.487744</ele>
        <time>2013-07-25T19:13:51Z</time>
      </trkpt>
      <trkpt lat="48.39262" lon="2.07112">
        <ele>150.418783</ele>
        <time>2013-07-25T19:13:56Z</time>
      </trkpt>
      <trkpt lat="48.39281" lon="2.07147">
        <ele>150.86937</ele>
        <time>2013-07-25T19:14:01Z</time>
      </trkpt>
      <trkpt lat="48.39242" lon="2.07173">
        <ele>151.672324</ele>
        <time>2013-07-25T19:14:06Z</time>
      </trkpt>
      <trkpt lat="48.39169" lon="2.07225">
        <ele>152.072269</ele>
        <time>2013-07-25T19:14:11Z</time>
      </trkpt>
      <trkpt lat="48.39107" lon="2.07272">
        <ele>153.158199</ele>
        <time>2013-07-25T19:14:16Z</time>
      </trkpt>
      <trkpt lat="48.39083" lon="2.0737">
        <ele>152.734747</ele>
        <time>2013-07-25T19:14:21Z</time>
      </trkpt>
      <trkpt lat="48.39058" lon="2.07502">
        <ele>152.189625</ele>
        <time>2013-07-25T19:14:26Z</time>
      </trkpt>
      <trkpt lat="48.3903" lon="2.07638">
        <ele>152.273806</ele>
        <time>2013-07-25T19:14:31Z</time>
      </trkpt>
      <trkpt lat="48.39005" lon="2.07771">
        <ele>151.731995</ele>
        <time>2013-07-25T19:14:36Z</time>
      </trkpt>
      <trkpt lat="48.38979" lon="2.07886">
        <ele>150.794596</ele>
        <time>2013-07-25T19:14:41Z</time>
      </trkpt>
      <trkpt lat="48.38945" lon="2.07998">
        <ele>149.305962</ele>
        <time>2013-07-25T19:14:46Z</time>
      </trkpt>
      <trkpt lat="48.38924" lon="2.08069">
        <ele>149.238827</ele>
        <time>2013-07-25T19:14:51Z</time>
      </trkpt>
      <trkpt lat="48.38904" lon="2.08058">
        <ele>149.13669</ele>
        <time>2013-07-25T19:14:56Z</time>
      </trkpt>
      <trkpt lat="48.38861" lon="2.07984">
        <ele>151.286718</ele>
        <time>2013-07-25T19:15:01Z</time>
      </trkpt>
      <trkpt lat="48.38816" lon="2.07905">
        <ele>151.785966</ele>
        <time>2013-07-25T19:15:06Z</time>
      </trkpt>
      <trkpt lat="48.38765" lon="2.07819">
        <ele>151.829712</ele>
        <time>2013-07-25T19:15:11Z</time>
      </trkpt>
      <trkpt lat="48.38721" lon="2.07739">
        <ele>151.643181</ele>
        <time>2013-07-25T19:15:16Z</time>
      </trkpt>
      <trkpt lat="48.38675" lon="2.07653">
        <ele>151.277351</ele>
        <time>2013-07-25T19:15:21Z</time>
      </trkpt>
      <trkpt lat="48.38646" lon="2.07602">
        <ele>149.78296</ele>
        <time>2013-07-25T19:15:26Z</time>
      </trkpt>
      <trkpt lat="48.3862" lon="2.07621">
        <ele>150.623368</ele>
        <time>2013-07-25T19:15:31Z</time>
      </trkpt>
      <trkpt lat="48.3858" lon="2.0768">
        <ele>151.262303</ele>
        <time>2013-07-25T19:15:36Z</time>
      </trkpt>
      <trkpt lat="48.38559" lon="2.07758">
        <ele>151.315148</ele>
        <time>2013-07-25T19:15:41Z</time>
      </trkpt>
      <trkpt lat="48.38543" lon="2.07827">
        <ele>152.307517</ele>
        <time>2013-07-25T19:15:46Z</time>
      </trkpt>
      <trkpt lat="48.38521" lon="2.07891">
        <ele>152.120576</ele>
        <time>2013-07-25T19:15:51Z</time>
      </trkpt>
      <trkpt lat="48.38491" lon="2.07962">
        <ele>152.214625</ele>
        <time>2013-07-25T19:15:56Z</time>
      </trkpt>
      <trkpt lat="48.38465" lon="2.08036">
        <ele>153.29708</ele>
        <time>2013-07-25T19:16:01Z</time>
      </trkpt>
      <trkpt lat="48.38421" lon="2.08151">
        <ele>153.34905</ele>
        <time>2013-07-25T19:16:07Z</time>
      </trkpt>
      <trkpt lat="48.38366" lon="2.08236">
        <ele>152.804213</ele>
        <time>2013-07-25T19:16:12Z</time>
      </trkpt>
      <trkpt lat="48.38305" lon="2.08292">
        <ele>151.973736</ele>
        <time>2013-07-25T19:16:17Z</time>
      </trkpt>
      <trkpt lat="48.38244" lon="2.08347">
        <ele>151.891851</ele>
        <time>2013-07-25T19:16:22Z</time>
      </trkpt>
      <trkpt lat="48.38173" lon="2.08416">
        <ele>152.129171</ele>
        <time>2013-07-25T19:16:27Z</time>
      </trkpt>
      <trkpt lat="48.38095" lon="2.0849">
        <ele>151.961456</ele>
        <time>2013-07-25T19:16:32Z</time>
      </trkpt>
      <trkpt lat="48.3802" lon="2.0855">
        <ele>150.310024</ele>
        <time>2013-07-25T19:16:37Z</time>
      </trkpt>
      <trkpt lat="48.37937" lon="2.08611">
        <ele>148.904745</ele>
        <time>2013-07-25T19:16:42Z</time>
      </trkpt>
      <trkpt lat="48.37865" lon="2.0866">
        <ele>147.314138</ele>
        <time>2013-07-25T19:16:47Z</time>
      </trkpt>
      <trkpt lat="48.37831" lon="2.08655">
        <ele>147.054554</ele>
        <time>2013-07-25T19:16:52Z</time>
      </trkpt>
      <trkpt lat="48.37778" lon="2.08565">
        <ele>148.273627</ele>
        <time>2013-07-25T19:16:57Z</time>
      </trkpt>
      <trkpt lat="48.37742" lon="2.08474">
        <ele>148.483461</ele>
        <time>2013-07-25T19:17:02Z</time>
      </trkpt>
      <trkpt lat="48.37723" lon="2.0841">
        <ele>148.830577</ele>
        <time>2013-07-25T19:17:07Z</time>
      </trkpt>
      <trkpt lat="48.37672" lon="2.08381">
        <ele>147.072851</ele>
        <time>2013-07-25T19:17:12Z</time>
      </trkpt>
      <trkpt lat="48.37601" lon="2.08307">
        <ele>146.001948</ele>
        <time>2013-07-25T19:17:17Z</time>
      </trkpt>
      <trkpt lat="48.37515" lon="2.0821">
        <ele>144.869561</ele>
        <time>2013-07-25T19:17:22Z</time>
      </trkpt>
      <trkpt lat="48.37432" lon="2.08121">
        <ele>144.882709</ele>
        <time>2013-07-25T19:17:27Z</time>
      </trkpt>
      <trkpt lat="48.3739" lon="2.0806">
        <ele>144.546731</ele>
        <time>2013-07-25T19:17:32Z</time>
      </trkpt>
      <trkpt lat="48.37406" lon="2.07973">
        <ele>145.31117</ele>
        <time>2013-07-25T19:17:37Z</time>
      </trkpt>
      <trkpt lat="48.37418" lon="2.07903">
        <ele>146.886051</ele>
        <time>2013-07-25T19:17:42Z</time>
      </trkpt>
      <trkpt lat="48.37363" lon="2.07854">
        <ele>146.595384</ele>
        <time>2013-07-25T19:17:47Z</time>
      </trkpt>
      <trkpt lat="48.37298" lon="2.07798">
        <ele>147.698832</ele>
        <time>2013-07-25T19:17:52Z</time>
      </trkpt>
      <trkpt lat="48.37276" lon="2.07761">
        <ele>147.701841</ele>
        <time>2013-07-25T19:17:57Z</time>
      </trkpt>
      <trkpt lat="48.37258" lon="2.07724">
        <ele>147.955957</ele>
        <time>2013-07-25T19:18:02Z</time>
      </trkpt>
      <trkpt lat="48.37232" lon="2.07712">
        <ele>147.418444</ele>
        <time>2013-07-25T19:18:07Z</time>
      </trkpt>
      <trkpt lat="48.3721" lon="2.07731">
        <ele>148.516817</ele>
        <time>2013-07-25T19:18:12Z</time>
      </trkpt>
      <trkpt lat="48.37187" lon="2.07815">
        <ele>152.846589</ele>
        <time>2013-07-25T19:18:17Z</time>
      </trkpt>
      <trkpt lat="48.3714" lon="2.07894">
        <ele>153.441047</ele>
        <time>2013-07-25T19:18:22Z</time>
      </trkpt>
      <trkpt lat="48.37116" lon="2.07956">
        <ele>150.886117</ele>
        <time>2013-07-25T19:18:27Z</time>
      </trkpt>
      <trkpt lat="48.3714" lon="2.08003">
        <ele>149.807713</ele>
        <time>2013-07-25T19:18:32Z</time>
      </trkpt>
      <trkpt lat="48.37145" lon="2.08068">
        <ele>148.560592</ele>
        <time>2013-07-25T19:18:37Z</time>
      </trkpt>
      <trkpt lat="48.37126" lon="2.08141">
        <ele>147.96942</ele>
        <time>2013-07-25T19:18:42Z</time>
      </trkpt>
      <trkpt lat="48.37091" lon="2.08207">
        <ele>146.254964</ele>
        <time>2013-07-25T19:18:47Z</time>
      </trkpt>
      <trkpt lat="48.37051" lon="2.08285">
        <ele>145.171529</ele>
        <time>2013-07-25T19:18:52Z</time>
      </trkpt>
      <trkpt lat="48.37019" lon="2.08372">
        <ele>144.735299</ele>
        <time>2013-07-25T19:18:57Z</time>
      </trkpt>
      <trkpt lat="48.37013" lon="2.08473">
        <ele>142.726476</ele>
        <time>2013-07-25T19:19:02Z</time>
      </trkpt>
      <trkpt lat="48.37002" lon="2.0856">
        <ele>140.142473</ele>
        <time>2013-07-25T19:19:07Z</time>
      </trkpt>
      <trkpt lat="48.36993" lon="2.0864">
        <ele>136.086278</ele>
        <time>2013-07-25T19:19:12Z</time>
      </trkpt>
      <trkpt lat="48.36987" lon="2.08702">
        <ele>133.37816</ele>
        <time>2013-07-25T19:19:17Z</time>
      </trkpt>
      <trkpt lat="48.37007" lon="2.08703">
        <ele>132.556545</ele>
        <time>2013-07-25T19:19:22Z</time>
      </trkpt>
      <trkpt lat="48.37067" lon="2.0864">
        <ele>134.576394</ele>
        <time>2013-07-25T19:19:27Z</time>
      </trkpt>
      <trkpt lat="48.37151" lon="2.08588">
        <ele>137.607598</ele>
        <time>2013-07-25T19:19:32Z</time>
      </trkpt>
      <trkpt lat="48.37239" lon="2.08562">
        <ele>139.275415</ele>
        <time>2013-07-25T19:19:37Z</time>
      </trkpt>
      <trkpt lat="48.37296" lon="2.08531">
        <ele>140.276009</ele>
        <time>2013-07-25T19:19:42Z</time>
      </trkpt>
      <trkpt lat="48.37326" lon="2.08549">
        <ele>139.775186</ele>
        <time>2013-07-25T19:19:47Z</time>
      </trkpt>
      <trkpt lat="48.37373" lon="2.08611">
        <ele>142.606687</ele>
        <time>2013-07-25T19:19:52Z</time>
      </trkpt>
      <trkpt lat="48.37417" lon="2.08662">
        <ele>143.607285</ele>
        <time>2013-07-25T19:19:57Z</time>
      </trkpt>
      <trkpt lat="48.37425" lon="2.08721">
        <ele>145.98067</ele>
        <time>2013-07-25T19:20:02Z</time>
      </trkpt>
      <trkpt lat="48.37419" lon="2.08803">
        <ele>147.122013</ele>
        <time>2013-07-25T19:20:07Z</time>
      </trkpt>
      <trkpt lat="48.37422" lon="2.08892">
        <ele>148.306919</ele>
        <time>2013-07-25T19:20:12Z</time>
      </trkpt>
      <trkpt lat="48.37432" lon="2.08987">
        <ele>148.680165</ele>
        <time>2013-07-25T19:20:17Z</time>
      </trkpt>
      <trkpt lat="48.37449" lon="2.09096">
        <ele>149.051168</ele>
        <time>2013-07-25T19:20:22Z</time>
      </trkpt>
      <trkpt lat="48.37466" lon="2.09205">
        <ele>148.675739</ele>
        <time>2013-07-25T19:20:27Z</time>
      </trkpt>
      <trkpt lat="48.37482" lon="2.09313">
        <ele>148.965191</ele>
        <time>2013-07-25T19:20:32Z</time>
      </trkpt>
      <trkpt lat="48.37492" lon="2.09426">
        <ele>148.910038</ele>
        <time>2013-07-25T19:20:37Z</time>
      </trkpt>
      <trkpt lat="48.37482" lon="2.09529">
        <ele>150.277434</ele>
        <time>2013-07-25T19:20:42Z</time>
      </trkpt>
      <trkpt lat="48.37473" lon="2.09636">
        <ele>151.030554</ele>
        <time>2013-07-25T19:20:47Z</time>
      </trkpt>
      <trkpt lat="48.37468" lon="2.09725">
        <ele>151.719709</ele>
        <time>2013-07-25T19:20:52Z</time>
      </trkpt>
      <trkpt lat="48.37468" lon="2.0981">
        <ele>151.923858</ele>
        <time>2013-07-25T19:20:57Z</time>
      </trkpt>
      <trkpt lat="48.37468" lon="2.09908">
        <ele>150.960606</ele>
        <time>2013-07-25T19:21:02Z</time>
      </trkpt>
      <trkpt lat="48.37467" lon="2.10014">
        <ele>151.531216</ele>
        <time>2013-07-25T19:21:07Z</time>
      </trkpt>
      <trkpt lat="48.37467" lon="2.10128">
        <ele>150.861949</ele>
        <time>2013-07-25T19:21:12Z</time>
      </trkpt>
      <trkpt lat="48.37466" lon="2.10247">
        <ele>150.266922</ele>
        <time>2013-07-25T19:21:17Z</time>
      </trkpt>
      <trkpt lat="48.37464" lon="2.10361">
        <ele>150.903196</ele>
        <time>2013-07-25T19:21:22Z</time>
      </trkpt>
      <trkpt lat="48.37462" lon="2.10464">
        <ele>151.369807</ele>
        <time>2013-07-25T19:21:27Z</time>
      </trkpt>
      <trkpt lat="48.37462" lon="2.10567">
        <ele>150.485322</ele>
        <time>2013-07-25T19:21:32Z</time>
      </trkpt>
      <trkpt lat="48.3746" lon="2.10682">
        <ele>150.485323</ele>
        <time>2013-07-25T19:21:37Z</time>
      </trkpt>
      <trkpt lat="48.3746" lon="2.10795">
        <ele>149.798215</ele>
        <time>2013-07-25T19:21:42Z</time>
      </trkpt>
      <trkpt lat="48.37449" lon="2.10907">
        <ele>149.829522</ele>
        <time>2013-07-25T19:21:47Z</time>
      </trkpt>
      <trkpt lat="48.3744" lon="2.11007">
        <ele>150.47299</ele>
        <time>2013-07-25T19:21:52Z</time>
      </trkpt>
      <trkpt lat="48.37452" lon="2.11129">
        <ele>150.772809</ele>
        <time>2013-07-25T19:21:57Z</time>
      </trkpt>
      <trkpt lat="48.37465" lon="2.11256">
        <ele>149.844267</ele>
        <time>2013-07-25T19:22:02Z</time>
      </trkpt>
      <trkpt lat="48.37477" lon="2.11384">
        <ele>149.580959</ele>
        <time>2013-07-25T19:22:07Z</time>
      </trkpt>
      <trkpt lat="48.37489" lon="2.11507">
        <ele>149.909332</ele>
        <time>2013-07-25T19:22:12Z</time>
      </trkpt>
      <trkpt lat="48.37502" lon="2.11628">
        <ele>149.526182</ele>
        <time>2013-07-25T19:22:17Z</time>
      </trkpt>
      <trkpt lat="48.37512" lon="2.11746">
        <ele>149.675314</ele>
        <time>2013-07-25T19:22:22Z</time>
      </trkpt>
      <trkpt lat="48.37524" lon="2.11861">
        <ele>149.860265</ele>
        <time>2013-07-25T19:22:27Z</time>
      </trkpt>
      <trkpt lat="48.37536" lon="2.11972">
        <ele>149.225166</ele>
        <time>2013-07-25T19:22:32Z</time>
      </trkpt>
      <trkpt lat="48.37547" lon="2.12088">
        <ele>148.664903</ele>
        <time>2013-07-25T19:22:37Z</time>
      </trkpt>
      <trkpt lat="48.3756" lon="2.12204">
        <ele>148.214127</ele>
        <time>2013-07-25T19:22:42Z</time>
      </trkpt>
      <trkpt lat="48.37571" lon="2.12318">
        <ele>146.884089</ele>
        <time>2013-07-25T19:22:47Z</time>
      </trkpt>
      <trkpt lat="48.37579" lon="2.124">
        <ele>148.283232</ele>
        <time>2013-07-25T19:22:52Z</time>
      </trkpt>
      <trkpt lat="48.37601" lon="2.12401">
        <ele>147.63163</ele>
        <time>2013-07-25T19:22:57Z</time>
      </trkpt>
      <trkpt lat="48.3764" lon="2.12394">
        <ele>147.921098</ele>
        <time>2013-07-25T19:23:02Z</time>
      </trkpt>
      <trkpt lat="48.3765" lon="2.12455">
        <ele>147.623943</ele>
        <time>2013-07-25T19:23:07Z</time>
      </trkpt>
      <trkpt lat="48.37648" lon="2.12592">
        <ele>148.036727</ele>
        <time>2013-07-25T19:23:12Z</time>
      </trkpt>
      <trkpt lat="48.37637" lon="2.12732">
        <ele>147.191313</ele>
        <time>2013-07-25T19:23:17Z</time>
      </trkpt>
      <trkpt lat="48.37617" lon="2.12832">
        <ele>147.868557</ele>
        <time>2013-07-25T19:23:22Z</time>
      </trkpt>
      <trkpt lat="48.37599" lon="2.12938">
        <ele>146.65412</ele>
        <time>2013-07-25T19:23:27Z</time>
      </trkpt>
      <trkpt lat="48.3759" lon="2.13071">
        <ele>146.520754</ele>
        <time>2013-07-25T19:23:32Z</time>
      </trkpt>
      <trkpt lat="48.37586" lon="2.1322">
        <ele>146.995713</ele>
        <time>2013-07-25T19:23:37Z</time>
      </trkpt>
      <trkpt lat="48.37585" lon="2.13368">
        <ele>147.723778</ele>
        <time>2013-07-25T19:23:42Z</time>
      </trkpt>
      <trkpt lat="48.37587" lon="2.13516">
        <ele>145.110089</ele>
        <time>2013-07-25T19:23:47Z</time>
      </trkpt>
      <trkpt lat="48.37591" lon="2.13654">
        <ele>141.661142</ele>
        <time>2013-07-25T19:23:52Z</time>
      </trkpt>
      <trkpt lat="48.37595" lon="2.13776">
        <ele>138.664009</ele>
        <time>2013-07-25T19:23:57Z</time>
      </trkpt>
      <trkpt lat="48.37605" lon="2.13879">
        <ele>137.067359</ele>
        <time>2013-07-25T19:24:02Z</time>
      </trkpt>
      <trkpt lat="48.3761" lon="2.13956">
        <ele>135.32923</ele>
        <time>2013-07-25T19:24:07Z</time>
      </trkpt>
      <trkpt lat="48.37607" lon="2.13988">
        <ele>133.681875</ele>
        <time>2013-07-25T19:24:12Z</time>
      </trkpt>
      <trkpt lat="48.37606" lon="2.1399">
        <ele>134.370453</ele>
        <time>2013-07-25T19:24:17Z</time>
      </trkpt>
      <trkpt lat="48.37605" lon="2.14002">
        <ele>134.509935</ele>
        <time>2013-07-25T19:24:22Z</time>
      </trkpt>
      <trkpt lat="48.37607" lon="2.14005">
        <ele>133.979513</ele>
        <time>2013-07-25T19:24:27Z</time>
      </trkpt>
      <trkpt lat="48.37614" lon="2.14002">
        <ele>133.684862</ele>
        <time>2013-07-25T19:24:32Z</time>
      </trkpt>
      <trkpt lat="48.37613" lon="2.14002">
        <ele>132.937341</ele>
        <time>2013-07-25T19:24:37Z</time>
      </trkpt>
      <trkpt lat="48.37613" lon="2.14002">
        <ele>132.937341</ele>
        <time>2013-07-25T19:24:42Z</time>
      </trkpt>
      <trkpt lat="48.37607" lon="2.13991">
        <ele>133.73148</ele>
        <time>2013-07-25T19:24:47Z</time>
      </trkpt>
      <trkpt lat="48.37606" lon="2.13924">
        <ele>134.482875</ele>
        <time>2013-07-25T19:24:52Z</time>
      </trkpt>
      <trkpt lat="48.37601" lon="2.13837">
        <ele>135.963983</ele>
        <time>2013-07-25T19:24:57Z</time>
      </trkpt>
      <trkpt lat="48.37593" lon="2.13772">
        <ele>137.010897</ele>
        <time>2013-07-25T19:25:03Z</time>
      </trkpt>
      <trkpt lat="48.37619" lon="2.13755">
        <ele>138.363691</ele>
        <time>2013-07-25T19:25:08Z</time>
      </trkpt>
      <trkpt lat="48.37694" lon="2.13734">
        <ele>140.036809</ele>
        <time>2013-07-25T19:25:13Z</time>
      </trkpt>
      <trkpt lat="48.37774" lon="2.13711">
        <ele>142.685196</ele>
        <time>2013-07-25T19:25:18Z</time>
      </trkpt>
      <trkpt lat="48.3785" lon="2.13689">
        <ele>142.924609</ele>
        <time>2013-07-25T19:25:23Z</time>
      </trkpt>
      <trkpt lat="48.37921" lon="2.13664">
        <ele>142.116624</ele>
        <time>2013-07-25T19:25:28Z</time>
      </trkpt>
      <trkpt lat="48.37986" lon="2.13637">
        <ele>139.454438</ele>
        <time>2013-07-25T19:25:33Z</time>
      </trkpt>
      <trkpt lat="48.38039" lon="2.13607">
        <ele>135.988956</ele>
        <time>2013-07-25T19:25:38Z</time>
      </trkpt>
      <trkpt lat="48.38085" lon="2.13578">
        <ele>132.045686</ele>
        <time>2013-07-25T19:25:43Z</time>
      </trkpt>
      <trkpt lat="48.38116" lon="2.13551">
        <ele>129.968528</ele>
        <time>2013-07-25T19:25:48Z</time>
      </trkpt>
      <trkpt lat="48.38148" lon="2.13521">
        <ele>129.337289</ele>
        <time>2013-07-25T19:25:53Z</time>
      </trkpt>
      <trkpt lat="48.3818" lon="2.13515">
        <ele>128.487997</ele>
        <time>2013-07-25T19:25:58Z</time>
      </trkpt>
      <trkpt lat="48.38194" lon="2.13512">
        <ele>127.925223</ele>
        <time>2013-07-25T19:26:03Z</time>
      </trkpt>
      <trkpt lat="48.38204" lon="2.13456">
        <ele>129.632208</ele>
        <time>2013-07-25T19:26:08Z</time>
      </trkpt>
      <trkpt lat="48.38233" lon="2.13435">
        <ele>131.829681</ele>
        <time>2013-07-25T19:26:13Z</time>
      </trkpt>
      <trkpt lat="48.383" lon="2.13416">
        <ele>135.133335</ele>
        <time>2013-07-25T19:26:18Z</time>
      </trkpt>
      <trkpt lat="48.38374" lon="2.13394">
        <ele>138.11968</ele>
        <time>2013-07-25T19:26:23Z</time>
      </trkpt>
      <trkpt lat="48.38428" lon="2.13373">
        <ele>140.4771</ele>
        <time>2013-07-25T19:26:28Z</time>
      </trkpt>
      <trkpt lat="48.38461" lon="2.13342">
        <ele>142.066372</ele>
        <time>2013-07-25T19:26:33Z</time>
      </trkpt>
      <trkpt lat="48.38486" lon="2.13313">
        <ele>143.117665</ele>
        <time>2013-07-25T19:26:38Z</time>
      </trkpt>
      <trkpt lat="48.38497" lon="2.13305">
        <ele>143.724993</ele>
        <time>2013-07-25T19:26:43Z</time>
      </trkpt>
      <trkpt lat="48.38496" lon="2.13303">
        <ele>145.002881</ele>
        <time>2013-07-25T19:26:48Z</time>
      </trkpt>
      <trkpt lat="48.38484" lon="2.13314">
        <ele>144.469712</ele>
        <time>2013-07-25T19:26:53Z</time>
      </trkpt>
      <trkpt lat="48.38443" lon="2.13363">
        <ele>142.697938</ele>
        <time>2013-07-25T19:26:58Z</time>
      </trkpt>
      <trkpt lat="48.38416" lon="2.1341">
        <ele>141.161638</ele>
        <time>2013-07-25T19:27:03Z</time>
      </trkpt>
      <trkpt lat="48.38381" lon="2.13471">
        <ele>139.369441</ele>
        <time>2013-07-25T19:27:08Z</time>
      </trkpt>
      <trkpt lat="48.38347" lon="2.13524">
        <ele>136.765643</ele>
        <time>2013-07-25T19:27:13Z</time>
      </trkpt>
      <trkpt lat="48.38325" lon="2.13562">
        <ele>133.234039</ele>
        <time>2013-07-25T19:27:18Z</time>
      </trkpt>
      <trkpt lat="48.38315" lon="2.13575">
        <ele>132.146501</ele>
        <time>2013-07-25T19:27:23Z</time>
      </trkpt>
      <trkpt lat="48.38321" lon="2.13577">
        <ele>131.843243</ele>
        <time>2013-07-25T19:27:28Z</time>
      </trkpt>
      <trkpt lat="48.3834" lon="2.13534">
        <ele>133.637482</ele>
        <time>2013-07-25T19:27:33Z</time>
      </trkpt>
      <trkpt lat="48.38379" lon="2.13472">
        <ele>137.815025</ele>
        <time>2013-07-25T19:27:38Z</time>
      </trkpt>
      <trkpt lat="48.38417" lon="2.13407">
        <ele>139.784831</ele>
        <time>2013-07-25T19:27:43Z</time>
      </trkpt>
      <trkpt lat="48.38448" lon="2.13355">
        <ele>142.137765</ele>
        <time>2013-07-25T19:27:48Z</time>
      </trkpt>
      <trkpt lat="48.385" lon="2.13299">
        <ele>143.769326</ele>
        <time>2013-07-25T19:27:53Z</time>
      </trkpt>
      <trkpt lat="48.38564" lon="2.13265">
        <ele>145.889225</ele>
        <time>2013-07-25T19:27:58Z</time>
      </trkpt>
      <trkpt lat="48.38637" lon="2.13253">
        <ele>147.582075</ele>
        <time>2013-07-25T19:28:03Z</time>
      </trkpt>
      <trkpt lat="48.38701" lon="2.13223">
        <ele>148.366655</ele>
        <time>2013-07-25T19:28:08Z</time>
      </trkpt>
      <trkpt lat="48.38751" lon="2.13173">
        <ele>147.109626</ele>
        <time>2013-07-25T19:28:13Z</time>
      </trkpt>
      <trkpt lat="48.38802" lon="2.13107">
        <ele>145.581654</ele>
        <time>2013-07-25T19:28:18Z</time>
      </trkpt>
      <trkpt lat="48.38844" lon="2.13037">
        <ele>143.4762</ele>
        <time>2013-07-25T19:28:23Z</time>
      </trkpt>
      <trkpt lat="48.38874" lon="2.1297">
        <ele>140.580326</ele>
        <time>2013-07-25T19:28:28Z</time>
      </trkpt>
      <trkpt lat="48.38911" lon="2.12926">
        <ele>139.272411</ele>
        <time>2013-07-25T19:28:33Z</time>
      </trkpt>
      <trkpt lat="48.38963" lon="2.12908">
        <ele>137.367621</ele>
        <time>2013-07-25T19:28:38Z</time>
      </trkpt>
      <trkpt lat="48.38996" lon="2.12901">
        <ele>135.171809</ele>
        <time>2013-07-25T19:28:43Z</time>
      </trkpt>
      <trkpt lat="48.38987" lon="2.1286">
        <ele>133.759141</ele>
        <time>2013-07-25T19:28:48Z</time>
      </trkpt>
      <trkpt lat="48.38961" lon="2.12776">
        <ele>133.975425</ele>
        <time>2013-07-25T19:28:53Z</time>
      </trkpt>
      <trkpt lat="48.38938" lon="2.12686">
        <ele>132.826064</ele>
        <time>2013-07-25T19:28:58Z</time>
      </trkpt>
      <trkpt lat="48.38932" lon="2.12624">
        <ele>131.935837</ele>
        <time>2013-07-25T19:29:03Z</time>
      </trkpt>
      <trkpt lat="48.38962" lon="2.12623">
        <ele>132.492951</ele>
        <time>2013-07-25T19:29:08Z</time>
      </trkpt>
      <trkpt lat="48.39044" lon="2.1265">
        <ele>127.775227</ele>
        <time>2013-07-25T19:29:13Z</time>
      </trkpt>
      <trkpt lat="48.39142" lon="2.12684">
        <ele>127.737096</ele>
        <time>2013-07-25T19:29:18Z</time>
      </trkpt>
      <trkpt lat="48.39243" lon="2.12717">
        <ele>130.003535</ele>
        <time>2013-07-25T19:29:23Z</time>
      </trkpt>
      <trkpt lat="48.39291" lon="2.12734">
        <ele>131.397476</ele>
        <time>2013-07-25T19:29:28Z</time>
      </trkpt>
      <trkpt lat="48.39298" lon="2.12776">
        <ele>130.507602</ele>
        <time>2013-07-25T19:29:33Z</time>
      </trkpt>
      <trkpt lat="48.39317" lon="2.12866">
        <ele>129.995512</ele>
        <time>2013-07-25T19:29:38Z</time>
      </trkpt>
      <trkpt lat="48.3934" lon="2.12969">
        <ele>127.824447</ele>
        <time>2013-07-25T19:29:43Z</time>
      </trkpt>
      <trkpt lat="48.39365" lon="2.13069">
        <ele>125.08514</ele>
        <time>2013-07-25T19:29:48Z</time>
      </trkpt>
      <trkpt lat="48.39392" lon="2.1316">
        <ele>125.744205</ele>
        <time>2013-07-25T19:29:53Z</time>
      </trkpt>
      <trkpt lat="48.39421" lon="2.13217">
        <ele>128.054353</ele>
        <time>2013-07-25T19:29:58Z</time>
      </trkpt>
      <trkpt lat="48.3946" lon="2.13311">
        <ele>126.12017</ele>
        <time>2013-07-25T19:30:03Z</time>
      </trkpt>
      <trkpt lat="48.39517" lon="2.13388">
        <ele>124.212636</ele>
        <time>2013-07-25T19:30:08Z</time>
      </trkpt>
      <trkpt lat="48.3955" lon="2.13469">
        <ele>124.459391</ele>
        <time>2013-07-25T19:30:13Z</time>
      </trkpt>
      <trkpt lat="48.39571" lon="2.13583">
        <ele>125.230985</ele>
        <time>2013-07-25T19:30:18Z</time>
      </trkpt>
      <trkpt lat="48.39586" lon="2.1366">
        <ele>124.141687</ele>
        <time>2013-07-25T19:30:23Z</time>
      </trkpt>
      <trkpt lat="48.39606" lon="2.1367">
        <ele>126.410467</ele>
        <time>2013-07-25T19:30:28Z</time>
      </trkpt>
      <trkpt lat="48.3965" lon="2.13734">
        <ele>126.264057</ele>
        <time>2013-07-25T19:30:33Z</time>
      </trkpt>
      <trkpt lat="48.39692" lon="2.13794">
        <ele>125.959798</ele>
        <time>2013-07-25T19:30:38Z</time>
      </trkpt>
      <trkpt lat="48.39729" lon="2.13861">
        <ele>126.13128</ele>
        <time>2013-07-25T19:30:43Z</time>
      </trkpt>
      <trkpt lat="48.39773" lon="2.13897">
        <ele>126.214288</ele>
        <time>2013-07-25T19:30:48Z</time>
      </trkpt>
      <trkpt lat="48.39816" lon="2.13957">
        <ele>125.91188</ele>
        <time>2013-07-25T19:30:53Z</time>
      </trkpt>
      <trkpt lat="48.39858" lon="2.13994">
        <ele>124.440861</ele>
        <time>2013-07-25T19:30:58Z</time>
      </trkpt>
      <trkpt lat="48.39894" lon="2.1404">
        <ele>124.217903</ele>
        <time>2013-07-25T19:31:03Z</time>
      </trkpt>
      <trkpt lat="48.39914" lon="2.14069">
        <ele>123.265136</ele>
        <time>2013-07-25T19:31:08Z</time>
      </trkpt>
      <trkpt lat="48.39921" lon="2.14071">
        <ele>121.636776</ele>
        <time>2013-07-25T19:31:13Z</time>
      </trkpt>
      <trkpt lat="48.39919" lon="2.14014">
        <ele>121.753608</ele>
        <time>2013-07-25T19:31:18Z</time>
      </trkpt>
      <trkpt lat="48.3991" lon="2.13925">
        <ele>124.424616</ele>
        <time>2013-07-25T19:31:23Z</time>
      </trkpt>
      <trkpt lat="48.39922" lon="2.13837">
        <ele>130.544838</ele>
        <time>2013-07-25T19:31:28Z</time>
      </trkpt>
      <trkpt lat="48.39957" lon="2.13782">
        <ele>132.444581</ele>
        <time>2013-07-25T19:31:33Z</time>
      </trkpt>
      <trkpt lat="48.40019" lon="2.13765">
        <ele>134.071013</ele>
        <time>2013-07-25T19:31:38Z</time>
      </trkpt>
      <trkpt lat="48.40087" lon="2.13756">
        <ele>136.243802</ele>
        <time>2013-07-25T19:31:43Z</time>
      </trkpt>
      <trkpt lat="48.40139" lon="2.1374">
        <ele>137.221646</ele>
        <time>2013-07-25T19:31:48Z</time>
      </trkpt>
      <trkpt lat="48.40191" lon="2.13708">
        <ele>137.214737</ele>
        <time>2013-07-25T19:31:53Z</time>
      </trkpt>
      <trkpt lat="48.40241" lon="2.13704">
        <ele>138.247714</ele>
        <time>2013-07-25T19:31:58Z</time>
      </trkpt>
      <trkpt lat="48.40303" lon="2.13695">
        <ele>135.767673</ele>
        <time>2013-07-25T19:32:03Z</time>
      </trkpt>
      <trkpt lat="48.40353" lon="2.13656">
        <ele>133.335634</ele>
        <time>2013-07-25T19:32:08Z</time>
      </trkpt>
      <trkpt lat="48.40382" lon="2.13667">
        <ele>131.96471</ele>
        <time>2013-07-25T19:32:13Z</time>
      </trkpt>
      <trkpt lat="48.40408" lon="2.13707">
        <ele>129.474003</ele>
        <time>2013-07-25T19:32:18Z</time>
      </trkpt>
      <trkpt lat="48.40435" lon="2.13681">
        <ele>128.592994</ele>
        <time>2013-07-25T19:32:23Z</time>
      </trkpt>
      <trkpt lat="48.40445" lon="2.13672">
        <ele>129.095262</ele>
        <time>2013-07-25T19:32:28Z</time>
      </trkpt>
      <trkpt lat="48.40446" lon="2.1366">
        <ele>128.209096</ele>
        <time>2013-07-25T19:32:33Z</time>
      </trkpt>
      <trkpt lat="48.40446" lon="2.13597">
        <ele>129.784069</ele>
        <time>2013-07-25T19:32:38Z</time>
      </trkpt>
      <trkpt lat="48.40455" lon="2.13566">
        <ele>133.376492</ele>
        <time>2013-07-25T19:32:43Z</time>
      </trkpt>
      <trkpt lat="48.405" lon="2.13576">
        <ele>135.069449</ele>
        <time>2013-07-25T19:32:48Z</time>
      </trkpt>
      <trkpt lat="48.40525" lon="2.13612">
        <ele>134.579427</ele>
        <time>2013-07-25T19:32:53Z</time>
      </trkpt>
      <trkpt lat="48.40567" lon="2.13658">
        <ele>135.445473</ele>
        <time>2013-07-25T19:32:58Z</time>
      </trkpt>
      <trkpt lat="48.40632" lon="2.13703">
        <ele>137.035432</ele>
        <time>2013-07-25T19:33:03Z</time>
      </trkpt>
      <trkpt lat="48.40706" lon="2.13737">
        <ele>137.608599</ele>
        <time>2013-07-25T19:33:08Z</time>
      </trkpt>
      <trkpt lat="48.40781" lon="2.13765">
        <ele>137.395758</ele>
        <time>2013-07-25T19:33:13Z</time>
      </trkpt>
      <trkpt lat="48.40843" lon="2.13784">
        <ele>136.937951</ele>
        <time>2013-07-25T19:33:18Z</time>
      </trkpt>
      <trkpt lat="48.40907" lon="2.13793">
        <ele>134.232997</ele>
        <time>2013-07-25T19:33:23Z</time>
      </trkpt>
      <trkpt lat="48.4095" lon="2.13792">
        <ele>132.07695</ele>
        <time>2013-07-25T19:33:28Z</time>
      </trkpt>
      <trkpt lat="48.4098" lon="2.13742">
        <ele>127.436214</ele>
        <time>2013-07-25T19:33:33Z</time>
      </trkpt>
      <trkpt lat="48.41016" lon="2.13683">
        <ele>125.783444</ele>
        <time>2013-07-25T19:33:38Z</time>
      </trkpt>
      <trkpt lat="48.4106" lon="2.136">
        <ele>129.175092</ele>
        <time>2013-07-25T19:33:43Z</time>
      </trkpt>
      <trkpt lat="48.41086" lon="2.1356">
        <ele>133.695316</ele>
        <time>2013-07-25T19:33:48Z</time>
      </trkpt>
      <trkpt lat="48.4113" lon="2.13602">
        <ele>135.239493</ele>
        <time>2013-07-25T19:33:53Z</time>
      </trkpt>
      <trkpt lat="48.41159" lon="2.13571">
        <ele>135.843982</ele>
        <time>2013-07-25T19:33:58Z</time>
      </trkpt>
      <trkpt lat="48.4119" lon="2.13499">
        <ele>138.613923</ele>
        <time>2013-07-25T19:34:03Z</time>
      </trkpt>
      <trkpt lat="48.41217" lon="2.13513">
        <ele>139.950386</ele>
        <time>2013-07-25T19:34:08Z</time>
      </trkpt>
      <trkpt lat="48.41277" lon="2.13583">
        <ele>141.763991</ele>
        <time>2013-07-25T19:34:13Z</time>
      </trkpt>
      <trkpt lat="48.41331" lon="2.13646">
        <ele>142.283741</ele>
        <time>2013-07-25T19:34:18Z</time>
      </trkpt>
      <trkpt lat="48.41392" lon="2.1372">
        <ele>142.099218</ele>
        <time>2013-07-25T19:34:23Z</time>
      </trkpt>
      <trkpt lat="48.41441" lon="2.13779">
        <ele>142.207869</ele>
        <time>2013-07-25T19:34:28Z</time>
      </trkpt>
      <trkpt lat="48.41496" lon="2.13847">
        <ele>142.250882</ele>
        <time>2013-07-25T19:34:33Z</time>
      </trkpt>
      <trkpt lat="48.41558" lon="2.1393">
        <ele>141.554999</ele>
        <time>2013-07-25T19:34:38Z</time>
      </trkpt>
      <trkpt lat="48.41594" lon="2.13981">
        <ele>140.695072</ele>
        <time>2013-07-25T19:34:43Z</time>
      </trkpt>
      <trkpt lat="48.41622" lon="2.14013">
        <ele>140.306703</ele>
        <time>2013-07-25T19:34:48Z</time>
      </trkpt>
      <trkpt lat="48.41641" lon="2.13975">
        <ele>140.11105</ele>
        <time>2013-07-25T19:34:53Z</time>
      </trkpt>
      <trkpt lat="48.41668" lon="2.1389">
        <ele>142.379456</ele>
        <time>2013-07-25T19:34:58Z</time>
      </trkpt>
      <trkpt lat="48.4168" lon="2.13844">
        <ele>142.963298</ele>
        <time>2013-07-25T19:35:03Z</time>
      </trkpt>
      <trkpt lat="48.41691" lon="2.13816">
        <ele>143.121248</ele>
        <time>2013-07-25T19:35:08Z</time>
      </trkpt>
      <trkpt lat="48.41701" lon="2.13784">
        <ele>142.457014</ele>
        <time>2013-07-25T19:35:13Z</time>
      </trkpt>
      <trkpt lat="48.41699" lon="2.1378">
        <ele>143.709224</ele>
        <time>2013-07-25T19:35:18Z</time>
      </trkpt>
      <trkpt lat="48.41682" lon="2.13839">
        <ele>144.444971</ele>
        <time>2013-07-25T19:35:23Z</time>
      </trkpt>
      <trkpt lat="48.41686" lon="2.13869">
        <ele>144.580843</ele>
        <time>2013-07-25T19:35:28Z</time>
      </trkpt>
      <trkpt lat="48.41743" lon="2.13902">
        <ele>144.730903</ele>
        <time>2013-07-25T19:35:33Z</time>
      </trkpt>
      <trkpt lat="48.41804" lon="2.1394">
        <ele>143.799112</ele>
        <time>2013-07-25T19:35:38Z</time>
      </trkpt>
      <trkpt lat="48.41862" lon="2.13976">
        <ele>142.673787</ele>
        <time>2013-07-25T19:35:43Z</time>
      </trkpt>
      <trkpt lat="48.41909" lon="2.14">
        <ele>141.974156</ele>
        <time>2013-07-25T19:35:48Z</time>
      </trkpt>
      <trkpt lat="48.4196" lon="2.14019">
        <ele>140.791886</ele>
        <time>2013-07-25T19:35:53Z</time>
      </trkpt>
      <trkpt lat="48.4202" lon="2.14057">
        <ele>139.11499</ele>
        <time>2013-07-25T19:35:58Z</time>
      </trkpt>
      <trkpt lat="48.42078" lon="2.14092">
        <ele>136.556443</ele>
        <time>2013-07-25T19:36:03Z</time>
      </trkpt>
      <trkpt lat="48.42113" lon="2.14111">
        <ele>136.432139</ele>
        <time>2013-07-25T19:36:08Z</time>
      </trkpt>
      <trkpt lat="48.42117" lon="2.14068">
        <ele>136.556552</ele>
        <time>2013-07-25T19:36:13Z</time>
      </trkpt>
      <trkpt lat="48.42123" lon="2.13981">
        <ele>135.948182</ele>
        <time>2013-07-25T19:36:18Z</time>
      </trkpt>
      <trkpt lat="48.42129" lon="2.139">
        <ele>136.127511</ele>
        <time>2013-07-25T19:36:23Z</time>
      </trkpt>
      <trkpt lat="48.42126" lon="2.1384">
        <ele>136.194442</ele>
        <time>2013-07-25T19:36:28Z</time>
      </trkpt>
      <trkpt lat="48.42135" lon="2.1382">
        <ele>136.417027</ele>
        <time>2013-07-25T19:36:33Z</time>
      </trkpt>
      <trkpt lat="48.42138" lon="2.13816">
        <ele>136.512466</ele>
        <time>2013-07-25T19:36:38Z</time>
      </trkpt>
      <trkpt lat="48.42153" lon="2.13825">
        <ele>136.268149</ele>
        <time>2013-07-25T19:36:43Z</time>
      </trkpt>
      <trkpt lat="48.42184" lon="2.13836">
        <ele>135.740728</ele>
        <time>2013-07-25T19:36:48Z</time>
      </trkpt>
      <trkpt lat="48.42208" lon="2.13848">
        <ele>133.980947</ele>
        <time>2013-07-25T19:36:53Z</time>
      </trkpt>
      <trkpt lat="48.42214" lon="2.13861">
        <ele>132.4937</ele>
        <time>2013-07-25T19:36:58Z</time>
      </trkpt>
      <trkpt lat="48.42228" lon="2.13863">
        <ele>130.6297</ele>
        <time>2013-07-25T19:37:03Z</time>
      </trkpt>
      <trkpt lat="48.42236" lon="2.1386">
        <ele>130.401536</ele>
        <time>2013-07-25T19:37:08Z</time>
      </trkpt>
      <trkpt lat="48.4224" lon="2.1389">
        <ele>127.715425</ele>
        <time>2013-07-25T19:37:13Z</time>
      </trkpt>
      <trkpt lat="48.4225" lon="2.13901">
        <ele>125.770218</ele>
        <time>2013-07-25T19:37:18Z</time>
      </trkpt>
      <trkpt lat="48.42261" lon="2.13876">
        <ele>123.156288</ele>
        <time>2013-07-25T19:37:23Z</time>
      </trkpt>
      <trkpt lat="48.42273" lon="2.13859">
        <ele>119.364684</ele>
        <time>2013-07-25T19:37:28Z</time>
      </trkpt>
      <trkpt lat="48.4229" lon="2.1389">
        <ele>115.453176</ele>
        <time>2013-07-25T19:37:33Z</time>
      </trkpt>
      <trkpt lat="48.4231" lon="2.13931">
        <ele>109.087335</ele>
        <time>2013-07-25T19:37:38Z</time>
      </trkpt>
      <trkpt lat="48.42325" lon="2.13963">
        <ele>102.871809</ele>
        <time>2013-07-25T19:37:43Z</time>
      </trkpt>
      <trkpt lat="48.42324" lon="2.13966">
        <ele>100.762067</ele>
        <time>2013-07-25T19:37:48Z</time>
      </trkpt>
      <trkpt lat="48.42324" lon="2.13966">
        <ele>100.014</ele>
        <time>2013-07-25T19:37:53Z</time>
      </trkpt>
      <trkpt lat="48.42324" lon="2.13966">
        <ele>100.014</ele>
        <time>2013-07-25T19:37:58Z</time>
      </trkpt>
      <trkpt lat="48.42324" lon="2.13966">
        <ele>100.014</ele>
        <time>2013-07-25T19:38:03Z</time>
      </trkpt>
      <trkpt lat="48.42325" lon="2.13975">
        <ele>100.272347</ele>
        <time>2013-07-25T19:38:08Z</time>
      </trkpt>
      <trkpt lat="48.4233" lon="2.13999">
        <ele>95.388314</ele>
        <time>2013-07-25T19:38:13Z</time>
      </trkpt>
      <trkpt lat="48.42317" lon="2.13962">
        <ele>93.122162</ele>
        <time>2013-07-25T19:38:18Z</time>
      </trkpt>
      <trkpt lat="48.42297" lon="2.13923">
        <ele>91.733207</ele>
        <time>2013-07-25T19:38:23Z</time>
      </trkpt>
      <trkpt lat="48.42277" lon="2.13873">
        <ele>94.380011</ele>
        <time>2013-07-25T19:38:28Z</time>
      </trkpt>
      <trkpt lat="48.4227" lon="2.13847">
        <ele>97.718697</ele>
        <time>2013-07-25T19:38:33Z</time>
      </trkpt>
      <trkpt lat="48.42269" lon="2.13846">
        <ele>99.02027</ele>
        <time>2013-07-25T19:38:38Z</time>
      </trkpt>
      <trkpt lat="48.4227" lon="2.13847">
        <ele>101.952383</ele>
        <time>2013-07-25T19:38:43Z</time>
      </trkpt>
      <trkpt lat="48.42271" lon="2.13847">
        <ele>101.289216</ele>
        <time>2013-07-25T19:38:48Z</time>
      </trkpt>
      <trkpt lat="48.42267" lon="2.13848">
        <ele>102.470529</ele>
        <time>2013-07-25T19:38:53Z</time>
      </trkpt>
      <trkpt lat="48.42265" lon="2.13883">
        <ele>104.440764</ele>
        <time>2013-07-25T19:38:58Z</time>
      </trkpt>
      <trkpt lat="48.4225" lon="2.13907">
        <ele>108.186492</ele>
        <time>2013-07-25T19:39:03Z</time>
      </trkpt>
      <trkpt lat="48.42233" lon="2.13882">
        <ele>110.122757</ele>
        <time>2013-07-25T19:39:08Z</time>
      </trkpt>
      <trkpt lat="48.42233" lon="2.13857">
        <ele>113.162601</ele>
        <time>2013-07-25T19:39:13Z</time>
      </trkpt>
      <trkpt lat="48.42218" lon="2.13863">
        <ele>117.24958</ele>
        <time>2013-07-25T19:39:18Z</time>
      </trkpt>
      <trkpt lat="48.42205" lon="2.13848">
        <ele>120.36207</ele>
        <time>2013-07-25T19:39:23Z</time>
      </trkpt>
      <trkpt lat="48.4217" lon="2.13833">
        <ele>123.382917</ele>
        <time>2013-07-25T19:39:28Z</time>
      </trkpt>
      <trkpt lat="48.42141" lon="2.13822">
        <ele>126.902614</ele>
        <time>2013-07-25T19:39:33Z</time>
      </trkpt>
      <trkpt lat="48.42135" lon="2.13823">
        <ele>130.07358</ele>
        <time>2013-07-25T19:39:38Z</time>
      </trkpt>
      <trkpt lat="48.42132" lon="2.13824">
        <ele>129.928621</ele>
        <time>2013-07-25T19:39:43Z</time>
      </trkpt>
      <trkpt lat="48.42132" lon="2.13824">
        <ele>129.928621</ele>
        <time>2013-07-25T19:39:48Z</time>
      </trkpt>
      <trkpt lat="48.42131" lon="2.13826">
        <ele>130.616569</ele>
        <time>2013-07-25T19:39:53Z</time>
      </trkpt>
      <trkpt lat="48.4213" lon="2.13827">
        <ele>130.556471</ele>
        <time>2013-07-25T19:39:58Z</time>
      </trkpt>
      <trkpt lat="48.42128" lon="2.13829">
        <ele>131.184322</ele>
        <time>2013-07-25T19:40:03Z</time>
      </trkpt>
      <trkpt lat="48.42129" lon="2.13829">
        <ele>131.932367</ele>
        <time>2013-07-25T19:40:08Z</time>
      </trkpt>
      <trkpt lat="48.42138" lon="2.13816">
        <ele>133.026819</ele>
        <time>2013-07-25T19:40:13Z</time>
      </trkpt>
      <trkpt lat="48.4214" lon="2.13815">
        <ele>133.08692</ele>
        <time>2013-07-25T19:40:18Z</time>
      </trkpt>
      <trkpt lat="48.4214" lon="2.13815">
        <ele>133.08692</ele>
        <time>2013-07-25T19:40:23Z</time>
      </trkpt>
      <trkpt lat="48.42142" lon="2.13807">
        <ele>133.77127</ele>
        <time>2013-07-25T19:40:28Z</time>
      </trkpt>
      <trkpt lat="48.42146" lon="2.1374">
        <ele>134.862511</ele>
        <time>2013-07-25T19:40:33Z</time>
      </trkpt>
      <trkpt lat="48.4215" lon="2.13676">
        <ele>133.869098</ele>
        <time>2013-07-25T19:40:38Z</time>
      </trkpt>
      <trkpt lat="48.42152" lon="2.1362">
        <ele>132.914854</ele>
        <time>2013-07-25T19:40:43Z</time>
      </trkpt>
      <trkpt lat="48.42141" lon="2.13591">
        <ele>132.294832</ele>
        <time>2013-07-25T19:40:48Z</time>
      </trkpt>
      <trkpt lat="48.42127" lon="2.13581">
        <ele>131.936296</ele>
        <time>2013-07-25T19:40:53Z</time>
      </trkpt>
      <trkpt lat="48.42148" lon="2.13598">
        <ele>132.927672</ele>
        <time>2013-07-25T19:40:58Z</time>
      </trkpt>
      <trkpt lat="48.42153" lon="2.13632">
        <ele>132.474312</ele>
        <time>2013-07-25T19:41:03Z</time>
      </trkpt>
      <trkpt lat="48.42149" lon="2.13701">
        <ele>132.903283</ele>
        <time>2013-07-25T19:41:08Z</time>
      </trkpt>
      <trkpt lat="48.42148" lon="2.13765">
        <ele>135.502539</ele>
        <time>2013-07-25T19:41:13Z</time>
      </trkpt>
      <trkpt lat="48.42146" lon="2.13807">
        <ele>134.773903</ele>
        <time>2013-07-25T19:41:18Z</time>
      </trkpt>
      <trkpt lat="48.42154" lon="2.13824">
        <ele>134.168975</ele>
        <time>2013-07-25T19:41:23Z</time>
      </trkpt>
      <trkpt lat="48.42185" lon="2.13836">
        <ele>134.329498</ele>
        <time>2013-07-25T19:41:28Z</time>
      </trkpt>
      <trkpt lat="48.42208" lon="2.13848">
        <ele>132.569717</ele>
        <time>2013-07-25T19:41:33Z</time>
      </trkpt>
      <trkpt lat="48.42213" lon="2.13861">
        <ele>131.745645</ele>
        <time>2013-07-25T19:41:38Z</time>
      </trkpt>
      <trkpt lat="48.42228" lon="2.13866">
        <ele>130.016057</ele>
        <time>2013-07-25T19:41:43Z</time>
      </trkpt>
      <trkpt lat="48.42236" lon="2.1386">
        <ele>128.990307</ele>
        <time>2013-07-25T19:41:48Z</time>
      </trkpt>
      <trkpt lat="48.42239" lon="2.13886">
        <ele>128.304293</ele>
        <time>2013-07-25T19:41:53Z</time>
      </trkpt>
      <trkpt lat="48.42248" lon="2.13908">
        <ele>125.06112</ele>
        <time>2013-07-25T19:41:58Z</time>
      </trkpt>
      <trkpt lat="48.42258" lon="2.13888">
        <ele>123.209411</ele>
        <time>2013-07-25T19:42:03Z</time>
      </trkpt>
      <trkpt lat="48.42264" lon="2.13872">
        <ele>121.177375</ele>
        <time>2013-07-25T19:42:08Z</time>
      </trkpt>
      <trkpt lat="48.42272" lon="2.13868">
        <ele>118.789978</ele>
        <time>2013-07-25T19:42:13Z</time>
      </trkpt>
      <trkpt lat="48.42285" lon="2.13895">
        <ele>114.464594</ele>
        <time>2013-07-25T19:42:18Z</time>
      </trkpt>
      <trkpt lat="48.42312" lon="2.13941">
        <ele>107.934423</ele>
        <time>2013-07-25T19:42:23Z</time>
      </trkpt>
      <trkpt lat="48.42328" lon="2.13982">
        <ele>101.314121</ele>
        <time>2013-07-25T19:42:28Z</time>
      </trkpt>
      <trkpt lat="48.42328" lon="2.13989">
        <ele>98.615561</ele>
        <time>2013-07-25T19:42:33Z</time>
      </trkpt>
      <trkpt lat="48.42328" lon="2.13989">
        <ele>95.793106</ele>
        <time>2013-07-25T19:42:38Z</time>
      </trkpt>
      <trkpt lat="48.42328" lon="2.13989">
        <ele>95.793106</ele>
        <time>2013-07-25T19:42:43Z</time>
      </trkpt>
      <trkpt lat="48.42328" lon="2.13989">
        <ele>95.793106</ele>
        <time>2013-07-25T19:42:48Z</time>
      </trkpt>
      <trkpt lat="48.42328" lon="2.13989">
        <ele>95.793106</ele>
        <time>2013-07-25T19:42:53Z</time>
      </trkpt>
      <trkpt lat="48.42328" lon="2.13989">
        <ele>95.793106</ele>
        <time>2013-07-25T19:42:58Z</time>
      </trkpt>
      <trkpt lat="48.42328" lon="2.13989">
        <ele>95.793106</ele>
        <time>2013-07-25T19:43:03Z</time>
      </trkpt>
      <trkpt lat="48.42328" lon="2.1399">
        <ele>95.817885</ele>
        <time>2013-07-25T19:43:08Z</time>
      </trkpt>
      <trkpt lat="48.42327" lon="2.13989">
        <ele>95.045038</ele>
        <time>2013-07-25T19:43:13Z</time>
      </trkpt>
      <trkpt lat="48.42327" lon="2.13989">
        <ele>95.045038</ele>
        <time>2013-07-25T19:43:18Z</time>
      </trkpt>
      <trkpt lat="48.42327" lon="2.13989">
        <ele>95.045038</ele>
        <time>2013-07-25T19:43:23Z</time>
      </trkpt>
      <trkpt lat="48.42327" lon="2.13988">
        <ele>95.020259</ele>
        <time>2013-07-25T19:43:28Z</time>
      </trkpt>
      <trkpt lat="48.42327" lon="2.13988">
        <ele>94.272191</ele>
        <time>2013-07-25T19:43:33Z</time>
      </trkpt>
      <trkpt lat="48.42327" lon="2.13988">
        <ele>94.272191</ele>
        <time>2013-07-25T19:43:38Z</time>
      </trkpt>
      <trkpt lat="48.42327" lon="2.13988">
        <ele>94.272191</ele>
        <time>2013-07-25T19:43:43Z</time>
      </trkpt>
      <trkpt lat="48.42327" lon="2.13988">
        <ele>94.272191</ele>
        <time>2013-07-25T19:43:48Z</time>
      </trkpt>
      <trkpt lat="48.42327" lon="2.13988">
        <ele>94.272191</ele>
        <time>2013-07-25T19:43:53Z</time>
      </trkpt>
      <trkpt lat="48.42327" lon="2.13988">
        <ele>93.609032</ele>
        <time>2013-07-25T19:43:58Z</time>
      </trkpt>
      <trkpt lat="48.42327" lon="2.13989">
        <ele>91.474516</ele>
        <time>2013-07-25T19:44:03Z</time>
      </trkpt>
      <trkpt lat="48.42335" lon="2.14013">
        <ele>88.919627</ele>
        <time>2013-07-25T19:44:08Z</time>
      </trkpt>
      <trkpt lat="48.42356" lon="2.14069">
        <ele>87.893727</ele>
        <time>2013-07-25T19:44:13Z</time>
      </trkpt>
      <trkpt lat="48.42386" lon="2.14145">
        <ele>83.576109</ele>
        <time>2013-07-25T19:44:18Z</time>
      </trkpt>
      <trkpt lat="48.42401" lon="2.14178">
        <ele>81.619858</ele>
        <time>2013-07-25T19:44:23Z</time>
      </trkpt>
      <trkpt lat="48.42408" lon="2.14159">
        <ele>82.445377</ele>
        <time>2013-07-25T19:44:28Z</time>
      </trkpt>
      <trkpt lat="48.42421" lon="2.14092">
        <ele>81.306867</ele>
        <time>2013-07-25T19:44:33Z</time>
      </trkpt>
      <trkpt lat="48.42432" lon="2.13998">
        <ele>80.914505</ele>
        <time>2013-07-25T19:44:38Z</time>
      </trkpt>
      <trkpt lat="48.42429" lon="2.13946">
        <ele>83.203783</ele>
        <time>2013-07-25T19:44:43Z</time>
      </trkpt>
      <trkpt lat="48.4242" lon="2.13874">
        <ele>86.193292</ele>
        <time>2013-07-25T19:44:48Z</time>
      </trkpt>
      <trkpt lat="48.42424" lon="2.13788">
        <ele>85.441626</ele>
        <time>2013-07-25T19:44:53Z</time>
      </trkpt>
      <trkpt lat="48.42435" lon="2.13745">
        <ele>86.740213</ele>
        <time>2013-07-25T19:44:58Z</time>
      </trkpt>
      <trkpt lat="48.42405" lon="2.1371">
        <ele>87.653716</ele>
        <time>2013-07-25T19:45:03Z</time>
      </trkpt>
      <trkpt lat="48.42389" lon="2.13634">
        <ele>88.649747</ele>
        <time>2013-07-25T19:45:08Z</time>
      </trkpt>
      <trkpt lat="48.42386" lon="2.13527">
        <ele>90.589945</ele>
        <time>2013-07-25T19:45:13Z</time>
      </trkpt>
      <trkpt lat="48.42383" lon="2.13452">
        <ele>93.209206</ele>
        <time>2013-07-25T19:45:18Z</time>
      </trkpt>
      <trkpt lat="48.4241" lon="2.13371">
        <ele>90.577765</ele>
        <time>2013-07-25T19:45:23Z</time>
      </trkpt>
      <trkpt lat="48.42434" lon="2.13306">
        <ele>87.325473</ele>
        <time>2013-07-25T19:45:28Z</time>
      </trkpt>
      <trkpt lat="48.42458" lon="2.13277">
        <ele>87.647789</ele>
        <time>2013-07-25T19:45:33Z</time>
      </trkpt>
      <trkpt lat="48.42484" lon="2.13309">
        <ele>87.177138</ele>
        <time>2013-07-25T19:45:38Z</time>
      </trkpt>
      <trkpt lat="48.42539" lon="2.13362">
        <ele>85.43597</ele>
        <time>2013-07-25T19:45:43Z</time>
      </trkpt>
      <trkpt lat="48.42592" lon="2.13418">
        <ele>86.507231</ele>
        <time>2013-07-25T19:45:48Z</time>
      </trkpt>
      <trkpt lat="48.42634" lon="2.13456">
        <ele>85.745041</ele>
        <time>2013-07-25T19:45:53Z</time>
      </trkpt>
      <trkpt lat="48.42689" lon="2.13457">
        <ele>84.478018</ele>
        <time>2013-07-25T19:45:58Z</time>
      </trkpt>
      <trkpt lat="48.42723" lon="2.13434">
        <ele>84.168795</ele>
        <time>2013-07-25T19:46:03Z</time>
      </trkpt>
      <trkpt lat="48.42739" lon="2.1341">
        <ele>84.744044</ele>
        <time>2013-07-25T19:46:08Z</time>
      </trkpt>
      <trkpt lat="48.42748" lon="2.1342">
        <ele>84.100853</ele>
        <time>2013-07-25T19:46:13Z</time>
      </trkpt>
      <trkpt lat="48.4276" lon="2.13492">
        <ele>84.934675</ele>
        <time>2013-07-25T19:46:18Z</time>
      </trkpt>
      <trkpt lat="48.42763" lon="2.13574">
        <ele>86.673178</ele>
        <time>2013-07-25T19:46:23Z</time>
      </trkpt>
      <trkpt lat="48.42779" lon="2.13645">
        <ele>84.915855</ele>
        <time>2013-07-25T19:46:28Z</time>
      </trkpt>
      <trkpt lat="48.4283" lon="2.13724">
        <ele>84.167245</ele>
        <time>2013-07-25T19:46:33Z</time>
      </trkpt>
      <trkpt lat="48.42865" lon="2.13786">
        <ele>83.428305</ele>
        <time>2013-07-25T19:46:38Z</time>
      </trkpt>
      <trkpt lat="48.42888" lon="2.13836">
        <ele>84.524111</ele>
        <time>2013-07-25T19:46:43Z</time>
      </trkpt>
      <trkpt lat="48.42899" lon="2.1385">
        <ele>84.12591</ele>
        <time>2013-07-25T19:46:48Z</time>
      </trkpt>
      <trkpt lat="48.42921" lon="2.13782">
        <ele>85.635367</ele>
        <time>2013-07-25T19:46:53Z</time>
      </trkpt>
      <trkpt lat="48.42951" lon="2.13711">
        <ele>86.9431</ele>
        <time>2013-07-25T19:46:58Z</time>
      </trkpt>
      <trkpt lat="48.42983" lon="2.13671">
        <ele>89.713936</ele>
        <time>2013-07-25T19:47:03Z</time>
      </trkpt>
      <trkpt lat="48.43008" lon="2.13603">
        <ele>92.143082</ele>
        <time>2013-07-25T19:47:08Z</time>
      </trkpt>
      <trkpt lat="48.4302" lon="2.13533">
        <ele>95.108457</ele>
        <time>2013-07-25T19:47:13Z</time>
      </trkpt>
      <trkpt lat="48.43022" lon="2.13456">
        <ele>96.60701</ele>
        <time>2013-07-25T19:47:18Z</time>
      </trkpt>
      <trkpt lat="48.43029" lon="2.13396">
        <ele>99.430635</ele>
        <time>2013-07-25T19:47:23Z</time>
      </trkpt>
      <trkpt lat="48.43043" lon="2.13362">
        <ele>100.387248</ele>
        <time>2013-07-25T19:47:28Z</time>
      </trkpt>
      <trkpt lat="48.43057" lon="2.13322">
        <ele>101.245206</ele>
        <time>2013-07-25T19:47:33Z</time>
      </trkpt>
      <trkpt lat="48.43051" lon="2.13272">
        <ele>100.569116</ele>
        <time>2013-07-25T19:47:38Z</time>
      </trkpt>
      <trkpt lat="48.43027" lon="2.13233">
        <ele>103.906138</ele>
        <time>2013-07-25T19:47:43Z</time>
      </trkpt>
      <trkpt lat="48.43024" lon="2.13203">
        <ele>105.930243</ele>
        <time>2013-07-25T19:47:48Z</time>
      </trkpt>
      <trkpt lat="48.43058" lon="2.13186">
        <ele>108.569592</ele>
        <time>2013-07-25T19:47:53Z</time>
      </trkpt>
      <trkpt lat="48.4308" lon="2.13157">
        <ele>112.295529</ele>
        <time>2013-07-25T19:47:58Z</time>
      </trkpt>
      <trkpt lat="48.43091" lon="2.1309">
        <ele>116.7243</ele>
        <time>2013-07-25T19:48:03Z</time>
      </trkpt>
      <trkpt lat="48.43092" lon="2.13048">
        <ele>118.781998</ele>
        <time>2013-07-25T19:48:08Z</time>
      </trkpt>
      <trkpt lat="48.43092" lon="2.13024">
        <ele>123.234748</ele>
        <time>2013-07-25T19:48:13Z</time>
      </trkpt>
      <trkpt lat="48.43105" lon="2.12986">
        <ele>128.376977</ele>
        <time>2013-07-25T19:48:18Z</time>
      </trkpt>
      <trkpt lat="48.43125" lon="2.12919">
        <ele>132.654327</ele>
        <time>2013-07-25T19:48:23Z</time>
      </trkpt>
      <trkpt lat="48.43153" lon="2.1287">
        <ele>137.100098</ele>
        <time>2013-07-25T19:48:28Z</time>
      </trkpt>
      <trkpt lat="48.43181" lon="2.12828">
        <ele>140.258209</ele>
        <time>2013-07-25T19:48:33Z</time>
      </trkpt>
      <trkpt lat="48.43225" lon="2.1278">
        <ele>142.240645</ele>
        <time>2013-07-25T19:48:38Z</time>
      </trkpt>
      <trkpt lat="48.4328" lon="2.12743">
        <ele>143.690565</ele>
        <time>2013-07-25T19:48:43Z</time>
      </trkpt>
      <trkpt lat="48.43342" lon="2.12704">
        <ele>143.528576</ele>
        <time>2013-07-25T19:48:48Z</time>
      </trkpt>
      <trkpt lat="48.43397" lon="2.12671">
        <ele>144.3908</ele>
        <time>2013-07-25T19:48:53Z</time>
      </trkpt>
      <trkpt lat="48.43454" lon="2.1263">
        <ele>144.528157</ele>
        <time>2013-07-25T19:48:58Z</time>
      </trkpt>
      <trkpt lat="48.4352" lon="2.1258">
        <ele>145.838573</ele>
        <time>2013-07-25T19:49:03Z</time>
      </trkpt>
      <trkpt lat="48.43585" lon="2.12526">
        <ele>147.654039</ele>
        <time>2013-07-25T19:49:08Z</time>
      </trkpt>
      <trkpt lat="48.43641" lon="2.12478">
        <ele>149.082196</ele>
        <time>2013-07-25T19:49:13Z</time>
      </trkpt>
      <trkpt lat="48.43702" lon="2.12417">
        <ele>150.52098</ele>
        <time>2013-07-25T19:49:18Z</time>
      </trkpt>
      <trkpt lat="48.43762" lon="2.12348">
        <ele>151.728051</ele>
        <time>2013-07-25T19:49:23Z</time>
      </trkpt>
      <trkpt lat="48.43821" lon="2.12266">
        <ele>151.218584</ele>
        <time>2013-07-25T19:49:28Z</time>
      </trkpt>
      <trkpt lat="48.43871" lon="2.12191">
        <ele>150.236202</ele>
        <time>2013-07-25T19:49:33Z</time>
      </trkpt>
      <trkpt lat="48.43891" lon="2.12176">
        <ele>150.557727</ele>
        <time>2013-07-25T19:49:38Z</time>
      </trkpt>
      <trkpt lat="48.43918" lon="2.12226">
        <ele>151.907196</ele>
        <time>2013-07-25T19:49:43Z</time>
      </trkpt>
      <trkpt lat="48.43956" lon="2.12287">
        <ele>152.810103</ele>
        <time>2013-07-25T19:49:48Z</time>
      </trkpt>
      <trkpt lat="48.44003" lon="2.12364">
        <ele>153.194582</ele>
        <time>2013-07-25T19:49:53Z</time>
      </trkpt>
      <trkpt lat="48.44048" lon="2.1244">
        <ele>154.795973</ele>
        <time>2013-07-25T19:49:58Z</time>
      </trkpt>
      <trkpt lat="48.44087" lon="2.12511">
        <ele>154.547295</ele>
        <time>2013-07-25T19:50:03Z</time>
      </trkpt>
      <trkpt lat="48.44125" lon="2.12578">
        <ele>154.803111</ele>
        <time>2013-07-25T19:50:08Z</time>
      </trkpt>
      <trkpt lat="48.44161" lon="2.12641">
        <ele>154.176718</ele>
        <time>2013-07-25T19:50:13Z</time>
      </trkpt>
      <trkpt lat="48.44193" lon="2.12678">
        <ele>152.802435</ele>
        <time>2013-07-25T19:50:18Z</time>
      </trkpt>
      <trkpt lat="48.44241" lon="2.12707">
        <ele>152.305204</ele>
        <time>2013-07-25T19:50:23Z</time>
      </trkpt>
      <trkpt lat="48.44293" lon="2.12739">
        <ele>152.113901</ele>
        <time>2013-07-25T19:50:28Z</time>
      </trkpt>
      <trkpt lat="48.44327" lon="2.12765">
        <ele>152.04033</ele>
        <time>2013-07-25T19:50:33Z</time>
      </trkpt>
      <trkpt lat="48.44328" lon="2.12803">
        <ele>150.741261</ele>
        <time>2013-07-25T19:50:38Z</time>
      </trkpt>
      <trkpt lat="48.44307" lon="2.12921">
        <ele>148.806199</ele>
        <time>2013-07-25T19:50:43Z</time>
      </trkpt>
      <trkpt lat="48.44283" lon="2.13062">
        <ele>147.120888</ele>
        <time>2013-07-25T19:50:48Z</time>
      </trkpt>
      <trkpt lat="48.44262" lon="2.13195">
        <ele>146.871287</ele>
        <time>2013-07-25T19:50:53Z</time>
      </trkpt>
      <trkpt lat="48.4425" lon="2.13297">
        <ele>145.990113</ele>
        <time>2013-07-25T19:50:58Z</time>
      </trkpt>
      <trkpt lat="48.44238" lon="2.13377">
        <ele>146.678692</ele>
        <time>2013-07-25T19:51:03Z</time>
      </trkpt>
      <trkpt lat="48.44226" lon="2.13444">
        <ele>147.230845</ele>
        <time>2013-07-25T19:51:08Z</time>
      </trkpt>
      <trkpt lat="48.4423" lon="2.13463">
        <ele>147.169966</ele>
        <time>2013-07-25T19:51:13Z</time>
      </trkpt>
      <trkpt lat="48.44234" lon="2.13463">
        <ele>147.426091</ele>
        <time>2013-07-25T19:51:18Z</time>
      </trkpt>
      <trkpt lat="48.44234" lon="2.13463">
        <ele>147.426091</ele>
        <time>2013-07-25T19:51:23Z</time>
      </trkpt>
      <trkpt lat="48.44244" lon="2.13467">
        <ele>147.434942</ele>
        <time>2013-07-25T19:51:28Z</time>
      </trkpt>
      <trkpt lat="48.44305" lon="2.13501">
        <ele>147.205293</ele>
        <time>2013-07-25T19:51:33Z</time>
      </trkpt>
      <trkpt lat="48.44358" lon="2.13538">
        <ele>146.538176</ele>
        <time>2013-07-25T19:51:38Z</time>
      </trkpt>
      <trkpt lat="48.44392" lon="2.1356">
        <ele>145.644333</ele>
        <time>2013-07-25T19:51:43Z</time>
      </trkpt>
      <trkpt lat="48.44391" lon="2.1356">
        <ele>144.896027</ele>
        <time>2013-07-25T19:51:48Z</time>
      </trkpt>
      <trkpt lat="48.44391" lon="2.1356">
        <ele>144.896027</ele>
        <time>2013-07-25T19:51:53Z</time>
      </trkpt>
      <trkpt lat="48.44391" lon="2.1356">
        <ele>144.896027</ele>
        <time>2013-07-25T19:51:58Z</time>
      </trkpt>
      <trkpt lat="48.44395" lon="2.13562">
        <ele>145.176991</ele>
        <time>2013-07-25T19:52:03Z</time>
      </trkpt>
      <trkpt lat="48.44396" lon="2.1356">
        <ele>144.48938</ele>
        <time>2013-07-25T19:52:08Z</time>
      </trkpt>
      <trkpt lat="48.44396" lon="2.1356">
        <ele>144.48938</ele>
        <time>2013-07-25T19:52:13Z</time>
      </trkpt>
      <trkpt lat="48.44396" lon="2.1356">
        <ele>144.48938</ele>
        <time>2013-07-25T19:52:18Z</time>
      </trkpt>
      <trkpt lat="48.44396" lon="2.1356">
        <ele>144.48938</ele>
        <time>2013-07-25T19:52:23Z</time>
      </trkpt>
      <trkpt lat="48.44396" lon="2.1356">
        <ele>144.48938</ele>
        <time>2013-07-25T19:52:28Z</time>
      </trkpt>
      <trkpt lat="48.44396" lon="2.1356">
        <ele>144.48938</ele>
        <time>2013-07-25T19:52:33Z</time>
      </trkpt>
      <trkpt lat="48.44396" lon="2.1356">
        <ele>144.48938</ele>
        <time>2013-07-25T19:52:38Z</time>
      </trkpt>
      <trkpt lat="48.44396" lon="2.1356">
        <ele>144.48938</ele>
        <time>2013-07-25T19:52:43Z</time>
      </trkpt>
      <trkpt lat="48.44396" lon="2.1356">
        <ele>144.48938</ele>
        <time>2013-07-25T19:52:48Z</time>
      </trkpt>
      <trkpt lat="48.44396" lon="2.1356">
        <ele>144.48938</ele>
        <time>2013-07-25T19:52:53Z</time>
      </trkpt>
      <trkpt lat="48.44396" lon="2.1356">
        <ele>144.48938</ele>
        <time>2013-07-25T19:52:58Z</time>
      </trkpt>
      <trkpt lat="48.44396" lon="2.1356">
        <ele>144.48938</ele>
        <time>2013-07-25T19:53:03Z</time>
      </trkpt>
      <trkpt lat="48.44396" lon="2.1356">
        <ele>144.48938</ele>
        <time>2013-07-25T19:53:08Z</time>
      </trkpt>
      <trkpt lat="48.44396" lon="2.1356">
        <ele>144.48938</ele>
        <time>2013-07-25T19:53:13Z</time>
      </trkpt>
      <trkpt lat="48.44396" lon="2.1356">
        <ele>144.48938</ele>
        <time>2013-07-25T19:53:18Z</time>
      </trkpt>
      <trkpt lat="48.44396" lon="2.1356">
        <ele>144.48938</ele>
        <time>2013-07-25T19:53:23Z</time>
      </trkpt>
      <trkpt lat="48.44396" lon="2.1356">
        <ele>144.48938</ele>
        <time>2013-07-25T19:53:28Z</time>
      </trkpt>
      <trkpt lat="48.44396" lon="2.1356">
        <ele>144.48938</ele>
        <time>2013-07-25T19:53:33Z</time>
      </trkpt>
      <trkpt lat="48.44396" lon="2.1356">
        <ele>144.48938</ele>
        <time>2013-07-25T19:53:38Z</time>
      </trkpt>
      <trkpt lat="48.44396" lon="2.1356">
        <ele>144.48938</ele>
        <time>2013-07-25T19:53:43Z</time>
      </trkpt>
      <trkpt lat="48.44396" lon="2.1356">
        <ele>144.48938</ele>
        <time>2013-07-25T19:53:48Z</time>
      </trkpt>
      <trkpt lat="48.44396" lon="2.1356">
        <ele>144.48938</ele>
        <time>2013-07-25T19:53:53Z</time>
      </trkpt>
      <trkpt lat="48.44396" lon="2.1356">
        <ele>144.48938</ele>
        <time>2013-07-25T19:53:58Z</time>
      </trkpt>
      <trkpt lat="48.44396" lon="2.1356">
        <ele>144.48938</ele>
        <time>2013-07-25T19:54:03Z</time>
      </trkpt>
      <trkpt lat="48.44396" lon="2.1356">
        <ele>144.48938</ele>
        <time>2013-07-25T19:54:08Z</time>
      </trkpt>
      <trkpt lat="48.44396" lon="2.1356">
        <ele>144.48938</ele>
        <time>2013-07-25T19:54:13Z</time>
      </trkpt>
      <trkpt lat="48.44396" lon="2.1356">
        <ele>144.48938</ele>
        <time>2013-07-25T19:54:18Z</time>
      </trkpt>
      <trkpt lat="48.44396" lon="2.1356">
        <ele>144.48938</ele>
        <time>2013-07-25T19:54:23Z</time>
      </trkpt>
      <trkpt lat="48.44396" lon="2.1356">
        <ele>144.48938</ele>
        <time>2013-07-25T19:54:28Z</time>
      </trkpt>
      <trkpt lat="48.44396" lon="2.1356">
        <ele>144.48938</ele>
        <time>2013-07-25T19:54:33Z</time>
      </trkpt>
      <trkpt lat="48.44396" lon="2.1356">
        <ele>144.48938</ele>
        <time>2013-07-25T19:54:38Z</time>
      </trkpt>
      <trkpt lat="48.44398" lon="2.13555">
        <ele>144.561335</ele>
        <time>2013-07-25T19:54:43Z</time>
      </trkpt>
      <trkpt lat="48.44404" lon="2.13513">
        <ele>144.79968</ele>
        <time>2013-07-25T19:54:48Z</time>
      </trkpt>
      <trkpt lat="48.44412" lon="2.13472">
        <ele>145.294436</ele>
        <time>2013-07-25T19:54:53Z</time>
      </trkpt>
      <trkpt lat="48.44422" lon="2.13429">
        <ele>145.764651</ele>
        <time>2013-07-25T19:54:58Z</time>
      </trkpt>
      <trkpt lat="48.44433" lon="2.13363">
        <ele>145.986023</ele>
        <time>2013-07-25T19:55:03Z</time>
      </trkpt>
      <trkpt lat="48.4444" lon="2.13315">
        <ele>146.187057</ele>
        <time>2013-07-25T19:55:08Z</time>
      </trkpt>
      <trkpt lat="48.44445" lon="2.13285">
        <ele>145.237286</ele>
        <time>2013-07-25T19:55:13Z</time>
      </trkpt>
      <trkpt lat="48.44452" lon="2.13227">
        <ele>146.014203</ele>
        <time>2013-07-25T19:55:18Z</time>
      </trkpt>
      <trkpt lat="48.44464" lon="2.13165">
        <ele>148.384886</ele>
        <time>2013-07-25T19:55:23Z</time>
      </trkpt>
      <trkpt lat="48.44479" lon="2.13094">
        <ele>150.176679</ele>
        <time>2013-07-25T19:55:28Z</time>
      </trkpt>
      <trkpt lat="48.44499" lon="2.13023">
        <ele>150.814068</ele>
        <time>2013-07-25T19:55:33Z</time>
      </trkpt>
      <trkpt lat="48.4452" lon="2.12947">
        <ele>151.438812</ele>
        <time>2013-07-25T19:55:38Z</time>
      </trkpt>
      <trkpt lat="48.44547" lon="2.12867">
        <ele>151.669146</ele>
        <time>2013-07-25T19:55:43Z</time>
      </trkpt>
      <trkpt lat="48.44582" lon="2.12789">
        <ele>151.026341</ele>
        <time>2013-07-25T19:55:48Z</time>
      </trkpt>
      <trkpt lat="48.44618" lon="2.12721">
        <ele>150.752193</ele>
        <time>2013-07-25T19:55:53Z</time>
      </trkpt>
      <trkpt lat="48.4466" lon="2.12654">
        <ele>150.820604</ele>
        <time>2013-07-25T19:55:58Z</time>
      </trkpt>
      <trkpt lat="48.44703" lon="2.12583">
        <ele>150.153073</ele>
        <time>2013-07-25T19:56:03Z</time>
      </trkpt>
      <trkpt lat="48.44731" lon="2.12535">
        <ele>148.988642</ele>
        <time>2013-07-25T19:56:08Z</time>
      </trkpt>
      <trkpt lat="48.4476" lon="2.12495">
        <ele>147.94753</ele>
        <time>2013-07-25T19:56:13Z</time>
      </trkpt>
      <trkpt lat="48.44791" lon="2.12457">
        <ele>146.464065</ele>
        <time>2013-07-25T19:56:18Z</time>
      </trkpt>
      <trkpt lat="48.44817" lon="2.1242">
        <ele>143.915082</ele>
        <time>2013-07-25T19:56:23Z</time>
      </trkpt>
      <trkpt lat="48.4484" lon="2.12385">
        <ele>142.63108</ele>
        <time>2013-07-25T19:56:28Z</time>
      </trkpt>
      <trkpt lat="48.44861" lon="2.12352">
        <ele>141.973754</ele>
        <time>2013-07-25T19:56:33Z</time>
      </trkpt>
      <trkpt lat="48.44887" lon="2.12307">
        <ele>141.437573</ele>
        <time>2013-07-25T19:56:38Z</time>
      </trkpt>
      <trkpt lat="48.44899" lon="2.12284">
        <ele>140.378465</ele>
        <time>2013-07-25T19:56:43Z</time>
      </trkpt>
      <trkpt lat="48.44906" lon="2.12278">
        <ele>140.020463</ele>
        <time>2013-07-25T19:56:48Z</time>
      </trkpt>
      <trkpt lat="48.44908" lon="2.12278">
        <ele>140.191536</ele>
        <time>2013-07-25T19:56:53Z</time>
      </trkpt>
      <trkpt lat="48.44909" lon="2.12296">
        <ele>140.596479</ele>
        <time>2013-07-25T19:56:58Z</time>
      </trkpt>
      <trkpt lat="48.44912" lon="2.1234">
        <ele>140.252816</ele>
        <time>2013-07-25T19:57:03Z</time>
      </trkpt>
      <trkpt lat="48.4493" lon="2.12398">
        <ele>138.997484</ele>
        <time>2013-07-25T19:57:08Z</time>
      </trkpt>
      <trkpt lat="48.44957" lon="2.12451">
        <ele>140.402543</ele>
        <time>2013-07-25T19:57:13Z</time>
      </trkpt>
      <trkpt lat="48.44989" lon="2.12513">
        <ele>139.499982</ele>
        <time>2013-07-25T19:57:18Z</time>
      </trkpt>
      <trkpt lat="48.45018" lon="2.12564">
        <ele>135.322054</ele>
        <time>2013-07-25T19:57:23Z</time>
      </trkpt>
      <trkpt lat="48.45035" lon="2.12616">
        <ele>133.969753</ele>
        <time>2013-07-25T19:57:28Z</time>
      </trkpt>
      <trkpt lat="48.4505" lon="2.12663">
        <ele>131.599764</ele>
        <time>2013-07-25T19:57:33Z</time>
      </trkpt>
      <trkpt lat="48.45075" lon="2.12717">
        <ele>130.037719</ele>
        <time>2013-07-25T19:57:38Z</time>
      </trkpt>
      <trkpt lat="48.45106" lon="2.12782">
        <ele>126.278592</ele>
        <time>2013-07-25T19:57:43Z</time>
      </trkpt>
      <trkpt lat="48.45127" lon="2.12832">
        <ele>123.723886</ele>
        <time>2013-07-25T19:57:48Z</time>
      </trkpt>
      <trkpt lat="48.45146" lon="2.12873">
        <ele>122.924452</ele>
        <time>2013-07-25T19:57:53Z</time>
      </trkpt>
      <trkpt lat="48.45164" lon="2.12914">
        <ele>119.965644</ele>
        <time>2013-07-25T19:57:58Z</time>
      </trkpt>
      <trkpt lat="48.45181" lon="2.1296">
        <ele>119.903364</ele>
        <time>2013-07-25T19:58:03Z</time>
      </trkpt>
      <trkpt lat="48.45196" lon="2.13008">
        <ele>121.130592</ele>
        <time>2013-07-25T19:58:08Z</time>
      </trkpt>
      <trkpt lat="48.45213" lon="2.13048">
        <ele>121.632946</ele>
        <time>2013-07-25T19:58:13Z</time>
      </trkpt>
      <trkpt lat="48.45236" lon="2.13078">
        <ele>121.642568</ele>
        <time>2013-07-25T19:58:18Z</time>
      </trkpt>
      <trkpt lat="48.45275" lon="2.13114">
        <ele>120.679937</ele>
        <time>2013-07-25T19:58:23Z</time>
      </trkpt>
      <trkpt lat="48.45309" lon="2.13144">
        <ele>117.116881</ele>
        <time>2013-07-25T19:58:28Z</time>
      </trkpt>
      <trkpt lat="48.4533" lon="2.1316">
        <ele>112.450968</ele>
        <time>2013-07-25T19:58:33Z</time>
      </trkpt>
      <trkpt lat="48.45343" lon="2.1317">
        <ele>109.994966</ele>
        <time>2013-07-25T19:58:38Z</time>
      </trkpt>
      <trkpt lat="48.45351" lon="2.13188">
        <ele>105.933249</ele>
        <time>2013-07-25T19:58:43Z</time>
      </trkpt>
      <trkpt lat="48.4536" lon="2.1323">
        <ele>104.475333</ele>
        <time>2013-07-25T19:58:48Z</time>
      </trkpt>
      <trkpt lat="48.45365" lon="2.13268">
        <ele>105.594604</ele>
        <time>2013-07-25T19:58:53Z</time>
      </trkpt>
      <trkpt lat="48.45368" lon="2.13293">
        <ele>105.54743</ele>
        <time>2013-07-25T19:58:58Z</time>
      </trkpt>
      <trkpt lat="48.45367" lon="2.13318">
        <ele>106.016453</ele>
        <time>2013-07-25T19:59:03Z</time>
      </trkpt>
      <trkpt lat="48.45367" lon="2.13336">
        <ele>104.92621</ele>
        <time>2013-07-25T19:59:08Z</time>
      </trkpt>
      <trkpt lat="48.45368" lon="2.13349">
        <ele>105.921527</ele>
        <time>2013-07-25T19:59:13Z</time>
      </trkpt>
      <trkpt lat="48.4537" lon="2.13369">
        <ele>105.775753</ele>
        <time>2013-07-25T19:59:18Z</time>
      </trkpt>
      <trkpt lat="48.4537" lon="2.13368">
        <ele>107.186938</ele>
        <time>2013-07-25T19:59:23Z</time>
      </trkpt>
      <trkpt lat="48.45375" lon="2.13377">
        <ele>106.266534</ele>
        <time>2013-07-25T19:59:28Z</time>
      </trkpt>
      <trkpt lat="48.45399" lon="2.13418">
        <ele>105.812566</ele>
        <time>2013-07-25T19:59:33Z</time>
      </trkpt>
      <trkpt lat="48.45431" lon="2.13412">
        <ele>107.143273</ele>
        <time>2013-07-25T19:59:38Z</time>
      </trkpt>
      <trkpt lat="48.45467" lon="2.13387">
        <ele>108.324505</ele>
        <time>2013-07-25T19:59:43Z</time>
      </trkpt>
      <trkpt lat="48.45478" lon="2.13332">
        <ele>109.408791</ele>
        <time>2013-07-25T19:59:48Z</time>
      </trkpt>
      <trkpt lat="48.45483" lon="2.13242">
        <ele>112.245645</ele>
        <time>2013-07-25T19:59:53Z</time>
      </trkpt>
      <trkpt lat="48.45476" lon="2.13163">
        <ele>114.448402</ele>
        <time>2013-07-25T19:59:58Z</time>
      </trkpt>
      <trkpt lat="48.45448" lon="2.13085">
        <ele>116.053987</ele>
        <time>2013-07-25T20:00:03Z</time>
      </trkpt>
      <trkpt lat="48.45422" lon="2.13008">
        <ele>116.359374</ele>
        <time>2013-07-25T20:00:08Z</time>
      </trkpt>
      <trkpt lat="48.45402" lon="2.12928">
        <ele>117.707179</ele>
        <time>2013-07-25T20:00:13Z</time>
      </trkpt>
      <trkpt lat="48.45379" lon="2.1286">
        <ele>117.670171</ele>
        <time>2013-07-25T20:00:18Z</time>
      </trkpt>
      <trkpt lat="48.4536" lon="2.12795">
        <ele>120.124102</ele>
        <time>2013-07-25T20:00:23Z</time>
      </trkpt>
      <trkpt lat="48.45343" lon="2.12742">
        <ele>122.198288</ele>
        <time>2013-07-25T20:00:28Z</time>
      </trkpt>
      <trkpt lat="48.45309" lon="2.12706">
        <ele>127.73765</ele>
        <time>2013-07-25T20:00:33Z</time>
      </trkpt>
      <trkpt lat="48.45273" lon="2.12645">
        <ele>133.38689</ele>
        <time>2013-07-25T20:00:38Z</time>
      </trkpt>
      <trkpt lat="48.45254" lon="2.1257">
        <ele>139.130742</ele>
        <time>2013-07-25T20:00:43Z</time>
      </trkpt>
      <trkpt lat="48.45241" lon="2.12525">
        <ele>142.359145</ele>
        <time>2013-07-25T20:00:48Z</time>
      </trkpt>
      <trkpt lat="48.45268" lon="2.12505">
        <ele>145.199495</ele>
        <time>2013-07-25T20:00:53Z</time>
      </trkpt>
      <trkpt lat="48.45298" lon="2.12486">
        <ele>146.137314</ele>
        <time>2013-07-25T20:00:58Z</time>
      </trkpt>
      <trkpt lat="48.45342" lon="2.12457">
        <ele>145.661099</ele>
        <time>2013-07-25T20:01:03Z</time>
      </trkpt>
      <trkpt lat="48.4539" lon="2.12426">
        <ele>145.417712</ele>
        <time>2013-07-25T20:01:08Z</time>
      </trkpt>
      <trkpt lat="48.45438" lon="2.12401">
        <ele>146.021595</ele>
        <time>2013-07-25T20:01:13Z</time>
      </trkpt>
      <trkpt lat="48.45489" lon="2.12375">
        <ele>148.183952</ele>
        <time>2013-07-25T20:01:18Z</time>
      </trkpt>
      <trkpt lat="48.45525" lon="2.12355">
        <ele>148.778705</ele>
        <time>2013-07-25T20:01:23Z</time>
      </trkpt>
      <trkpt lat="48.45542" lon="2.12379">
        <ele>149.647728</ele>
        <time>2013-07-25T20:01:28Z</time>
      </trkpt>
      <trkpt lat="48.45565" lon="2.12448">
        <ele>149.707221</ele>
        <time>2013-07-25T20:01:33Z</time>
      </trkpt>
      <trkpt lat="48.45591" lon="2.12527">
        <ele>149.423468</ele>
        <time>2013-07-25T20:01:38Z</time>
      </trkpt>
      <trkpt lat="48.45617" lon="2.12604">
        <ele>148.453032</ele>
        <time>2013-07-25T20:01:43Z</time>
      </trkpt>
      <trkpt lat="48.45636" lon="2.12633">
        <ele>148.844266</ele>
        <time>2013-07-25T20:01:48Z</time>
      </trkpt>
      <trkpt lat="48.45682" lon="2.12614">
        <ele>150.150024</ele>
        <time>2013-07-25T20:01:53Z</time>
      </trkpt>
      <trkpt lat="48.45739" lon="2.12591">
        <ele>149.969843</ele>
        <time>2013-07-25T20:01:58Z</time>
      </trkpt>
      <trkpt lat="48.45798" lon="2.12569">
        <ele>149.237984</ele>
        <time>2013-07-25T20:02:03Z</time>
      </trkpt>
      <trkpt lat="48.45846" lon="2.12548">
        <ele>146.348327</ele>
        <time>2013-07-25T20:02:08Z</time>
      </trkpt>
      <trkpt lat="48.45881" lon="2.12535">
        <ele>142.086222</ele>
        <time>2013-07-25T20:02:13Z</time>
      </trkpt>
      <trkpt lat="48.45904" lon="2.12532">
        <ele>141.396818</ele>
        <time>2013-07-25T20:02:18Z</time>
      </trkpt>
      <trkpt lat="48.45938" lon="2.1256">
        <ele>144.204961</ele>
        <time>2013-07-25T20:02:23Z</time>
      </trkpt>
      <trkpt lat="48.45948" lon="2.12569">
        <ele>143.627701</ele>
        <time>2013-07-25T20:02:28Z</time>
      </trkpt>
      <trkpt lat="48.45948" lon="2.12569">
        <ele>143.627701</ele>
        <time>2013-07-25T20:02:33Z</time>
      </trkpt>
      <trkpt lat="48.45948" lon="2.12569">
        <ele>143.627701</ele>
        <time>2013-07-25T20:02:38Z</time>
      </trkpt>
      <trkpt lat="48.45948" lon="2.12569">
        <ele>143.627701</ele>
        <time>2013-07-25T20:02:43Z</time>
      </trkpt>
      <trkpt lat="48.45948" lon="2.12569">
        <ele>143.627701</ele>
        <time>2013-07-25T20:02:48Z</time>
      </trkpt>
      <trkpt lat="48.45948" lon="2.12569">
        <ele>143.627701</ele>
        <time>2013-07-25T20:02:53Z</time>
      </trkpt>
      <trkpt lat="48.45948" lon="2.12569">
        <ele>143.627701</ele>
        <time>2013-07-25T20:02:58Z</time>
      </trkpt>
      <trkpt lat="48.45948" lon="2.12569">
        <ele>143.627701</ele>
        <time>2013-07-25T20:03:03Z</time>
      </trkpt>
      <trkpt lat="48.45948" lon="2.12569">
        <ele>143.627701</ele>
        <time>2013-07-25T20:03:08Z</time>
      </trkpt>
      <trkpt lat="48.45948" lon="2.12569">
        <ele>143.627701</ele>
        <time>2013-07-25T20:03:13Z</time>
      </trkpt>
      <trkpt lat="48.45948" lon="2.12569">
        <ele>143.627701</ele>
        <time>2013-07-25T20:03:18Z</time>
      </trkpt>
      <trkpt lat="48.45948" lon="2.12569">
        <ele>143.627701</ele>
        <time>2013-07-25T20:03:23Z</time>
      </trkpt>
      <trkpt lat="48.45948" lon="2.12569">
        <ele>143.627701</ele>
        <time>2013-07-25T20:03:28Z</time>
      </trkpt>
      <trkpt lat="48.45948" lon="2.12569">
        <ele>143.627701</ele>
        <time>2013-07-25T20:03:33Z</time>
      </trkpt>
      <trkpt lat="48.45955" lon="2.12576">
        <ele>144.265457</ele>
        <time>2013-07-25T20:03:38Z</time>
      </trkpt>
      <trkpt lat="48.45984" lon="2.12614">
        <ele>144.080684</ele>
        <time>2013-07-25T20:03:43Z</time>
      </trkpt>
      <trkpt lat="48.46009" lon="2.12646">
        <ele>145.700012</ele>
        <time>2013-07-25T20:03:48Z</time>
      </trkpt>
      <trkpt lat="48.46013" lon="2.12673">
        <ele>145.038413</ele>
        <time>2013-07-25T20:03:53Z</time>
      </trkpt>
      <trkpt lat="48.46" lon="2.12713">
        <ele>144.255986</ele>
        <time>2013-07-25T20:03:58Z</time>
      </trkpt>
      <trkpt lat="48.46" lon="2.12754">
        <ele>144.331784</ele>
        <time>2013-07-25T20:04:03Z</time>
      </trkpt>
      <trkpt lat="48.46006" lon="2.12792">
        <ele>144.787519</ele>
        <time>2013-07-25T20:04:08Z</time>
      </trkpt>
      <trkpt lat="48.46014" lon="2.12827">
        <ele>144.617259</ele>
        <time>2013-07-25T20:04:13Z</time>
      </trkpt>
      <trkpt lat="48.46032" lon="2.12859">
        <ele>144.97393</ele>
        <time>2013-07-25T20:04:18Z</time>
      </trkpt>
      <trkpt lat="48.46052" lon="2.12882">
        <ele>144.667272</ele>
        <time>2013-07-25T20:04:23Z</time>
      </trkpt>
      <trkpt lat="48.46079" lon="2.12911">
        <ele>144.913054</ele>
        <time>2013-07-25T20:04:28Z</time>
      </trkpt>
      <trkpt lat="48.46102" lon="2.12946">
        <ele>145.66278</ele>
        <time>2013-07-25T20:04:33Z</time>
      </trkpt>
      <trkpt lat="48.46122" lon="2.1299">
        <ele>145.750873</ele>
        <time>2013-07-25T20:04:38Z</time>
      </trkpt>
      <trkpt lat="48.46144" lon="2.13026">
        <ele>146.525668</ele>
        <time>2013-07-25T20:04:43Z</time>
      </trkpt>
      <trkpt lat="48.46179" lon="2.13059">
        <ele>145.925533</ele>
        <time>2013-07-25T20:04:48Z</time>
      </trkpt>
      <trkpt lat="48.46214" lon="2.1309">
        <ele>145.386926</ele>
        <time>2013-07-25T20:04:53Z</time>
      </trkpt>
      <trkpt lat="48.46254" lon="2.13123">
        <ele>143.719751</ele>
        <time>2013-07-25T20:04:58Z</time>
      </trkpt>
      <trkpt lat="48.46294" lon="2.13156">
        <ele>143.464146</ele>
        <time>2013-07-25T20:05:03Z</time>
      </trkpt>
      <trkpt lat="48.46336" lon="2.13193">
        <ele>144.203254</ele>
        <time>2013-07-25T20:05:08Z</time>
      </trkpt>
      <trkpt lat="48.46371" lon="2.13241">
        <ele>146.060645</ele>
        <time>2013-07-25T20:05:13Z</time>
      </trkpt>
      <trkpt lat="48.46392" lon="2.13268">
        <ele>147.98982</ele>
        <time>2013-07-25T20:05:18Z</time>
      </trkpt>
      <trkpt lat="48.46396" lon="2.13252">
        <ele>148.61407</ele>
        <time>2013-07-25T20:05:23Z</time>
      </trkpt>
      <trkpt lat="48.46396" lon="2.13252">
        <ele>148.61407</ele>
        <time>2013-07-25T20:05:28Z</time>
      </trkpt>
      <trkpt lat="48.46396" lon="2.13252">
        <ele>148.61407</ele>
        <time>2013-07-25T20:05:33Z</time>
      </trkpt>
      <trkpt lat="48.46396" lon="2.13252">
        <ele>148.61407</ele>
        <time>2013-07-25T20:05:38Z</time>
      </trkpt>
      <trkpt lat="48.46396" lon="2.1325">
        <ele>148.589396</ele>
        <time>2013-07-25T20:05:43Z</time>
      </trkpt>
      <trkpt lat="48.46396" lon="2.1325">
        <ele>148.589396</ele>
        <time>2013-07-25T20:05:48Z</time>
      </trkpt>
      <trkpt lat="48.46402" lon="2.13229">
        <ele>147.212999</ele>
        <time>2013-07-25T20:05:53Z</time>
      </trkpt>
      <trkpt lat="48.46402" lon="2.13225">
        <ele>146.390446</ele>
        <time>2013-07-25T20:05:58Z</time>
      </trkpt>
      <trkpt lat="48.464" lon="2.13229">
        <ele>147.041183</ele>
        <time>2013-07-25T20:06:03Z</time>
      </trkpt>
      <trkpt lat="48.46394" lon="2.13257">
        <ele>147.215691</ele>
        <time>2013-07-25T20:06:08Z</time>
      </trkpt>
      <trkpt lat="48.46391" lon="2.13273">
        <ele>146.591449</ele>
        <time>2013-07-25T20:06:13Z</time>
      </trkpt>
      <trkpt lat="48.46389" lon="2.1328">
        <ele>146.628929</ele>
        <time>2013-07-25T20:06:18Z</time>
      </trkpt>
      <trkpt lat="48.46389" lon="2.1328">
        <ele>146.628929</ele>
        <time>2013-07-25T20:06:23Z</time>
      </trkpt>
      <trkpt lat="48.46389" lon="2.1328">
        <ele>146.628929</ele>
        <time>2013-07-25T20:06:28Z</time>
      </trkpt>
      <trkpt lat="48.46389" lon="2.1328">
        <ele>146.628929</ele>
        <time>2013-07-25T20:06:33Z</time>
      </trkpt>
      <trkpt lat="48.46389" lon="2.1328">
        <ele>146.628929</ele>
        <time>2013-07-25T20:06:38Z</time>
      </trkpt>
      <trkpt lat="48.46389" lon="2.1328">
        <ele>146.628929</ele>
        <time>2013-07-25T20:06:43Z</time>
      </trkpt>
      <trkpt lat="48.46389" lon="2.1328">
        <ele>146.628929</ele>
        <time>2013-07-25T20:06:48Z</time>
      </trkpt>
      <trkpt lat="48.46383" lon="2.13308">
        <ele>146.055034</ele>
        <time>2013-07-25T20:06:53Z</time>
      </trkpt>
      <trkpt lat="48.46376" lon="2.13374">
        <ele>145.423893</ele>
        <time>2013-07-25T20:06:58Z</time>
      </trkpt>
      <trkpt lat="48.46374" lon="2.13424">
        <ele>145.588936</ele>
        <time>2013-07-25T20:07:03Z</time>
      </trkpt>
      <trkpt lat="48.46382" lon="2.13464">
        <ele>144.746751</ele>
        <time>2013-07-25T20:07:08Z</time>
      </trkpt>
      <trkpt lat="48.464" lon="2.13517">
        <ele>144.176384</ele>
        <time>2013-07-25T20:07:13Z</time>
      </trkpt>
      <trkpt lat="48.46409" lon="2.13565">
        <ele>142.906095</ele>
        <time>2013-07-25T20:07:18Z</time>
      </trkpt>
      <trkpt lat="48.46406" lon="2.13624">
        <ele>143.82168</ele>
        <time>2013-07-25T20:07:23Z</time>
      </trkpt>
      <trkpt lat="48.46389" lon="2.13695">
        <ele>144.763635</ele>
        <time>2013-07-25T20:07:28Z</time>
      </trkpt>
      <trkpt lat="48.46383" lon="2.1378">
        <ele>146.726565</ele>
        <time>2013-07-25T20:07:33Z</time>
      </trkpt>
      <trkpt lat="48.4639" lon="2.13808">
        <ele>147.736745</ele>
        <time>2013-07-25T20:07:38Z</time>
      </trkpt>
      <trkpt lat="48.46439" lon="2.13806">
        <ele>148.853461</ele>
        <time>2013-07-25T20:07:43Z</time>
      </trkpt>
      <trkpt lat="48.46484" lon="2.13783">
        <ele>148.593255</ele>
        <time>2013-07-25T20:07:48Z</time>
      </trkpt>
      <trkpt lat="48.46524" lon="2.13735">
        <ele>150.342167</ele>
        <time>2013-07-25T20:07:53Z</time>
      </trkpt>
      <trkpt lat="48.46574" lon="2.13689">
        <ele>152.828654</ele>
        <time>2013-07-25T20:07:58Z</time>
      </trkpt>
      <trkpt lat="48.46621" lon="2.13653">
        <ele>153.819782</ele>
        <time>2013-07-25T20:08:03Z</time>
      </trkpt>
      <trkpt lat="48.46668" lon="2.1362">
        <ele>154.946847</ele>
        <time>2013-07-25T20:08:08Z</time>
      </trkpt>
      <trkpt lat="48.46712" lon="2.13584">
        <ele>155.767064</ele>
        <time>2013-07-25T20:08:13Z</time>
      </trkpt>
      <trkpt lat="48.46754" lon="2.1354">
        <ele>156.267537</ele>
        <time>2013-07-25T20:08:18Z</time>
      </trkpt>
      <trkpt lat="48.46797" lon="2.13496">
        <ele>156.19194</ele>
        <time>2013-07-25T20:08:23Z</time>
      </trkpt>
      <trkpt lat="48.46837" lon="2.13445">
        <ele>155.735353</ele>
        <time>2013-07-25T20:08:28Z</time>
      </trkpt>
      <trkpt lat="48.46876" lon="2.13391">
        <ele>155.143894</ele>
        <time>2013-07-25T20:08:33Z</time>
      </trkpt>
      <trkpt lat="48.46911" lon="2.13345">
        <ele>153.780397</ele>
        <time>2013-07-25T20:08:38Z</time>
      </trkpt>
      <trkpt lat="48.46943" lon="2.13304">
        <ele>153.006505</ele>
        <time>2013-07-25T20:08:43Z</time>
      </trkpt>
      <trkpt lat="48.46976" lon="2.13262">
        <ele>152.956886</ele>
        <time>2013-07-25T20:08:48Z</time>
      </trkpt>
      <trkpt lat="48.47008" lon="2.13225">
        <ele>152.981628</ele>
        <time>2013-07-25T20:08:53Z</time>
      </trkpt>
      <trkpt lat="48.47045" lon="2.13184">
        <ele>152.553021</ele>
        <time>2013-07-25T20:08:58Z</time>
      </trkpt>
      <trkpt lat="48.47082" lon="2.13144">
        <ele>152.12482</ele>
        <time>2013-07-25T20:09:03Z</time>
      </trkpt>
      <trkpt lat="48.47115" lon="2.13111">
        <ele>152.997858</ele>
        <time>2013-07-25T20:09:08Z</time>
      </trkpt>
      <trkpt lat="48.47154" lon="2.13075">
        <ele>152.730455</ele>
        <time>2013-07-25T20:09:13Z</time>
      </trkpt>
      <trkpt lat="48.47197" lon="2.13036">
        <ele>152.758568</ele>
        <time>2013-07-25T20:09:18Z</time>
      </trkpt>
      <trkpt lat="48.47239" lon="2.12999">
        <ele>152.725702</ele>
        <time>2013-07-25T20:09:23Z</time>
      </trkpt>
      <trkpt lat="48.47279" lon="2.12963">
        <ele>153.294331</ele>
        <time>2013-07-25T20:09:28Z</time>
      </trkpt>
      <trkpt lat="48.47324" lon="2.12921">
        <ele>153.360746</ele>
        <time>2013-07-25T20:09:33Z</time>
      </trkpt>
      <trkpt lat="48.47369" lon="2.12881">
        <ele>154.200973</ele>
        <time>2013-07-25T20:09:38Z</time>
      </trkpt>
      <trkpt lat="48.47416" lon="2.12837">
        <ele>154.391526</ele>
        <time>2013-07-25T20:09:43Z</time>
      </trkpt>
      <trkpt lat="48.47466" lon="2.12792">
        <ele>153.981737</ele>
        <time>2013-07-25T20:09:48Z</time>
      </trkpt>
      <trkpt lat="48.47516" lon="2.12748">
        <ele>152.27223</ele>
        <time>2013-07-25T20:09:53Z</time>
      </trkpt>
      <trkpt lat="48.47553" lon="2.12722">
        <ele>152.119595</ele>
        <time>2013-07-25T20:09:58Z</time>
      </trkpt>
      <trkpt lat="48.47585" lon="2.12739">
        <ele>152.47149</ele>
        <time>2013-07-25T20:10:03Z</time>
      </trkpt>
      <trkpt lat="48.47625" lon="2.12773">
        <ele>152.249647</ele>
        <time>2013-07-25T20:10:08Z</time>
      </trkpt>
      <trkpt lat="48.4767" lon="2.12796">
        <ele>151.513685</ele>
        <time>2013-07-25T20:10:13Z</time>
      </trkpt>
      <trkpt lat="48.4772" lon="2.12812">
        <ele>152.300313</ele>
        <time>2013-07-25T20:10:18Z</time>
      </trkpt>
      <trkpt lat="48.47778" lon="2.12829">
        <ele>152.304612</ele>
        <time>2013-07-25T20:10:23Z</time>
      </trkpt>
      <trkpt lat="48.47837" lon="2.12844">
        <ele>153.009063</ele>
        <time>2013-07-25T20:10:28Z</time>
      </trkpt>
      <trkpt lat="48.4789" lon="2.12839">
        <ele>152.938153</ele>
        <time>2013-07-25T20:10:33Z</time>
      </trkpt>
      <trkpt lat="48.47945" lon="2.12816">
        <ele>153.358151</ele>
        <time>2013-07-25T20:10:38Z</time>
      </trkpt>
      <trkpt lat="48.47997" lon="2.12791">
        <ele>152.83285</ele>
        <time>2013-07-25T20:10:43Z</time>
      </trkpt>
      <trkpt lat="48.48034" lon="2.12784">
        <ele>153.776838</ele>
        <time>2013-07-25T20:10:48Z</time>
      </trkpt>
      <trkpt lat="48.48076" lon="2.12771">
        <ele>154.194582</ele>
        <time>2013-07-25T20:10:53Z</time>
      </trkpt>
      <trkpt lat="48.48109" lon="2.12751">
        <ele>153.22293</ele>
        <time>2013-07-25T20:10:58Z</time>
      </trkpt>
      <trkpt lat="48.48127" lon="2.12745">
        <ele>152.897351</ele>
        <time>2013-07-25T20:11:03Z</time>
      </trkpt>
      <trkpt lat="48.48152" lon="2.12734">
        <ele>153.653837</ele>
        <time>2013-07-25T20:11:08Z</time>
      </trkpt>
      <trkpt lat="48.48194" lon="2.12733">
        <ele>153.631636</ele>
        <time>2013-07-25T20:11:13Z</time>
      </trkpt>
      <trkpt lat="48.48229" lon="2.12718">
        <ele>152.845592</ele>
        <time>2013-07-25T20:11:18Z</time>
      </trkpt>
      <trkpt lat="48.4826" lon="2.12692">
        <ele>152.26629</ele>
        <time>2013-07-25T20:11:23Z</time>
      </trkpt>
      <trkpt lat="48.48283" lon="2.12684">
        <ele>152.986297</ele>
        <time>2013-07-25T20:11:28Z</time>
      </trkpt>
      <trkpt lat="48.48299" lon="2.12674">
        <ele>153.163576</ele>
        <time>2013-07-25T20:11:33Z</time>
      </trkpt>
      <trkpt lat="48.48322" lon="2.1266">
        <ele>153.699014</ele>
        <time>2013-07-25T20:11:38Z</time>
      </trkpt>
      <trkpt lat="48.48362" lon="2.12637">
        <ele>151.700765</ele>
        <time>2013-07-25T20:11:43Z</time>
      </trkpt>
      <trkpt lat="48.484" lon="2.12613">
        <ele>153.076541</ele>
        <time>2013-07-25T20:11:48Z</time>
      </trkpt>
      <trkpt lat="48.48435" lon="2.12594">
        <ele>152.967041</ele>
        <time>2013-07-25T20:11:53Z</time>
      </trkpt>
      <trkpt lat="48.48468" lon="2.12574">
        <ele>150.500479</ele>
        <time>2013-07-25T20:11:58Z</time>
      </trkpt>
      <trkpt lat="48.48506" lon="2.12551">
        <ele>150.490605</ele>
        <time>2013-07-25T20:12:03Z</time>
      </trkpt>
      <trkpt lat="48.48539" lon="2.12528">
        <ele>148.724185</ele>
        <time>2013-07-25T20:12:08Z</time>
      </trkpt>
      <trkpt lat="48.48569" lon="2.12529">
        <ele>148.6387</ele>
        <time>2013-07-25T20:12:13Z</time>
      </trkpt>
      <trkpt lat="48.48605" lon="2.12546">
        <ele>147.844876</ele>
        <time>2013-07-25T20:12:18Z</time>
      </trkpt>
      <trkpt lat="48.48641" lon="2.12573">
        <ele>145.83686</ele>
        <time>2013-07-25T20:12:23Z</time>
      </trkpt>
      <trkpt lat="48.48652" lon="2.12587">
        <ele>148.27198</ele>
        <time>2013-07-25T20:12:28Z</time>
      </trkpt>
      <trkpt lat="48.48662" lon="2.12631">
        <ele>147.014694</ele>
        <time>2013-07-25T20:12:33Z</time>
      </trkpt>
      <trkpt lat="48.48677" lon="2.12654">
        <ele>147.059203</ele>
        <time>2013-07-25T20:12:38Z</time>
      </trkpt>
      <trkpt lat="48.487" lon="2.12657">
        <ele>145.069158</ele>
        <time>2013-07-25T20:12:43Z</time>
      </trkpt>
      <trkpt lat="48.48721" lon="2.12654">
        <ele>145.716633</ele>
        <time>2013-07-25T20:12:48Z</time>
      </trkpt>
      <trkpt lat="48.48732" lon="2.1265">
        <ele>146.421158</ele>
        <time>2013-07-25T20:12:53Z</time>
      </trkpt>
      <trkpt lat="48.48732" lon="2.1265">
        <ele>146.421158</ele>
        <time>2013-07-25T20:12:58Z</time>
      </trkpt>
      <trkpt lat="48.48737" lon="2.12651">
        <ele>148.202811</ele>
        <time>2013-07-25T20:13:03Z</time>
      </trkpt>
      <trkpt lat="48.48738" lon="2.1265">
        <ele>148.927028</ele>
        <time>2013-07-25T20:13:08Z</time>
      </trkpt>
      <trkpt lat="48.48738" lon="2.1265">
        <ele>148.927028</ele>
        <time>2013-07-25T20:13:13Z</time>
      </trkpt>
      <trkpt lat="48.48739" lon="2.1265">
        <ele>148.264699</ele>
        <time>2013-07-25T20:13:18Z</time>
      </trkpt>
      <trkpt lat="48.48739" lon="2.1265">
        <ele>148.264699</ele>
        <time>2013-07-25T20:13:23Z</time>
      </trkpt>
      <trkpt lat="48.48739" lon="2.12653">
        <ele>150.473834</ele>
        <time>2013-07-25T20:13:28Z</time>
      </trkpt>
      <trkpt lat="48.4874" lon="2.12654">
        <ele>149.836099</ele>
        <time>2013-07-25T20:13:33Z</time>
      </trkpt>
      <trkpt lat="48.4874" lon="2.12656">
        <ele>149.860693</ele>
        <time>2013-07-25T20:13:38Z</time>
      </trkpt>
      <trkpt lat="48.48743" lon="2.12656">
        <ele>151.531277</ele>
        <time>2013-07-25T20:13:43Z</time>
      </trkpt>
      <trkpt lat="48.48748" lon="2.12659">
        <ele>150.51526</ele>
        <time>2013-07-25T20:13:48Z</time>
      </trkpt>
      <trkpt lat="48.48768" lon="2.12662">
        <ele>150.450603</ele>
        <time>2013-07-25T20:13:53Z</time>
      </trkpt>
      <trkpt lat="48.48788" lon="2.12659">
        <ele>151.760676</ele>
        <time>2013-07-25T20:13:58Z</time>
      </trkpt>
      <trkpt lat="48.48814" lon="2.12642">
        <ele>153.1709</ele>
        <time>2013-07-25T20:14:03Z</time>
      </trkpt>
      <trkpt lat="48.48846" lon="2.12619">
        <ele>153.479724</ele>
        <time>2013-07-25T20:14:08Z</time>
      </trkpt>
      <trkpt lat="48.48865" lon="2.126">
        <ele>154.408554</ele>
        <time>2013-07-25T20:14:13Z</time>
      </trkpt>
      <trkpt lat="48.48862" lon="2.12593">
        <ele>154.77491</ele>
        <time>2013-07-25T20:14:18Z</time>
      </trkpt>
      <trkpt lat="48.48855" lon="2.12567">
        <ele>151.628781</ele>
        <time>2013-07-25T20:14:23Z</time>
      </trkpt>
      <trkpt lat="48.4885" lon="2.12548">
        <ele>150.938597</ele>
        <time>2013-07-25T20:14:28Z</time>
      </trkpt>
      <trkpt lat="48.48843" lon="2.12523">
        <ele>149.314808</ele>
        <time>2013-07-25T20:14:33Z</time>
      </trkpt>
      <trkpt lat="48.48837" lon="2.12501">
        <ele>149.900187</ele>
        <time>2013-07-25T20:14:38Z</time>
      </trkpt>
      <trkpt lat="48.48827" lon="2.12478">
        <ele>149.452713</ele>
        <time>2013-07-25T20:14:43Z</time>
      </trkpt>
      <trkpt lat="48.48819" lon="2.12452">
        <ele>150.540304</ele>
        <time>2013-07-25T20:14:48Z</time>
      </trkpt>
      <trkpt lat="48.48813" lon="2.12425">
        <ele>148.205301</ele>
        <time>2013-07-25T20:14:53Z</time>
      </trkpt>
      <trkpt lat="48.48804" lon="2.12404">
        <ele>147.893654</ele>
        <time>2013-07-25T20:14:58Z</time>
      </trkpt>
      <trkpt lat="48.48798" lon="2.12387">
        <ele>147.166414</ele>
        <time>2013-07-25T20:15:03Z</time>
      </trkpt>
      <trkpt lat="48.48797" lon="2.12385">
        <ele>146.368473</ele>
        <time>2013-07-25T20:15:08Z</time>
      </trkpt>
      <trkpt lat="48.48794" lon="2.12379">
        <ele>144.599604</ele>
        <time>2013-07-25T20:15:13Z</time>
      </trkpt>
      <trkpt lat="48.48786" lon="2.12371">
        <ele>144.595603</ele>
        <time>2013-07-25T20:15:18Z</time>
      </trkpt>
      <trkpt lat="48.48774" lon="2.1237">
        <ele>145.228329</ele>
        <time>2013-07-25T20:15:23Z</time>
      </trkpt>
      <trkpt lat="48.48754" lon="2.12378">
        <ele>144.740726</ele>
        <time>2013-07-25T20:15:28Z</time>
      </trkpt>
      <trkpt lat="48.48742" lon="2.1239">
        <ele>147.692614</ele>
        <time>2013-07-25T20:15:33Z</time>
      </trkpt>
      <trkpt lat="48.48726" lon="2.12405">
        <ele>147.587401</ele>
        <time>2013-07-25T20:15:38Z</time>
      </trkpt>
      <trkpt lat="48.48715" lon="2.12416">
        <ele>147.116685</ele>
        <time>2013-07-25T20:15:43Z</time>
      </trkpt>
      <trkpt lat="48.48711" lon="2.12423">
        <ele>147.642429</ele>
        <time>2013-07-25T20:15:48Z</time>
      </trkpt>
      <trkpt lat="48.48711" lon="2.12424">
        <ele>147.666996</ele>
        <time>2013-07-25T20:15:53Z</time>
      </trkpt>
      <trkpt lat="48.48711" lon="2.12424">
        <ele>147.666996</ele>
        <time>2013-07-25T20:15:58Z</time>
      </trkpt>
      <trkpt lat="48.48711" lon="2.12424">
        <ele>147.666996</ele>
        <time>2013-07-25T20:16:03Z</time>
      </trkpt>
      <trkpt lat="48.48711" lon="2.12424">
        <ele>147.666996</ele>
        <time>2013-07-25T20:16:08Z</time>
      </trkpt>
      <trkpt lat="48.48709" lon="2.12424">
        <ele>147.580523</ele>
        <time>2013-07-25T20:16:13Z</time>
      </trkpt>
      <trkpt lat="48.48709" lon="2.12424">
        <ele>147.580523</ele>
        <time>2013-07-25T20:16:18Z</time>
      </trkpt>
      <trkpt lat="48.48709" lon="2.12424">
        <ele>147.580523</ele>
        <time>2013-07-25T20:16:23Z</time>
      </trkpt>
      <trkpt lat="48.48709" lon="2.12424">
        <ele>147.580523</ele>
        <time>2013-07-25T20:16:28Z</time>
      </trkpt>
      <trkpt lat="48.48709" lon="2.12424">
        <ele>147.580523</ele>
        <time>2013-07-25T20:16:33Z</time>
      </trkpt>
      <trkpt lat="48.48709" lon="2.12424">
        <ele>147.580523</ele>
        <time>2013-07-25T20:16:38Z</time>
      </trkpt>
      <trkpt lat="48.48709" lon="2.12424">
        <ele>147.580523</ele>
        <time>2013-07-25T20:16:43Z</time>
      </trkpt>
      <trkpt lat="48.48709" lon="2.12426">
        <ele>146.856284</ele>
        <time>2013-07-25T20:16:48Z</time>
      </trkpt>
      <trkpt lat="48.48709" lon="2.12427">
        <ele>146.880852</ele>
        <time>2013-07-25T20:16:53Z</time>
      </trkpt>
      <trkpt lat="48.48709" lon="2.12427">
        <ele>146.880852</ele>
        <time>2013-07-25T20:16:58Z</time>
      </trkpt>
      <trkpt lat="48.48708" lon="2.12431">
        <ele>144.794609</ele>
        <time>2013-07-25T20:17:03Z</time>
      </trkpt>
      <trkpt lat="48.48708" lon="2.12437">
        <ele>142.070603</ele>
        <time>2013-07-25T20:17:08Z</time>
      </trkpt>
      <trkpt lat="48.48708" lon="2.12438">
        <ele>141.346366</ele>
        <time>2013-07-25T20:17:13Z</time>
      </trkpt>
      <trkpt lat="48.48708" lon="2.12439">
        <ele>141.370935</ele>
        <time>2013-07-25T20:17:18Z</time>
      </trkpt>
      <trkpt lat="48.48706" lon="2.12441">
        <ele>141.309031</ele>
        <time>2013-07-25T20:17:23Z</time>
      </trkpt>
      <trkpt lat="48.48706" lon="2.12441">
        <ele>141.971365</ele>
        <time>2013-07-25T20:17:28Z</time>
      </trkpt>
      <trkpt lat="48.48705" lon="2.1244">
        <ele>142.633699</ele>
        <time>2013-07-25T20:17:33Z</time>
      </trkpt>
      <trkpt lat="48.48705" lon="2.1244">
        <ele>142.633699</ele>
        <time>2013-07-25T20:17:38Z</time>
      </trkpt>
      <trkpt lat="48.48705" lon="2.12439">
        <ele>142.60913</ele>
        <time>2013-07-25T20:17:43Z</time>
      </trkpt>
      <trkpt lat="48.48703" lon="2.1244">
        <ele>143.209561</ele>
        <time>2013-07-25T20:17:48Z</time>
      </trkpt>
      <trkpt lat="48.48703" lon="2.12439">
        <ele>143.184992</ele>
        <time>2013-07-25T20:17:53Z</time>
      </trkpt>
      <trkpt lat="48.48703" lon="2.12438">
        <ele>144.571562</ele>
        <time>2013-07-25T20:17:58Z</time>
      </trkpt>
      <trkpt lat="48.48703" lon="2.12439">
        <ele>146.007271</ele>
        <time>2013-07-25T20:18:03Z</time>
      </trkpt>
      <trkpt lat="48.48703" lon="2.1244">
        <ele>146.03184</ele>
        <time>2013-07-25T20:18:08Z</time>
      </trkpt>
      <trkpt lat="48.48703" lon="2.1244">
        <ele>146.03184</ele>
        <time>2013-07-25T20:18:13Z</time>
      </trkpt>
      <trkpt lat="48.48704" lon="2.12442">
        <ele>147.554021</ele>
        <time>2013-07-25T20:18:18Z</time>
      </trkpt>
      <trkpt lat="48.48704" lon="2.12442">
        <ele>147.554021</ele>
        <time>2013-07-25T20:18:23Z</time>
      </trkpt>
      <trkpt lat="48.48704" lon="2.12442">
        <ele>147.554021</ele>
        <time>2013-07-25T20:18:28Z</time>
      </trkpt>
      <trkpt lat="48.48704" lon="2.12442">
        <ele>147.554021</ele>
        <time>2013-07-25T20:18:33Z</time>
      </trkpt>
      <trkpt lat="48.48703" lon="2.12443">
        <ele>148.240924</ele>
        <time>2013-07-25T20:18:38Z</time>
      </trkpt>
      <trkpt lat="48.48703" lon="2.12443">
        <ele>148.240924</ele>
        <time>2013-07-25T20:18:43Z</time>
      </trkpt>
      <trkpt lat="48.48703" lon="2.12443">
        <ele>148.240924</ele>
        <time>2013-07-25T20:18:48Z</time>
      </trkpt>
      <trkpt lat="48.48703" lon="2.12444">
        <ele>148.265494</ele>
        <time>2013-07-25T20:18:53Z</time>
      </trkpt>
      <trkpt lat="48.48703" lon="2.12444">
        <ele>148.265494</ele>
        <time>2013-07-25T20:18:58Z</time>
      </trkpt>
      <trkpt lat="48.48704" lon="2.12446">
        <ele>149.038869</ele>
        <time>2013-07-25T20:19:03Z</time>
      </trkpt>
      <trkpt lat="48.48703" lon="2.12448">
        <ele>149.750343</ele>
        <time>2013-07-25T20:19:08Z</time>
      </trkpt>
      <trkpt lat="48.48703" lon="2.12448">
        <ele>149.750343</ele>
        <time>2013-07-25T20:19:13Z</time>
      </trkpt>
      <trkpt lat="48.48703" lon="2.12448">
        <ele>149.750343</ele>
        <time>2013-07-25T20:19:18Z</time>
      </trkpt>
      <trkpt lat="48.48702" lon="2.1245">
        <ele>150.437247</ele>
        <time>2013-07-25T20:19:23Z</time>
      </trkpt>
      <trkpt lat="48.48702" lon="2.1245">
        <ele>150.437247</ele>
        <time>2013-07-25T20:19:28Z</time>
      </trkpt>
      <trkpt lat="48.48702" lon="2.1245">
        <ele>150.437247</ele>
        <time>2013-07-25T20:19:33Z</time>
      </trkpt>
      <trkpt lat="48.48702" lon="2.1245">
        <ele>150.437247</ele>
        <time>2013-07-25T20:19:38Z</time>
      </trkpt>
      <trkpt lat="48.48702" lon="2.12451">
        <ele>149.713012</ele>
        <time>2013-07-25T20:19:43Z</time>
      </trkpt>
      <trkpt lat="48.48702" lon="2.12451">
        <ele>149.713012</ele>
        <time>2013-07-25T20:19:48Z</time>
      </trkpt>
      <trkpt lat="48.48702" lon="2.1245">
        <ele>149.688442</ele>
        <time>2013-07-25T20:19:53Z</time>
      </trkpt>
      <trkpt lat="48.48702" lon="2.1245">
        <ele>149.688442</ele>
        <time>2013-07-25T20:19:58Z</time>
      </trkpt>
      <trkpt lat="48.48702" lon="2.1245">
        <ele>149.688442</ele>
        <time>2013-07-25T20:20:03Z</time>
      </trkpt>
      <trkpt lat="48.48702" lon="2.1245">
        <ele>149.688442</ele>
        <time>2013-07-25T20:20:08Z</time>
      </trkpt>
      <trkpt lat="48.48702" lon="2.12448">
        <ele>149.663871</ele>
        <time>2013-07-25T20:20:13Z</time>
      </trkpt>
      <trkpt lat="48.48703" lon="2.12448">
        <ele>149.750343</ele>
        <time>2013-07-25T20:20:18Z</time>
      </trkpt>
      <trkpt lat="48.48702" lon="2.12446">
        <ele>149.614732</ele>
        <time>2013-07-25T20:20:23Z</time>
      </trkpt>
      <trkpt lat="48.48703" lon="2.12446">
        <ele>148.952397</ele>
        <time>2013-07-25T20:20:28Z</time>
      </trkpt>
      <trkpt lat="48.48704" lon="2.12444">
        <ele>150.425439</ele>
        <time>2013-07-25T20:20:33Z</time>
      </trkpt>
      <trkpt lat="48.48704" lon="2.12446">
        <ele>150.450009</ele>
        <time>2013-07-25T20:20:38Z</time>
      </trkpt>
      <trkpt lat="48.48704" lon="2.12446">
        <ele>150.450009</ele>
        <time>2013-07-25T20:20:43Z</time>
      </trkpt>
      <trkpt lat="48.48705" lon="2.12444">
        <ele>150.511911</ele>
        <time>2013-07-25T20:20:48Z</time>
      </trkpt>
      <trkpt lat="48.48703" lon="2.1244">
        <ele>151.014065</ele>
        <time>2013-07-25T20:20:53Z</time>
      </trkpt>
      <trkpt lat="48.48703" lon="2.12441">
        <ele>151.038634</ele>
        <time>2013-07-25T20:20:58Z</time>
      </trkpt>
      <trkpt lat="48.48701" lon="2.12431">
        <ele>152.080282</ele>
        <time>2013-07-25T20:21:03Z</time>
      </trkpt>
      <trkpt lat="48.48696" lon="2.12413">
        <ele>152.826169</ele>
        <time>2013-07-25T20:21:08Z</time>
      </trkpt>
      <trkpt lat="48.48692" lon="2.12398">
        <ele>153.707684</ele>
        <time>2013-07-25T20:21:13Z</time>
      </trkpt>
      <trkpt lat="48.48688" lon="2.1238">
        <ele>153.042489</ele>
        <time>2013-07-25T20:21:18Z</time>
      </trkpt>
      <trkpt lat="48.48682" lon="2.12362">
        <ele>153.039662</ele>
        <time>2013-07-25T20:21:23Z</time>
      </trkpt>
      <trkpt lat="48.48677" lon="2.12347">
        <ele>151.674844</ele>
        <time>2013-07-25T20:21:28Z</time>
      </trkpt>
      <trkpt lat="48.48671" lon="2.12332">
        <ele>150.97239</ele>
        <time>2013-07-25T20:21:33Z</time>
      </trkpt>
      <trkpt lat="48.48665" lon="2.12315">
        <ele>149.583068</ele>
        <time>2013-07-25T20:21:38Z</time>
      </trkpt>
      <trkpt lat="48.48659" lon="2.12303">
        <ele>147.518634</ele>
        <time>2013-07-25T20:21:43Z</time>
      </trkpt>
      <trkpt lat="48.48657" lon="2.12289">
        <ele>145.689046</ele>
        <time>2013-07-25T20:21:48Z</time>
      </trkpt>
      <trkpt lat="48.48653" lon="2.12276">
        <ele>143.024216</ele>
        <time>2013-07-25T20:21:53Z</time>
      </trkpt>
      <trkpt lat="48.4865" lon="2.12264">
        <ele>140.470411</ele>
        <time>2013-07-25T20:21:58Z</time>
      </trkpt>
      <trkpt lat="48.48648" lon="2.12253">
        <ele>139.438767</ele>
        <time>2013-07-25T20:22:03Z</time>
      </trkpt>
      <trkpt lat="48.48648" lon="2.12246">
        <ele>138.567231</ele>
        <time>2013-07-25T20:22:08Z</time>
      </trkpt>
      <trkpt lat="48.48646" lon="2.12237">
        <ele>136.149008</ele>
        <time>2013-07-25T20:22:13Z</time>
      </trkpt>
      <trkpt lat="48.4865" lon="2.12222">
        <ele>133.978443</ele>
        <time>2013-07-25T20:22:18Z</time>
      </trkpt>
      <trkpt lat="48.4865" lon="2.12206">
        <ele>132.272783</ele>
        <time>2013-07-25T20:22:23Z</time>
      </trkpt>
      <trkpt lat="48.4865" lon="2.12202">
        <ele>130.039216</ele>
        <time>2013-07-25T20:22:28Z</time>
      </trkpt>
      <trkpt lat="48.48647" lon="2.12199">
        <ele>130.47956</ele>
        <time>2013-07-25T20:22:33Z</time>
      </trkpt>
      <trkpt lat="48.48648" lon="2.12195">
        <ele>126.921311</ele>
        <time>2013-07-25T20:22:38Z</time>
      </trkpt>
      <trkpt lat="48.48647" lon="2.12192">
        <ele>124.712288</ele>
        <time>2013-07-25T20:22:43Z</time>
      </trkpt>
      <trkpt lat="48.48647" lon="2.12194">
        <ele>123.325687</ele>
        <time>2013-07-25T20:22:48Z</time>
      </trkpt>
      <trkpt lat="48.48648" lon="2.12196">
        <ele>124.123569</ele>
        <time>2013-07-25T20:22:53Z</time>
      </trkpt>
      <trkpt lat="48.48648" lon="2.12196">
        <ele>124.123569</ele>
        <time>2013-07-25T20:22:58Z</time>
      </trkpt>
      <trkpt lat="48.48646" lon="2.12196">
        <ele>124.037112</ele>
        <time>2013-07-25T20:23:03Z</time>
      </trkpt>
      <trkpt lat="48.48646" lon="2.12196">
        <ele>124.037112</ele>
        <time>2013-07-25T20:23:08Z</time>
      </trkpt>
      <trkpt lat="48.48646" lon="2.12195">
        <ele>123.263772</ele>
        <time>2013-07-25T20:23:13Z</time>
      </trkpt>
      <trkpt lat="48.48643" lon="2.12191">
        <ele>122.268438</ele>
        <time>2013-07-25T20:23:18Z</time>
      </trkpt>
      <trkpt lat="48.4864" lon="2.12187">
        <ele>122.021906</ele>
        <time>2013-07-25T20:23:23Z</time>
      </trkpt>
      <trkpt lat="48.48638" lon="2.12181">
        <ele>123.161979</ele>
        <time>2013-07-25T20:23:28Z</time>
      </trkpt>
      <trkpt lat="48.48637" lon="2.12173">
        <ele>122.265946</ele>
        <time>2013-07-25T20:23:33Z</time>
      </trkpt>
      <trkpt lat="48.48634" lon="2.12168">
        <ele>121.246087</ele>
        <time>2013-07-25T20:23:38Z</time>
      </trkpt>
      <trkpt lat="48.48631" lon="2.12158">
        <ele>120.152621</ele>
        <time>2013-07-25T20:23:43Z</time>
      </trkpt>
      <trkpt lat="48.48634" lon="2.1215">
        <ele>115.944883</ele>
        <time>2013-07-25T20:23:48Z</time>
      </trkpt>
      <trkpt lat="48.48634" lon="2.1215">
        <ele>115.944883</ele>
        <time>2013-07-25T20:23:53Z</time>
      </trkpt>
      <trkpt lat="48.48634" lon="2.1215">
        <ele>115.944883</ele>
        <time>2013-07-25T20:23:58Z</time>
      </trkpt>
      <trkpt lat="48.48639" lon="2.12149">
        <ele>114.106224</ele>
        <time>2013-07-25T20:24:03Z</time>
      </trkpt>
      <trkpt lat="48.48668" lon="2.12148">
        <ele>111.063465</ele>
        <time>2013-07-25T20:24:08Z</time>
      </trkpt>
      <trkpt lat="48.48715" lon="2.12147">
        <ele>109.98027</ele>
        <time>2013-07-25T20:24:13Z</time>
      </trkpt>
      <trkpt lat="48.48761" lon="2.12143">
        <ele>108.761954</ele>
        <time>2013-07-25T20:24:18Z</time>
      </trkpt>
      <trkpt lat="48.48809" lon="2.12124">
        <ele>108.747289</ele>
        <time>2013-07-25T20:24:23Z</time>
      </trkpt>
      <trkpt lat="48.48855" lon="2.12109">
        <ele>108.082391</ele>
        <time>2013-07-25T20:24:28Z</time>
      </trkpt>
      <trkpt lat="48.48907" lon="2.12104">
        <ele>107.911189</ele>
        <time>2013-07-25T20:24:33Z</time>
      </trkpt>
      <trkpt lat="48.48976" lon="2.12112">
        <ele>105.626183</ele>
        <time>2013-07-25T20:24:39Z</time>
      </trkpt>
      <trkpt lat="48.49023" lon="2.12131">
        <ele>106.324912</ele>
        <time>2013-07-25T20:24:44Z</time>
      </trkpt>
      <trkpt lat="48.49071" lon="2.12147">
        <ele>105.625922</ele>
        <time>2013-07-25T20:24:49Z</time>
      </trkpt>
      <trkpt lat="48.49125" lon="2.12155">
        <ele>108.035334</ele>
        <time>2013-07-25T20:24:54Z</time>
      </trkpt>
      <trkpt lat="48.49186" lon="2.12162">
        <ele>110.878273</ele>
        <time>2013-07-25T20:24:59Z</time>
      </trkpt>
      <trkpt lat="48.49237" lon="2.12159">
        <ele>112.832832</ele>
        <time>2013-07-25T20:25:04Z</time>
      </trkpt>
      <trkpt lat="48.49281" lon="2.12135">
        <ele>109.666833</ele>
        <time>2013-07-25T20:25:09Z</time>
      </trkpt>
      <trkpt lat="48.49324" lon="2.12116">
        <ele>106.488218</ele>
        <time>2013-07-25T20:25:14Z</time>
      </trkpt>
      <trkpt lat="48.49364" lon="2.12098">
        <ele>103.934658</ele>
        <time>2013-07-25T20:25:19Z</time>
      </trkpt>
      <trkpt lat="48.49411" lon="2.12072">
        <ele>103.054125</ele>
        <time>2013-07-25T20:25:24Z</time>
      </trkpt>
      <trkpt lat="48.49458" lon="2.12052">
        <ele>102.958921</ele>
        <time>2013-07-25T20:25:29Z</time>
      </trkpt>
      <trkpt lat="48.49505" lon="2.12058">
        <ele>102.754473</ele>
        <time>2013-07-25T20:25:34Z</time>
      </trkpt>
      <trkpt lat="48.4955" lon="2.12094">
        <ele>102.916626</ele>
        <time>2013-07-25T20:25:39Z</time>
      </trkpt>
      <trkpt lat="48.49591" lon="2.1214">
        <ele>103.015441</ele>
        <time>2013-07-25T20:25:44Z</time>
      </trkpt>
      <trkpt lat="48.49641" lon="2.12163">
        <ele>101.868925</ele>
        <time>2013-07-25T20:25:49Z</time>
      </trkpt>
      <trkpt lat="48.49681" lon="2.12175">
        <ele>102.017541</ele>
        <time>2013-07-25T20:25:54Z</time>
      </trkpt>
      <trkpt lat="48.49725" lon="2.12169">
        <ele>101.334257</ele>
        <time>2013-07-25T20:25:59Z</time>
      </trkpt>
      <trkpt lat="48.49757" lon="2.12132">
        <ele>100.655499</ele>
        <time>2013-07-25T20:26:04Z</time>
      </trkpt>
      <trkpt lat="48.49802" lon="2.12119">
        <ele>100.599186</ele>
        <time>2013-07-25T20:26:09Z</time>
      </trkpt>
      <trkpt lat="48.49856" lon="2.12112">
        <ele>99.837526</ele>
        <time>2013-07-25T20:26:14Z</time>
      </trkpt>
      <trkpt lat="48.49901" lon="2.1212">
        <ele>99.48779</ele>
        <time>2013-07-25T20:26:19Z</time>
      </trkpt>
      <trkpt lat="48.49941" lon="2.12169">
        <ele>100.30071</ele>
        <time>2013-07-25T20:26:24Z</time>
      </trkpt>
      <trkpt lat="48.49979" lon="2.12226">
        <ele>101.174585</ele>
        <time>2013-07-25T20:26:29Z</time>
      </trkpt>
      <trkpt lat="48.50026" lon="2.12272">
        <ele>101.711286</ele>
        <time>2013-07-25T20:26:34Z</time>
      </trkpt>
      <trkpt lat="48.50073" lon="2.12307">
        <ele>99.867586</ele>
        <time>2013-07-25T20:26:39Z</time>
      </trkpt>
      <trkpt lat="48.50123" lon="2.12341">
        <ele>99.695992</ele>
        <time>2013-07-25T20:26:44Z</time>
      </trkpt>
      <trkpt lat="48.5016" lon="2.12369">
        <ele>99.196046</ele>
        <time>2013-07-25T20:26:49Z</time>
      </trkpt>
      <trkpt lat="48.50217" lon="2.12412">
        <ele>98.19594</ele>
        <time>2013-07-25T20:26:54Z</time>
      </trkpt>
      <trkpt lat="48.50278" lon="2.12451">
        <ele>97.383503</ele>
        <time>2013-07-25T20:26:59Z</time>
      </trkpt>
      <trkpt lat="48.50345" lon="2.12464">
        <ele>97.950656</ele>
        <time>2013-07-25T20:27:04Z</time>
      </trkpt>
      <trkpt lat="48.50412" lon="2.12482">
        <ele>97.181286</ele>
        <time>2013-07-25T20:27:09Z</time>
      </trkpt>
      <trkpt lat="48.50444" lon="2.12526">
        <ele>98.042095</ele>
        <time>2013-07-25T20:27:14Z</time>
      </trkpt>
      <trkpt lat="48.50469" lon="2.12559">
        <ele>98.296695</ele>
        <time>2013-07-25T20:27:19Z</time>
      </trkpt>
      <trkpt lat="48.5053" lon="2.12613">
        <ele>99.918218</ele>
        <time>2013-07-25T20:27:24Z</time>
      </trkpt>
      <trkpt lat="48.50601" lon="2.12658">
        <ele>101.315093</ele>
        <time>2013-07-25T20:27:29Z</time>
      </trkpt>
      <trkpt lat="48.50681" lon="2.12683">
        <ele>99.46869</ele>
        <time>2013-07-25T20:27:34Z</time>
      </trkpt>
      <trkpt lat="48.50762" lon="2.12715">
        <ele>97.746555</ele>
        <time>2013-07-25T20:27:39Z</time>
      </trkpt>
      <trkpt lat="48.5084" lon="2.12734">
        <ele>96.379476</ele>
        <time>2013-07-25T20:27:44Z</time>
      </trkpt>
      <trkpt lat="48.50929" lon="2.12725">
        <ele>95.830791</ele>
        <time>2013-07-25T20:27:49Z</time>
      </trkpt>
      <trkpt lat="48.51015" lon="2.12711">
        <ele>92.875613</ele>
        <time>2013-07-25T20:27:54Z</time>
      </trkpt>
      <trkpt lat="48.51096" lon="2.12697">
        <ele>90.984733</ele>
        <time>2013-07-25T20:27:59Z</time>
      </trkpt>
      <trkpt lat="48.51174" lon="2.12693">
        <ele>89.866748</ele>
        <time>2013-07-25T20:28:04Z</time>
      </trkpt>
      <trkpt lat="48.51231" lon="2.1266">
        <ele>92.397434</ele>
        <time>2013-07-25T20:28:09Z</time>
      </trkpt>
      <trkpt lat="48.51288" lon="2.12618">
        <ele>91.847492</ele>
        <time>2013-07-25T20:28:14Z</time>
      </trkpt>
      <trkpt lat="48.5134" lon="2.12578">
        <ele>92.497195</ele>
        <time>2013-07-25T20:28:19Z</time>
      </trkpt>
      <trkpt lat="48.51364" lon="2.12553">
        <ele>92.936604</ele>
        <time>2013-07-25T20:28:24Z</time>
      </trkpt>
      <trkpt lat="48.514" lon="2.12501">
        <ele>90.822332</ele>
        <time>2013-07-25T20:28:29Z</time>
      </trkpt>
      <trkpt lat="48.51426" lon="2.12434">
        <ele>90.588038</ele>
        <time>2013-07-25T20:28:34Z</time>
      </trkpt>
      <trkpt lat="48.51434" lon="2.12344">
        <ele>92.201101</ele>
        <time>2013-07-25T20:28:39Z</time>
      </trkpt>
      <trkpt lat="48.5142" lon="2.12278">
        <ele>94.210728</ele>
        <time>2013-07-25T20:28:44Z</time>
      </trkpt>
      <trkpt lat="48.51376" lon="2.12191">
        <ele>95.921873</ele>
        <time>2013-07-25T20:28:49Z</time>
      </trkpt>
      <trkpt lat="48.51348" lon="2.12087">
        <ele>97.69877</ele>
        <time>2013-07-25T20:28:54Z</time>
      </trkpt>
      <trkpt lat="48.51324" lon="2.11987">
        <ele>98.400494</ele>
        <time>2013-07-25T20:28:59Z</time>
      </trkpt>
      <trkpt lat="48.513" lon="2.11865">
        <ele>101.446417</ele>
        <time>2013-07-25T20:29:04Z</time>
      </trkpt>
      <trkpt lat="48.51313" lon="2.1175">
        <ele>105.793727</ele>
        <time>2013-07-25T20:29:09Z</time>
      </trkpt>
      <trkpt lat="48.5131" lon="2.11624">
        <ele>109.563142</ele>
        <time>2013-07-25T20:29:14Z</time>
      </trkpt>
      <trkpt lat="48.51268" lon="2.11493">
        <ele>116.229212</ele>
        <time>2013-07-25T20:29:19Z</time>
      </trkpt>
      <trkpt lat="48.51224" lon="2.11383">
        <ele>122.427403</ele>
        <time>2013-07-25T20:29:24Z</time>
      </trkpt>
      <trkpt lat="48.51206" lon="2.11262">
        <ele>128.075696</ele>
        <time>2013-07-25T20:29:29Z</time>
      </trkpt>
      <trkpt lat="48.51217" lon="2.11128">
        <ele>134.073023</ele>
        <time>2013-07-25T20:29:34Z</time>
      </trkpt>
      <trkpt lat="48.51203" lon="2.11011">
        <ele>138.647297</ele>
        <time>2013-07-25T20:29:39Z</time>
      </trkpt>
      <trkpt lat="48.51185" lon="2.10892">
        <ele>142.937175</ele>
        <time>2013-07-25T20:29:44Z</time>
      </trkpt>
      <trkpt lat="48.51209" lon="2.10784">
        <ele>146.70109</ele>
        <time>2013-07-25T20:29:49Z</time>
      </trkpt>
      <trkpt lat="48.51247" lon="2.10725">
        <ele>150.290502</ele>
        <time>2013-07-25T20:29:54Z</time>
      </trkpt>
      <trkpt lat="48.51286" lon="2.10685">
        <ele>150.737219</ele>
        <time>2013-07-25T20:29:59Z</time>
      </trkpt>
      <trkpt lat="48.51339" lon="2.1063">
        <ele>151.125656</ele>
        <time>2013-07-25T20:30:04Z</time>
      </trkpt>
      <trkpt lat="48.51386" lon="2.10569">
        <ele>151.731014</ele>
        <time>2013-07-25T20:30:09Z</time>
      </trkpt>
      <trkpt lat="48.51433" lon="2.10478">
        <ele>151.777498</ele>
        <time>2013-07-25T20:30:14Z</time>
      </trkpt>
      <trkpt lat="48.51471" lon="2.10352">
        <ele>151.931164</ele>
        <time>2013-07-25T20:30:19Z</time>
      </trkpt>
      <trkpt lat="48.515" lon="2.10242">
        <ele>151.106025</ele>
        <time>2013-07-25T20:30:24Z</time>
      </trkpt>
      <trkpt lat="48.51513" lon="2.10128">
        <ele>151.898406</ele>
        <time>2013-07-25T20:30:29Z</time>
      </trkpt>
      <trkpt lat="48.51504" lon="2.10008">
        <ele>150.388372</ele>
        <time>2013-07-25T20:30:34Z</time>
      </trkpt>
      <trkpt lat="48.51522" lon="2.09898">
        <ele>150.94248</ele>
        <time>2013-07-25T20:30:39Z</time>
      </trkpt>
      <trkpt lat="48.51554" lon="2.09779">
        <ele>150.12648</ele>
        <time>2013-07-25T20:30:44Z</time>
      </trkpt>
      <trkpt lat="48.5155" lon="2.09663">
        <ele>150.452388</ele>
        <time>2013-07-25T20:30:49Z</time>
      </trkpt>
      <trkpt lat="48.51501" lon="2.09556">
        <ele>151.469952</ele>
        <time>2013-07-25T20:30:54Z</time>
      </trkpt>
      <trkpt lat="48.51478" lon="2.09478">
        <ele>152.667101</ele>
        <time>2013-07-25T20:30:59Z</time>
      </trkpt>
      <trkpt lat="48.5148" lon="2.09388">
        <ele>153.891579</ele>
        <time>2013-07-25T20:31:04Z</time>
      </trkpt>
      <trkpt lat="48.51485" lon="2.09266">
        <ele>156.2087</ele>
        <time>2013-07-25T20:31:09Z</time>
      </trkpt>
      <trkpt lat="48.51506" lon="2.09125">
        <ele>156.300871</ele>
        <time>2013-07-25T20:31:14Z</time>
      </trkpt>
      <trkpt lat="48.51529" lon="2.08985">
        <ele>157.342422</ele>
        <time>2013-07-25T20:31:19Z</time>
      </trkpt>
      <trkpt lat="48.51555" lon="2.08825">
        <ele>156.786875</ele>
        <time>2013-07-25T20:31:24Z</time>
      </trkpt>
      <trkpt lat="48.51585" lon="2.08679">
        <ele>157.398317</ele>
        <time>2013-07-25T20:31:29Z</time>
      </trkpt>
      <trkpt lat="48.51617" lon="2.08531">
        <ele>158.161999</ele>
        <time>2013-07-25T20:31:34Z</time>
      </trkpt>
      <trkpt lat="48.51651" lon="2.08371">
        <ele>158.885332</ele>
        <time>2013-07-25T20:31:39Z</time>
      </trkpt>
      <trkpt lat="48.5168" lon="2.08207">
        <ele>158.440979</ele>
        <time>2013-07-25T20:31:44Z</time>
      </trkpt>
      <trkpt lat="48.517" lon="2.0806">
        <ele>157.701361</ele>
        <time>2013-07-25T20:31:49Z</time>
      </trkpt>
      <trkpt lat="48.5172" lon="2.07915">
        <ele>156.98769</ele>
        <time>2013-07-25T20:31:54Z</time>
      </trkpt>
      <trkpt lat="48.51729" lon="2.07781">
        <ele>156.543611</ele>
        <time>2013-07-25T20:31:59Z</time>
      </trkpt>
      <trkpt lat="48.51737" lon="2.07655">
        <ele>156.070686</ele>
        <time>2013-07-25T20:32:04Z</time>
      </trkpt>
      <trkpt lat="48.51743" lon="2.07565">
        <ele>155.47368</ele>
        <time>2013-07-25T20:32:09Z</time>
      </trkpt>
      <trkpt lat="48.51744" lon="2.07509">
        <ele>154.490173</ele>
        <time>2013-07-25T20:32:14Z</time>
      </trkpt>
      <trkpt lat="48.51778" lon="2.07478">
        <ele>155.519927</ele>
        <time>2013-07-25T20:32:19Z</time>
      </trkpt>
      <trkpt lat="48.51838" lon="2.07433">
        <ele>154.459243</ele>
        <time>2013-07-25T20:32:24Z</time>
      </trkpt>
      <trkpt lat="48.51874" lon="2.07406">
        <ele>153.575915</ele>
        <time>2013-07-25T20:32:29Z</time>
      </trkpt>
      <trkpt lat="48.51884" lon="2.07397">
        <ele>152.694859</ele>
        <time>2013-07-25T20:32:34Z</time>
      </trkpt>
      <trkpt lat="48.51884" lon="2.07399">
        <ele>152.718831</ele>
        <time>2013-07-25T20:32:39Z</time>
      </trkpt>
      <trkpt lat="48.51896" lon="2.07398">
        <ele>152.818037</ele>
        <time>2013-07-25T20:32:44Z</time>
      </trkpt>
      <trkpt lat="48.5192" lon="2.07421">
        <ele>152.036924</ele>
        <time>2013-07-25T20:32:49Z</time>
      </trkpt>
      <trkpt lat="48.51965" lon="2.07394">
        <ele>151.764973</ele>
        <time>2013-07-25T20:32:54Z</time>
      </trkpt>
      <trkpt lat="48.51997" lon="2.07391">
        <ele>151.052279</ele>
        <time>2013-07-25T20:32:59Z</time>
      </trkpt>
      <trkpt lat="48.52018" lon="2.07446">
        <ele>152.08358</ele>
        <time>2013-07-25T20:33:04Z</time>
      </trkpt>
      <trkpt lat="48.52059" lon="2.0744">
        <ele>149.087983</ele>
        <time>2013-07-25T20:33:09Z</time>
      </trkpt>
      <trkpt lat="48.521" lon="2.07473">
        <ele>150.359456</ele>
        <time>2013-07-25T20:33:14Z</time>
      </trkpt>
      <trkpt lat="48.52143" lon="2.07544">
        <ele>148.993384</ele>
        <time>2013-07-25T20:33:19Z</time>
      </trkpt>
      <trkpt lat="48.52179" lon="2.07594">
        <ele>145.333247</ele>
        <time>2013-07-25T20:33:24Z</time>
      </trkpt>
      <trkpt lat="48.52207" lon="2.07644">
        <ele>143.222693</ele>
        <time>2013-07-25T20:33:29Z</time>
      </trkpt>
      <trkpt lat="48.52233" lon="2.07684">
        <ele>142.930161</ele>
        <time>2013-07-25T20:33:34Z</time>
      </trkpt>
      <trkpt lat="48.52289" lon="2.07702">
        <ele>136.409662</ele>
        <time>2013-07-25T20:33:39Z</time>
      </trkpt>
      <trkpt lat="48.52351" lon="2.07717">
        <ele>132.438854</ele>
        <time>2013-07-25T20:33:44Z</time>
      </trkpt>
      <trkpt lat="48.52421" lon="2.07729">
        <ele>131.017978</ele>
        <time>2013-07-25T20:33:49Z</time>
      </trkpt>
      <trkpt lat="48.52493" lon="2.07744">
        <ele>129.158975</ele>
        <time>2013-07-25T20:33:54Z</time>
      </trkpt>
      <trkpt lat="48.52566" lon="2.07765">
        <ele>127.397052</ele>
        <time>2013-07-25T20:33:59Z</time>
      </trkpt>
      <trkpt lat="48.52637" lon="2.07799">
        <ele>122.304854</ele>
        <time>2013-07-25T20:34:04Z</time>
      </trkpt>
      <trkpt lat="48.52705" lon="2.07843">
        <ele>118.530665</ele>
        <time>2013-07-25T20:34:09Z</time>
      </trkpt>
      <trkpt lat="48.52771" lon="2.07871">
        <ele>116.478744</ele>
        <time>2013-07-25T20:34:14Z</time>
      </trkpt>
      <trkpt lat="48.52846" lon="2.07899">
        <ele>114.354199</ele>
        <time>2013-07-25T20:34:19Z</time>
      </trkpt>
      <trkpt lat="48.52923" lon="2.07914">
        <ele>112.76388</ele>
        <time>2013-07-25T20:34:24Z</time>
      </trkpt>
      <trkpt lat="48.52991" lon="2.0793">
        <ele>112.084775</ele>
        <time>2013-07-25T20:34:29Z</time>
      </trkpt>
      <trkpt lat="48.53059" lon="2.07972">
        <ele>112.524969</ele>
        <time>2013-07-25T20:34:34Z</time>
      </trkpt>
      <trkpt lat="48.53114" lon="2.08013">
        <ele>110.655663</ele>
        <time>2013-07-25T20:34:39Z</time>
      </trkpt>
      <trkpt lat="48.53152" lon="2.08073">
        <ele>108.009548</ele>
        <time>2013-07-25T20:34:44Z</time>
      </trkpt>
      <trkpt lat="48.53198" lon="2.0811">
        <ele>106.229876</ele>
        <time>2013-07-25T20:34:49Z</time>
      </trkpt>
      <trkpt lat="48.5326" lon="2.08089">
        <ele>102.968905</ele>
        <time>2013-07-25T20:34:54Z</time>
      </trkpt>
      <trkpt lat="48.53325" lon="2.081">
        <ele>99.113397</ele>
        <time>2013-07-25T20:34:59Z</time>
      </trkpt>
      <trkpt lat="48.53389" lon="2.08108">
        <ele>95.123021</ele>
        <time>2013-07-25T20:35:04Z</time>
      </trkpt>
      <trkpt lat="48.53446" lon="2.08112">
        <ele>91.284923</ele>
        <time>2013-07-25T20:35:09Z</time>
      </trkpt>
      <trkpt lat="48.53501" lon="2.08115">
        <ele>89.408584</ele>
        <time>2013-07-25T20:35:14Z</time>
      </trkpt>
      <trkpt lat="48.53541" lon="2.08116">
        <ele>86.568716</ele>
        <time>2013-07-25T20:35:19Z</time>
      </trkpt>
      <trkpt lat="48.53586" lon="2.08118">
        <ele>83.992141</ele>
        <time>2013-07-25T20:35:24Z</time>
      </trkpt>
      <trkpt lat="48.53613" lon="2.08119">
        <ele>84.4219</ele>
        <time>2013-07-25T20:35:29Z</time>
      </trkpt>
      <trkpt lat="48.53651" lon="2.08111">
        <ele>82.650344</ele>
        <time>2013-07-25T20:35:34Z</time>
      </trkpt>
      <trkpt lat="48.5368" lon="2.08096">
        <ele>82.217885</ele>
        <time>2013-07-25T20:35:39Z</time>
      </trkpt>
      <trkpt lat="48.5366" lon="2.08058">
        <ele>84.375159</ele>
        <time>2013-07-25T20:35:44Z</time>
      </trkpt>
      <trkpt lat="48.53628" lon="2.08052">
        <ele>87.006253</ele>
        <time>2013-07-25T20:35:49Z</time>
      </trkpt>
      <trkpt lat="48.53618" lon="2.07991">
        <ele>87.296157</ele>
        <time>2013-07-25T20:35:54Z</time>
      </trkpt>
      <trkpt lat="48.5363" lon="2.07936">
        <ele>86.350605</ele>
        <time>2013-07-25T20:35:59Z</time>
      </trkpt>
      <trkpt lat="48.53613" lon="2.07827">
        <ele>85.274606</ele>
        <time>2013-07-25T20:36:04Z</time>
      </trkpt>
      <trkpt lat="48.53595" lon="2.07735">
        <ele>84.424031</ele>
        <time>2013-07-25T20:36:09Z</time>
      </trkpt>
      <trkpt lat="48.53571" lon="2.07641">
        <ele>83.087998</ele>
        <time>2013-07-25T20:36:14Z</time>
      </trkpt>
      <trkpt lat="48.53541" lon="2.07569">
        <ele>82.559325</ele>
        <time>2013-07-25T20:36:19Z</time>
      </trkpt>
      <trkpt lat="48.53496" lon="2.07471">
        <ele>81.84762</ele>
        <time>2013-07-25T20:36:24Z</time>
      </trkpt>
      <trkpt lat="48.53447" lon="2.07377">
        <ele>82.357253</ele>
        <time>2013-07-25T20:36:29Z</time>
      </trkpt>
      <trkpt lat="48.53387" lon="2.07284">
        <ele>83.602322</ele>
        <time>2013-07-25T20:36:34Z</time>
      </trkpt>
      <trkpt lat="48.53337" lon="2.07196">
        <ele>85.645302</ele>
        <time>2013-07-25T20:36:39Z</time>
      </trkpt>
      <trkpt lat="48.53297" lon="2.0711">
        <ele>87.664643</ele>
        <time>2013-07-25T20:36:44Z</time>
      </trkpt>
      <trkpt lat="48.53271" lon="2.07055">
        <ele>89.101675</ele>
        <time>2013-07-25T20:36:49Z</time>
      </trkpt>
      <trkpt lat="48.53224" lon="2.06981">
        <ele>92.972851</ele>
        <time>2013-07-25T20:36:54Z</time>
      </trkpt>
      <trkpt lat="48.53183" lon="2.06908">
        <ele>95.871588</ele>
        <time>2013-07-25T20:36:59Z</time>
      </trkpt>
      <trkpt lat="48.5317" lon="2.06891">
        <ele>98.942486</ele>
        <time>2013-07-25T20:37:04Z</time>
      </trkpt>
      <trkpt lat="48.53164" lon="2.06924">
        <ele>101.262879</ele>
        <time>2013-07-25T20:37:09Z</time>
      </trkpt>
      <trkpt lat="48.5315" lon="2.06959">
        <ele>103.082022</ele>
        <time>2013-07-25T20:37:14Z</time>
      </trkpt>
      <trkpt lat="48.53146" lon="2.06966">
        <ele>104.350063</ele>
        <time>2013-07-25T20:37:19Z</time>
      </trkpt>
      <trkpt lat="48.53154" lon="2.06971">
        <ele>107.131404</ele>
        <time>2013-07-25T20:37:24Z</time>
      </trkpt>
      <trkpt lat="48.53154" lon="2.06971">
        <ele>107.131404</ele>
        <time>2013-07-25T20:37:29Z</time>
      </trkpt>
      <trkpt lat="48.53156" lon="2.06975">
        <ele>105.217825</ele>
        <time>2013-07-25T20:37:34Z</time>
      </trkpt>
      <trkpt lat="48.53155" lon="2.06977">
        <ele>105.903517</ele>
        <time>2013-07-25T20:37:39Z</time>
      </trkpt>
      <trkpt lat="48.53156" lon="2.06977">
        <ele>105.991062</ele>
        <time>2013-07-25T20:37:44Z</time>
      </trkpt>
      <trkpt lat="48.53157" lon="2.06977">
        <ele>106.740383</ele>
        <time>2013-07-25T20:37:49Z</time>
      </trkpt>
      <trkpt lat="48.53156" lon="2.06977">
        <ele>105.991062</ele>
        <time>2013-07-25T20:37:54Z</time>
      </trkpt>
      <trkpt lat="48.53158" lon="2.06977">
        <ele>106.078608</ele>
        <time>2013-07-25T20:37:59Z</time>
      </trkpt>
      <trkpt lat="48.53159" lon="2.0698">
        <ele>106.213987</ele>
        <time>2013-07-25T20:38:04Z</time>
      </trkpt>
      <trkpt lat="48.53162" lon="2.06984">
        <ele>107.210152</ele>
        <time>2013-07-25T20:38:09Z</time>
      </trkpt>
      <trkpt lat="48.53165" lon="2.06988">
        <ele>108.20632</ele>
        <time>2013-07-25T20:38:14Z</time>
      </trkpt>
      <trkpt lat="48.53165" lon="2.06987">
        <ele>108.182403</ele>
        <time>2013-07-25T20:38:19Z</time>
      </trkpt>
      <trkpt lat="48.53164" lon="2.06986">
        <ele>108.094855</ele>
        <time>2013-07-25T20:38:24Z</time>
      </trkpt>
      <trkpt lat="48.53164" lon="2.06985">
        <ele>108.070938</ele>
        <time>2013-07-25T20:38:29Z</time>
      </trkpt>
      <trkpt lat="48.53164" lon="2.06986">
        <ele>108.094855</ele>
        <time>2013-07-25T20:38:34Z</time>
      </trkpt>
      <trkpt lat="48.53163" lon="2.06986">
        <ele>108.75663</ele>
        <time>2013-07-25T20:38:39Z</time>
      </trkpt>
      <trkpt lat="48.53163" lon="2.06986">
        <ele>108.75663</ele>
        <time>2013-07-25T20:38:44Z</time>
      </trkpt>
      <trkpt lat="48.53163" lon="2.06986">
        <ele>108.75663</ele>
        <time>2013-07-25T20:38:49Z</time>
      </trkpt>
      <trkpt lat="48.53163" lon="2.06985">
        <ele>108.732712</ele>
        <time>2013-07-25T20:38:54Z</time>
      </trkpt>
      <trkpt lat="48.53164" lon="2.06985">
        <ele>109.482034</ele>
        <time>2013-07-25T20:38:59Z</time>
      </trkpt>
      <trkpt lat="48.53164" lon="2.06985">
        <ele>109.482034</ele>
        <time>2013-07-25T20:39:04Z</time>
      </trkpt>
      <trkpt lat="48.53164" lon="2.06985">
        <ele>109.482034</ele>
        <time>2013-07-25T20:39:09Z</time>
      </trkpt>
      <trkpt lat="48.53164" lon="2.06985">
        <ele>109.482034</ele>
        <time>2013-07-25T20:39:14Z</time>
      </trkpt>
      <trkpt lat="48.53164" lon="2.06985">
        <ele>109.482034</ele>
        <time>2013-07-25T20:39:19Z</time>
      </trkpt>
      <trkpt lat="48.53164" lon="2.06985">
        <ele>109.482034</ele>
        <time>2013-07-25T20:39:24Z</time>
      </trkpt>
      <trkpt lat="48.53164" lon="2.06985">
        <ele>109.482034</ele>
        <time>2013-07-25T20:39:29Z</time>
      </trkpt>
      <trkpt lat="48.53164" lon="2.06985">
        <ele>109.482034</ele>
        <time>2013-07-25T20:39:34Z</time>
      </trkpt>
      <trkpt lat="48.53163" lon="2.06982">
        <ele>110.095973</ele>
        <time>2013-07-25T20:39:39Z</time>
      </trkpt>
      <trkpt lat="48.53163" lon="2.06986">
        <ele>110.167725</ele>
        <time>2013-07-25T20:39:44Z</time>
      </trkpt>
      <trkpt lat="48.53162" lon="2.06988">
        <ele>110.853418</ele>
        <time>2013-07-25T20:39:49Z</time>
      </trkpt>
      <trkpt lat="48.53164" lon="2.06989">
        <ele>110.964882</ele>
        <time>2013-07-25T20:39:54Z</time>
      </trkpt>
      <trkpt lat="48.53164" lon="2.06989">
        <ele>110.964882</ele>
        <time>2013-07-25T20:39:59Z</time>
      </trkpt>
      <trkpt lat="48.53164" lon="2.06989">
        <ele>110.964882</ele>
        <time>2013-07-25T20:40:04Z</time>
      </trkpt>
      <trkpt lat="48.53164" lon="2.06989">
        <ele>110.964882</ele>
        <time>2013-07-25T20:40:09Z</time>
      </trkpt>
      <trkpt lat="48.53164" lon="2.06989">
        <ele>110.964882</ele>
        <time>2013-07-25T20:40:14Z</time>
      </trkpt>
      <trkpt lat="48.53164" lon="2.06989">
        <ele>110.964882</ele>
        <time>2013-07-25T20:40:19Z</time>
      </trkpt>
      <trkpt lat="48.53164" lon="2.06989">
        <ele>110.964882</ele>
        <time>2013-07-25T20:40:24Z</time>
      </trkpt>
      <trkpt lat="48.53164" lon="2.06989">
        <ele>110.964882</ele>
        <time>2013-07-25T20:40:29Z</time>
      </trkpt>
      <trkpt lat="48.53164" lon="2.06989">
        <ele>110.964882</ele>
        <time>2013-07-25T20:40:34Z</time>
      </trkpt>
      <trkpt lat="48.53164" lon="2.06989">
        <ele>110.964882</ele>
        <time>2013-07-25T20:40:39Z</time>
      </trkpt>
      <trkpt lat="48.53164" lon="2.06989">
        <ele>110.964882</ele>
        <time>2013-07-25T20:40:44Z</time>
      </trkpt>
      <trkpt lat="48.53164" lon="2.06989">
        <ele>110.964882</ele>
        <time>2013-07-25T20:40:49Z</time>
      </trkpt>
      <trkpt lat="48.53164" lon="2.06989">
        <ele>110.964882</ele>
        <time>2013-07-25T20:40:54Z</time>
      </trkpt>
      <trkpt lat="48.53164" lon="2.06989">
        <ele>110.964882</ele>
        <time>2013-07-25T20:40:59Z</time>
      </trkpt>
      <trkpt lat="48.53162" lon="2.06992">
        <ele>110.925172</ele>
        <time>2013-07-25T20:41:04Z</time>
      </trkpt>
      <trkpt lat="48.5316" lon="2.06994">
        <ele>111.547237</ele>
        <time>2013-07-25T20:41:09Z</time>
      </trkpt>
      <trkpt lat="48.5316" lon="2.06998">
        <ele>111.618993</ele>
        <time>2013-07-25T20:41:14Z</time>
      </trkpt>
      <trkpt lat="48.5316" lon="2.06998">
        <ele>111.618993</ele>
        <time>2013-07-25T20:41:19Z</time>
      </trkpt>
      <trkpt lat="48.53158" lon="2.06998">
        <ele>112.193222</ele>
        <time>2013-07-25T20:41:24Z</time>
      </trkpt>
      <trkpt lat="48.53155" lon="2.07001">
        <ele>111.316649</ele>
        <time>2013-07-25T20:41:29Z</time>
      </trkpt>
      <trkpt lat="48.53154" lon="2.07002">
        <ele>111.253023</ele>
        <time>2013-07-25T20:41:34Z</time>
      </trkpt>
      <trkpt lat="48.53154" lon="2.07002">
        <ele>111.253023</ele>
        <time>2013-07-25T20:41:39Z</time>
      </trkpt>
      <trkpt lat="48.53153" lon="2.07002">
        <ele>110.503703</ele>
        <time>2013-07-25T20:41:44Z</time>
      </trkpt>
      <trkpt lat="48.53152" lon="2.07001">
        <ele>111.141559</ele>
        <time>2013-07-25T20:41:49Z</time>
      </trkpt>
      <trkpt lat="48.53154" lon="2.07002">
        <ele>111.253023</ele>
        <time>2013-07-25T20:41:54Z</time>
      </trkpt>
      <trkpt lat="48.53155" lon="2.07004">
        <ele>111.364487</ele>
        <time>2013-07-25T20:41:59Z</time>
      </trkpt>
      <trkpt lat="48.53156" lon="2.07002">
        <ele>111.428113</ele>
        <time>2013-07-25T20:42:04Z</time>
      </trkpt>
      <trkpt lat="48.53157" lon="2.07002">
        <ele>110.766338</ele>
        <time>2013-07-25T20:42:09Z</time>
      </trkpt>
      <trkpt lat="48.53158" lon="2.07">
        <ele>110.806045</ele>
        <time>2013-07-25T20:42:14Z</time>
      </trkpt>
      <trkpt lat="48.53159" lon="2.07">
        <ele>110.14427</ele>
        <time>2013-07-25T20:42:19Z</time>
      </trkpt>
      <trkpt lat="48.53159" lon="2.06998">
        <ele>108.709255</ele>
        <time>2013-07-25T20:42:24Z</time>
      </trkpt>
      <trkpt lat="48.53159" lon="2.06997">
        <ele>107.27424</ele>
        <time>2013-07-25T20:42:29Z</time>
      </trkpt>
      <trkpt lat="48.53159" lon="2.06996">
        <ele>107.250321</ele>
        <time>2013-07-25T20:42:34Z</time>
      </trkpt>
      <trkpt lat="48.53159" lon="2.06993">
        <ele>107.202484</ele>
        <time>2013-07-25T20:42:39Z</time>
      </trkpt>
      <trkpt lat="48.5316" lon="2.06992">
        <ele>107.927887</ele>
        <time>2013-07-25T20:42:44Z</time>
      </trkpt>
      <trkpt lat="48.53159" lon="2.06992">
        <ele>107.178566</ele>
        <time>2013-07-25T20:42:49Z</time>
      </trkpt>
      <trkpt lat="48.53158" lon="2.06993">
        <ele>108.526034</ele>
        <time>2013-07-25T20:42:54Z</time>
      </trkpt>
      <trkpt lat="48.53155" lon="2.0699">
        <ele>108.303107</ele>
        <time>2013-07-25T20:42:59Z</time>
      </trkpt>
      <trkpt lat="48.53155" lon="2.0699">
        <ele>108.964882</ele>
        <time>2013-07-25T20:43:04Z</time>
      </trkpt>
      <trkpt lat="48.53155" lon="2.0699">
        <ele>109.714203</ele>
        <time>2013-07-25T20:43:09Z</time>
      </trkpt>
      <trkpt lat="48.53155" lon="2.0699">
        <ele>109.714203</ele>
        <time>2013-07-25T20:43:14Z</time>
      </trkpt>
      <trkpt lat="48.53155" lon="2.0699">
        <ele>109.714203</ele>
        <time>2013-07-25T20:43:19Z</time>
      </trkpt>
      <trkpt lat="48.53155" lon="2.0699">
        <ele>109.714203</ele>
        <time>2013-07-25T20:43:24Z</time>
      </trkpt>
      <trkpt lat="48.53155" lon="2.0699">
        <ele>109.714203</ele>
        <time>2013-07-25T20:43:29Z</time>
      </trkpt>
      <trkpt lat="48.53157" lon="2.06989">
        <ele>109.116055</ele>
        <time>2013-07-25T20:43:34Z</time>
      </trkpt>
      <trkpt lat="48.5316" lon="2.06989">
        <ele>110.702243</ele>
        <time>2013-07-25T20:43:39Z</time>
      </trkpt>
      <trkpt lat="48.53159" lon="2.0699">
        <ele>109.97684</ele>
        <time>2013-07-25T20:43:44Z</time>
      </trkpt>
      <trkpt lat="48.53159" lon="2.0699">
        <ele>109.97684</ele>
        <time>2013-07-25T20:43:49Z</time>
      </trkpt>
      <trkpt lat="48.53159" lon="2.0699">
        <ele>109.97684</ele>
        <time>2013-07-25T20:43:54Z</time>
      </trkpt>
      <trkpt lat="48.53159" lon="2.0699">
        <ele>109.97684</ele>
        <time>2013-07-25T20:43:59Z</time>
      </trkpt>
      <trkpt lat="48.53159" lon="2.0699">
        <ele>109.97684</ele>
        <time>2013-07-25T20:44:04Z</time>
      </trkpt>
      <trkpt lat="48.53159" lon="2.0699">
        <ele>109.97684</ele>
        <time>2013-07-25T20:44:09Z</time>
      </trkpt>
      <trkpt lat="48.53159" lon="2.0699">
        <ele>109.97684</ele>
        <time>2013-07-25T20:44:14Z</time>
      </trkpt>
      <trkpt lat="48.53159" lon="2.0699">
        <ele>109.97684</ele>
        <time>2013-07-25T20:44:19Z</time>
      </trkpt>
      <trkpt lat="48.53159" lon="2.0699">
        <ele>109.97684</ele>
        <time>2013-07-25T20:44:24Z</time>
      </trkpt>
      <trkpt lat="48.53159" lon="2.0699">
        <ele>109.97684</ele>
        <time>2013-07-25T20:44:29Z</time>
      </trkpt>
      <trkpt lat="48.53159" lon="2.0699">
        <ele>109.97684</ele>
        <time>2013-07-25T20:44:34Z</time>
      </trkpt>
      <trkpt lat="48.53159" lon="2.0699">
        <ele>109.97684</ele>
        <time>2013-07-25T20:44:39Z</time>
      </trkpt>
      <trkpt lat="48.53159" lon="2.0699">
        <ele>109.97684</ele>
        <time>2013-07-25T20:44:44Z</time>
      </trkpt>
      <trkpt lat="48.53159" lon="2.0699">
        <ele>109.97684</ele>
        <time>2013-07-25T20:44:49Z</time>
      </trkpt>
      <trkpt lat="48.53159" lon="2.0699">
        <ele>109.97684</ele>
        <time>2013-07-25T20:44:54Z</time>
      </trkpt>
      <trkpt lat="48.53159" lon="2.0699">
        <ele>109.97684</ele>
        <time>2013-07-25T20:44:59Z</time>
      </trkpt>
      <trkpt lat="48.5316" lon="2.0699">
        <ele>110.064386</ele>
        <time>2013-07-25T20:45:04Z</time>
      </trkpt>
    </trkseg>
  </trk>
</gpx>